<?xml version="1.0" encoding="utf-8"?>
<gpx xmlns:xsi="http://www.w3.org/2001/XMLSchema-instance" xmlns:xsd="http://www.w3.org/2001/XMLSchema" version="1.1" creator="Shapelink.com" xmlns="http://www.topografix.com/GPX/1/1" xmlns:gpxtpx="http://www.garmin.com/xmlschemas/TrackPointExtension/v1">
  <metadata>
    <name>Kajakpaddling 3.09 km, 2016-07-19</name>
    <desc></desc>
    <author><name>Kim Kronberg</name></author> 
    <time>2016-07-19T10:36:40Z</time>
  </metadata>
  <trk>
    <name>Kajakpaddling 3.09 km, 2016-07-19</name>
    <trkseg>
      <trkpt lat="60.115739075525" lon="21.526736136597">
        <ele>0</ele>
        <time>2016-07-19T10:36:40Z</time>
      </trkpt>
      <trkpt lat="60.115738404973" lon="21.52673504695">
        <ele>0</ele>
        <time>2016-07-19T10:36:41Z</time>
      </trkpt>
      <trkpt lat="60.115736812412" lon="21.526735382226">
        <ele>0</ele>
        <time>2016-07-19T10:36:42Z</time>
      </trkpt>
      <trkpt lat="60.115735471308" lon="21.526737729158">
        <ele>1.2</ele>
        <time>2016-07-19T10:36:43Z</time>
      </trkpt>
      <trkpt lat="60.115730777444" lon="21.526742339203">
        <ele>1.2</ele>
        <time>2016-07-19T10:36:44Z</time>
      </trkpt>
      <trkpt lat="60.115730945082" lon="21.526742087746">
        <ele>1.2</ele>
        <time>2016-07-19T10:36:45Z</time>
      </trkpt>
      <trkpt lat="60.115722563182" lon="21.526744015583">
        <ele>1.2</ele>
        <time>2016-07-19T10:36:46Z</time>
      </trkpt>
      <trkpt lat="60.115717450223" lon="21.52674342885">
        <ele>1.2</ele>
        <time>2016-07-19T10:36:47Z</time>
      </trkpt>
      <trkpt lat="60.115708649228" lon="21.526737310063">
        <ele>1.2</ele>
        <time>2016-07-19T10:36:48Z</time>
      </trkpt>
      <trkpt lat="60.115700770242" lon="21.526736136597">
        <ele>1.2</ele>
        <time>2016-07-19T10:36:49Z</time>
      </trkpt>
      <trkpt lat="60.115696244016" lon="21.526729431077">
        <ele>1.2</ele>
        <time>2016-07-19T10:36:50Z</time>
      </trkpt>
      <trkpt lat="60.115689538496" lon="21.526724401937">
        <ele>1.2</ele>
        <time>2016-07-19T10:36:51Z</time>
      </trkpt>
      <trkpt lat="60.115681324234" lon="21.526721803548">
        <ele>1.2</ele>
        <time>2016-07-19T10:36:52Z</time>
      </trkpt>
      <trkpt lat="60.1156741158" lon="21.526717696417">
        <ele>1.2</ele>
        <time>2016-07-19T10:36:53Z</time>
      </trkpt>
      <trkpt lat="60.115666488271" lon="21.526716439132">
        <ele>1.2</ele>
        <time>2016-07-19T10:36:54Z</time>
      </trkpt>
      <trkpt lat="60.115657603457" lon="21.52671325401">
        <ele>1.2</ele>
        <time>2016-07-19T10:36:55Z</time>
      </trkpt>
      <trkpt lat="60.115649556833" lon="21.526708811603">
        <ele>1.2</ele>
        <time>2016-07-19T10:36:56Z</time>
      </trkpt>
      <trkpt lat="60.115643354227" lon="21.526703363368">
        <ele>1.2</ele>
        <time>2016-07-19T10:36:57Z</time>
      </trkpt>
      <trkpt lat="60.115634217956" lon="21.526691041975">
        <ele>1.2</ele>
        <time>2016-07-19T10:36:58Z</time>
      </trkpt>
      <trkpt lat="60.115623237667" lon="21.52668391736">
        <ele>1.2</ele>
        <time>2016-07-19T10:36:59Z</time>
      </trkpt>
      <trkpt lat="60.115612005921" lon="21.526675786917">
        <ele>1.2</ele>
        <time>2016-07-19T10:37:00Z</time>
      </trkpt>
      <trkpt lat="60.115602534374" lon="21.526667069741">
        <ele>1.2</ele>
        <time>2016-07-19T10:37:01Z</time>
      </trkpt>
      <trkpt lat="60.115594320112" lon="21.526661621506">
        <ele>1.2</ele>
        <time>2016-07-19T10:37:02Z</time>
      </trkpt>
      <trkpt lat="60.11558862042" lon="21.526667069741">
        <ele>1.2</ele>
        <time>2016-07-19T10:37:03Z</time>
      </trkpt>
      <trkpt lat="60.115573533" lon="21.526665225723">
        <ele>1.2</ele>
        <time>2016-07-19T10:37:04Z</time>
      </trkpt>
      <trkpt lat="60.115562804168" lon="21.526662292058">
        <ele>1.2</ele>
        <time>2016-07-19T10:37:05Z</time>
      </trkpt>
      <trkpt lat="60.115553164983" lon="21.526657011461">
        <ele>1.2</ele>
        <time>2016-07-19T10:37:06Z</time>
      </trkpt>
      <trkpt lat="60.115542184694" lon="21.526649383932">
        <ele>1.2</ele>
        <time>2016-07-19T10:37:07Z</time>
      </trkpt>
      <trkpt lat="60.115538161382" lon="21.526637062539">
        <ele>1.2</ele>
        <time>2016-07-19T10:37:08Z</time>
      </trkpt>
      <trkpt lat="60.115527516369" lon="21.526641588765">
        <ele>1.2</ele>
        <time>2016-07-19T10:37:09Z</time>
      </trkpt>
      <trkpt lat="60.11551653608" lon="21.526641002032">
        <ele>1.2</ele>
        <time>2016-07-19T10:37:10Z</time>
      </trkpt>
      <trkpt lat="60.115506561619" lon="21.526641588765">
        <ele>1.2</ele>
        <time>2016-07-19T10:37:11Z</time>
      </trkpt>
      <trkpt lat="60.115495413692" lon="21.526638906557">
        <ele>1.2</ele>
        <time>2016-07-19T10:37:12Z</time>
      </trkpt>
      <trkpt lat="60.115481835014" lon="21.526636811082">
        <ele>1.2</ele>
        <time>2016-07-19T10:37:13Z</time>
      </trkpt>
      <trkpt lat="60.115468507793" lon="21.526627423354">
        <ele>1.2</ele>
        <time>2016-07-19T10:37:14Z</time>
      </trkpt>
      <trkpt lat="60.1154561864" lon="21.526619544368">
        <ele>1.2</ele>
        <time>2016-07-19T10:37:15Z</time>
      </trkpt>
      <trkpt lat="60.115444535559" lon="21.526610827192">
        <ele>1.2</ele>
        <time>2016-07-19T10:37:16Z</time>
      </trkpt>
      <trkpt lat="60.115434477279" lon="21.526595991229">
        <ele>1.2</ele>
        <time>2016-07-19T10:37:17Z</time>
      </trkpt>
      <trkpt lat="60.115419976592" lon="21.526600768912">
        <ele>1.2</ele>
        <time>2016-07-19T10:37:18Z</time>
      </trkpt>
      <trkpt lat="60.115410169769" lon="21.526598338161">
        <ele>1.2</ele>
        <time>2016-07-19T10:37:19Z</time>
      </trkpt>
      <trkpt lat="60.115403464249" lon="21.526594314849">
        <ele>1.2</ele>
        <time>2016-07-19T10:37:20Z</time>
      </trkpt>
      <trkpt lat="60.115385191707" lon="21.526588698976">
        <ele>1.2</ele>
        <time>2016-07-19T10:37:21Z</time>
      </trkpt>
      <trkpt lat="60.115374630513" lon="21.526583586017">
        <ele>1.2</ele>
        <time>2016-07-19T10:37:22Z</time>
      </trkpt>
      <trkpt lat="60.115363734043" lon="21.526568582416">
        <ele>1.2</ele>
        <time>2016-07-19T10:37:23Z</time>
      </trkpt>
      <trkpt lat="60.115350490641" lon="21.526554752281">
        <ele>1.2</ele>
        <time>2016-07-19T10:37:24Z</time>
      </trkpt>
      <trkpt lat="60.115338672162" lon="21.526546370381">
        <ele>1.2</ele>
        <time>2016-07-19T10:37:25Z</time>
      </trkpt>
      <trkpt lat="60.11532542876" lon="21.526538239938">
        <ele>1.2</ele>
        <time>2016-07-19T10:37:26Z</time>
      </trkpt>
      <trkpt lat="60.115314029376" lon="21.52653723411">
        <ele>1.2</ele>
        <time>2016-07-19T10:37:27Z</time>
      </trkpt>
      <trkpt lat="60.115303384363" lon="21.526534300445">
        <ele>1.2</ele>
        <time>2016-07-19T10:37:28Z</time>
      </trkpt>
      <trkpt lat="60.115291984979" lon="21.526529774219">
        <ele>1.2</ele>
        <time>2016-07-19T10:37:29Z</time>
      </trkpt>
      <trkpt lat="60.115279747405" lon="21.526521392319">
        <ele>1.2</ele>
        <time>2016-07-19T10:37:30Z</time>
      </trkpt>
      <trkpt lat="60.115267258374" lon="21.526508903288">
        <ele>1.2</ele>
        <time>2016-07-19T10:37:31Z</time>
      </trkpt>
      <trkpt lat="60.115256194266" lon="21.526498425913">
        <ele>1.2</ele>
        <time>2016-07-19T10:37:32Z</time>
      </trkpt>
      <trkpt lat="60.115243621416" lon="21.526492223307">
        <ele>1.2</ele>
        <time>2016-07-19T10:37:33Z</time>
      </trkpt>
      <trkpt lat="60.115232473489" lon="21.526485098692">
        <ele>1.2</ele>
        <time>2016-07-19T10:37:34Z</time>
      </trkpt>
      <trkpt lat="60.115219313906" lon="21.526484092864">
        <ele>1.2</ele>
        <time>2016-07-19T10:37:35Z</time>
      </trkpt>
      <trkpt lat="60.115207495427" lon="21.526485433968">
        <ele>1.2</ele>
        <time>2016-07-19T10:37:36Z</time>
      </trkpt>
      <trkpt lat="60.115197269509" lon="21.526488283814">
        <ele>1.2</ele>
        <time>2016-07-19T10:37:37Z</time>
      </trkpt>
      <trkpt lat="60.115184696659" lon="21.526483254674">
        <ele>1.2</ele>
        <time>2016-07-19T10:37:38Z</time>
      </trkpt>
      <trkpt lat="60.115171117981" lon="21.526483925226">
        <ele>1.2</ele>
        <time>2016-07-19T10:37:39Z</time>
      </trkpt>
      <trkpt lat="60.115157623122" lon="21.526478728448">
        <ele>1.2</ele>
        <time>2016-07-19T10:37:40Z</time>
      </trkpt>
      <trkpt lat="60.115144631177" lon="21.526472609661">
        <ele>1.2</ele>
        <time>2016-07-19T10:37:41Z</time>
      </trkpt>
      <trkpt lat="60.115131220137" lon="21.526466658512">
        <ele>1.2</ele>
        <time>2016-07-19T10:37:42Z</time>
      </trkpt>
      <trkpt lat="60.115121413314" lon="21.526462216105">
        <ele>1.2</ele>
        <time>2016-07-19T10:37:43Z</time>
      </trkpt>
      <trkpt lat="60.115108672826" lon="21.526455510585">
        <ele>1.2</ele>
        <time>2016-07-19T10:37:44Z</time>
      </trkpt>
      <trkpt lat="60.115096938166" lon="21.52646347339">
        <ele>1.2</ele>
        <time>2016-07-19T10:37:45Z</time>
      </trkpt>
      <trkpt lat="60.115085957877" lon="21.526464479218">
        <ele>1.2</ele>
        <time>2016-07-19T10:37:46Z</time>
      </trkpt>
      <trkpt lat="60.115077492158" lon="21.526462467562">
        <ele>1.2</ele>
        <time>2016-07-19T10:37:47Z</time>
      </trkpt>
      <trkpt lat="60.115059387254" lon="21.526466323236">
        <ele>1.2</ele>
        <time>2016-07-19T10:37:48Z</time>
      </trkpt>
      <trkpt lat="60.115047820232" lon="21.5264626352">
        <ele>1.2</ele>
        <time>2016-07-19T10:37:49Z</time>
      </trkpt>
      <trkpt lat="60.115036085572" lon="21.526457773698">
        <ele>1.2</ele>
        <time>2016-07-19T10:37:50Z</time>
      </trkpt>
      <trkpt lat="60.11502116579" lon="21.526456181137">
        <ele>1.2</ele>
        <time>2016-07-19T10:37:51Z</time>
      </trkpt>
      <trkpt lat="60.115009263492" lon="21.526464060123">
        <ele>1.2</ele>
        <time>2016-07-19T10:37:52Z</time>
      </trkpt>
      <trkpt lat="60.114994762805" lon="21.526450146169">
        <ele>1.2</ele>
        <time>2016-07-19T10:37:53Z</time>
      </trkpt>
      <trkpt lat="60.114982189955" lon="21.526452325463">
        <ele>1.2</ele>
        <time>2016-07-19T10:37:54Z</time>
      </trkpt>
      <trkpt lat="60.114969700924" lon="21.526454504757">
        <ele>1.2</ele>
        <time>2016-07-19T10:37:55Z</time>
      </trkpt>
      <trkpt lat="60.114957379531" lon="21.526458528069">
        <ele>1.2</ele>
        <time>2016-07-19T10:37:56Z</time>
      </trkpt>
      <trkpt lat="60.114948327079" lon="21.526458695707">
        <ele>1.2</ele>
        <time>2016-07-19T10:37:57Z</time>
      </trkpt>
      <trkpt lat="60.114937262971" lon="21.526459785354">
        <ele>1.2</ele>
        <time>2016-07-19T10:37:58Z</time>
      </trkpt>
      <trkpt lat="60.114927372329" lon="21.526461377915">
        <ele>1.2</ele>
        <time>2016-07-19T10:37:59Z</time>
      </trkpt>
      <trkpt lat="60.114917816963" lon="21.526462970476">
        <ele>1.2</ele>
        <time>2016-07-19T10:38:00Z</time>
      </trkpt>
      <trkpt lat="60.114909602701" lon="21.526466574693">
        <ele>1.2</ele>
        <time>2016-07-19T10:38:01Z</time>
      </trkpt>
      <trkpt lat="60.114903316276" lon="21.526472274385">
        <ele>1.2</ele>
        <time>2016-07-19T10:38:02Z</time>
      </trkpt>
      <trkpt lat="60.114890072874" lon="21.526476549154">
        <ele>1.2</ele>
        <time>2016-07-19T10:38:03Z</time>
      </trkpt>
      <trkpt lat="60.114880266051" lon="21.526481494475">
        <ele>1.2</ele>
        <time>2016-07-19T10:38:04Z</time>
      </trkpt>
      <trkpt lat="60.114869956314" lon="21.526486439796">
        <ele>1.2</ele>
        <time>2016-07-19T10:38:05Z</time>
      </trkpt>
      <trkpt lat="60.114860317129" lon="21.526490463108">
        <ele>1.2</ele>
        <time>2016-07-19T10:38:06Z</time>
      </trkpt>
      <trkpt lat="60.11485185141" lon="21.526493732049">
        <ele>1.2</ele>
        <time>2016-07-19T10:38:07Z</time>
      </trkpt>
      <trkpt lat="60.114843972424" lon="21.526495911343">
        <ele>1.2</ele>
        <time>2016-07-19T10:38:08Z</time>
      </trkpt>
      <trkpt lat="60.114836177257" lon="21.526492558583">
        <ele>1.2</ele>
        <time>2016-07-19T10:38:09Z</time>
      </trkpt>
      <trkpt lat="60.114828633547" lon="21.526488786728">
        <ele>1.2</ele>
        <time>2016-07-19T10:38:10Z</time>
      </trkpt>
      <trkpt lat="60.114820754561" lon="21.526491301298">
        <ele>1.2</ele>
        <time>2016-07-19T10:38:11Z</time>
      </trkpt>
      <trkpt lat="60.114814635774" lon="21.526498174456">
        <ele>1.2</ele>
        <time>2016-07-19T10:38:12Z</time>
      </trkpt>
      <trkpt lat="60.114805667141" lon="21.526502197768">
        <ele>1.2</ele>
        <time>2016-07-19T10:38:13Z</time>
      </trkpt>
      <trkpt lat="60.114799715992" lon="21.526501611035">
        <ele>1.2</ele>
        <time>2016-07-19T10:38:14Z</time>
      </trkpt>
      <trkpt lat="60.114787562237" lon="21.526514351523">
        <ele>1.2</ele>
        <time>2016-07-19T10:38:15Z</time>
      </trkpt>
      <trkpt lat="60.11477222336" lon="21.526510579668">
        <ele>1.2</ele>
        <time>2016-07-19T10:38:16Z</time>
      </trkpt>
      <trkpt lat="60.114761662166" lon="21.526510076754">
        <ele>1.2</ele>
        <time>2016-07-19T10:38:17Z</time>
      </trkpt>
      <trkpt lat="60.114749256954" lon="21.526516027903">
        <ele>1.2</ele>
        <time>2016-07-19T10:38:18Z</time>
      </trkpt>
      <trkpt lat="60.114738276665" lon="21.526518207197">
        <ele>1.2</ele>
        <time>2016-07-19T10:38:19Z</time>
      </trkpt>
      <trkpt lat="60.114727883109" lon="21.526527678744">
        <ele>1.2</ele>
        <time>2016-07-19T10:38:20Z</time>
      </trkpt>
      <trkpt lat="60.114714220612" lon="21.526519883577">
        <ele>1.2</ele>
        <time>2016-07-19T10:38:21Z</time>
      </trkpt>
      <trkpt lat="60.114708437101" lon="21.526529522762">
        <ele>1.2</ele>
        <time>2016-07-19T10:38:22Z</time>
      </trkpt>
      <trkpt lat="60.114690499835" lon="21.526541508879">
        <ele>1.2</ele>
        <time>2016-07-19T10:38:23Z</time>
      </trkpt>
      <trkpt lat="60.114678094623" lon="21.526550226055">
        <ele>1.2</ele>
        <time>2016-07-19T10:38:24Z</time>
      </trkpt>
      <trkpt lat="60.114665018859" lon="21.526559613783">
        <ele>1.2</ele>
        <time>2016-07-19T10:38:25Z</time>
      </trkpt>
      <trkpt lat="60.114655882588" lon="21.526565397294">
        <ele>1.2</ele>
        <time>2016-07-19T10:38:26Z</time>
      </trkpt>
      <trkpt lat="60.11464230391" lon="21.52656740895">
        <ele>1.2</ele>
        <time>2016-07-19T10:38:27Z</time>
      </trkpt>
      <trkpt lat="60.114627467947" lon="21.526574701203">
        <ele>1.2</ele>
        <time>2016-07-19T10:38:28Z</time>
      </trkpt>
      <trkpt lat="60.11461548183" lon="21.526582831646">
        <ele>1.2</ele>
        <time>2016-07-19T10:38:29Z</time>
      </trkpt>
      <trkpt lat="60.114600729686" lon="21.526589872442">
        <ele>1.2</ele>
        <time>2016-07-19T10:38:30Z</time>
      </trkpt>
      <trkpt lat="60.114589414121" lon="21.526600517455">
        <ele>1.2</ele>
        <time>2016-07-19T10:38:31Z</time>
      </trkpt>
      <trkpt lat="60.114576338357" lon="21.526614263771">
        <ele>1.2</ele>
        <time>2016-07-19T10:38:32Z</time>
      </trkpt>
      <trkpt lat="60.114576003081" lon="21.526610240459">
        <ele>1.2</ele>
        <time>2016-07-19T10:38:33Z</time>
      </trkpt>
      <trkpt lat="60.11455261758" lon="21.526629686467">
        <ele>1.2</ele>
        <time>2016-07-19T10:38:34Z</time>
      </trkpt>
      <trkpt lat="60.114540631463" lon="21.526635889073">
        <ele>1.2</ele>
        <time>2016-07-19T10:38:35Z</time>
      </trkpt>
      <trkpt lat="60.114525963138" lon="21.526641840222">
        <ele>1.2</ele>
        <time>2016-07-19T10:38:36Z</time>
      </trkpt>
      <trkpt lat="60.114510624261" lon="21.526649467751">
        <ele>1.2</ele>
        <time>2016-07-19T10:38:37Z</time>
      </trkpt>
      <trkpt lat="60.114505930397" lon="21.526664890447">
        <ele>1.2</ele>
        <time>2016-07-19T10:38:38Z</time>
      </trkpt>
      <trkpt lat="60.114487825493" lon="21.52667050632">
        <ele>1.2</ele>
        <time>2016-07-19T10:38:39Z</time>
      </trkpt>
      <trkpt lat="60.114475923195" lon="21.526682911532">
        <ele>1.2</ele>
        <time>2016-07-19T10:38:40Z</time>
      </trkpt>
      <trkpt lat="60.114465864915" lon="21.526694059459">
        <ele>1.2</ele>
        <time>2016-07-19T10:38:41Z</time>
      </trkpt>
      <trkpt lat="60.114458572662" lon="21.526701435531">
        <ele>1.2</ele>
        <time>2016-07-19T10:38:42Z</time>
      </trkpt>
      <trkpt lat="60.114440383939" lon="21.526719540435">
        <ele>1.2</ele>
        <time>2016-07-19T10:38:43Z</time>
      </trkpt>
      <trkpt lat="60.114432002039" lon="21.526728257611">
        <ele>1.2</ele>
        <time>2016-07-19T10:38:44Z</time>
      </trkpt>
      <trkpt lat="60.11441431623" lon="21.52673420876">
        <ele>1.2</ele>
        <time>2016-07-19T10:38:45Z</time>
      </trkpt>
      <trkpt lat="60.114400234638" lon="21.526748793266">
        <ele>1.2</ele>
        <time>2016-07-19T10:38:46Z</time>
      </trkpt>
      <trkpt lat="60.114386153046" lon="21.526764215962">
        <ele>1.2</ele>
        <time>2016-07-19T10:38:47Z</time>
      </trkpt>
      <trkpt lat="60.114374166929" lon="21.526765808523">
        <ele>1.2</ele>
        <time>2016-07-19T10:38:48Z</time>
      </trkpt>
      <trkpt lat="60.114361761717" lon="21.526778968106">
        <ele>1.2</ele>
        <time>2016-07-19T10:38:49Z</time>
      </trkpt>
      <trkpt lat="60.114350529971" lon="21.526792379146">
        <ele>1.2</ele>
        <time>2016-07-19T10:38:50Z</time>
      </trkpt>
      <trkpt lat="60.114341728976" lon="21.52680294034">
        <ele>1.2</ele>
        <time>2016-07-19T10:38:51Z</time>
      </trkpt>
      <trkpt lat="60.114325719547" lon="21.526813417715">
        <ele>1.2</ele>
        <time>2016-07-19T10:38:52Z</time>
      </trkpt>
      <trkpt lat="60.11431205705" lon="21.526817441027">
        <ele>1.2</ele>
        <time>2016-07-19T10:38:53Z</time>
      </trkpt>
      <trkpt lat="60.114299651838" lon="21.526825068556">
        <ele>1.2</ele>
        <time>2016-07-19T10:38:54Z</time>
      </trkpt>
      <trkpt lat="60.114288671549" lon="21.526839233967">
        <ele>1.2</ele>
        <time>2016-07-19T10:38:55Z</time>
      </trkpt>
      <trkpt lat="60.114280457287" lon="21.526845520392">
        <ele>1.2</ele>
        <time>2016-07-19T10:38:56Z</time>
      </trkpt>
      <trkpt lat="60.114272913577" lon="21.52684568803">
        <ele>1.2</ele>
        <time>2016-07-19T10:38:57Z</time>
      </trkpt>
      <trkpt lat="60.114261849469" lon="21.526857171233">
        <ele>1.2</ele>
        <time>2016-07-19T10:38:58Z</time>
      </trkpt>
      <trkpt lat="60.114243660746" lon="21.526866558961">
        <ele>1.2</ele>
        <time>2016-07-19T10:38:59Z</time>
      </trkpt>
      <trkpt lat="60.114228824783" lon="21.526883071304">
        <ele>1.2</ele>
        <time>2016-07-19T10:39:00Z</time>
      </trkpt>
      <trkpt lat="60.114221700168" lon="21.52689430305">
        <ele>1.2</ele>
        <time>2016-07-19T10:39:01Z</time>
      </trkpt>
      <trkpt lat="60.114210216965" lon="21.526898913095">
        <ele>1.2</ele>
        <time>2016-07-19T10:39:02Z</time>
      </trkpt>
      <trkpt lat="60.114200745418" lon="21.526911821221">
        <ele>1.2</ele>
        <time>2016-07-19T10:39:03Z</time>
      </trkpt>
      <trkpt lat="60.114183730161" lon="21.526920957492">
        <ele>1.2</ele>
        <time>2016-07-19T10:39:04Z</time>
      </trkpt>
      <trkpt lat="60.114174510071" lon="21.526926908641">
        <ele>1.2</ele>
        <time>2016-07-19T10:39:05Z</time>
      </trkpt>
      <trkpt lat="60.114164116515" lon="21.526935793455">
        <ele>1.2</ele>
        <time>2016-07-19T10:39:06Z</time>
      </trkpt>
      <trkpt lat="60.114149532009" lon="21.526950042685">
        <ele>1.2</ele>
        <time>2016-07-19T10:39:07Z</time>
      </trkpt>
      <trkpt lat="60.1141402281" lon="21.526947444296">
        <ele>1.2</ele>
        <time>2016-07-19T10:39:08Z</time>
      </trkpt>
      <trkpt lat="60.114130337458" lon="21.526967309399">
        <ele>1.2</ele>
        <time>2016-07-19T10:39:09Z</time>
      </trkpt>
      <trkpt lat="60.114115836771" lon="21.526964962467">
        <ele>1.2</ele>
        <time>2016-07-19T10:39:10Z</time>
      </trkpt>
      <trkpt lat="60.114108795975" lon="21.526981810086">
        <ele>1.2</ele>
        <time>2016-07-19T10:39:11Z</time>
      </trkpt>
      <trkpt lat="60.114096306944" lon="21.526998406248">
        <ele>1.2</ele>
        <time>2016-07-19T10:39:12Z</time>
      </trkpt>
      <trkpt lat="60.114088092682" lon="21.527007877795">
        <ele>1.2</ele>
        <time>2016-07-19T10:39:13Z</time>
      </trkpt>
      <trkpt lat="60.114079710782" lon="21.527017349342">
        <ele>1.2</ele>
        <time>2016-07-19T10:39:14Z</time>
      </trkpt>
      <trkpt lat="60.114070574511" lon="21.527023719586">
        <ele>1.2</ele>
        <time>2016-07-19T10:39:15Z</time>
      </trkpt>
      <trkpt lat="60.114058588394" lon="21.527031514753">
        <ele>1.2</ele>
        <time>2016-07-19T10:39:16Z</time>
      </trkpt>
      <trkpt lat="60.114043752431" lon="21.527040567205">
        <ele>1.2</ele>
        <time>2016-07-19T10:39:17Z</time>
      </trkpt>
      <trkpt lat="60.114038974748" lon="21.527052972417">
        <ele>1.2</ele>
        <time>2016-07-19T10:39:18Z</time>
      </trkpt>
      <trkpt lat="60.114025060794" lon="21.527067473104">
        <ele>1.2</ele>
        <time>2016-07-19T10:39:19Z</time>
      </trkpt>
      <trkpt lat="60.114016343618" lon="21.527070406769">
        <ele>1.2</ele>
        <time>2016-07-19T10:39:20Z</time>
      </trkpt>
      <trkpt lat="60.114011733573" lon="21.527090690967">
        <ele>1.2</ele>
        <time>2016-07-19T10:39:21Z</time>
      </trkpt>
      <trkpt lat="60.11399438304" lon="21.527102509446">
        <ele>1.2</ele>
        <time>2016-07-19T10:39:22Z</time>
      </trkpt>
      <trkpt lat="60.113991449375" lon="21.527117764504">
        <ele>1.2</ele>
        <time>2016-07-19T10:39:23Z</time>
      </trkpt>
      <trkpt lat="60.113976110498" lon="21.527140982367">
        <ele>1.2</ele>
        <time>2016-07-19T10:39:24Z</time>
      </trkpt>
      <trkpt lat="60.113971416634" lon="21.527151711199">
        <ele>1.2</ele>
        <time>2016-07-19T10:39:25Z</time>
      </trkpt>
      <trkpt lat="60.113964627295" lon="21.527179706745">
        <ele>1.2</ele>
        <time>2016-07-19T10:39:26Z</time>
      </trkpt>
      <trkpt lat="60.113949288418" lon="21.527190351758">
        <ele>1.2</ele>
        <time>2016-07-19T10:39:27Z</time>
      </trkpt>
      <trkpt lat="60.113949539875" lon="21.527212312336">
        <ele>1.2</ele>
        <time>2016-07-19T10:39:28Z</time>
      </trkpt>
      <trkpt lat="60.113933027532" lon="21.527241900443">
        <ele>1.2</ele>
        <time>2016-07-19T10:39:29Z</time>
      </trkpt>
      <trkpt lat="60.113931770247" lon="21.527256568768">
        <ele>1.2</ele>
        <time>2016-07-19T10:39:30Z</time>
      </trkpt>
      <trkpt lat="60.113924142718" lon="21.527287581798">
        <ele>1.2</ele>
        <time>2016-07-19T10:39:31Z</time>
      </trkpt>
      <trkpt lat="60.113912910972" lon="21.527301998666">
        <ele>1.2</ele>
        <time>2016-07-19T10:39:32Z</time>
      </trkpt>
      <trkpt lat="60.11391475499" lon="21.527312392222">
        <ele>1.2</ele>
        <time>2016-07-19T10:39:33Z</time>
      </trkpt>
      <trkpt lat="60.113900924855" lon="21.52734692565">
        <ele>1.2</ele>
        <time>2016-07-19T10:39:34Z</time>
      </trkpt>
      <trkpt lat="60.113901092493" lon="21.527373915368">
        <ele>1.2</ele>
        <time>2016-07-19T10:39:35Z</time>
      </trkpt>
      <trkpt lat="60.113887429996" lon="21.527405096036">
        <ele>1.2</ele>
        <time>2016-07-19T10:39:36Z</time>
      </trkpt>
      <trkpt lat="60.113889693109" lon="21.527421273103">
        <ele>1.2</ele>
        <time>2016-07-19T10:39:37Z</time>
      </trkpt>
      <trkpt lat="60.113881562666" lon="21.527454046332">
        <ele>1.2</ele>
        <time>2016-07-19T10:39:38Z</time>
      </trkpt>
      <trkpt lat="60.113881814123" lon="21.527470474856">
        <ele>1.2</ele>
        <time>2016-07-19T10:39:39Z</time>
      </trkpt>
      <trkpt lat="60.113879299553" lon="21.527505678836">
        <ele>1.2</ele>
        <time>2016-07-19T10:39:40Z</time>
      </trkpt>
      <trkpt lat="60.113874270413" lon="21.527526382129">
        <ele>1.2</ele>
        <time>2016-07-19T10:39:41Z</time>
      </trkpt>
      <trkpt lat="60.113875611517" lon="21.52755479677">
        <ele>1.2</ele>
        <time>2016-07-19T10:39:42Z</time>
      </trkpt>
      <trkpt lat="60.113869408911" lon="21.527575835339">
        <ele>1.2</ele>
        <time>2016-07-19T10:39:43Z</time>
      </trkpt>
      <trkpt lat="60.113871420567" lon="21.527611374595">
        <ele>1.2</ele>
        <time>2016-07-19T10:39:44Z</time>
      </trkpt>
      <trkpt lat="60.113868570721" lon="21.527629060404">
        <ele>1.2</ele>
        <time>2016-07-19T10:39:45Z</time>
      </trkpt>
      <trkpt lat="60.11387452187" lon="21.527654792837">
        <ele>1.2</ele>
        <time>2016-07-19T10:39:46Z</time>
      </trkpt>
      <trkpt lat="60.113869744187" lon="21.52768974536">
        <ele>1.2</ele>
        <time>2016-07-19T10:39:47Z</time>
      </trkpt>
      <trkpt lat="60.113875862974" lon="21.527700977106">
        <ele>1.2</ele>
        <time>2016-07-19T10:39:48Z</time>
      </trkpt>
      <trkpt lat="60.113880305381" lon="21.527738276561">
        <ele>1.2</ele>
        <time>2016-07-19T10:39:49Z</time>
      </trkpt>
      <trkpt lat="60.113887849091" lon="21.527752525791">
        <ele>1.2</ele>
        <time>2016-07-19T10:39:50Z</time>
      </trkpt>
      <trkpt lat="60.113894051697" lon="21.52777188798">
        <ele>1.2</ele>
        <time>2016-07-19T10:39:51Z</time>
      </trkpt>
      <trkpt lat="60.113900254303" lon="21.527796111671">
        <ele>1.2</ele>
        <time>2016-07-19T10:39:52Z</time>
      </trkpt>
      <trkpt lat="60.113905953995" lon="21.527808935978">
        <ele>1.2</ele>
        <time>2016-07-19T10:39:53Z</time>
      </trkpt>
      <trkpt lat="60.113914838809" lon="21.527842128302">
        <ele>1.2</ele>
        <time>2016-07-19T10:39:54Z</time>
      </trkpt>
      <trkpt lat="60.113914084438" lon="21.527859395016">
        <ele>1.2</ele>
        <time>2016-07-19T10:39:55Z</time>
      </trkpt>
      <trkpt lat="60.113922214881" lon="21.527889569856">
        <ele>1.2</ele>
        <time>2016-07-19T10:39:56Z</time>
      </trkpt>
      <trkpt lat="60.113925483822" lon="21.52789845467">
        <ele>1.2</ele>
        <time>2016-07-19T10:39:57Z</time>
      </trkpt>
      <trkpt lat="60.113930512962" lon="21.52792443856">
        <ele>1.2</ele>
        <time>2016-07-19T10:39:58Z</time>
      </trkpt>
      <trkpt lat="60.113935877378" lon="21.527938939247">
        <ele>1.2</ele>
        <time>2016-07-19T10:39:59Z</time>
      </trkpt>
      <trkpt lat="60.113938643405" lon="21.527963917309">
        <ele>1.2</ele>
        <time>2016-07-19T10:40:00Z</time>
      </trkpt>
      <trkpt lat="60.113937721396" lon="21.527983363317">
        <ele>1.2</ele>
        <time>2016-07-19T10:40:01Z</time>
      </trkpt>
      <trkpt lat="60.113942918174" lon="21.528016555641">
        <ele>1.2</ele>
        <time>2016-07-19T10:40:02Z</time>
      </trkpt>
      <trkpt lat="60.113941912346" lon="21.528017561469">
        <ele>1.2</ele>
        <time>2016-07-19T10:40:03Z</time>
      </trkpt>
      <trkpt lat="60.113949288418" lon="21.528047317214">
        <ele>1.2</ele>
        <time>2016-07-19T10:40:04Z</time>
      </trkpt>
      <trkpt lat="60.113948366409" lon="21.528081683004">
        <ele>1.2</ele>
        <time>2016-07-19T10:40:05Z</time>
      </trkpt>
      <trkpt lat="60.113955993938" lon="21.528096518967">
        <ele>1.2</ele>
        <time>2016-07-19T10:40:06Z</time>
      </trkpt>
      <trkpt lat="60.113963705286" lon="21.528120323563">
        <ele>1.2</ele>
        <time>2016-07-19T10:40:07Z</time>
      </trkpt>
      <trkpt lat="60.113966890408" lon="21.528129627472">
        <ele>1.2</ele>
        <time>2016-07-19T10:40:08Z</time>
      </trkpt>
      <trkpt lat="60.11397091372" lon="21.528158880303">
        <ele>1.2</ele>
        <time>2016-07-19T10:40:09Z</time>
      </trkpt>
      <trkpt lat="60.11397594286" lon="21.528180757062">
        <ele>1.2</ele>
        <time>2016-07-19T10:40:10Z</time>
      </trkpt>
      <trkpt lat="60.113986420235" lon="21.5281976885">
        <ele>1.2</ele>
        <time>2016-07-19T10:40:11Z</time>
      </trkpt>
      <trkpt lat="60.1139893539" lon="21.528223085657">
        <ele>1.2</ele>
        <time>2016-07-19T10:40:12Z</time>
      </trkpt>
      <trkpt lat="60.113997149067" lon="21.528233814489">
        <ele>1.2</ele>
        <time>2016-07-19T10:40:13Z</time>
      </trkpt>
      <trkpt lat="60.114007207347" lon="21.528250326832">
        <ele>1.2</ele>
        <time>2016-07-19T10:40:14Z</time>
      </trkpt>
      <trkpt lat="60.114011733573" lon="21.528257283809">
        <ele>1.2</ele>
        <time>2016-07-19T10:40:15Z</time>
      </trkpt>
      <trkpt lat="60.114026066622" lon="21.528278406197">
        <ele>1.2</ele>
        <time>2016-07-19T10:40:16Z</time>
      </trkpt>
      <trkpt lat="60.114033023599" lon="21.528289973219">
        <ele>1.2</ele>
        <time>2016-07-19T10:40:17Z</time>
      </trkpt>
      <trkpt lat="60.114040399671" lon="21.52831084415">
        <ele>1.2</ele>
        <time>2016-07-19T10:40:18Z</time>
      </trkpt>
      <trkpt lat="60.114052301969" lon="21.528336073669">
        <ele>1.2</ele>
        <time>2016-07-19T10:40:19Z</time>
      </trkpt>
      <trkpt lat="60.114055319453" lon="21.52834101899">
        <ele>1.2</ele>
        <time>2016-07-19T10:40:20Z</time>
      </trkpt>
      <trkpt lat="60.114066383561" lon="21.528355352039">
        <ele>1.2</ele>
        <time>2016-07-19T10:40:21Z</time>
      </trkpt>
      <trkpt lat="60.114077615307" lon="21.528364655948">
        <ele>1.2</ele>
        <time>2016-07-19T10:40:22Z</time>
      </trkpt>
      <trkpt lat="60.114080129877" lon="21.528373792219">
        <ele>1.2</ele>
        <time>2016-07-19T10:40:23Z</time>
      </trkpt>
      <trkpt lat="60.114093876193" lon="21.52838711944">
        <ele>1.2</ele>
        <time>2016-07-19T10:40:24Z</time>
      </trkpt>
      <trkpt lat="60.114102844826" lon="21.528404972887">
        <ele>1.2</ele>
        <time>2016-07-19T10:40:25Z</time>
      </trkpt>
      <trkpt lat="60.11410921507" lon="21.528415282624">
        <ele>1.2</ele>
        <time>2016-07-19T10:40:26Z</time>
      </trkpt>
      <trkpt lat="60.114114328029" lon="21.52843908722">
        <ele>1.2</ele>
        <time>2016-07-19T10:40:27Z</time>
      </trkpt>
      <trkpt lat="60.114124973042" lon="21.528456018658">
        <ele>1.2</ele>
        <time>2016-07-19T10:40:28Z</time>
      </trkpt>
      <trkpt lat="60.114127739069" lon="21.528476219037">
        <ele>1.2</ele>
        <time>2016-07-19T10:40:29Z</time>
      </trkpt>
      <trkpt lat="60.114137964987" lon="21.528487115507">
        <ele>1.2</ele>
        <time>2016-07-19T10:40:30Z</time>
      </trkpt>
      <trkpt lat="60.114139138453" lon="21.528517374166">
        <ele>1.2</ele>
        <time>2016-07-19T10:40:31Z</time>
      </trkpt>
      <trkpt lat="60.114148861457" lon="21.528527348627">
        <ele>1.2</ele>
        <time>2016-07-19T10:40:32Z</time>
      </trkpt>
      <trkpt lat="60.114157243357" lon="21.528544447703">
        <ele>1.2</ele>
        <time>2016-07-19T10:40:33Z</time>
      </trkpt>
      <trkpt lat="60.114161099031" lon="21.528564564263">
        <ele>1.2</ele>
        <time>2016-07-19T10:40:34Z</time>
      </trkpt>
      <trkpt lat="60.114164870886" lon="21.528591721619">
        <ele>1.2</ele>
        <time>2016-07-19T10:40:35Z</time>
      </trkpt>
      <trkpt lat="60.114175515899" lon="21.528607228134">
        <ele>1.2</ele>
        <time>2016-07-19T10:40:36Z</time>
      </trkpt>
      <trkpt lat="60.114175767356" lon="21.528633631119">
        <ele>1.2</ele>
        <time>2016-07-19T10:40:37Z</time>
      </trkpt>
      <trkpt lat="60.114183897799" lon="21.528643940856">
        <ele>1.2</ele>
        <time>2016-07-19T10:40:38Z</time>
      </trkpt>
      <trkpt lat="60.114185993274" lon="21.528674450972">
        <ele>1.2</ele>
        <time>2016-07-19T10:40:39Z</time>
      </trkpt>
      <trkpt lat="60.114195297183" lon="21.52869641155">
        <ele>1.2</ele>
        <time>2016-07-19T10:40:40Z</time>
      </trkpt>
      <trkpt lat="60.114202002703" lon="21.528731196435">
        <ele>1.2</ele>
        <time>2016-07-19T10:40:41Z</time>
      </trkpt>
      <trkpt lat="60.114206612748" lon="21.528750810081">
        <ele>1.2</ele>
        <time>2016-07-19T10:40:42Z</time>
      </trkpt>
      <trkpt lat="60.114215581381" lon="21.528776374876">
        <ele>1.2</ele>
        <time>2016-07-19T10:40:43Z</time>
      </trkpt>
      <trkpt lat="60.114217844494" lon="21.528807136449">
        <ele>1.2</ele>
        <time>2016-07-19T10:40:44Z</time>
      </trkpt>
      <trkpt lat="60.114224550014" lon="21.528815266892">
        <ele>1.2</ele>
        <time>2016-07-19T10:40:45Z</time>
      </trkpt>
      <trkpt lat="60.114229746792" lon="21.52885315308">
        <ele>1.2</ele>
        <time>2016-07-19T10:40:46Z</time>
      </trkpt>
      <trkpt lat="60.114237039045" lon="21.528870084518">
        <ele>1.2</ele>
        <time>2016-07-19T10:40:47Z</time>
      </trkpt>
      <trkpt lat="60.114245169488" lon="21.528899085892">
        <ele>1.2</ele>
        <time>2016-07-19T10:40:48Z</time>
      </trkpt>
      <trkpt lat="60.114249444257" lon="21.528920040642">
        <ele>1.2</ele>
        <time>2016-07-19T10:40:49Z</time>
      </trkpt>
      <trkpt lat="60.114261598012" lon="21.52893697208">
        <ele>1.2</ele>
        <time>2016-07-19T10:40:50Z</time>
      </trkpt>
      <trkpt lat="60.114266878609" lon="21.528964548531">
        <ele>1.2</ele>
        <time>2016-07-19T10:40:51Z</time>
      </trkpt>
      <trkpt lat="60.114277272165" lon="21.528976115553">
        <ele>1.2</ele>
        <time>2016-07-19T10:40:52Z</time>
      </trkpt>
      <trkpt lat="60.114287917178" lon="21.528987850213">
        <ele>1.2</ele>
        <time>2016-07-19T10:40:53Z</time>
      </trkpt>
      <trkpt lat="60.11429445506" lon="21.529000171606">
        <ele>1.2</ele>
        <time>2016-07-19T10:40:54Z</time>
      </trkpt>
      <trkpt lat="60.114310715946" lon="21.529026406953">
        <ele>1.2</ele>
        <time>2016-07-19T10:40:55Z</time>
      </trkpt>
      <trkpt lat="60.114315158353" lon="21.529036968147">
        <ele>1.2</ele>
        <time>2016-07-19T10:40:56Z</time>
      </trkpt>
      <trkpt lat="60.114323288796" lon="21.529060269829">
        <ele>1.2</ele>
        <time>2016-07-19T10:40:57Z</time>
      </trkpt>
      <trkpt lat="60.114328150298" lon="21.529089103565">
        <ele>1.2</ele>
        <time>2016-07-19T10:40:58Z</time>
      </trkpt>
      <trkpt lat="60.114342650985" lon="21.529096647275">
        <ele>1.2</ele>
        <time>2016-07-19T10:40:59Z</time>
      </trkpt>
      <trkpt lat="60.114344830279" lon="21.529131515979">
        <ele>1.2</ele>
        <time>2016-07-19T10:41:00Z</time>
      </trkpt>
      <trkpt lat="60.114352960722" lon="21.529139311146">
        <ele>1.2</ele>
        <time>2016-07-19T10:41:01Z</time>
      </trkpt>
      <trkpt lat="60.114360169156" lon="21.529173844574">
        <ele>1.2</ele>
        <time>2016-07-19T10:41:02Z</time>
      </trkpt>
      <trkpt lat="60.114363689554" lon="21.529184573406">
        <ele>1.2</ele>
        <time>2016-07-19T10:41:03Z</time>
      </trkpt>
      <trkpt lat="60.114375340395" lon="21.529213742418">
        <ele>1.2</ele>
        <time>2016-07-19T10:41:04Z</time>
      </trkpt>
      <trkpt lat="60.114379279888" lon="21.529237630833">
        <ele>1.2</ele>
        <time>2016-07-19T10:41:05Z</time>
      </trkpt>
      <trkpt lat="60.11439084691" lon="21.529249868407">
        <ele>1.2</ele>
        <time>2016-07-19T10:41:06Z</time>
      </trkpt>
      <trkpt lat="60.114395373136" lon="21.529282054903">
        <ele>1.2</ele>
        <time>2016-07-19T10:41:07Z</time>
      </trkpt>
      <trkpt lat="60.114404593226" lon="21.529286329672">
        <ele>1.2</ele>
        <time>2016-07-19T10:41:08Z</time>
      </trkpt>
      <trkpt lat="60.114413980954" lon="21.529316923607">
        <ele>1.2</ele>
        <time>2016-07-19T10:41:09Z</time>
      </trkpt>
      <trkpt lat="60.114421692302" lon="21.529325221688">
        <ele>1.2</ele>
        <time>2016-07-19T10:41:10Z</time>
      </trkpt>
      <trkpt lat="60.114429487469" lon="21.529353384872">
        <ele>1.2</ele>
        <time>2016-07-19T10:41:11Z</time>
      </trkpt>
      <trkpt lat="60.114439378111" lon="21.529355983261">
        <ele>1.2</ele>
        <time>2016-07-19T10:41:12Z</time>
      </trkpt>
      <trkpt lat="60.114447592373" lon="21.529386158101">
        <ele>1.2</ele>
        <time>2016-07-19T10:41:13Z</time>
      </trkpt>
      <trkpt lat="60.114455722816" lon="21.529388840309">
        <ele>1.2</ele>
        <time>2016-07-19T10:41:14Z</time>
      </trkpt>
      <trkpt lat="60.114463015069" lon="21.529409962697">
        <ele>1.2</ele>
        <time>2016-07-19T10:41:15Z</time>
      </trkpt>
      <trkpt lat="60.114472570435" lon="21.529420188615">
        <ele>1.2</ele>
        <time>2016-07-19T10:41:16Z</time>
      </trkpt>
      <trkpt lat="60.114485394742" lon="21.529442065374">
        <ele>1.2</ele>
        <time>2016-07-19T10:41:17Z</time>
      </trkpt>
      <trkpt lat="60.114489837149" lon="21.529451788378">
        <ele>1.2</ele>
        <time>2016-07-19T10:41:18Z</time>
      </trkpt>
      <trkpt lat="60.114504421655" lon="21.529464864142">
        <ele>1.2</ele>
        <time>2016-07-19T10:41:19Z</time>
      </trkpt>
      <trkpt lat="60.114510205166" lon="21.529483639598">
        <ele>1.2</ele>
        <time>2016-07-19T10:41:20Z</time>
      </trkpt>
      <trkpt lat="60.114521856007" lon="21.529487579091">
        <ele>1.2</ele>
        <time>2016-07-19T10:41:21Z</time>
      </trkpt>
      <trkpt lat="60.114531243735" lon="21.529516748103">
        <ele>1.2</ele>
        <time>2016-07-19T10:41:22Z</time>
      </trkpt>
      <trkpt lat="60.114539541816" lon="21.529513479162">
        <ele>1.2</ele>
        <time>2016-07-19T10:41:23Z</time>
      </trkpt>
      <trkpt lat="60.11455429396" lon="21.529546252391">
        <ele>1.2</ele>
        <time>2016-07-19T10:41:24Z</time>
      </trkpt>
      <trkpt lat="60.114562256765" lon="21.529541139432">
        <ele>1.2</ele>
        <time>2016-07-19T10:41:25Z</time>
      </trkpt>
      <trkpt lat="60.114577092728" lon="21.529563183829">
        <ele>1.2</ele>
        <time>2016-07-19T10:41:26Z</time>
      </trkpt>
      <trkpt lat="60.114584133524" lon="21.529559663431">
        <ele>1.2</ele>
        <time>2016-07-19T10:41:27Z</time>
      </trkpt>
      <trkpt lat="60.114600142953" lon="21.529567961512">
        <ele>1.2</ele>
        <time>2016-07-19T10:41:28Z</time>
      </trkpt>
      <trkpt lat="60.114609111586" lon="21.529573577385">
        <ele>1.2</ele>
        <time>2016-07-19T10:41:29Z</time>
      </trkpt>
      <trkpt lat="60.114622690264" lon="21.529571146634">
        <ele>1.2</ele>
        <time>2016-07-19T10:41:30Z</time>
      </trkpt>
      <trkpt lat="60.114634424924" lon="21.529563854381">
        <ele>1.2</ele>
        <time>2016-07-19T10:41:31Z</time>
      </trkpt>
      <trkpt lat="60.114641214263" lon="21.529560920716">
        <ele>1.2</ele>
        <time>2016-07-19T10:41:32Z</time>
      </trkpt>
      <trkpt lat="60.114656469321" lon="21.529552287359">
        <ele>1.2</ele>
        <time>2016-07-19T10:41:33Z</time>
      </trkpt>
      <trkpt lat="60.114663677755" lon="21.529549437513">
        <ele>1.2</ele>
        <time>2016-07-19T10:41:34Z</time>
      </trkpt>
      <trkpt lat="60.114683710496" lon="21.529537619034">
        <ele>1.2</ele>
        <time>2016-07-19T10:41:35Z</time>
      </trkpt>
      <trkpt lat="60.114688320541" lon="21.529534769188">
        <ele>1.2</ele>
        <time>2016-07-19T10:41:36Z</time>
      </trkpt>
      <trkpt lat="60.114704497608" lon="21.529537619034">
        <ele>1.2</ele>
        <time>2016-07-19T10:41:37Z</time>
      </trkpt>
      <trkpt lat="60.114718327743" lon="21.529542396717">
        <ele>1.2</ele>
        <time>2016-07-19T10:41:38Z</time>
      </trkpt>
      <trkpt lat="60.114727464014" lon="21.529532254618">
        <ele>1.2</ele>
        <time>2016-07-19T10:41:39Z</time>
      </trkpt>
      <trkpt lat="60.114746323289" lon="21.529532841351">
        <ele>1.2</ele>
        <time>2016-07-19T10:41:40Z</time>
      </trkpt>
      <trkpt lat="60.114753196447" lon="21.529525968193">
        <ele>1.2</ele>
        <time>2016-07-19T10:41:41Z</time>
      </trkpt>
      <trkpt lat="60.114765266383" lon="21.529515155542">
        <ele>1.2</ele>
        <time>2016-07-19T10:41:42Z</time>
      </trkpt>
      <trkpt lat="60.11477306155" lon="21.529513395343">
        <ele>1.2</ele>
        <time>2016-07-19T10:41:43Z</time>
      </trkpt>
      <trkpt lat="60.114785885857" lon="21.529500571036">
        <ele>1.2</ele>
        <time>2016-07-19T10:41:44Z</time>
      </trkpt>
      <trkpt lat="60.114796447051" lon="21.529490009842">
        <ele>1.2</ele>
        <time>2016-07-19T10:41:45Z</time>
      </trkpt>
      <trkpt lat="60.114806756788" lon="21.529481460304">
        <ele>1.2</ele>
        <time>2016-07-19T10:41:46Z</time>
      </trkpt>
      <trkpt lat="60.114823772045" lon="21.529467378712">
        <ele>1.2</ele>
        <time>2016-07-19T10:41:47Z</time>
      </trkpt>
      <trkpt lat="60.114827627719" lon="21.529464025952">
        <ele>1.2</ele>
        <time>2016-07-19T10:41:48Z</time>
      </trkpt>
      <trkpt lat="60.114847409003" lon="21.529454219129">
        <ele>1.2</ele>
        <time>2016-07-19T10:41:49Z</time>
      </trkpt>
      <trkpt lat="60.114852773419" lon="21.529451285464">
        <ele>1.2</ele>
        <time>2016-07-19T10:41:50Z</time>
      </trkpt>
      <trkpt lat="60.11486777702" lon="21.529445250496">
        <ele>1.2</ele>
        <time>2016-07-19T10:41:51Z</time>
      </trkpt>
      <trkpt lat="60.114877248567" lon="21.529452626568">
        <ele>1.2</ele>
        <time>2016-07-19T10:41:52Z</time>
      </trkpt>
      <trkpt lat="60.114888815589" lon="21.529458242441">
        <ele>1.2</ele>
        <time>2016-07-19T10:41:53Z</time>
      </trkpt>
      <trkpt lat="60.11489795186" lon="21.529446256324">
        <ele>1.2</ele>
        <time>2016-07-19T10:41:54Z</time>
      </trkpt>
      <trkpt lat="60.114914212746" lon="21.529460589373">
        <ele>1.2</ele>
        <time>2016-07-19T10:41:55Z</time>
      </trkpt>
      <trkpt lat="60.114920750628" lon="21.529450363455">
        <ele>1.2</ele>
        <time>2016-07-19T10:41:56Z</time>
      </trkpt>
      <trkpt lat="60.114933910211" lon="21.529444160849">
        <ele>1.2</ele>
        <time>2016-07-19T10:41:57Z</time>
      </trkpt>
      <trkpt lat="60.114937430609" lon="21.52944407703">
        <ele>1.2</ele>
        <time>2016-07-19T10:41:58Z</time>
      </trkpt>
      <trkpt lat="60.11495662516" lon="21.529431168904">
        <ele>1.2</ele>
        <time>2016-07-19T10:41:59Z</time>
      </trkpt>
      <trkpt lat="60.114961151386" lon="21.529432007094">
        <ele>1.2</ele>
        <time>2016-07-19T10:42:00Z</time>
      </trkpt>
      <trkpt lat="60.114978669557" lon="21.529422535547">
        <ele>1.2</ele>
        <time>2016-07-19T10:42:01Z</time>
      </trkpt>
      <trkpt lat="60.114988727837" lon="21.529423457556">
        <ele>1.2</ele>
        <time>2016-07-19T10:42:02Z</time>
      </trkpt>
      <trkpt lat="60.114998618479" lon="21.529421362081">
        <ele>1.2</ele>
        <time>2016-07-19T10:42:03Z</time>
      </trkpt>
      <trkpt lat="60.115011526605" lon="21.529436114225">
        <ele>1.2</ele>
        <time>2016-07-19T10:42:04Z</time>
      </trkpt>
      <trkpt lat="60.115020914333" lon="21.529442065374">
        <ele>1.2</ele>
        <time>2016-07-19T10:42:05Z</time>
      </trkpt>
      <trkpt lat="60.115034912106" lon="21.529452039835">
        <ele>1.2</ele>
        <time>2016-07-19T10:42:06Z</time>
      </trkpt>
      <trkpt lat="60.115039522151" lon="21.529466624341">
        <ele>1.2</ele>
        <time>2016-07-19T10:42:07Z</time>
      </trkpt>
      <trkpt lat="60.115051256811" lon="21.529473832775">
        <ele>1.2</ele>
        <time>2016-07-19T10:42:08Z</time>
      </trkpt>
      <trkpt lat="60.115054944847" lon="21.529491350946">
        <ele>1.2</ele>
        <time>2016-07-19T10:42:09Z</time>
      </trkpt>
      <trkpt lat="60.115067936792" lon="21.529496212448">
        <ele>1.2</ele>
        <time>2016-07-19T10:42:10Z</time>
      </trkpt>
      <trkpt lat="60.115078414167" lon="21.529507611832">
        <ele>1.2</ele>
        <time>2016-07-19T10:42:11Z</time>
      </trkpt>
      <trkpt lat="60.115086041696" lon="21.529511467506">
        <ele>1.2</ele>
        <time>2016-07-19T10:42:12Z</time>
      </trkpt>
      <trkpt lat="60.115096854347" lon="21.529521022872">
        <ele>1.2</ele>
        <time>2016-07-19T10:42:13Z</time>
      </trkpt>
      <trkpt lat="60.115107583179" lon="21.529526471107">
        <ele>1.2</ele>
        <time>2016-07-19T10:42:14Z</time>
      </trkpt>
      <trkpt lat="60.115121245676" lon="21.529540552699">
        <ele>1.2</ele>
        <time>2016-07-19T10:42:15Z</time>
      </trkpt>
      <trkpt lat="60.115128705567" lon="21.529543989278">
        <ele>1.2</ele>
        <time>2016-07-19T10:42:16Z</time>
      </trkpt>
      <trkpt lat="60.115143038616" lon="21.529573493566">
        <ele>1.2</ele>
        <time>2016-07-19T10:42:17Z</time>
      </trkpt>
      <trkpt lat="60.115150749964" lon="21.529586401692">
        <ele>1.2</ele>
        <time>2016-07-19T10:42:18Z</time>
      </trkpt>
      <trkpt lat="60.115165837384" lon="21.529590927918">
        <ele>1.2</ele>
        <time>2016-07-19T10:42:19Z</time>
      </trkpt>
      <trkpt lat="60.115173045818" lon="21.52960500951">
        <ele>1.2</ele>
        <time>2016-07-19T10:42:20Z</time>
      </trkpt>
      <trkpt lat="60.115179248424" lon="21.529608446089">
        <ele>1.2</ele>
        <time>2016-07-19T10:42:21Z</time>
      </trkpt>
      <trkpt lat="60.115196934233" lon="21.529630071391">
        <ele>1.2</ele>
        <time>2016-07-19T10:42:22Z</time>
      </trkpt>
      <trkpt lat="60.115200203174" lon="21.529632250685">
        <ele>1.2</ele>
        <time>2016-07-19T10:42:23Z</time>
      </trkpt>
      <trkpt lat="60.115216799336" lon="21.529646667553">
        <ele>1.2</ele>
        <time>2016-07-19T10:42:24Z</time>
      </trkpt>
      <trkpt lat="60.115231635299" lon="21.529664521">
        <ele>1.2</ele>
        <time>2016-07-19T10:42:25Z</time>
      </trkpt>
      <trkpt lat="60.115236161525" lon="21.529670891244">
        <ele>1.2</ele>
        <time>2016-07-19T10:42:26Z</time>
      </trkpt>
      <trkpt lat="60.115252422411" lon="21.529699641161">
        <ele>1.2</ele>
        <time>2016-07-19T10:42:27Z</time>
      </trkpt>
      <trkpt lat="60.115256278085" lon="21.529708358337">
        <ele>1.2</ele>
        <time>2016-07-19T10:42:28Z</time>
      </trkpt>
      <trkpt lat="60.115267677469" lon="21.529732079114">
        <ele>1.2</ele>
        <time>2016-07-19T10:42:29Z</time>
      </trkpt>
      <trkpt lat="60.115272119876" lon="21.529758314461">
        <ele>1.2</ele>
        <time>2016-07-19T10:42:30Z</time>
      </trkpt>
      <trkpt lat="60.115272874247" lon="21.529773150424">
        <ele>1.2</ele>
        <time>2016-07-19T10:42:31Z</time>
      </trkpt>
      <trkpt lat="60.115276729921" lon="21.529801732703">
        <ele>1.2</ele>
        <time>2016-07-19T10:42:32Z</time>
      </trkpt>
      <trkpt lat="60.11528435745" lon="21.529811707164">
        <ele>1.2</ele>
        <time>2016-07-19T10:42:33Z</time>
      </trkpt>
      <trkpt lat="60.115288129305" lon="21.529839786529">
        <ele>1.2</ele>
        <time>2016-07-19T10:42:34Z</time>
      </trkpt>
      <trkpt lat="60.115294918644" lon="21.529859735451">
        <ele>1.2</ele>
        <time>2016-07-19T10:42:35Z</time>
      </trkpt>
      <trkpt lat="60.115297433214" lon="21.529868536446">
        <ele>1.2</ele>
        <time>2016-07-19T10:42:36Z</time>
      </trkpt>
      <trkpt lat="60.115304557829" lon="21.529909859213">
        <ele>1.2</ele>
        <time>2016-07-19T10:42:37Z</time>
      </trkpt>
      <trkpt lat="60.115304893105" lon="21.52991933076">
        <ele>1.2</ele>
        <time>2016-07-19T10:42:38Z</time>
      </trkpt>
      <trkpt lat="60.115303132906" lon="21.529950846704">
        <ele>1.2</ele>
        <time>2016-07-19T10:42:39Z</time>
      </trkpt>
      <trkpt lat="60.115304809286" lon="21.529982111191">
        <ele>1.2</ele>
        <time>2016-07-19T10:42:40Z</time>
      </trkpt>
      <trkpt lat="60.115301707983" lon="21.530002395389">
        <ele>1.2</ele>
        <time>2016-07-19T10:42:41Z</time>
      </trkpt>
      <trkpt lat="60.115308245865" lon="21.530025361795">
        <ele>1.2</ele>
        <time>2016-07-19T10:42:42Z</time>
      </trkpt>
      <trkpt lat="60.115301205069" lon="21.530055033721">
        <ele>1.2</ele>
        <time>2016-07-19T10:42:43Z</time>
      </trkpt>
      <trkpt lat="60.115308748779" lon="21.530072132797">
        <ele>1.2</ele>
        <time>2016-07-19T10:42:44Z</time>
      </trkpt>
      <trkpt lat="60.115311514806" lon="21.530090656796">
        <ele>1.2</ele>
        <time>2016-07-19T10:42:45Z</time>
      </trkpt>
      <trkpt lat="60.115315119023" lon="21.530123513844">
        <ele>1.2</ele>
        <time>2016-07-19T10:42:46Z</time>
      </trkpt>
      <trkpt lat="60.115320986353" lon="21.530143714223">
        <ele>1.2</ele>
        <time>2016-07-19T10:42:47Z</time>
      </trkpt>
      <trkpt lat="60.115322746552" lon="21.530178415289">
        <ele>1.2</ele>
        <time>2016-07-19T10:42:48Z</time>
      </trkpt>
      <trkpt lat="60.115319645249" lon="21.530209260681">
        <ele>1.2</ele>
        <time>2016-07-19T10:42:49Z</time>
      </trkpt>
      <trkpt lat="60.115325261122" lon="21.530233987286">
        <ele>1.2</ele>
        <time>2016-07-19T10:42:50Z</time>
      </trkpt>
      <trkpt lat="60.115318974697" lon="21.530265587049">
        <ele>1.2</ele>
        <time>2016-07-19T10:42:51Z</time>
      </trkpt>
      <trkpt lat="60.115325596398" lon="21.530287547627">
        <ele>1.2</ele>
        <time>2016-07-19T10:42:52Z</time>
      </trkpt>
      <trkpt lat="60.115322662733" lon="21.530323086883">
        <ele>1.2</ele>
        <time>2016-07-19T10:42:53Z</time>
      </trkpt>
      <trkpt lat="60.115327356597" lon="21.530347981126">
        <ele>1.2</ele>
        <time>2016-07-19T10:42:54Z</time>
      </trkpt>
      <trkpt lat="60.115331044633" lon="21.530373294464">
        <ele>1.2</ele>
        <time>2016-07-19T10:42:55Z</time>
      </trkpt>
      <trkpt lat="60.115332050461" lon="21.530404223675">
        <ele>1.2</ele>
        <time>2016-07-19T10:42:56Z</time>
      </trkpt>
      <trkpt lat="60.115334565031" lon="21.530424256416">
        <ele>1.2</ele>
        <time>2016-07-19T10:42:57Z</time>
      </trkpt>
      <trkpt lat="60.115330122624" lon="21.530458203111">
        <ele>1.2</ele>
        <time>2016-07-19T10:42:58Z</time>
      </trkpt>
      <trkpt lat="60.115325847855" lon="21.530494580557">
        <ele>1.2</ele>
        <time>2016-07-19T10:42:59Z</time>
      </trkpt>
      <trkpt lat="60.115330709357" lon="21.530516624954">
        <ele>1.2</ele>
        <time>2016-07-19T10:43:00Z</time>
      </trkpt>
      <trkpt lat="60.115324422932" lon="21.530552834762">
        <ele>1.2</ele>
        <time>2016-07-19T10:43:01Z</time>
      </trkpt>
      <trkpt lat="60.115317298317" lon="21.530570017657">
        <ele>1.2</ele>
        <time>2016-07-19T10:43:02Z</time>
      </trkpt>
      <trkpt lat="60.115315454299" lon="21.5305949119">
        <ele>1.2</ele>
        <time>2016-07-19T10:43:03Z</time>
      </trkpt>
      <trkpt lat="60.115305731295" lon="21.530632462812">
        <ele>1.2</ele>
        <time>2016-07-19T10:43:04Z</time>
      </trkpt>
      <trkpt lat="60.115299612508" lon="21.530652830829">
        <ele>1.2</ele>
        <time>2016-07-19T10:43:05Z</time>
      </trkpt>
      <trkpt lat="60.115298941956" lon="21.530681832203">
        <ele>1.2</ele>
        <time>2016-07-19T10:43:06Z</time>
      </trkpt>
      <trkpt lat="60.115285614735" lon="21.530716114174">
        <ele>1.2</ele>
        <time>2016-07-19T10:43:07Z</time>
      </trkpt>
      <trkpt lat="60.115282513432" lon="21.530736733648">
        <ele>1.2</ele>
        <time>2016-07-19T10:43:08Z</time>
      </trkpt>
      <trkpt lat="60.115279663586" lon="21.530764058642">
        <ele>1.2</ele>
        <time>2016-07-19T10:43:09Z</time>
      </trkpt>
      <trkpt lat="60.11526675546" lon="21.530799849355">
        <ele>1.2</ele>
        <time>2016-07-19T10:43:10Z</time>
      </trkpt>
      <trkpt lat="60.115269186211" lon="21.530823486313">
        <ele>1.2</ele>
        <time>2016-07-19T10:43:11Z</time>
      </trkpt>
      <trkpt lat="60.11526004994" lon="21.530861959234">
        <ele>1.2</ele>
        <time>2016-07-19T10:43:12Z</time>
      </trkpt>
      <trkpt lat="60.115258205922" lon="21.530886518201">
        <ele>1.2</ele>
        <time>2016-07-19T10:43:13Z</time>
      </trkpt>
      <trkpt lat="60.115260636673" lon="21.530919961982">
        <ele>1.2</ele>
        <time>2016-07-19T10:43:14Z</time>
      </trkpt>
      <trkpt lat="60.11525334442" lon="21.530949717727">
        <ele>1.2</ele>
        <time>2016-07-19T10:43:15Z</time>
      </trkpt>
      <trkpt lat="60.115256864818" lon="21.530973689961">
        <ele>1.2</ele>
        <time>2016-07-19T10:43:16Z</time>
      </trkpt>
      <trkpt lat="60.11525334442" lon="21.531014425995">
        <ele>1.2</ele>
        <time>2016-07-19T10:43:17Z</time>
      </trkpt>
      <trkpt lat="60.115249572565" lon="21.531039571695">
        <ele>1.2</ele>
        <time>2016-07-19T10:43:18Z</time>
      </trkpt>
      <trkpt lat="60.11525418261" lon="21.531068153974">
        <ele>1.2</ele>
        <time>2016-07-19T10:43:19Z</time>
      </trkpt>
      <trkpt lat="60.115245968348" lon="21.531107465085">
        <ele>1.2</ele>
        <time>2016-07-19T10:43:20Z</time>
      </trkpt>
      <trkpt lat="60.115246471262" lon="21.531128252197">
        <ele>1.2</ele>
        <time>2016-07-19T10:43:21Z</time>
      </trkpt>
      <trkpt lat="60.115246890357" lon="21.53116739567">
        <ele>1.2</ele>
        <time>2016-07-19T10:43:22Z</time>
      </trkpt>
      <trkpt lat="60.115241693579" lon="21.531188601877">
        <ele>1.2</ele>
        <time>2016-07-19T10:43:23Z</time>
      </trkpt>
      <trkpt lat="60.115243369959" lon="21.531221542744">
        <ele>1.2</ele>
        <time>2016-07-19T10:43:24Z</time>
      </trkpt>
      <trkpt lat="60.115232892584" lon="21.531256830543">
        <ele>1.2</ele>
        <time>2016-07-19T10:43:25Z</time>
      </trkpt>
      <trkpt lat="60.11523574243" lon="21.531276192732">
        <ele>1.2</ele>
        <time>2016-07-19T10:43:26Z</time>
      </trkpt>
      <trkpt lat="60.115231635299" lon="21.531313659825">
        <ele>1.2</ele>
        <time>2016-07-19T10:43:27Z</time>
      </trkpt>
      <trkpt lat="60.11522652234" lon="21.531338051154">
        <ele>1.2</ele>
        <time>2016-07-19T10:43:28Z</time>
      </trkpt>
      <trkpt lat="60.115229204548" lon="21.531367303985">
        <ele>1.2</ele>
        <time>2016-07-19T10:43:29Z</time>
      </trkpt>
      <trkpt lat="60.115229372186" lon="21.531385492708">
        <ele>1.2</ele>
        <time>2016-07-19T10:43:30Z</time>
      </trkpt>
      <trkpt lat="60.115223923951" lon="21.53141466172">
        <ele>1.2</ele>
        <time>2016-07-19T10:43:31Z</time>
      </trkpt>
      <trkpt lat="60.115218475716" lon="21.531433353357">
        <ele>1.2</ele>
        <time>2016-07-19T10:43:32Z</time>
      </trkpt>
      <trkpt lat="60.11521478768" lon="21.531447770225">
        <ele>1.2</ele>
        <time>2016-07-19T10:43:33Z</time>
      </trkpt>
      <trkpt lat="60.115209926178" lon="21.531448943691">
        <ele>1.2</ele>
        <time>2016-07-19T10:43:34Z</time>
      </trkpt>
      <trkpt lat="60.115209590902" lon="21.531465456034">
        <ele>1.2</ele>
        <time>2016-07-19T10:43:35Z</time>
      </trkpt>
      <trkpt lat="60.115202969201" lon="21.531475598133">
        <ele>1.2</ele>
        <time>2016-07-19T10:43:36Z</time>
      </trkpt>
      <trkpt lat="60.115195341672" lon="21.531479034712">
        <ele>1.2</ele>
        <time>2016-07-19T10:43:37Z</time>
      </trkpt>
      <trkpt lat="60.115201292821" lon="21.531474005572">
        <ele>1.2</ele>
        <time>2016-07-19T10:43:38Z</time>
      </trkpt>
      <trkpt lat="60.115199281165" lon="21.531500408557">
        <ele>1.2</ele>
        <time>2016-07-19T10:43:39Z</time>
      </trkpt>
      <trkpt lat="60.1152047294" lon="21.531499989462">
        <ele>1.2</ele>
        <time>2016-07-19T10:43:40Z</time>
      </trkpt>
      <trkpt lat="60.115206321961" lon="21.531529074655">
        <ele>1.2</ele>
        <time>2016-07-19T10:43:41Z</time>
      </trkpt>
      <trkpt lat="60.115211770196" lon="21.531538210926">
        <ele>1.2</ele>
        <time>2016-07-19T10:43:42Z</time>
      </trkpt>
      <trkpt lat="60.115220319734" lon="21.531553382165">
        <ele>1.2</ele>
        <time>2016-07-19T10:43:43Z</time>
      </trkpt>
      <trkpt lat="60.115221912295" lon="21.531573834001">
        <ele>1.2</ele>
        <time>2016-07-19T10:43:44Z</time>
      </trkpt>
      <trkpt lat="60.115229623643" lon="21.531576097114">
        <ele>1.2</ele>
        <time>2016-07-19T10:43:45Z</time>
      </trkpt>
      <trkpt lat="60.115238843733" lon="21.531601158995">
        <ele>1.2</ele>
        <time>2016-07-19T10:43:46Z</time>
      </trkpt>
      <trkpt lat="60.11524328614" lon="21.53160995999">
        <ele>1.2</ele>
        <time>2016-07-19T10:43:47Z</time>
      </trkpt>
      <trkpt lat="60.115253009144" lon="21.531616581691">
        <ele>1.2</ele>
        <time>2016-07-19T10:43:48Z</time>
      </trkpt>
      <trkpt lat="60.115263989433" lon="21.531618760985">
        <ele>1.2</ele>
        <time>2016-07-19T10:43:49Z</time>
      </trkpt>
      <trkpt lat="60.115267509831" lon="21.531623873944">
        <ele>1.2</ele>
        <time>2016-07-19T10:43:50Z</time>
      </trkpt>
      <trkpt lat="60.115283603079" lon="21.531637201165">
        <ele>1.2</ele>
        <time>2016-07-19T10:43:51Z</time>
      </trkpt>
      <trkpt lat="60.115291817341" lon="21.531644158142">
        <ele>1.2</ele>
        <time>2016-07-19T10:43:52Z</time>
      </trkpt>
      <trkpt lat="60.115304809286" lon="21.531643403771">
        <ele>1.2</ele>
        <time>2016-07-19T10:43:53Z</time>
      </trkpt>
      <trkpt lat="60.115314364652" lon="21.531665029073">
        <ele>1.2</ele>
        <time>2016-07-19T10:43:54Z</time>
      </trkpt>
      <trkpt lat="60.115324758208" lon="21.53165522225">
        <ele>1.2</ele>
        <time>2016-07-19T10:43:55Z</time>
      </trkpt>
      <trkpt lat="60.115338336886" lon="21.531653797327">
        <ele>1.2</ele>
        <time>2016-07-19T10:43:56Z</time>
      </trkpt>
      <trkpt lat="60.115342695474" lon="21.531657820639">
        <ele>1.2</ele>
        <time>2016-07-19T10:43:57Z</time>
      </trkpt>
      <trkpt lat="60.115355352143" lon="21.531651115119">
        <ele>1.2</ele>
        <time>2016-07-19T10:43:58Z</time>
      </trkpt>
      <trkpt lat="60.115372032124" lon="21.531649103463">
        <ele>1.2</ele>
        <time>2016-07-19T10:43:59Z</time>
      </trkpt>
      <trkpt lat="60.115378486187" lon="21.531646672712">
        <ele>1.2</ele>
        <time>2016-07-19T10:44:00Z</time>
      </trkpt>
      <trkpt lat="60.115399943851" lon="21.5316510313">
        <ele>1.2</ele>
        <time>2016-07-19T10:44:01Z</time>
      </trkpt>
      <trkpt lat="60.115403464249" lon="21.531652623861">
        <ele>1.2</ele>
        <time>2016-07-19T10:44:02Z</time>
      </trkpt>
      <trkpt lat="60.115422239705" lon="21.531662011589">
        <ele>1.2</ele>
        <time>2016-07-19T10:44:03Z</time>
      </trkpt>
      <trkpt lat="60.115431543614" lon="21.531671818412">
        <ele>1.2</ele>
        <time>2016-07-19T10:44:04Z</time>
      </trkpt>
      <trkpt lat="60.115440176971" lon="21.531685480909">
        <ele>1.2</ele>
        <time>2016-07-19T10:44:05Z</time>
      </trkpt>
      <trkpt lat="60.115453504192" lon="21.531702579985">
        <ele>1.2</ele>
        <time>2016-07-19T10:44:06Z</time>
      </trkpt>
      <trkpt lat="60.115464316843" lon="21.531709956057">
        <ele>1.2</ele>
        <time>2016-07-19T10:44:07Z</time>
      </trkpt>
      <trkpt lat="60.115472279648" lon="21.531716661577">
        <ele>1.2</ele>
        <time>2016-07-19T10:44:08Z</time>
      </trkpt>
      <trkpt lat="60.115479320444" lon="21.531729569703">
        <ele>1.2</ele>
        <time>2016-07-19T10:44:09Z</time>
      </trkpt>
      <trkpt lat="60.115491306561" lon="21.531745411494">
        <ele>1.2</ele>
        <time>2016-07-19T10:44:10Z</time>
      </trkpt>
      <trkpt lat="60.115496168063" lon="21.531774915782">
        <ele>1.2</ele>
        <time>2016-07-19T10:44:11Z</time>
      </trkpt>
      <trkpt lat="60.115500861927" lon="21.531794277971">
        <ele>1.2</ele>
        <time>2016-07-19T10:44:12Z</time>
      </trkpt>
      <trkpt lat="60.115509914379" lon="21.531805928812">
        <ele>1.2</ele>
        <time>2016-07-19T10:44:13Z</time>
      </trkpt>
      <trkpt lat="60.11550983056" lon="21.53183962405">
        <ele>1.2</ele>
        <time>2016-07-19T10:44:14Z</time>
      </trkpt>
      <trkpt lat="60.115515278795" lon="21.531847670674">
        <ele>1.2</ele>
        <time>2016-07-19T10:44:15Z</time>
      </trkpt>
      <trkpt lat="60.11552072703" lon="21.53188488631">
        <ele>1.2</ele>
        <time>2016-07-19T10:44:16Z</time>
      </trkpt>
      <trkpt lat="60.115522151953" lon="21.531895279866">
        <ele>1.2</ele>
        <time>2016-07-19T10:44:17Z</time>
      </trkpt>
      <trkpt lat="60.115529863301" lon="21.531917994815">
        <ele>1.2</ele>
        <time>2016-07-19T10:44:18Z</time>
      </trkpt>
      <trkpt lat="60.115530114758" lon="21.531930064751">
        <ele>1.2</ele>
        <time>2016-07-19T10:44:19Z</time>
      </trkpt>
      <trkpt lat="60.115543525798" lon="21.531964681998">
        <ele>1.2</ele>
        <time>2016-07-19T10:44:20Z</time>
      </trkpt>
      <trkpt lat="60.115545118359" lon="21.531982367807">
        <ele>1.2</ele>
        <time>2016-07-19T10:44:21Z</time>
      </trkpt>
      <trkpt lat="60.115548471119" lon="21.532011620638">
        <ele>1.2</ele>
        <time>2016-07-19T10:44:22Z</time>
      </trkpt>
      <trkpt lat="60.115553248802" lon="21.532042298392">
        <ele>1.2</ele>
        <time>2016-07-19T10:44:23Z</time>
      </trkpt>
      <trkpt lat="60.115555847191" lon="21.532066270626">
        <ele>1.2</ele>
        <time>2016-07-19T10:44:24Z</time>
      </trkpt>
      <trkpt lat="60.115564732005" lon="21.532086722462">
        <ele>1.2</ele>
        <time>2016-07-19T10:44:25Z</time>
      </trkpt>
      <trkpt lat="60.115562133616" lon="21.532125279202">
        <ele>1.2</ele>
        <time>2016-07-19T10:44:26Z</time>
      </trkpt>
      <trkpt lat="60.115573281543" lon="21.532138103509">
        <ele>1.2</ele>
        <time>2016-07-19T10:44:27Z</time>
      </trkpt>
      <trkpt lat="60.115579735606" lon="21.532162662476">
        <ele>1.2</ele>
        <time>2016-07-19T10:44:28Z</time>
      </trkpt>
      <trkpt lat="60.115584680927" lon="21.532187221443">
        <ele>1.2</ele>
        <time>2016-07-19T10:44:29Z</time>
      </trkpt>
      <trkpt lat="60.115592643732" lon="21.532208176193">
        <ele>1.2</ele>
        <time>2016-07-19T10:44:30Z</time>
      </trkpt>
      <trkpt lat="60.115598343424" lon="21.532244218363">
        <ele>1.2</ele>
        <time>2016-07-19T10:44:31Z</time>
      </trkpt>
      <trkpt lat="60.115600690356" lon="21.532271208081">
        <ele>1.2</ele>
        <time>2016-07-19T10:44:32Z</time>
      </trkpt>
      <trkpt lat="60.115610245722" lon="21.532283780931">
        <ele>1.2</ele>
        <time>2016-07-19T10:44:33Z</time>
      </trkpt>
      <trkpt lat="60.115613347025" lon="21.532324684603">
        <ele>1.2</ele>
        <time>2016-07-19T10:44:34Z</time>
      </trkpt>
      <trkpt lat="60.115623321486" lon="21.532335245797">
        <ele>1.2</ele>
        <time>2016-07-19T10:44:35Z</time>
      </trkpt>
      <trkpt lat="60.115629356454" lon="21.532355865271">
        <ele>1.2</ele>
        <time>2016-07-19T10:44:36Z</time>
      </trkpt>
      <trkpt lat="60.115635223784" lon="21.532383860817">
        <ele>1.2</ele>
        <time>2016-07-19T10:44:37Z</time>
      </trkpt>
      <trkpt lat="60.11563975001" lon="21.532398361504">
        <ele>1.2</ele>
        <time>2016-07-19T10:44:38Z</time>
      </trkpt>
      <trkpt lat="60.115645533521" lon="21.532427530516">
        <ele>1.2</ele>
        <time>2016-07-19T10:44:39Z</time>
      </trkpt>
      <trkpt lat="60.11564980829" lon="21.532460219926">
        <ele>1.2</ele>
        <time>2016-07-19T10:44:40Z</time>
      </trkpt>
      <trkpt lat="60.11566238114" lon="21.532479414477">
        <ele>1.2</ele>
        <time>2016-07-19T10:44:41Z</time>
      </trkpt>
      <trkpt lat="60.115656597629" lon="21.532511684792">
        <ele>1.2</ele>
        <time>2016-07-19T10:44:42Z</time>
      </trkpt>
      <trkpt lat="60.115669589574" lon="21.532527442764">
        <ele>1.2</ele>
        <time>2016-07-19T10:44:43Z</time>
      </trkpt>
      <trkpt lat="60.115677049465" lon="21.532555019215">
        <ele>1.2</ele>
        <time>2016-07-19T10:44:44Z</time>
      </trkpt>
      <trkpt lat="60.115679396397" lon="21.532574632861">
        <ele>1.2</ele>
        <time>2016-07-19T10:44:45Z</time>
      </trkpt>
      <trkpt lat="60.115688616487" lon="21.532606064986">
        <ele>1.2</ele>
        <time>2016-07-19T10:44:46Z</time>
      </trkpt>
      <trkpt lat="60.11569004141" lon="21.532634563446">
        <ele>1.2</ele>
        <time>2016-07-19T10:44:47Z</time>
      </trkpt>
      <trkpt lat="60.115689957591" lon="21.532660966431">
        <ele>1.2</ele>
        <time>2016-07-19T10:44:48Z</time>
      </trkpt>
      <trkpt lat="60.11569758512" lon="21.532690219262">
        <ele>1.2</ele>
        <time>2016-07-19T10:44:49Z</time>
      </trkpt>
      <trkpt lat="60.115690628143" lon="21.53272056174">
        <ele>1.2</ele>
        <time>2016-07-19T10:44:50Z</time>
      </trkpt>
      <trkpt lat="60.115699093862" lon="21.53273732554">
        <ele>1.2</ele>
        <time>2016-07-19T10:44:51Z</time>
      </trkpt>
      <trkpt lat="60.115694064722" lon="21.53277504409">
        <ele>1.2</ele>
        <time>2016-07-19T10:44:52Z</time>
      </trkpt>
      <trkpt lat="60.115700267328" lon="21.532791304976">
        <ele>1.2</ele>
        <time>2016-07-19T10:44:53Z</time>
      </trkpt>
      <trkpt lat="60.115706553753" lon="21.532816618314">
        <ele>1.2</ele>
        <time>2016-07-19T10:44:54Z</time>
      </trkpt>
      <trkpt lat="60.11571015797" lon="21.532847463706">
        <ele>1.2</ele>
        <time>2016-07-19T10:44:55Z</time>
      </trkpt>
      <trkpt lat="60.11571518711" lon="21.532867580266">
        <ele>1.2</ele>
        <time>2016-07-19T10:44:56Z</time>
      </trkpt>
      <trkpt lat="60.115715857662" lon="21.53290496354">
        <ele>1.2</ele>
        <time>2016-07-19T10:44:57Z</time>
      </trkpt>
      <trkpt lat="60.115716779671" lon="21.53293513838">
        <ele>1.2</ele>
        <time>2016-07-19T10:44:58Z</time>
      </trkpt>
      <trkpt lat="60.115726837951" lon="21.532956512225">
        <ele>1.2</ele>
        <time>2016-07-19T10:44:59Z</time>
      </trkpt>
      <trkpt lat="60.115719713336" lon="21.532983082848">
        <ele>1.2</ele>
        <time>2016-07-19T10:45:00Z</time>
      </trkpt>
      <trkpt lat="60.115727089408" lon="21.533006971263">
        <ele>1.2</ele>
        <time>2016-07-19T10:45:01Z</time>
      </trkpt>
      <trkpt lat="60.115733711109" lon="21.533036224094">
        <ele>1.2</ele>
        <time>2016-07-19T10:45:02Z</time>
      </trkpt>
      <trkpt lat="60.115733711109" lon="21.533048461668">
        <ele>1.2</ele>
        <time>2016-07-19T10:45:03Z</time>
      </trkpt>
      <trkpt lat="60.115743015018" lon="21.533086766951">
        <ele>1.2</ele>
        <time>2016-07-19T10:45:04Z</time>
      </trkpt>
      <trkpt lat="60.115745026674" lon="21.533108308434">
        <ele>1.2</ele>
        <time>2016-07-19T10:45:05Z</time>
      </trkpt>
      <trkpt lat="60.115746535416" lon="21.533136471618">
        <ele>1.2</ele>
        <time>2016-07-19T10:45:06Z</time>
      </trkpt>
      <trkpt lat="60.11575039109" lon="21.533174525444">
        <ele>1.2</ele>
        <time>2016-07-19T10:45:07Z</time>
      </trkpt>
      <trkpt lat="60.115752821841" lon="21.533189696683">
        <ele>1.2</ele>
        <time>2016-07-19T10:45:08Z</time>
      </trkpt>
      <trkpt lat="60.115755839325" lon="21.533220458256">
        <ele>1.2</ele>
        <time>2016-07-19T10:45:09Z</time>
      </trkpt>
      <trkpt lat="60.11576128756" lon="21.533248453802">
        <ele>1.2</ele>
        <time>2016-07-19T10:45:10Z</time>
      </trkpt>
      <trkpt lat="60.115764891777" lon="21.533260859014">
        <ele>1.2</ele>
        <time>2016-07-19T10:45:11Z</time>
      </trkpt>
      <trkpt lat="60.11577386041" lon="21.533303858161">
        <ele>1.2</ele>
        <time>2016-07-19T10:45:12Z</time>
      </trkpt>
      <trkpt lat="60.115775033876" lon="21.53331316207">
        <ele>1.2</ele>
        <time>2016-07-19T10:45:13Z</time>
      </trkpt>
      <trkpt lat="60.115776961713" lon="21.533357418502">
        <ele>1.2</ele>
        <time>2016-07-19T10:45:14Z</time>
      </trkpt>
      <trkpt lat="60.115778554274" lon="21.533379714356">
        <ele>1.2</ele>
        <time>2016-07-19T10:45:15Z</time>
      </trkpt>
      <trkpt lat="60.115787103812" lon="21.533409302463">
        <ele>1.2</ele>
        <time>2016-07-19T10:45:16Z</time>
      </trkpt>
      <trkpt lat="60.115791630038" lon="21.533437046552">
        <ele>1.2</ele>
        <time>2016-07-19T10:45:17Z</time>
      </trkpt>
      <trkpt lat="60.11579230059" lon="21.53344727247">
        <ele>1.2</ele>
        <time>2016-07-19T10:45:18Z</time>
      </trkpt>
      <trkpt lat="60.115800514852" lon="21.533496558042">
        <ele>1.2</ele>
        <time>2016-07-19T10:45:19Z</time>
      </trkpt>
      <trkpt lat="60.11580235887" lon="21.533506867779">
        <ele>1.2</ele>
        <time>2016-07-19T10:45:20Z</time>
      </trkpt>
      <trkpt lat="60.115808310019" lon="21.53354953165">
        <ele>1.2</ele>
        <time>2016-07-19T10:45:21Z</time>
      </trkpt>
      <trkpt lat="60.115806214544" lon="21.533571240771">
        <ele>1.2</ele>
        <time>2016-07-19T10:45:22Z</time>
      </trkpt>
      <trkpt lat="60.115801353042" lon="21.533596554109">
        <ele>1.2</ele>
        <time>2016-07-19T10:45:23Z</time>
      </trkpt>
      <trkpt lat="60.115802275051" lon="21.53363670341">
        <ele>1.2</ele>
        <time>2016-07-19T10:45:24Z</time>
      </trkpt>
      <trkpt lat="60.115800095757" lon="21.533657825798">
        <ele>1.2</ele>
        <time>2016-07-19T10:45:25Z</time>
      </trkpt>
      <trkpt lat="60.115805208716" lon="21.533694287063">
        <ele>1.2</ele>
        <time>2016-07-19T10:45:26Z</time>
      </trkpt>
      <trkpt lat="60.115802861784" lon="21.533715325632">
        <ele>1.2</ele>
        <time>2016-07-19T10:45:27Z</time>
      </trkpt>
      <trkpt lat="60.115807136553" lon="21.53373560983">
        <ele>1.2</ele>
        <time>2016-07-19T10:45:28Z</time>
      </trkpt>
      <trkpt lat="60.115810070218" lon="21.533773076923">
        <ele>1.2</ele>
        <time>2016-07-19T10:45:29Z</time>
      </trkpt>
      <trkpt lat="60.115812668607" lon="21.53379009218">
        <ele>1.2</ele>
        <time>2016-07-19T10:45:30Z</time>
      </trkpt>
      <trkpt lat="60.115814680263" lon="21.533833761879">
        <ele>1.2</ele>
        <time>2016-07-19T10:45:31Z</time>
      </trkpt>
      <trkpt lat="60.115814596444" lon="21.533848597842">
        <ele>1.2</ele>
        <time>2016-07-19T10:45:32Z</time>
      </trkpt>
      <trkpt lat="60.115811746598" lon="21.533883466546">
        <ele>1.2</ele>
        <time>2016-07-19T10:45:33Z</time>
      </trkpt>
      <trkpt lat="60.115819709403" lon="21.53390492421">
        <ele>1.2</ele>
        <time>2016-07-19T10:45:34Z</time>
      </trkpt>
      <trkpt lat="60.115821134326" lon="21.533937781258">
        <ele>1.2</ele>
        <time>2016-07-19T10:45:35Z</time>
      </trkpt>
      <trkpt lat="60.115826834018" lon="21.533957813999">
        <ele>1.2</ele>
        <time>2016-07-19T10:45:36Z</time>
      </trkpt>
      <trkpt lat="60.115831527882" lon="21.533979104025">
        <ele>1.2</ele>
        <time>2016-07-19T10:45:37Z</time>
      </trkpt>
      <trkpt lat="60.115833707176" lon="21.53401221253">
        <ele>1.2</ele>
        <time>2016-07-19T10:45:38Z</time>
      </trkpt>
      <trkpt lat="60.115836892298" lon="21.534029227787">
        <ele>1.2</ele>
        <time>2016-07-19T10:45:39Z</time>
      </trkpt>
      <trkpt lat="60.115841167067" lon="21.534070718192">
        <ele>1.2</ele>
        <time>2016-07-19T10:45:40Z</time>
      </trkpt>
      <trkpt lat="60.115843513999" lon="21.534086895259">
        <ele>1.2</ele>
        <time>2016-07-19T10:45:41Z</time>
      </trkpt>
      <trkpt lat="60.115845609474" lon="21.534126290189">
        <ele>1.2</ele>
        <time>2016-07-19T10:45:42Z</time>
      </trkpt>
      <trkpt lat="60.115841167067" lon="21.534157722314">
        <ele>1.2</ele>
        <time>2016-07-19T10:45:43Z</time>
      </trkpt>
      <trkpt lat="60.115849129872" lon="21.534178425607">
        <ele>1.2</ele>
        <time>2016-07-19T10:45:44Z</time>
      </trkpt>
      <trkpt lat="60.115844100732" lon="21.534200637642">
        <ele>1.2</ele>
        <time>2016-07-19T10:45:45Z</time>
      </trkpt>
      <trkpt lat="60.11584510656" lon="21.534228717007">
        <ele>1.2</ele>
        <time>2016-07-19T10:45:46Z</time>
      </trkpt>
      <trkpt lat="60.115844352189" lon="21.534266351738">
        <ele>1.2</ele>
        <time>2016-07-19T10:45:47Z</time>
      </trkpt>
      <trkpt lat="60.115847956406" lon="21.53428630066">
        <ele>1.2</ele>
        <time>2016-07-19T10:45:48Z</time>
      </trkpt>
      <trkpt lat="60.115852482632" lon="21.53430976998">
        <ele>1.2</ele>
        <time>2016-07-19T10:45:49Z</time>
      </trkpt>
      <trkpt lat="60.115852566451" lon="21.534336005327">
        <ele>1.2</ele>
        <time>2016-07-19T10:45:50Z</time>
      </trkpt>
      <trkpt lat="60.11585097389" lon="21.53435754681">
        <ele>1.2</ele>
        <time>2016-07-19T10:45:51Z</time>
      </trkpt>
      <trkpt lat="60.115852901727" lon="21.534390152401">
        <ele>1.2</ele>
        <time>2016-07-19T10:45:52Z</time>
      </trkpt>
      <trkpt lat="60.115851895899" lon="21.534404820726">
        <ele>1.2</ele>
        <time>2016-07-19T10:45:53Z</time>
      </trkpt>
      <trkpt lat="60.115860277799" lon="21.534430804616">
        <ele>1.2</ele>
        <time>2016-07-19T10:45:54Z</time>
      </trkpt>
      <trkpt lat="60.115859104333" lon="21.53445729142">
        <ele>1.2</ele>
        <time>2016-07-19T10:45:55Z</time>
      </trkpt>
      <trkpt lat="60.11586354674" lon="21.53447321703">
        <ele>1.2</ele>
        <time>2016-07-19T10:45:56Z</time>
      </trkpt>
      <trkpt lat="60.115868408242" lon="21.534504900612">
        <ele>1.2</ele>
        <time>2016-07-19T10:45:57Z</time>
      </trkpt>
      <trkpt lat="60.115871425726" lon="21.53452015567">
        <ele>1.2</ele>
        <time>2016-07-19T10:45:58Z</time>
      </trkpt>
      <trkpt lat="60.115874107934" lon="21.534558544772">
        <ele>1.2</ele>
        <time>2016-07-19T10:45:59Z</time>
      </trkpt>
      <trkpt lat="60.115875113762" lon="21.534578158418">
        <ele>1.2</ele>
        <time>2016-07-19T10:46:00Z</time>
      </trkpt>
      <trkpt lat="60.115883076567" lon="21.534603555575">
        <ele>1.2</ele>
        <time>2016-07-19T10:46:01Z</time>
      </trkpt>
      <trkpt lat="60.115878801798" lon="21.534633059863">
        <ele>1.2</ele>
        <time>2016-07-19T10:46:02Z</time>
      </trkpt>
      <trkpt lat="60.115885926413" lon="21.534642363772">
        <ele>1.2</ele>
        <time>2016-07-19T10:46:03Z</time>
      </trkpt>
      <trkpt lat="60.115892548114" lon="21.534675639915">
        <ele>1.2</ele>
        <time>2016-07-19T10:46:04Z</time>
      </trkpt>
      <trkpt lat="60.115894392132" lon="21.53468779367">
        <ele>1.2</ele>
        <time>2016-07-19T10:46:05Z</time>
      </trkpt>
      <trkpt lat="60.115905204783" lon="21.534727942971">
        <ele>1.2</ele>
        <time>2016-07-19T10:46:06Z</time>
      </trkpt>
      <trkpt lat="60.115907216439" lon="21.534742527477">
        <ele>1.2</ele>
        <time>2016-07-19T10:46:07Z</time>
      </trkpt>
      <trkpt lat="60.115908389905" lon="21.53477245086">
        <ele>1.2</ele>
        <time>2016-07-19T10:46:08Z</time>
      </trkpt>
      <trkpt lat="60.115908389905" lon="21.534809079763">
        <ele>1.2</ele>
        <time>2016-07-19T10:46:09Z</time>
      </trkpt>
      <trkpt lat="60.115912497036" lon="21.534823831907">
        <ele>1.2</ele>
        <time>2016-07-19T10:46:10Z</time>
      </trkpt>
      <trkpt lat="60.115916939443" lon="21.534855347851">
        <ele>1.2</ele>
        <time>2016-07-19T10:46:11Z</time>
      </trkpt>
      <trkpt lat="60.115921298031" lon="21.534875799687">
        <ele>1.2</ele>
        <time>2016-07-19T10:46:12Z</time>
      </trkpt>
      <trkpt lat="60.115927500637" lon="21.534892228211">
        <ele>1.2</ele>
        <time>2016-07-19T10:46:13Z</time>
      </trkpt>
      <trkpt lat="60.115932697415" lon="21.534924498526">
        <ele>1.2</ele>
        <time>2016-07-19T10:46:14Z</time>
      </trkpt>
      <trkpt lat="60.115936217813" lon="21.534938496299">
        <ele>1.2</ele>
        <time>2016-07-19T10:46:15Z</time>
      </trkpt>
      <trkpt lat="60.115939905849" lon="21.534977136858">
        <ele>1.2</ele>
        <time>2016-07-19T10:46:16Z</time>
      </trkpt>
      <trkpt lat="60.11593982203" lon="21.535002534015">
        <ele>1.2</ele>
        <time>2016-07-19T10:46:17Z</time>
      </trkpt>
      <trkpt lat="60.115947784835" lon="21.53502726062">
        <ele>1.2</ele>
        <time>2016-07-19T10:46:18Z</time>
      </trkpt>
      <trkpt lat="60.115947449559" lon="21.535054585614">
        <ele>1.2</ele>
        <time>2016-07-19T10:46:19Z</time>
      </trkpt>
      <trkpt lat="60.115952730156" lon="21.535068499568">
        <ele>1.2</ele>
        <time>2016-07-19T10:46:20Z</time>
      </trkpt>
      <trkpt lat="60.115956250554" lon="21.535104960833">
        <ele>1.2</ele>
        <time>2016-07-19T10:46:21Z</time>
      </trkpt>
      <trkpt lat="60.115958848943" lon="21.535119293882">
        <ele>1.2</ele>
        <time>2016-07-19T10:46:22Z</time>
      </trkpt>
      <trkpt lat="60.115959016581" lon="21.535154916957">
        <ele>1.2</ele>
        <time>2016-07-19T10:46:23Z</time>
      </trkpt>
      <trkpt lat="60.115957004925" lon="21.535183080141">
        <ele>1.2</ele>
        <time>2016-07-19T10:46:24Z</time>
      </trkpt>
      <trkpt lat="60.11596580592" lon="21.535203699615">
        <ele>1.2</ele>
        <time>2016-07-19T10:46:25Z</time>
      </trkpt>
      <trkpt lat="60.1159591004" lon="21.535237143396">
        <ele>1.2</ele>
        <time>2016-07-19T10:46:26Z</time>
      </trkpt>
      <trkpt lat="60.11596664411" lon="21.53525441011">
        <ele>1.2</ele>
        <time>2016-07-19T10:46:27Z</time>
      </trkpt>
      <trkpt lat="60.115968991042" lon="21.535281316009">
        <ele>1.2</ele>
        <time>2016-07-19T10:46:28Z</time>
      </trkpt>
      <trkpt lat="60.115971840888" lon="21.535295984334">
        <ele>1.2</ele>
        <time>2016-07-19T10:46:29Z</time>
      </trkpt>
      <trkpt lat="60.115981060978" lon="21.535334541074">
        <ele>1.2</ele>
        <time>2016-07-19T10:46:30Z</time>
      </trkpt>
      <trkpt lat="60.115982904996" lon="21.535345689001">
        <ele>1.2</ele>
        <time>2016-07-19T10:46:31Z</time>
      </trkpt>
      <trkpt lat="60.115992041267" lon="21.535385000112">
        <ele>1.2</ele>
        <time>2016-07-19T10:46:32Z</time>
      </trkpt>
      <trkpt lat="60.115994052923" lon="21.535399165523">
        <ele>1.2</ele>
        <time>2016-07-19T10:46:33Z</time>
      </trkpt>
      <trkpt lat="60.11600184809" lon="21.535432860761">
        <ele>1.2</ele>
        <time>2016-07-19T10:46:34Z</time>
      </trkpt>
      <trkpt lat="60.116004781755" lon="21.535459515203">
        <ele>1.2</ele>
        <time>2016-07-19T10:46:35Z</time>
      </trkpt>
      <trkpt lat="60.116008805067" lon="21.535483403618">
        <ele>1.2</ele>
        <time>2016-07-19T10:46:36Z</time>
      </trkpt>
      <trkpt lat="60.116009810895" lon="21.535515590114">
        <ele>1.2</ele>
        <time>2016-07-19T10:46:37Z</time>
      </trkpt>
      <trkpt lat="60.116009307981" lon="21.535537215416">
        <ele>1.2</ele>
        <time>2016-07-19T10:46:38Z</time>
      </trkpt>
      <trkpt lat="60.116016432596" lon="21.535568898998">
        <ele>1.2</ele>
        <time>2016-07-19T10:46:39Z</time>
      </trkpt>
      <trkpt lat="60.116017522243" lon="21.535588428825">
        <ele>1.2</ele>
        <time>2016-07-19T10:46:40Z</time>
      </trkpt>
      <trkpt lat="60.11602447922" lon="21.535607707195">
        <ele>1.2</ele>
        <time>2016-07-19T10:46:41Z</time>
      </trkpt>
      <trkpt lat="60.116029843636" lon="21.535641150976">
        <ele>1.2</ele>
        <time>2016-07-19T10:46:42Z</time>
      </trkpt>
      <trkpt lat="60.116032442025" lon="21.535655400206">
        <ele>1.2</ele>
        <time>2016-07-19T10:46:43Z</time>
      </trkpt>
      <trkpt lat="60.116039985735" lon="21.535699489">
        <ele>1.2</ele>
        <time>2016-07-19T10:46:44Z</time>
      </trkpt>
      <trkpt lat="60.116041075382" lon="21.535702171208">
        <ele>1.2</ele>
        <time>2016-07-19T10:46:45Z</time>
      </trkpt>
      <trkpt lat="60.116048870549" lon="21.535754390445">
        <ele>1.2</ele>
        <time>2016-07-19T10:46:46Z</time>
      </trkpt>
      <trkpt lat="60.116049289644" lon="21.535765119277">
        <ele>1.2</ele>
        <time>2016-07-19T10:46:47Z</time>
      </trkpt>
      <trkpt lat="60.116045601608" lon="21.535801245266">
        <ele>1.2</ele>
        <time>2016-07-19T10:46:48Z</time>
      </trkpt>
      <trkpt lat="60.116042584124" lon="21.535834772866">
        <ele>1.2</ele>
        <time>2016-07-19T10:46:49Z</time>
      </trkpt>
      <trkpt lat="60.116050630748" lon="21.53585539234">
        <ele>1.2</ele>
        <time>2016-07-19T10:46:50Z</time>
      </trkpt>
      <trkpt lat="60.116043422314" lon="21.535889841949">
        <ele>1.2</ele>
        <time>2016-07-19T10:46:51Z</time>
      </trkpt>
      <trkpt lat="60.116049038187" lon="21.535909958509">
        <ele>1.2</ele>
        <time>2016-07-19T10:46:52Z</time>
      </trkpt>
      <trkpt lat="60.116053983508" lon="21.535932170544">
        <ele>1.2</ele>
        <time>2016-07-19T10:46:53Z</time>
      </trkpt>
      <trkpt lat="60.116053732051" lon="21.535969637637">
        <ele>1.2</ele>
        <time>2016-07-19T10:46:54Z</time>
      </trkpt>
      <trkpt lat="60.116056078983" lon="21.53598782636">
        <ele>1.2</ele>
        <time>2016-07-19T10:46:55Z</time>
      </trkpt>
      <trkpt lat="60.116053480594" lon="21.536028562394">
        <ele>1.2</ele>
        <time>2016-07-19T10:46:56Z</time>
      </trkpt>
      <trkpt lat="60.116050044015" lon="21.536051864076">
        <ele>1.2</ele>
        <time>2016-07-19T10:46:57Z</time>
      </trkpt>
      <trkpt lat="60.116055073155" lon="21.536080697812">
        <ele>1.2</ele>
        <time>2016-07-19T10:46:58Z</time>
      </trkpt>
      <trkpt lat="60.116043589952" lon="21.536109112453">
        <ele>1.2</ele>
        <time>2016-07-19T10:46:59Z</time>
      </trkpt>
      <trkpt lat="60.116048619092" lon="21.536137443275">
        <ele>1.2</ele>
        <time>2016-07-19T10:47:00Z</time>
      </trkpt>
      <trkpt lat="60.116054234965" lon="21.5361688754">
        <ele>1.2</ele>
        <time>2016-07-19T10:47:01Z</time>
      </trkpt>
      <trkpt lat="60.116050379291" lon="21.536184214277">
        <ele>1.2</ele>
        <time>2016-07-19T10:47:02Z</time>
      </trkpt>
      <trkpt lat="60.116052223309" lon="21.536221932827">
        <ele>1.2</ele>
        <time>2016-07-19T10:47:03Z</time>
      </trkpt>
      <trkpt lat="60.116049373463" lon="21.536245318328">
        <ele>1.2</ele>
        <time>2016-07-19T10:47:04Z</time>
      </trkpt>
      <trkpt lat="60.116043003219" lon="21.536269542019">
        <ele>1.2</ele>
        <time>2016-07-19T10:47:05Z</time>
      </trkpt>
      <trkpt lat="60.116038309355" lon="21.536310613329">
        <ele>1.2</ele>
        <time>2016-07-19T10:47:06Z</time>
      </trkpt>
      <trkpt lat="60.116038896088" lon="21.536328550595">
        <ele>1.2</ele>
        <time>2016-07-19T10:47:07Z</time>
      </trkpt>
      <trkpt lat="60.116033950767" lon="21.536364257489">
        <ele>1.2</ele>
        <time>2016-07-19T10:47:08Z</time>
      </trkpt>
      <trkpt lat="60.116029592179" lon="21.536385882791">
        <ele>1.4</ele>
        <time>2016-07-19T10:47:09Z</time>
      </trkpt>
      <trkpt lat="60.116028753989" lon="21.536416225269">
        <ele>1.6</ele>
        <time>2016-07-19T10:47:10Z</time>
      </trkpt>
      <trkpt lat="60.116030095093" lon="21.536446903023">
        <ele>1.8</ele>
        <time>2016-07-19T10:47:11Z</time>
      </trkpt>
      <trkpt lat="60.116030933283" lon="21.536463331547">
        <ele>2.2</ele>
        <time>2016-07-19T10:47:12Z</time>
      </trkpt>
      <trkpt lat="60.116028837808" lon="21.536501385373">
        <ele>2.4</ele>
        <time>2016-07-19T10:47:13Z</time>
      </trkpt>
      <trkpt lat="60.116028837808" lon="21.536515383146">
        <ele>2.8</ele>
        <time>2016-07-19T10:47:14Z</time>
      </trkpt>
      <trkpt lat="60.116022383745" lon="21.536551425316">
        <ele>3.4</ele>
        <time>2016-07-19T10:47:15Z</time>
      </trkpt>
      <trkpt lat="60.116019952994" lon="21.536577660663">
        <ele>3.4</ele>
        <time>2016-07-19T10:47:16Z</time>
      </trkpt>
      <trkpt lat="60.116018863347" lon="21.536612194091">
        <ele>3.4</ele>
        <time>2016-07-19T10:47:17Z</time>
      </trkpt>
      <trkpt lat="60.116011571094" lon="21.536627113873">
        <ele>1.8</ele>
        <time>2016-07-19T10:47:18Z</time>
      </trkpt>
      <trkpt lat="60.116013918026" lon="21.536656953437">
        <ele>1.8</ele>
        <time>2016-07-19T10:47:19Z</time>
      </trkpt>
      <trkpt lat="60.116013163655" lon="21.536684865164">
        <ele>1.8</ele>
        <time>2016-07-19T10:47:20Z</time>
      </trkpt>
      <trkpt lat="60.116014504759" lon="21.53670280243">
        <ele>1.8</ele>
        <time>2016-07-19T10:47:21Z</time>
      </trkpt>
      <trkpt lat="60.116012493103" lon="21.536739598971">
        <ele>1.8</ele>
        <time>2016-07-19T10:47:22Z</time>
      </trkpt>
      <trkpt lat="60.116012409284" lon="21.536755273124">
        <ele>1.8</ele>
        <time>2016-07-19T10:47:23Z</time>
      </trkpt>
      <trkpt lat="60.116007212506" lon="21.536793829864">
        <ele>1.8</ele>
        <time>2016-07-19T10:47:24Z</time>
      </trkpt>
      <trkpt lat="60.116004865574" lon="21.536818724107">
        <ele>1.8</ele>
        <time>2016-07-19T10:47:25Z</time>
      </trkpt>
      <trkpt lat="60.116008302153" lon="21.536846552015">
        <ele>1.8</ele>
        <time>2016-07-19T10:47:26Z</time>
      </trkpt>
      <trkpt lat="60.1160010099" lon="21.536870943344">
        <ele>1.8</ele>
        <time>2016-07-19T10:47:27Z</time>
      </trkpt>
      <trkpt lat="60.116003859746" lon="21.536895083216">
        <ele>1.8</ele>
        <time>2016-07-19T10:47:28Z</time>
      </trkpt>
      <trkpt lat="60.11600352447" lon="21.536928778454">
        <ele>1.8</ele>
        <time>2016-07-19T10:47:29Z</time>
      </trkpt>
      <trkpt lat="60.116002937737" lon="21.536940932209">
        <ele>1.8</ele>
        <time>2016-07-19T10:47:30Z</time>
      </trkpt>
      <trkpt lat="60.116003105375" lon="21.536983847537">
        <ele>1.8</ele>
        <time>2016-07-19T10:47:31Z</time>
      </trkpt>
      <trkpt lat="60.11600184809" lon="21.536999437871">
        <ele>1.8</ele>
        <time>2016-07-19T10:47:32Z</time>
      </trkpt>
      <trkpt lat="60.116000758443" lon="21.537030367082">
        <ele>1.8</ele>
        <time>2016-07-19T10:47:33Z</time>
      </trkpt>
      <trkpt lat="60.115998998244" lon="21.537063643225">
        <ele>1.8</ele>
        <time>2016-07-19T10:47:34Z</time>
      </trkpt>
      <trkpt lat="60.115992711819" lon="21.537086358174">
        <ele>1.8</ele>
        <time>2016-07-19T10:47:35Z</time>
      </trkpt>
      <trkpt lat="60.115989191421" lon="21.537108067295">
        <ele>1.8</ele>
        <time>2016-07-19T10:47:36Z</time>
      </trkpt>
      <trkpt lat="60.115986090118" lon="21.537143774189">
        <ele>1.8</ele>
        <time>2016-07-19T10:47:37Z</time>
      </trkpt>
      <trkpt lat="60.115980474245" lon="21.537158358695">
        <ele>1.8</ele>
        <time>2016-07-19T10:47:38Z</time>
      </trkpt>
      <trkpt lat="60.115978881684" lon="21.537185767508">
        <ele>1.8</ele>
        <time>2016-07-19T10:47:39Z</time>
      </trkpt>
      <trkpt lat="60.115978211132" lon="21.537216361443">
        <ele>1.8</ele>
        <time>2016-07-19T10:47:40Z</time>
      </trkpt>
      <trkpt lat="60.115977037666" lon="21.537234382528">
        <ele>1.8</ele>
        <time>2016-07-19T10:47:41Z</time>
      </trkpt>
      <trkpt lat="60.115972762897" lon="21.537271179069">
        <ele>1.8</ele>
        <time>2016-07-19T10:47:42Z</time>
      </trkpt>
      <trkpt lat="60.115971086517" lon="21.537283249005">
        <ele>1.8</ele>
        <time>2016-07-19T10:47:43Z</time>
      </trkpt>
      <trkpt lat="60.115964883911" lon="21.537330103826">
        <ele>1.8</ele>
        <time>2016-07-19T10:47:44Z</time>
      </trkpt>
      <trkpt lat="60.115962369341" lon="21.537338066631">
        <ele>1.8</ele>
        <time>2016-07-19T10:47:45Z</time>
      </trkpt>
      <trkpt lat="60.115953484527" lon="21.537365643082">
        <ele>1.8</ele>
        <time>2016-07-19T10:47:46Z</time>
      </trkpt>
      <trkpt lat="60.115941582229" lon="21.537395817922">
        <ele>1.8</ele>
        <time>2016-07-19T10:47:47Z</time>
      </trkpt>
      <trkpt lat="60.115941917505" lon="21.537412916998">
        <ele>1.8</ele>
        <time>2016-07-19T10:47:48Z</time>
      </trkpt>
      <trkpt lat="60.11593144013" lon="21.537440996363">
        <ele>1.8</ele>
        <time>2016-07-19T10:47:49Z</time>
      </trkpt>
      <trkpt lat="60.115927752094" lon="21.53746471714">
        <ele>1.8</ele>
        <time>2016-07-19T10:47:50Z</time>
      </trkpt>
      <trkpt lat="60.115925069886" lon="21.537482235311">
        <ele>1.8</ele>
        <time>2016-07-19T10:47:51Z</time>
      </trkpt>
      <trkpt lat="60.115917023262" lon="21.537515427635">
        <ele>1.8</ele>
        <time>2016-07-19T10:47:52Z</time>
      </trkpt>
      <trkpt lat="60.115914257235" lon="21.537527832847">
        <ele>1.8</ele>
        <time>2016-07-19T10:47:53Z</time>
      </trkpt>
      <trkpt lat="60.115903696041" lon="21.537569407071">
        <ele>1.8</ele>
        <time>2016-07-19T10:47:54Z</time>
      </trkpt>
      <trkpt lat="60.115901349109" lon="21.537579381532">
        <ele>1.8</ele>
        <time>2016-07-19T10:47:55Z</time>
      </trkpt>
      <trkpt lat="60.115887351336" lon="21.537617602996">
        <ele>1.8</ele>
        <time>2016-07-19T10:47:56Z</time>
      </trkpt>
      <trkpt lat="60.115886345508" lon="21.537624979068">
        <ele>1.8</ele>
        <time>2016-07-19T10:47:57Z</time>
      </trkpt>
      <trkpt lat="60.115870084622" lon="21.537658422849">
        <ele>1.8</ele>
        <time>2016-07-19T10:47:58Z</time>
      </trkpt>
      <trkpt lat="60.115865809853" lon="21.537668062034">
        <ele>1.8</ele>
        <time>2016-07-19T10:47:59Z</time>
      </trkpt>
      <trkpt lat="60.115850554795" lon="21.537680551065">
        <ele>1.8</ele>
        <time>2016-07-19T10:48:00Z</time>
      </trkpt>
      <trkpt lat="60.115841502343" lon="21.537698907426">
        <ele>1.8</ele>
        <time>2016-07-19T10:48:01Z</time>
      </trkpt>
      <trkpt lat="60.115831611701" lon="21.537710055353">
        <ele>1.8</ele>
        <time>2016-07-19T10:48:02Z</time>
      </trkpt>
      <trkpt lat="60.115823984172" lon="21.537720029814">
        <ele>1.8</ele>
        <time>2016-07-19T10:48:03Z</time>
      </trkpt>
      <trkpt lat="60.115816440462" lon="21.53773377613">
        <ele>1.8</ele>
        <time>2016-07-19T10:48:04Z</time>
      </trkpt>
      <trkpt lat="60.115809399666" lon="21.537743247677">
        <ele>1.8</ele>
        <time>2016-07-19T10:48:05Z</time>
      </trkpt>
      <trkpt lat="60.115803616155" lon="21.537751545758">
        <ele>1.8</ele>
        <time>2016-07-19T10:48:06Z</time>
      </trkpt>
      <trkpt lat="60.115800095757" lon="21.537762609866">
        <ele>1.8</ele>
        <time>2016-07-19T10:48:07Z</time>
      </trkpt>
      <trkpt lat="60.115797245911" lon="21.537766214083">
        <ele>1.8</ele>
        <time>2016-07-19T10:48:08Z</time>
      </trkpt>
      <trkpt lat="60.115799928119" lon="21.537761017305">
        <ele>1.8</ele>
        <time>2016-07-19T10:48:09Z</time>
      </trkpt>
      <trkpt lat="60.115796323902" lon="21.53777233287">
        <ele>1.8</ele>
        <time>2016-07-19T10:48:10Z</time>
      </trkpt>
      <trkpt lat="60.115793390237" lon="21.537787923204">
        <ele>1.8</ele>
        <time>2016-07-19T10:48:11Z</time>
      </trkpt>
      <trkpt lat="60.115794898979" lon="21.537779625123">
        <ele>1.8</ele>
        <time>2016-07-19T10:48:12Z</time>
      </trkpt>
      <trkpt lat="60.115792887323" lon="21.537792868525">
        <ele>1.8</ele>
        <time>2016-07-19T10:48:13Z</time>
      </trkpt>
      <trkpt lat="60.115785175975" lon="21.537783899892">
        <ele>1.8</ele>
        <time>2016-07-19T10:48:14Z</time>
      </trkpt>
      <trkpt lat="60.115790121296" lon="21.53779077305">
        <ele>1.8</ele>
        <time>2016-07-19T10:48:15Z</time>
      </trkpt>
      <trkpt lat="60.115785511251" lon="21.53777065649">
        <ele>1.8</ele>
        <time>2016-07-19T10:48:16Z</time>
      </trkpt>
      <trkpt lat="60.115784924518" lon="21.537760765848">
        <ele>1.8</ele>
        <time>2016-07-19T10:48:17Z</time>
      </trkpt>
      <trkpt lat="60.115776542618" lon="21.5377446726">
        <ele>1.8</ele>
        <time>2016-07-19T10:48:18Z</time>
      </trkpt>
      <trkpt lat="60.115779392464" lon="21.537737212709">
        <ele>1.8</ele>
        <time>2016-07-19T10:48:19Z</time>
      </trkpt>
      <trkpt lat="60.115772603125" lon="21.537720532728">
        <ele>1.8</ele>
        <time>2016-07-19T10:48:20Z</time>
      </trkpt>
      <trkpt lat="60.11576296394" lon="21.537714162484">
        <ele>1.8</ele>
        <time>2016-07-19T10:48:21Z</time>
      </trkpt>
      <trkpt lat="60.115770004736" lon="21.537721622375">
        <ele>1.8</ele>
        <time>2016-07-19T10:48:22Z</time>
      </trkpt>
      <trkpt lat="60.115746116321" lon="21.537692034268">
        <ele>1.8</ele>
        <time>2016-07-19T10:48:23Z</time>
      </trkpt>
      <trkpt lat="60.11574284738" lon="21.53768935206">
        <ele>1.8</ele>
        <time>2016-07-19T10:48:24Z</time>
      </trkpt>
      <trkpt lat="60.115725832123" lon="21.537666553292">
        <ele>1.8</ele>
        <time>2016-07-19T10:48:25Z</time>
      </trkpt>
      <trkpt lat="60.115722647001" lon="21.537660266867">
        <ele>1.8</ele>
        <time>2016-07-19T10:48:26Z</time>
      </trkpt>
      <trkpt lat="60.115707811038" lon="21.537636210814">
        <ele>1.8</ele>
        <time>2016-07-19T10:48:27Z</time>
      </trkpt>
      <trkpt lat="60.115703536269" lon="21.537624895249">
        <ele>1.8</ele>
        <time>2016-07-19T10:48:28Z</time>
      </trkpt>
      <trkpt lat="60.115691466333" lon="21.537598492264">
        <ele>1.8</ele>
        <time>2016-07-19T10:48:29Z</time>
      </trkpt>
      <trkpt lat="60.115687275383" lon="21.537582315197">
        <ele>1.8</ele>
        <time>2016-07-19T10:48:30Z</time>
      </trkpt>
      <trkpt lat="60.115677636198" lon="21.537556415126">
        <ele>1.8</ele>
        <time>2016-07-19T10:48:31Z</time>
      </trkpt>
      <trkpt lat="60.115674534895" lon="21.537535376557">
        <ele>1.8</ele>
        <time>2016-07-19T10:48:32Z</time>
      </trkpt>
      <trkpt lat="60.115671433592" lon="21.537517355472">
        <ele>1.8</ele>
        <time>2016-07-19T10:48:33Z</time>
      </trkpt>
      <trkpt lat="60.115669841031" lon="21.537483744053">
        <ele>1.8</ele>
        <time>2016-07-19T10:48:34Z</time>
      </trkpt>
      <trkpt lat="60.115663889882" lon="21.537466561158">
        <ele>1.8</ele>
        <time>2016-07-19T10:48:35Z</time>
      </trkpt>
      <trkpt lat="60.115661878226" lon="21.53744460058">
        <ele>1.8</ele>
        <time>2016-07-19T10:48:36Z</time>
      </trkpt>
      <trkpt lat="60.115653244869" lon="21.537423310554">
        <ele>1.8</ele>
        <time>2016-07-19T10:48:37Z</time>
      </trkpt>
      <trkpt lat="60.115651568489" lon="21.537418532871">
        <ele>1.8</ele>
        <time>2016-07-19T10:48:38Z</time>
      </trkpt>
      <trkpt lat="60.115642851313" lon="21.537379473217">
        <ele>1.8</ele>
        <time>2016-07-19T10:48:39Z</time>
      </trkpt>
      <trkpt lat="60.115642096942" lon="21.537370672222">
        <ele>1.8</ele>
        <time>2016-07-19T10:48:40Z</time>
      </trkpt>
      <trkpt lat="60.115633463585" lon="21.53732641579">
        <ele>1.8</ele>
        <time>2016-07-19T10:48:41Z</time>
      </trkpt>
      <trkpt lat="60.115632960671" lon="21.537319626451">
        <ele>1.8</ele>
        <time>2016-07-19T10:48:42Z</time>
      </trkpt>
      <trkpt lat="60.115626758065" lon="21.537278052227">
        <ele>1.8</ele>
        <time>2016-07-19T10:48:43Z</time>
      </trkpt>
      <trkpt lat="60.115626087513" lon="21.537265982291">
        <ele>1.8</ele>
        <time>2016-07-19T10:48:44Z</time>
      </trkpt>
      <trkpt lat="60.115623489124" lon="21.537227928465">
        <ele>1.8</ele>
        <time>2016-07-19T10:48:45Z</time>
      </trkpt>
      <trkpt lat="60.115622902391" lon="21.537210242656">
        <ele>1.8</ele>
        <time>2016-07-19T10:48:46Z</time>
      </trkpt>
      <trkpt lat="60.115623153848" lon="21.537169003708">
        <ele>1.8</ele>
        <time>2016-07-19T10:48:47Z</time>
      </trkpt>
      <trkpt lat="60.115624494952" lon="21.537155592668">
        <ele>1.8</ele>
        <time>2016-07-19T10:48:48Z</time>
      </trkpt>
      <trkpt lat="60.11562717716" lon="21.537117371204">
        <ele>1.8</ele>
        <time>2016-07-19T10:48:49Z</time>
      </trkpt>
      <trkpt lat="60.115630446101" lon="21.537101361775">
        <ele>1.8</ele>
        <time>2016-07-19T10:48:50Z</time>
      </trkpt>
      <trkpt lat="60.115635056146" lon="21.537069762012">
        <ele>1.8</ele>
        <time>2016-07-19T10:48:51Z</time>
      </trkpt>
      <trkpt lat="60.115640085286" lon="21.53705232766">
        <ele>1.8</ele>
        <time>2016-07-19T10:48:52Z</time>
      </trkpt>
      <trkpt lat="60.115650143566" lon="21.537036318231">
        <ele>1.8</ele>
        <time>2016-07-19T10:48:53Z</time>
      </trkpt>
      <trkpt lat="60.115660537122" lon="21.537015531119">
        <ele>1.8</ele>
        <time>2016-07-19T10:48:54Z</time>
      </trkpt>
      <trkpt lat="60.11566238114" lon="21.536987284116">
        <ele>1.8</ele>
        <time>2016-07-19T10:48:55Z</time>
      </trkpt>
      <trkpt lat="60.115668499927" lon="21.536972112877">
        <ele>1.8</ele>
        <time>2016-07-19T10:48:56Z</time>
      </trkpt>
      <trkpt lat="60.115671936506" lon="21.536952834507">
        <ele>1.8</ele>
        <time>2016-07-19T10:48:57Z</time>
      </trkpt>
      <trkpt lat="60.115679061121" lon="21.536934226689">
        <ele>1.8</ele>
        <time>2016-07-19T10:48:58Z</time>
      </trkpt>
      <trkpt lat="60.115685599003" lon="21.536908578075">
        <ele>1.8</ele>
        <time>2016-07-19T10:48:59Z</time>
      </trkpt>
      <trkpt lat="60.115692891256" lon="21.536890473171">
        <ele>1.8</ele>
        <time>2016-07-19T10:49:00Z</time>
      </trkpt>
      <trkpt lat="60.115698507129" lon="21.536871027163">
        <ele>1.8</ele>
        <time>2016-07-19T10:49:01Z</time>
      </trkpt>
      <trkpt lat="60.115713343092" lon="21.536853760449">
        <ele>1.8</ele>
        <time>2016-07-19T10:49:02Z</time>
      </trkpt>
      <trkpt lat="60.115716779671" lon="21.536841439056">
        <ele>1.8</ele>
        <time>2016-07-19T10:49:03Z</time>
      </trkpt>
      <trkpt lat="60.115731699453" lon="21.536819143202">
        <ele>1.8</ele>
        <time>2016-07-19T10:49:04Z</time>
      </trkpt>
      <trkpt lat="60.115734549299" lon="21.536802463221">
        <ele>1.8</ele>
        <time>2016-07-19T10:49:05Z</time>
      </trkpt>
      <trkpt lat="60.115744691398" lon="21.536777652797">
        <ele>1.8</ele>
        <time>2016-07-19T10:49:06Z</time>
      </trkpt>
      <trkpt lat="60.115746954511" lon="21.536774635313">
        <ele>1.8</ele>
        <time>2016-07-19T10:49:07Z</time>
      </trkpt>
      <trkpt lat="60.115758689171" lon="21.536747394138">
        <ele>1.8</ele>
        <time>2016-07-19T10:49:08Z</time>
      </trkpt>
      <trkpt lat="60.115764807958" lon="21.536724846827">
        <ele>1.8</ele>
        <time>2016-07-19T10:49:09Z</time>
      </trkpt>
      <trkpt lat="60.115770256193" lon="21.53671621347">
        <ele>1.8</ele>
        <time>2016-07-19T10:49:10Z</time>
      </trkpt>
      <trkpt lat="60.11578056593" lon="21.536684697526">
        <ele>1.8</ele>
        <time>2016-07-19T10:49:11Z</time>
      </trkpt>
      <trkpt lat="60.115786265622" lon="21.536672208495">
        <ele>1.8</ele>
        <time>2016-07-19T10:49:12Z</time>
      </trkpt>
      <trkpt lat="60.115794479884" lon="21.536662234034">
        <ele>1.8</ele>
        <time>2016-07-19T10:49:13Z</time>
      </trkpt>
      <trkpt lat="60.115809651123" lon="21.536637088334">
        <ele>1.8</ele>
        <time>2016-07-19T10:49:14Z</time>
      </trkpt>
      <trkpt lat="60.115810824589" lon="21.536625018398">
        <ele>1.8</ele>
        <time>2016-07-19T10:49:15Z</time>
      </trkpt>
      <trkpt lat="60.115824067991" lon="21.536598447775">
        <ele>1.8</ele>
        <time>2016-07-19T10:49:16Z</time>
      </trkpt>
      <trkpt lat="60.11582666638" lon="21.536584282364">
        <ele>1.8</ele>
        <time>2016-07-19T10:49:17Z</time>
      </trkpt>
      <trkpt lat="60.115834629185" lon="21.536558969026">
        <ele>1.8</ele>
        <time>2016-07-19T10:49:18Z</time>
      </trkpt>
      <trkpt lat="60.11583672466" lon="21.536549748936">
        <ele>1.8</ele>
        <time>2016-07-19T10:49:19Z</time>
      </trkpt>
      <trkpt lat="60.115841669981" lon="21.53651588606">
        <ele>1.8</ele>
        <time>2016-07-19T10:49:20Z</time>
      </trkpt>
      <trkpt lat="60.115849381329" lon="21.536505995418">
        <ele>1.8</ele>
        <time>2016-07-19T10:49:21Z</time>
      </trkpt>
      <trkpt lat="60.115856254487" lon="21.53648403484">
        <ele>1.8</ele>
        <time>2016-07-19T10:49:22Z</time>
      </trkpt>
      <trkpt lat="60.115858936695" lon="21.536469031239">
        <ele>1.8</ele>
        <time>2016-07-19T10:49:23Z</time>
      </trkpt>
      <trkpt lat="60.115869665527" lon="21.536451513068">
        <ele>1.6</ele>
        <time>2016-07-19T10:49:24Z</time>
      </trkpt>
      <trkpt lat="60.115868994975" lon="21.536429133395">
        <ele>1.8</ele>
        <time>2016-07-19T10:49:25Z</time>
      </trkpt>
      <trkpt lat="60.115883244205" lon="21.536412201957">
        <ele>2</ele>
        <time>2016-07-19T10:49:26Z</time>
      </trkpt>
      <trkpt lat="60.115877125418" lon="21.536396443985">
        <ele>2.2</ele>
        <time>2016-07-19T10:49:27Z</time>
      </trkpt>
      <trkpt lat="60.115883328024" lon="21.536375573054">
        <ele>2.4</ele>
        <time>2016-07-19T10:49:28Z</time>
      </trkpt>
      <trkpt lat="60.115887938069" lon="21.536355875589">
        <ele>2.6</ele>
        <time>2016-07-19T10:49:29Z</time>
      </trkpt>
      <trkpt lat="60.115888189526" lon="21.536335172296">
        <ele>2.6</ele>
        <time>2016-07-19T10:49:30Z</time>
      </trkpt>
      <trkpt lat="60.115889111535" lon="21.53632561693">
        <ele>2.6</ele>
        <time>2016-07-19T10:49:31Z</time>
      </trkpt>
      <trkpt lat="60.115888608621" lon="21.536288652751">
        <ele>1.4</ele>
        <time>2016-07-19T10:49:32Z</time>
      </trkpt>
      <trkpt lat="60.115889111535" lon="21.536282533964">
        <ele>0.8</ele>
        <time>2016-07-19T10:49:33Z</time>
      </trkpt>
      <trkpt lat="60.115893302485" lon="21.536252526762">
        <ele>1.2</ele>
        <time>2016-07-19T10:49:34Z</time>
      </trkpt>
      <trkpt lat="60.115898499263" lon="21.536226039958">
        <ele>1.6</ele>
        <time>2016-07-19T10:49:35Z</time>
      </trkpt>
      <trkpt lat="60.115893470123" lon="21.536204163199">
        <ele>2</ele>
        <time>2016-07-19T10:49:36Z</time>
      </trkpt>
      <trkpt lat="60.115901600566" lon="21.536170635599">
        <ele>2.4</ele>
        <time>2016-07-19T10:49:37Z</time>
      </trkpt>
      <trkpt lat="60.115899672729" lon="21.536155129084">
        <ele>2.6</ele>
        <time>2016-07-19T10:49:38Z</time>
      </trkpt>
      <trkpt lat="60.115899924186" lon="21.536120930932">
        <ele>2.6</ele>
        <time>2016-07-19T10:49:39Z</time>
      </trkpt>
      <trkpt lat="60.115896403788" lon="21.536099473268">
        <ele>2.6</ele>
        <time>2016-07-19T10:49:40Z</time>
      </trkpt>
      <trkpt lat="60.115892631933" lon="21.536080446355">
        <ele>2.6</ele>
        <time>2016-07-19T10:49:41Z</time>
      </trkpt>
      <trkpt lat="60.115890201182" lon="21.536046583479">
        <ele>2.6</ele>
        <time>2016-07-19T10:49:42Z</time>
      </trkpt>
      <trkpt lat="60.115887435155" lon="21.536031328421">
        <ele>2.6</ele>
        <time>2016-07-19T10:49:43Z</time>
      </trkpt>
      <trkpt lat="60.115882992748" lon="21.535988916007">
        <ele>2.6</ele>
        <time>2016-07-19T10:49:44Z</time>
      </trkpt>
      <trkpt lat="60.115882070739" lon="21.535976426976">
        <ele>2.6</ele>
        <time>2016-07-19T10:49:45Z</time>
      </trkpt>
      <trkpt lat="60.115883747119" lon="21.535947341783">
        <ele>2.6</ele>
        <time>2016-07-19T10:49:46Z</time>
      </trkpt>
      <trkpt lat="60.115885926413" lon="21.535912808355">
        <ele>2.6</ele>
        <time>2016-07-19T10:49:47Z</time>
      </trkpt>
      <trkpt lat="60.115879388531" lon="21.535894284356">
        <ele>2.6</ele>
        <time>2016-07-19T10:49:48Z</time>
      </trkpt>
      <trkpt lat="60.115884920585" lon="21.535855979073">
        <ele>2.6</ele>
        <time>2016-07-19T10:49:49Z</time>
      </trkpt>
      <trkpt lat="60.115879556169" lon="21.535841059291">
        <ele>2.6</ele>
        <time>2016-07-19T10:49:50Z</time>
      </trkpt>
      <trkpt lat="60.115874359391" lon="21.535809878623">
        <ele>2.6</ele>
        <time>2016-07-19T10:49:51Z</time>
      </trkpt>
      <trkpt lat="60.115874191753" lon="21.535794958841">
        <ele>2.6</ele>
        <time>2016-07-19T10:49:52Z</time>
      </trkpt>
      <trkpt lat="60.115865977491" lon="21.535756066825">
        <ele>2.6</ele>
        <time>2016-07-19T10:49:53Z</time>
      </trkpt>
      <trkpt lat="60.115865055482" lon="21.535737542826">
        <ele>2.6</ele>
        <time>2016-07-19T10:49:54Z</time>
      </trkpt>
      <trkpt lat="60.115859020514" lon="21.535700913923">
        <ele>2.6</ele>
        <time>2016-07-19T10:49:55Z</time>
      </trkpt>
      <trkpt lat="60.115858769057" lon="21.535676271137">
        <ele>2.6</ele>
        <time>2016-07-19T10:49:56Z</time>
      </trkpt>
      <trkpt lat="60.115856254487" lon="21.535647772677">
        <ele>2.6</ele>
        <time>2016-07-19T10:49:57Z</time>
      </trkpt>
      <trkpt lat="60.115860110161" lon="21.53561650819">
        <ele>2.6</ele>
        <time>2016-07-19T10:49:58Z</time>
      </trkpt>
      <trkpt lat="60.115860361618" lon="21.535596894544">
        <ele>2.6</ele>
        <time>2016-07-19T10:49:59Z</time>
      </trkpt>
      <trkpt lat="60.115866731862" lon="21.535572587034">
        <ele>2.6</ele>
        <time>2016-07-19T10:50:00Z</time>
      </trkpt>
      <trkpt lat="60.115863127645" lon="21.53554107109">
        <ele>2.6</ele>
        <time>2016-07-19T10:50:01Z</time>
      </trkpt>
      <trkpt lat="60.115873772658" lon="21.535521876539">
        <ele>2.6</ele>
        <time>2016-07-19T10:50:02Z</time>
      </trkpt>
      <trkpt lat="60.115872599192" lon="21.535495473554">
        <ele>2.6</ele>
        <time>2016-07-19T10:50:03Z</time>
      </trkpt>
      <trkpt lat="60.115873353563" lon="21.535466723637">
        <ele>2.6</ele>
        <time>2016-07-19T10:50:04Z</time>
      </trkpt>
      <trkpt lat="60.115874024115" lon="21.535439566281">
        <ele>1.8</ele>
        <time>2016-07-19T10:50:05Z</time>
      </trkpt>
      <trkpt lat="60.115875449038" lon="21.535431687295">
        <ele>1.8</ele>
        <time>2016-07-19T10:50:06Z</time>
      </trkpt>
      <trkpt lat="60.11588114873" lon="21.535395561306">
        <ele>1.8</ele>
        <time>2016-07-19T10:50:07Z</time>
      </trkpt>
      <trkpt lat="60.11588114873" lon="21.535380054791">
        <ele>1.8</ele>
        <time>2016-07-19T10:50:08Z</time>
      </trkpt>
      <trkpt lat="60.115884250033" lon="21.535344515535">
        <ele>1.8</ele>
        <time>2016-07-19T10:50:09Z</time>
      </trkpt>
      <trkpt lat="60.115882406015" lon="21.535328925201">
        <ele>1.8</ele>
        <time>2016-07-19T10:50:10Z</time>
      </trkpt>
      <trkpt lat="60.115883244205" lon="21.535297576895">
        <ele>1.8</ele>
        <time>2016-07-19T10:50:11Z</time>
      </trkpt>
      <trkpt lat="60.115882406015" lon="21.535283830579">
        <ele>1.8</ele>
        <time>2016-07-19T10:50:12Z</time>
      </trkpt>
      <trkpt lat="60.115882489834" lon="21.535252482273">
        <ele>1.8</ele>
        <time>2016-07-19T10:50:13Z</time>
      </trkpt>
      <trkpt lat="60.115881567825" lon="21.535236724301">
        <ele>1.8</ele>
        <time>2016-07-19T10:50:14Z</time>
      </trkpt>
      <trkpt lat="60.115882070739" lon="21.535200263036">
        <ele>1.8</ele>
        <time>2016-07-19T10:50:15Z</time>
      </trkpt>
      <trkpt lat="60.115880897273" lon="21.535185007978">
        <ele>1.8</ele>
        <time>2016-07-19T10:50:16Z</time>
      </trkpt>
      <trkpt lat="60.115889195354" lon="21.535149217265">
        <ele>1.8</ele>
        <time>2016-07-19T10:50:17Z</time>
      </trkpt>
      <trkpt lat="60.115892548114" lon="21.535122562823">
        <ele>1.8</ele>
        <time>2016-07-19T10:50:18Z</time>
      </trkpt>
      <trkpt lat="60.115887267517" lon="21.535089957232">
        <ele>1.8</ele>
        <time>2016-07-19T10:50:19Z</time>
      </trkpt>
      <trkpt lat="60.115897158159" lon="21.5350708465">
        <ele>1.8</ele>
        <time>2016-07-19T10:50:20Z</time>
      </trkpt>
      <trkpt lat="60.115891458467" lon="21.535038660004">
        <ele>1.8</ele>
        <time>2016-07-19T10:50:21Z</time>
      </trkpt>
      <trkpt lat="60.115891626105" lon="21.53500714406">
        <ele>1.8</ele>
        <time>2016-07-19T10:50:22Z</time>
      </trkpt>
      <trkpt lat="60.115890955553" lon="21.534996079952">
        <ele>1.8</ele>
        <time>2016-07-19T10:50:23Z</time>
      </trkpt>
      <trkpt lat="60.115889614449" lon="21.534951404425">
        <ele>1.8</ele>
        <time>2016-07-19T10:50:24Z</time>
      </trkpt>
      <trkpt lat="60.11588785425" lon="21.534935646453">
        <ele>1.8</ele>
        <time>2016-07-19T10:50:25Z</time>
      </trkpt>
      <trkpt lat="60.115892631933" lon="21.534903376138">
        <ele>1.8</ele>
        <time>2016-07-19T10:50:26Z</time>
      </trkpt>
      <trkpt lat="60.115894224494" lon="21.53487890099">
        <ele>1.8</ele>
        <time>2016-07-19T10:50:27Z</time>
      </trkpt>
      <trkpt lat="60.115890452639" lon="21.534845876304">
        <ele>1.8</ele>
        <time>2016-07-19T10:50:28Z</time>
      </trkpt>
      <trkpt lat="60.115898331625" lon="21.534819724776">
        <ele>1.8</ele>
        <time>2016-07-19T10:50:29Z</time>
      </trkpt>
      <trkpt lat="60.115889614449" lon="21.534794159981">
        <ele>1.8</ele>
        <time>2016-07-19T10:50:30Z</time>
      </trkpt>
      <trkpt lat="60.115899337453" lon="21.534761219114">
        <ele>1.8</ele>
        <time>2016-07-19T10:50:31Z</time>
      </trkpt>
      <trkpt lat="60.115892715752" lon="21.534739593812">
        <ele>1.8</ele>
        <time>2016-07-19T10:50:32Z</time>
      </trkpt>
      <trkpt lat="60.115897158159" lon="21.534705228022">
        <ele>1.8</ele>
        <time>2016-07-19T10:50:33Z</time>
      </trkpt>
      <trkpt lat="60.115891290829" lon="21.534686033471">
        <ele>1.8</ele>
        <time>2016-07-19T10:50:34Z</time>
      </trkpt>
      <trkpt lat="60.115888105707" lon="21.534658708477">
        <ele>1.8</ele>
        <time>2016-07-19T10:50:35Z</time>
      </trkpt>
      <trkpt lat="60.115886764603" lon="21.534630377655">
        <ele>1.8</ele>
        <time>2016-07-19T10:50:36Z</time>
      </trkpt>
      <trkpt lat="60.115883495662" lon="21.534610093457">
        <ele>1.8</ele>
        <time>2016-07-19T10:50:37Z</time>
      </trkpt>
      <trkpt lat="60.115884166214" lon="21.534575140934">
        <ele>1.8</ele>
        <time>2016-07-19T10:50:38Z</time>
      </trkpt>
      <trkpt lat="60.115884333852" lon="21.534549576139">
        <ele>1.8</ele>
        <time>2016-07-19T10:50:39Z</time>
      </trkpt>
      <trkpt lat="60.115877879789" lon="21.534514204521">
        <ele>1.8</ele>
        <time>2016-07-19T10:50:40Z</time>
      </trkpt>
      <trkpt lat="60.115884417671" lon="21.534490483744">
        <ele>1.8</ele>
        <time>2016-07-19T10:50:41Z</time>
      </trkpt>
      <trkpt lat="60.115879807626" lon="21.534459470714">
        <ele>1.8</ele>
        <time>2016-07-19T10:50:42Z</time>
      </trkpt>
      <trkpt lat="60.11587360502" lon="21.534430553159">
        <ele>1.8</ele>
        <time>2016-07-19T10:50:43Z</time>
      </trkpt>
      <trkpt lat="60.115875029943" lon="21.53441622011">
        <ele>1.8</ele>
        <time>2016-07-19T10:50:44Z</time>
      </trkpt>
      <trkpt lat="60.115867486233" lon="21.534373388601">
        <ele>1.8</ele>
        <time>2016-07-19T10:50:45Z</time>
      </trkpt>
      <trkpt lat="60.115867653871" lon="21.534356792439">
        <ele>1.8</ele>
        <time>2016-07-19T10:50:46Z</time>
      </trkpt>
      <trkpt lat="60.115867821509" lon="21.534320414993">
        <ele>1.8</ele>
        <time>2016-07-19T10:50:47Z</time>
      </trkpt>
      <trkpt lat="60.115869497889" lon="21.534283366995">
        <ele>1.8</ele>
        <time>2016-07-19T10:50:48Z</time>
      </trkpt>
      <trkpt lat="60.115860445437" lon="21.534261238779">
        <ele>1.8</ele>
        <time>2016-07-19T10:50:49Z</time>
      </trkpt>
      <trkpt lat="60.115865642215" lon="21.534222933496">
        <ele>2.2</ele>
        <time>2016-07-19T10:50:50Z</time>
      </trkpt>
      <trkpt lat="60.115860110161" lon="21.53420667261">
        <ele>2.2</ele>
        <time>2016-07-19T10:50:51Z</time>
      </trkpt>
      <trkpt lat="60.115856086849" lon="21.534169205517">
        <ele>2.2</ele>
        <time>2016-07-19T10:50:52Z</time>
      </trkpt>
      <trkpt lat="60.115853907555" lon="21.534148586043">
        <ele>2.2</ele>
        <time>2016-07-19T10:50:53Z</time>
      </trkpt>
      <trkpt lat="60.115845022741" lon="21.53411950085">
        <ele>2.2</ele>
        <time>2016-07-19T10:50:54Z</time>
      </trkpt>
      <trkpt lat="60.11584259199" lon="21.534102234136">
        <ele>2.2</ele>
        <time>2016-07-19T10:50:55Z</time>
      </trkpt>
      <trkpt lat="60.115831527882" lon="21.534075160599">
        <ele>2.2</ele>
        <time>2016-07-19T10:50:56Z</time>
      </trkpt>
      <trkpt lat="60.11582834276" lon="21.53405998936">
        <ele>2.2</ele>
        <time>2016-07-19T10:50:57Z</time>
      </trkpt>
      <trkpt lat="60.115815518453" lon="21.534041130085">
        <ele>2.2</ele>
        <time>2016-07-19T10:50:58Z</time>
      </trkpt>
      <trkpt lat="60.115810992227" lon="21.534020678249">
        <ele>1.8</ele>
        <time>2016-07-19T10:50:59Z</time>
      </trkpt>
      <trkpt lat="60.11579732973" lon="21.534006009924">
        <ele>1.8</ele>
        <time>2016-07-19T10:51:00Z</time>
      </trkpt>
      <trkpt lat="60.115790037477" lon="21.533990503409">
        <ele>1.8</ele>
        <time>2016-07-19T10:51:01Z</time>
      </trkpt>
      <trkpt lat="60.115776039704" lon="21.53398622864">
        <ele>1.8</ele>
        <time>2016-07-19T10:51:02Z</time>
      </trkpt>
      <trkpt lat="60.115771178202" lon="21.533967704641">
        <ele>1.8</ele>
        <time>2016-07-19T10:51:03Z</time>
      </trkpt>
      <trkpt lat="60.1157579348" lon="21.533974242523">
        <ele>1.8</ele>
        <time>2016-07-19T10:51:04Z</time>
      </trkpt>
      <trkpt lat="60.115743517932" lon="21.533953120135">
        <ele>1.8</ele>
        <time>2016-07-19T10:51:05Z</time>
      </trkpt>
      <trkpt lat="60.115736477136" lon="21.533963094596">
        <ele>1.8</ele>
        <time>2016-07-19T10:51:06Z</time>
      </trkpt>
      <trkpt lat="60.115719545698" lon="21.533957562542">
        <ele>1.8</ele>
        <time>2016-07-19T10:51:07Z</time>
      </trkpt>
      <trkpt lat="60.115709403599" lon="21.533962088768">
        <ele>1.8</ele>
        <time>2016-07-19T10:51:08Z</time>
      </trkpt>
      <trkpt lat="60.115697249844" lon="21.533974745437">
        <ele>1.8</ele>
        <time>2016-07-19T10:51:09Z</time>
      </trkpt>
      <trkpt lat="60.115679815492" lon="21.533968375193">
        <ele>1.8</ele>
        <time>2016-07-19T10:51:10Z</time>
      </trkpt>
      <trkpt lat="60.11567327761" lon="21.533985055174">
        <ele>1.8</ele>
        <time>2016-07-19T10:51:11Z</time>
      </trkpt>
      <trkpt lat="60.115655088887" lon="21.533989329943">
        <ele>1.8</ele>
        <time>2016-07-19T10:51:12Z</time>
      </trkpt>
      <trkpt lat="60.115645868797" lon="21.533995867825">
        <ele>1.8</ele>
        <time>2016-07-19T10:51:13Z</time>
      </trkpt>
      <trkpt lat="60.11563472087" lon="21.534016152023">
        <ele>1.8</ele>
        <time>2016-07-19T10:51:14Z</time>
      </trkpt>
      <trkpt lat="60.115617370337" lon="21.534017074032">
        <ele>1.8</ele>
        <time>2016-07-19T10:51:15Z</time>
      </trkpt>
      <trkpt lat="60.11560957517" lon="21.534034340746">
        <ele>1.8</ele>
        <time>2016-07-19T10:51:16Z</time>
      </trkpt>
      <trkpt lat="60.115594906845" lon="21.534055463134">
        <ele>1.8</ele>
        <time>2016-07-19T10:51:17Z</time>
      </trkpt>
      <trkpt lat="60.1155819149" lon="21.534058480618">
        <ele>1.8</ele>
        <time>2016-07-19T10:51:18Z</time>
      </trkpt>
      <trkpt lat="60.115576131389" lon="21.534080357377">
        <ele>1.8</ele>
        <time>2016-07-19T10:51:19Z</time>
      </trkpt>
      <trkpt lat="60.115558529399" lon="21.534101312127">
        <ele>1.8</ele>
        <time>2016-07-19T10:51:20Z</time>
      </trkpt>
      <trkpt lat="60.115547716748" lon="21.534110867493">
        <ele>1.8</ele>
        <time>2016-07-19T10:51:21Z</time>
      </trkpt>
      <trkpt lat="60.115542268513" lon="21.534136767564">
        <ele>1.8</ele>
        <time>2016-07-19T10:51:22Z</time>
      </trkpt>
      <trkpt lat="60.115525504713" lon="21.534158309047">
        <ele>1.8</ele>
        <time>2016-07-19T10:51:23Z</time>
      </trkpt>
      <trkpt lat="60.115522319591" lon="21.534179599073">
        <ele>1.8</ele>
        <time>2016-07-19T10:51:24Z</time>
      </trkpt>
      <trkpt lat="60.115517038994" lon="21.534194267398">
        <ele>1.8</ele>
        <time>2016-07-19T10:51:25Z</time>
      </trkpt>
      <trkpt lat="60.115503544135" lon="21.534224526057">
        <ele>1.8</ele>
        <time>2016-07-19T10:51:26Z</time>
      </trkpt>
      <trkpt lat="60.115494994597" lon="21.534237434183">
        <ele>1.8</ele>
        <time>2016-07-19T10:51:27Z</time>
      </trkpt>
      <trkpt lat="60.115487450887" lon="21.534269033946">
        <ele>1.8</ele>
        <time>2016-07-19T10:51:28Z</time>
      </trkpt>
      <trkpt lat="60.115473369295" lon="21.534282864081">
        <ele>2.2</ele>
        <time>2016-07-19T10:51:29Z</time>
      </trkpt>
      <trkpt lat="60.115472195829" lon="21.534309686161">
        <ele>2.6</ele>
        <time>2016-07-19T10:51:30Z</time>
      </trkpt>
      <trkpt lat="60.115464400662" lon="21.534333406938">
        <ele>3</ele>
        <time>2016-07-19T10:51:31Z</time>
      </trkpt>
      <trkpt lat="60.115454258563" lon="21.534357043896">
        <ele>3.4</ele>
        <time>2016-07-19T10:51:32Z</time>
      </trkpt>
      <trkpt lat="60.115449313242" lon="21.534372047497">
        <ele>3.6</ele>
        <time>2016-07-19T10:51:33Z</time>
      </trkpt>
      <trkpt lat="60.115431208338" lon="21.534399121034">
        <ele>4</ele>
        <time>2016-07-19T10:51:34Z</time>
      </trkpt>
      <trkpt lat="60.11541762966" lon="21.534415298101">
        <ele>4</ele>
        <time>2016-07-19T10:51:35Z</time>
      </trkpt>
      <trkpt lat="60.115414444538" lon="21.534436588127">
        <ele>4</ele>
        <time>2016-07-19T10:51:36Z</time>
      </trkpt>
      <trkpt lat="60.115396926367" lon="21.534452849013">
        <ele>4</ele>
        <time>2016-07-19T10:51:37Z</time>
      </trkpt>
      <trkpt lat="60.115382341861" lon="21.534457710515">
        <ele>4</ele>
        <time>2016-07-19T10:51:38Z</time>
      </trkpt>
      <trkpt lat="60.115375552522" lon="21.534479000541">
        <ele>4</ele>
        <time>2016-07-19T10:51:39Z</time>
      </trkpt>
      <trkpt lat="60.115352586116" lon="21.534490735201">
        <ele>4</ele>
        <time>2016-07-19T10:51:40Z</time>
      </trkpt>
      <trkpt lat="60.115343198388" lon="21.534506409354">
        <ele>4</ele>
        <time>2016-07-19T10:51:41Z</time>
      </trkpt>
      <trkpt lat="60.115329787348" lon="21.534524514258">
        <ele>4</ele>
        <time>2016-07-19T10:51:42Z</time>
      </trkpt>
      <trkpt lat="60.115321824543" lon="21.534549911415">
        <ele>4</ele>
        <time>2016-07-19T10:51:43Z</time>
      </trkpt>
      <trkpt lat="60.115314029376" lon="21.534559215324">
        <ele>4</ele>
        <time>2016-07-19T10:51:44Z</time>
      </trkpt>
      <trkpt lat="60.115296427386" lon="21.534579750979">
        <ele>4</ele>
        <time>2016-07-19T10:51:45Z</time>
      </trkpt>
      <trkpt lat="60.115282261975" lon="21.53459726915">
        <ele>4</ele>
        <time>2016-07-19T10:51:46Z</time>
      </trkpt>
      <trkpt lat="60.115278909215" lon="21.534617218072">
        <ele>4</ele>
        <time>2016-07-19T10:51:47Z</time>
      </trkpt>
      <trkpt lat="60.115265833451" lon="21.534639430107">
        <ele>4</ele>
        <time>2016-07-19T10:51:48Z</time>
      </trkpt>
      <trkpt lat="60.115259714664" lon="21.534653930794">
        <ele>4</ele>
        <time>2016-07-19T10:51:49Z</time>
      </trkpt>
      <trkpt lat="60.115241442122" lon="21.534674885544">
        <ele>4</ele>
        <time>2016-07-19T10:51:50Z</time>
      </trkpt>
      <trkpt lat="60.115236999715" lon="21.534697349036">
        <ele>4</ele>
        <time>2016-07-19T10:51:51Z</time>
      </trkpt>
      <trkpt lat="60.115230545652" lon="21.534704389832">
        <ele>4</ele>
        <time>2016-07-19T10:51:52Z</time>
      </trkpt>
      <trkpt lat="60.115219062449" lon="21.534735402862">
        <ele>4</ele>
        <time>2016-07-19T10:51:53Z</time>
      </trkpt>
      <trkpt lat="60.115207411608" lon="21.534745377323">
        <ele>4</ele>
        <time>2016-07-19T10:51:54Z</time>
      </trkpt>
      <trkpt lat="60.115197520966" lon="21.534759375096">
        <ele>4</ele>
        <time>2016-07-19T10:51:55Z</time>
      </trkpt>
      <trkpt lat="60.115186540677" lon="21.534784436977">
        <ele>4</ele>
        <time>2016-07-19T10:51:56Z</time>
      </trkpt>
      <trkpt lat="60.115175057474" lon="21.534789717574">
        <ele>4</ele>
        <time>2016-07-19T10:51:57Z</time>
      </trkpt>
      <trkpt lat="60.115170782705" lon="21.534815533826">
        <ele>4</ele>
        <time>2016-07-19T10:51:58Z</time>
      </trkpt>
      <trkpt lat="60.115150917602" lon="21.534828022857">
        <ele>4</ele>
        <time>2016-07-19T10:51:59Z</time>
      </trkpt>
      <trkpt lat="60.115147816299" lon="21.534846295399">
        <ele>4</ele>
        <time>2016-07-19T10:52:00Z</time>
      </trkpt>
      <trkpt lat="60.115137506562" lon="21.534873452755">
        <ele>4</ele>
        <time>2016-07-19T10:52:01Z</time>
      </trkpt>
      <trkpt lat="60.115132477422" lon="21.534879403904">
        <ele>4</ele>
        <time>2016-07-19T10:52:02Z</time>
      </trkpt>
      <trkpt lat="60.115122419142" lon="21.534912093314">
        <ele>4</ele>
        <time>2016-07-19T10:52:03Z</time>
      </trkpt>
      <trkpt lat="60.115113618147" lon="21.534929276209">
        <ele>4</ele>
        <time>2016-07-19T10:52:04Z</time>
      </trkpt>
      <trkpt lat="60.115105487704" lon="21.534951991158">
        <ele>4</ele>
        <time>2016-07-19T10:52:05Z</time>
      </trkpt>
      <trkpt lat="60.115090567922" lon="21.534970347519">
        <ele>4</ele>
        <time>2016-07-19T10:52:06Z</time>
      </trkpt>
      <trkpt lat="60.115080425823" lon="21.534983088007">
        <ele>4</ele>
        <time>2016-07-19T10:52:07Z</time>
      </trkpt>
      <trkpt lat="60.115072882113" lon="21.53501049682">
        <ele>4</ele>
        <time>2016-07-19T10:52:08Z</time>
      </trkpt>
      <trkpt lat="60.11505804615" lon="21.535013598123">
        <ele>4</ele>
        <time>2016-07-19T10:52:09Z</time>
      </trkpt>
      <trkpt lat="60.11505050244" lon="21.535042599497">
        <ele>4</ele>
        <time>2016-07-19T10:52:10Z</time>
      </trkpt>
      <trkpt lat="60.115042623454" lon="21.535067409921">
        <ele>4</ele>
        <time>2016-07-19T10:52:11Z</time>
      </trkpt>
      <trkpt lat="60.11503457683" lon="21.53507419926">
        <ele>4</ele>
        <time>2016-07-19T10:52:12Z</time>
      </trkpt>
      <trkpt lat="60.115022925989" lon="21.535109487059">
        <ele>4</ele>
        <time>2016-07-19T10:52:13Z</time>
      </trkpt>
      <trkpt lat="60.115015885193" lon="21.535121054081">
        <ele>4</ele>
        <time>2016-07-19T10:52:14Z</time>
      </trkpt>
      <trkpt lat="60.115003312343" lon="21.535137314967">
        <ele>4</ele>
        <time>2016-07-19T10:52:15Z</time>
      </trkpt>
      <trkpt lat="60.114986548543" lon="21.53515550369">
        <ele>4</ele>
        <time>2016-07-19T10:52:16Z</time>
      </trkpt>
      <trkpt lat="60.114981100308" lon="21.535175368793">
        <ele>4</ele>
        <time>2016-07-19T10:52:17Z</time>
      </trkpt>
      <trkpt lat="60.114970455295" lon="21.535197580828">
        <ele>4</ele>
        <time>2016-07-19T10:52:18Z</time>
      </trkpt>
      <trkpt lat="60.114962324852" lon="21.535203448158">
        <ele>4</ele>
        <time>2016-07-19T10:52:19Z</time>
      </trkpt>
      <trkpt lat="60.114948327079" lon="21.535233958274">
        <ele>4</ele>
        <time>2016-07-19T10:52:20Z</time>
      </trkpt>
      <trkpt lat="60.114940951007" lon="21.535242256355">
        <ele>4</ele>
        <time>2016-07-19T10:52:21Z</time>
      </trkpt>
      <trkpt lat="60.114925109216" lon="21.535256002671">
        <ele>4</ele>
        <time>2016-07-19T10:52:22Z</time>
      </trkpt>
      <trkpt lat="60.114910859986" lon="21.535267485874">
        <ele>4</ele>
        <time>2016-07-19T10:52:23Z</time>
      </trkpt>
      <trkpt lat="60.114904908837" lon="21.535299085637">
        <ele>4</ele>
        <time>2016-07-19T10:52:24Z</time>
      </trkpt>
      <trkpt lat="60.114886049562" lon="21.535303779501">
        <ele>4</ele>
        <time>2016-07-19T10:52:25Z</time>
      </trkpt>
      <trkpt lat="60.114879679318" lon="21.535319705111">
        <ele>4</ele>
        <time>2016-07-19T10:52:26Z</time>
      </trkpt>
      <trkpt lat="60.11487196797" lon="21.535333283789">
        <ele>4</ele>
        <time>2016-07-19T10:52:27Z</time>
      </trkpt>
      <trkpt lat="60.11485520417" lon="21.535359016222">
        <ele>4</ele>
        <time>2016-07-19T10:52:28Z</time>
      </trkpt>
      <trkpt lat="60.114849672116" lon="21.535367230484">
        <ele>4</ele>
        <time>2016-07-19T10:52:29Z</time>
      </trkpt>
      <trkpt lat="60.114829974651" lon="21.535384832474">
        <ele>4</ele>
        <time>2016-07-19T10:52:30Z</time>
      </trkpt>
      <trkpt lat="60.114819916371" lon="21.535395142211">
        <ele>4</ele>
        <time>2016-07-19T10:52:31Z</time>
      </trkpt>
      <trkpt lat="60.114807930254" lon="21.535419784997">
        <ele>4</ele>
        <time>2016-07-19T10:52:32Z</time>
      </trkpt>
      <trkpt lat="60.114794267757" lon="21.535416013142">
        <ele>4</ele>
        <time>2016-07-19T10:52:33Z</time>
      </trkpt>
      <trkpt lat="60.114784377115" lon="21.535442667584">
        <ele>4</ele>
        <time>2016-07-19T10:52:34Z</time>
      </trkpt>
      <trkpt lat="60.114770882256" lon="21.535463789972">
        <ele>4</ele>
        <time>2016-07-19T10:52:35Z</time>
      </trkpt>
      <trkpt lat="60.114765182564" lon="21.535469573483">
        <ele>4</ele>
        <time>2016-07-19T10:52:36Z</time>
      </trkpt>
      <trkpt lat="60.114749508411" lon="21.535501257065">
        <ele>4</ele>
        <time>2016-07-19T10:52:37Z</time>
      </trkpt>
      <trkpt lat="60.114741461787" lon="21.535508633137">
        <ele>4</ele>
        <time>2016-07-19T10:52:38Z</time>
      </trkpt>
      <trkpt lat="60.114725536177" lon="21.535535539036">
        <ele>4</ele>
        <time>2016-07-19T10:52:39Z</time>
      </trkpt>
      <trkpt lat="60.114714807345" lon="21.535544926764">
        <ele>4</ele>
        <time>2016-07-19T10:52:40Z</time>
      </trkpt>
      <trkpt lat="60.114700306658" lon="21.535564875686">
        <ele>4</ele>
        <time>2016-07-19T10:52:41Z</time>
      </trkpt>
      <trkpt lat="60.114685303057" lon="21.535574766328">
        <ele>4</ele>
        <time>2016-07-19T10:52:42Z</time>
      </trkpt>
      <trkpt lat="60.11467499332" lon="21.535586500988">
        <ele>4</ele>
        <time>2016-07-19T10:52:43Z</time>
      </trkpt>
      <trkpt lat="60.114656972235" lon="21.535593374146">
        <ele>4</ele>
        <time>2016-07-19T10:52:44Z</time>
      </trkpt>
      <trkpt lat="60.11464649486" lon="21.53559303887">
        <ele>4</ele>
        <time>2016-07-19T10:52:45Z</time>
      </trkpt>
      <trkpt lat="60.11462889287" lon="21.535596307811">
        <ele>4</ele>
        <time>2016-07-19T10:52:46Z</time>
      </trkpt>
      <trkpt lat="60.114619840418" lon="21.535613406887">
        <ele>4</ele>
        <time>2016-07-19T10:52:47Z</time>
      </trkpt>
      <trkpt lat="60.114600142953" lon="21.535608796842">
        <ele>4</ele>
        <time>2016-07-19T10:52:48Z</time>
      </trkpt>
      <trkpt lat="60.11459536527" lon="21.535627153203">
        <ele>4</ele>
        <time>2016-07-19T10:52:49Z</time>
      </trkpt>
      <trkpt lat="60.114577260366" lon="21.535635954198">
        <ele>4</ele>
        <time>2016-07-19T10:52:50Z</time>
      </trkpt>
      <trkpt lat="60.114569884294" lon="21.535648946143">
        <ele>4</ele>
        <time>2016-07-19T10:52:51Z</time>
      </trkpt>
      <trkpt lat="60.114556221797" lon="21.535662021907">
        <ele>4</ele>
        <time>2016-07-19T10:52:52Z</time>
      </trkpt>
      <trkpt lat="60.114546498793" lon="21.535675684404">
        <ele>4</ele>
        <time>2016-07-19T10:52:53Z</time>
      </trkpt>
      <trkpt lat="60.114528561527" lon="21.535694543679">
        <ele>4</ele>
        <time>2016-07-19T10:52:54Z</time>
      </trkpt>
      <trkpt lat="60.114521269274" lon="21.535703009398">
        <ele>4</ele>
        <time>2016-07-19T10:52:55Z</time>
      </trkpt>
      <trkpt lat="60.114500146886" lon="21.535720108474">
        <ele>4</ele>
        <time>2016-07-19T10:52:56Z</time>
      </trkpt>
      <trkpt lat="60.114494950108" lon="21.535724802338">
        <ele>4</ele>
        <time>2016-07-19T10:52:57Z</time>
      </trkpt>
      <trkpt lat="60.114471983702" lon="21.53573804574">
        <ele>4</ele>
        <time>2016-07-19T10:52:58Z</time>
      </trkpt>
      <trkpt lat="60.114465110544" lon="21.535742823423">
        <ele>2.8</ele>
        <time>2016-07-19T10:52:59Z</time>
      </trkpt>
      <trkpt lat="60.114442563233" lon="21.535752881703">
        <ele>2.8</ele>
        <time>2016-07-19T10:53:00Z</time>
      </trkpt>
      <trkpt lat="60.114436276808" lon="21.535754977178">
        <ele>2.8</ele>
        <time>2016-07-19T10:53:01Z</time>
      </trkpt>
      <trkpt lat="60.114414567687" lon="21.535762269431">
        <ele>2.8</ele>
        <time>2016-07-19T10:53:02Z</time>
      </trkpt>
      <trkpt lat="60.1144084489" lon="21.535762604707">
        <ele>2.8</ele>
        <time>2016-07-19T10:53:03Z</time>
      </trkpt>
      <trkpt lat="60.114399647905" lon="21.535765203096">
        <ele>2.8</ele>
        <time>2016-07-19T10:53:04Z</time>
      </trkpt>
      <trkpt lat="60.114378944612" lon="21.535767130933">
        <ele>2.8</ele>
        <time>2016-07-19T10:53:05Z</time>
      </trkpt>
      <trkpt lat="60.11436234845" lon="21.535770986607">
        <ele>2.8</ele>
        <time>2016-07-19T10:53:06Z</time>
      </trkpt>
      <trkpt lat="60.114347847763" lon="21.53576905877">
        <ele>2.8</ele>
        <time>2016-07-19T10:53:07Z</time>
      </trkpt>
      <trkpt lat="60.114336867474" lon="21.535771489521">
        <ele>2.8</ele>
        <time>2016-07-19T10:53:08Z</time>
      </trkpt>
      <trkpt lat="60.114319936036" lon="21.535768639675">
        <ele>2.8</ele>
        <time>2016-07-19T10:53:09Z</time>
      </trkpt>
      <trkpt lat="60.114308452833" lon="21.535768472037">
        <ele>2.8</ele>
        <time>2016-07-19T10:53:10Z</time>
      </trkpt>
      <trkpt lat="60.114290012653" lon="21.535758497576">
        <ele>2.8</ele>
        <time>2016-07-19T10:53:11Z</time>
      </trkpt>
      <trkpt lat="60.114278948545" lon="21.535761934155">
        <ele>2.8</ele>
        <time>2016-07-19T10:53:12Z</time>
      </trkpt>
      <trkpt lat="60.114264866953" lon="21.535752881703">
        <ele>2.8</ele>
        <time>2016-07-19T10:53:13Z</time>
      </trkpt>
      <trkpt lat="60.114251120637" lon="21.535749361305">
        <ele>2.8</ele>
        <time>2016-07-19T10:53:14Z</time>
      </trkpt>
      <trkpt lat="60.114236787588" lon="21.535737542826">
        <ele>2.8</ele>
        <time>2016-07-19T10:53:15Z</time>
      </trkpt>
      <trkpt lat="60.114224717652" lon="21.535732932781">
        <ele>2.8</ele>
        <time>2016-07-19T10:53:16Z</time>
      </trkpt>
      <trkpt lat="60.114208792042" lon="21.535717342447">
        <ele>2.8</ele>
        <time>2016-07-19T10:53:17Z</time>
      </trkpt>
      <trkpt lat="60.114198733762" lon="21.535711391298">
        <ele>2.8</ele>
        <time>2016-07-19T10:53:18Z</time>
      </trkpt>
      <trkpt lat="60.114182053781" lon="21.535693956946">
        <ele>2.8</ele>
        <time>2016-07-19T10:53:19Z</time>
      </trkpt>
      <trkpt lat="60.114173001329" lon="21.535687083788">
        <ele>2.8</ele>
        <time>2016-07-19T10:53:20Z</time>
      </trkpt>
      <trkpt lat="60.114157243357" lon="21.535665877581">
        <ele>2.8</ele>
        <time>2016-07-19T10:53:21Z</time>
      </trkpt>
      <trkpt lat="60.114148945276" lon="21.535659423518">
        <ele>2.8</ele>
        <time>2016-07-19T10:53:22Z</time>
      </trkpt>
      <trkpt lat="60.114137545892" lon="21.535628410488">
        <ele>2.8</ele>
        <time>2016-07-19T10:53:23Z</time>
      </trkpt>
      <trkpt lat="60.114128661078" lon="21.535607539557">
        <ele>2.8</ele>
        <time>2016-07-19T10:53:24Z</time>
      </trkpt>
      <trkpt lat="60.114111059088" lon="21.535596810725">
        <ele>2.8</ele>
        <time>2016-07-19T10:53:25Z</time>
      </trkpt>
      <trkpt lat="60.114102090455" lon="21.535586584807">
        <ele>2.8</ele>
        <time>2016-07-19T10:53:26Z</time>
      </trkpt>
      <trkpt lat="60.114090691071" lon="21.535584070237">
        <ele>2.8</ele>
        <time>2016-07-19T10:53:27Z</time>
      </trkpt>
      <trkpt lat="60.114080968067" lon="21.535575772156">
        <ele>2.8</ele>
        <time>2016-07-19T10:53:28Z</time>
      </trkpt>
      <trkpt lat="60.114063701353" lon="21.535571078292">
        <ele>2.8</ele>
        <time>2016-07-19T10:53:29Z</time>
      </trkpt>
      <trkpt lat="60.114052301969" lon="21.535569737188">
        <ele>2.8</ele>
        <time>2016-07-19T10:53:30Z</time>
      </trkpt>
      <trkpt lat="60.114036543997" lon="21.535571665025">
        <ele>2.8</ele>
        <time>2016-07-19T10:53:31Z</time>
      </trkpt>
      <trkpt lat="60.114021875672" lon="21.535569821007">
        <ele>2.8</ele>
        <time>2016-07-19T10:53:32Z</time>
      </trkpt>
      <trkpt lat="60.114010979202" lon="21.535569904826">
        <ele>2.8</ele>
        <time>2016-07-19T10:53:33Z</time>
      </trkpt>
      <trkpt lat="60.113993377212" lon="21.535566132971">
        <ele>2.8</ele>
        <time>2016-07-19T10:53:34Z</time>
      </trkpt>
      <trkpt lat="60.113981139638" lon="21.535565210962">
        <ele>2.8</ele>
        <time>2016-07-19T10:53:35Z</time>
      </trkpt>
      <trkpt lat="60.113963034734" lon="21.535558421623">
        <ele>2.8</ele>
        <time>2016-07-19T10:53:36Z</time>
      </trkpt>
      <trkpt lat="60.11395498811" lon="21.535558840718">
        <ele>2.8</ele>
        <time>2016-07-19T10:53:37Z</time>
      </trkpt>
      <trkpt lat="60.113934703912" lon="21.535546016411">
        <ele>2.8</ele>
        <time>2016-07-19T10:53:38Z</time>
      </trkpt>
      <trkpt lat="60.113928333668" lon="21.535546435506">
        <ele>2.8</ele>
        <time>2016-07-19T10:53:39Z</time>
      </trkpt>
      <trkpt lat="60.113904612891" lon="21.535532018638">
        <ele>2.8</ele>
        <time>2016-07-19T10:53:40Z</time>
      </trkpt>
      <trkpt lat="60.113900254303" lon="21.535531180448">
        <ele>2.8</ele>
        <time>2016-07-19T10:53:41Z</time>
      </trkpt>
      <trkpt lat="60.113876617345" lon="21.535516931218">
        <ele>2.8</ele>
        <time>2016-07-19T10:53:42Z</time>
      </trkpt>
      <trkpt lat="60.113872174938" lon="21.535512824087">
        <ele>2.8</ele>
        <time>2016-07-19T10:53:43Z</time>
      </trkpt>
      <trkpt lat="60.113851806921" lon="21.535499329228">
        <ele>2.8</ele>
        <time>2016-07-19T10:53:44Z</time>
      </trkpt>
      <trkpt lat="60.113844598487" lon="21.535492539889">
        <ele>2.8</ele>
        <time>2016-07-19T10:53:45Z</time>
      </trkpt>
      <trkpt lat="60.113826158307" lon="21.535478290659">
        <ele>2.8</ele>
        <time>2016-07-19T10:53:46Z</time>
      </trkpt>
      <trkpt lat="60.113816351484" lon="21.535468483836">
        <ele>2.8</ele>
        <time>2016-07-19T10:53:47Z</time>
      </trkpt>
      <trkpt lat="60.113802940444" lon="21.535455827167">
        <ele>2.8</ele>
        <time>2016-07-19T10:53:48Z</time>
      </trkpt>
      <trkpt lat="60.113791121965" lon="21.535442583765">
        <ele>2.8</ele>
        <time>2016-07-19T10:53:49Z</time>
      </trkpt>
      <trkpt lat="60.113781315142" lon="21.53543462096">
        <ele>2.8</ele>
        <time>2016-07-19T10:53:50Z</time>
      </trkpt>
      <trkpt lat="60.113773771432" lon="21.535426071422">
        <ele>2.8</ele>
        <time>2016-07-19T10:53:51Z</time>
      </trkpt>
      <trkpt lat="60.113764383704" lon="21.535414085305">
        <ele>2.8</ele>
        <time>2016-07-19T10:53:52Z</time>
      </trkpt>
      <trkpt lat="60.113754912157" lon="21.535403859387">
        <ele>2.8</ele>
        <time>2016-07-19T10:53:53Z</time>
      </trkpt>
      <trkpt lat="60.113745189153" lon="21.535394136383">
        <ele>2.8</ele>
        <time>2016-07-19T10:53:54Z</time>
      </trkpt>
      <trkpt lat="60.113737393986" lon="21.535388269053">
        <ele>2.4</ele>
        <time>2016-07-19T10:53:55Z</time>
      </trkpt>
      <trkpt lat="60.113733035398" lon="21.535384078103">
        <ele>2</ele>
        <time>2016-07-19T10:53:56Z</time>
      </trkpt>
      <trkpt lat="60.113737813081" lon="21.535388101415">
        <ele>1.6</ele>
        <time>2016-07-19T10:53:57Z</time>
      </trkpt>
      <trkpt lat="60.113725743145" lon="21.535385335388">
        <ele>1.2</ele>
        <time>2016-07-19T10:53:58Z</time>
      </trkpt>
      <trkpt lat="60.11372029491" lon="21.535383239913">
        <ele>0.8</ele>
        <time>2016-07-19T10:53:59Z</time>
      </trkpt>
      <trkpt lat="60.113722558023" lon="21.535361949887">
        <ele>0.8</ele>
        <time>2016-07-19T10:54:00Z</time>
      </trkpt>
      <trkpt lat="60.113722222747" lon="21.535375444746">
        <ele>0.8</ele>
        <time>2016-07-19T10:54:01Z</time>
      </trkpt>
      <trkpt lat="60.113711493915" lon="21.53536505119">
        <ele>0.8</ele>
        <time>2016-07-19T10:54:02Z</time>
      </trkpt>
      <trkpt lat="60.113708392612" lon="21.535341749508">
        <ele>0.8</ele>
        <time>2016-07-19T10:54:03Z</time>
      </trkpt>
      <trkpt lat="60.113711326277" lon="21.535356334014">
        <ele>0.8</ele>
        <time>2016-07-19T10:54:04Z</time>
      </trkpt>
      <trkpt lat="60.113705961861" lon="21.535330350124">
        <ele>0.8</ele>
        <time>2016-07-19T10:54:05Z</time>
      </trkpt>
      <trkpt lat="60.113706297137" lon="21.535340240766">
        <ele>0.8</ele>
        <time>2016-07-19T10:54:06Z</time>
      </trkpt>
      <trkpt lat="60.11370353111" lon="21.535316017075">
        <ele>0.8</ele>
        <time>2016-07-19T10:54:07Z</time>
      </trkpt>
      <trkpt lat="60.113704872214" lon="21.535299840008">
        <ele>0.8</ele>
        <time>2016-07-19T10:54:08Z</time>
      </trkpt>
      <trkpt lat="60.113704117843" lon="21.53531140703">
        <ele>0.8</ele>
        <time>2016-07-19T10:54:09Z</time>
      </trkpt>
      <trkpt lat="60.113705794223" lon="21.535285590778">
        <ele>0.8</ele>
        <time>2016-07-19T10:54:10Z</time>
      </trkpt>
      <trkpt lat="60.113709482259" lon="21.535272263557">
        <ele>0.8</ele>
        <time>2016-07-19T10:54:11Z</time>
      </trkpt>
      <trkpt lat="60.113706716232" lon="21.535282740932">
        <ele>0.8</ele>
        <time>2016-07-19T10:54:12Z</time>
      </trkpt>
      <trkpt lat="60.11371023663" lon="21.535265977132">
        <ele>0.8</ele>
        <time>2016-07-19T10:54:13Z</time>
      </trkpt>
      <trkpt lat="60.113716690693" lon="21.535252314635">
        <ele>0.8</ele>
        <time>2016-07-19T10:54:14Z</time>
      </trkpt>
      <trkpt lat="60.113720211091" lon="21.535252314635">
        <ele>0.8</ele>
        <time>2016-07-19T10:54:15Z</time>
      </trkpt>
      <trkpt lat="60.113716774512" lon="21.535253823377">
        <ele>0.8</ele>
        <time>2016-07-19T10:54:16Z</time>
      </trkpt>
      <trkpt lat="60.113726497516" lon="21.535247117857">
        <ele>0.8</ele>
        <time>2016-07-19T10:54:17Z</time>
      </trkpt>
      <trkpt lat="60.11372280948" lon="21.535249213332">
        <ele>0.8</ele>
        <time>2016-07-19T10:54:18Z</time>
      </trkpt>
      <trkpt lat="60.113729347362" lon="21.535268072607">
        <ele>0.8</ele>
        <time>2016-07-19T10:54:19Z</time>
      </trkpt>
      <trkpt lat="60.113734292683" lon="21.535269581349">
        <ele>0.8</ele>
        <time>2016-07-19T10:54:20Z</time>
      </trkpt>
      <trkpt lat="60.113724402041" lon="21.535269581349">
        <ele>0.8</ele>
        <time>2016-07-19T10:54:21Z</time>
      </trkpt>
      <trkpt lat="60.113729347362" lon="21.535268324064">
        <ele>0.8</ele>
        <time>2016-07-19T10:54:22Z</time>
      </trkpt>
      <trkpt lat="60.113715349589" lon="21.535273101747">
        <ele>0.8</ele>
        <time>2016-07-19T10:54:23Z</time>
      </trkpt>
      <trkpt lat="60.113722390385" lon="21.53527452667">
        <ele>0.8</ele>
        <time>2016-07-19T10:54:24Z</time>
      </trkpt>
      <trkpt lat="60.113705626585" lon="21.535276370688">
        <ele>0.8</ele>
        <time>2016-07-19T10:54:25Z</time>
      </trkpt>
      <trkpt lat="60.113711996829" lon="21.53527704124">
        <ele>0.8</ele>
        <time>2016-07-19T10:54:26Z</time>
      </trkpt>
      <trkpt lat="60.113697412323" lon="21.535274610489">
        <ele>0.8</ele>
        <time>2016-07-19T10:54:27Z</time>
      </trkpt>
      <trkpt lat="60.113691042079" lon="21.535269581349">
        <ele>0.8</ele>
        <time>2016-07-19T10:54:28Z</time>
      </trkpt>
      <trkpt lat="60.113686851129" lon="21.535266396227">
        <ele>0.8</ele>
        <time>2016-07-19T10:54:29Z</time>
      </trkpt>
      <trkpt lat="60.113690706803" lon="21.535268910797">
        <ele>0.8</ele>
        <time>2016-07-19T10:54:30Z</time>
      </trkpt>
      <trkpt lat="60.113682743998" lon="21.535263127286">
        <ele>0.8</ele>
        <time>2016-07-19T10:54:31Z</time>
      </trkpt>
      <trkpt lat="60.113677714858" lon="21.535262959648">
        <ele>0.8</ele>
        <time>2016-07-19T10:54:32Z</time>
      </trkpt>
      <trkpt lat="60.113675367926" lon="21.535255667395">
        <ele>0.8</ele>
        <time>2016-07-19T10:54:33Z</time>
      </trkpt>
      <trkpt lat="60.11367419446" lon="21.535243429821">
        <ele>0.8</ele>
        <time>2016-07-19T10:54:34Z</time>
      </trkpt>
      <trkpt lat="60.113666986026" lon="21.535255080662">
        <ele>0.8</ele>
        <time>2016-07-19T10:54:35Z</time>
      </trkpt>
      <trkpt lat="60.113674529736" lon="21.535264049295">
        <ele>0.8</ele>
        <time>2016-07-19T10:54:36Z</time>
      </trkpt>
      <trkpt lat="60.113670757881" lon="21.535281902742">
        <ele>0.8</ele>
        <time>2016-07-19T10:54:37Z</time>
      </trkpt>
      <trkpt lat="60.113662962714" lon="21.535288524443">
        <ele>0.8</ele>
        <time>2016-07-19T10:54:38Z</time>
      </trkpt>
      <trkpt lat="60.113668243311" lon="21.53531140703">
        <ele>0.8</ele>
        <time>2016-07-19T10:54:39Z</time>
      </trkpt>
      <trkpt lat="60.113657682117" lon="21.535329092839">
        <ele>0.8</ele>
        <time>2016-07-19T10:54:40Z</time>
      </trkpt>
      <trkpt lat="60.113665896379" lon="21.535344347897">
        <ele>0.8</ele>
        <time>2016-07-19T10:54:41Z</time>
      </trkpt>
      <trkpt lat="60.113658017393" lon="21.53537678585">
        <ele>0.8</ele>
        <time>2016-07-19T10:54:42Z</time>
      </trkpt>
      <trkpt lat="60.113665142008" lon="21.535383826646">
        <ele>0.8</ele>
        <time>2016-07-19T10:54:43Z</time>
      </trkpt>
      <trkpt lat="60.113665561103" lon="21.535421126101">
        <ele>0.8</ele>
        <time>2016-07-19T10:54:44Z</time>
      </trkpt>
      <trkpt lat="60.113668159492" lon="21.535429759458">
        <ele>0.8</ele>
        <time>2016-07-19T10:54:45Z</time>
      </trkpt>
      <trkpt lat="60.113674110641" lon="21.535462532687">
        <ele>0.8</ele>
        <time>2016-07-19T10:54:46Z</time>
      </trkpt>
      <trkpt lat="60.11367335627" lon="21.535479380306">
        <ele>0.8</ele>
        <time>2016-07-19T10:54:47Z</time>
      </trkpt>
      <trkpt lat="60.113683666007" lon="21.535493126622">
        <ele>0.8</ele>
        <time>2016-07-19T10:54:48Z</time>
      </trkpt>
      <trkpt lat="60.113682827817" lon="21.535525061661">
        <ele>0.8</ele>
        <time>2016-07-19T10:54:49Z</time>
      </trkpt>
      <trkpt lat="60.113691712631" lon="21.535530342258">
        <ele>0.8</ele>
        <time>2016-07-19T10:54:50Z</time>
      </trkpt>
      <trkpt lat="60.113698753427" lon="21.535559846546">
        <ele>0.8</ele>
        <time>2016-07-19T10:54:51Z</time>
      </trkpt>
      <trkpt lat="60.113702525282" lon="21.535571916482">
        <ele>0.8</ele>
        <time>2016-07-19T10:54:52Z</time>
      </trkpt>
      <trkpt lat="60.113714930494" lon="21.535587087721">
        <ele>0.8</ele>
        <time>2016-07-19T10:54:53Z</time>
      </trkpt>
      <trkpt lat="60.11371861853" lon="21.535616675828">
        <ele>1</ele>
        <time>2016-07-19T10:54:54Z</time>
      </trkpt>
      <trkpt lat="60.113729012086" lon="21.535620363864">
        <ele>1.8</ele>
        <time>2016-07-19T10:54:55Z</time>
      </trkpt>
      <trkpt lat="60.113741668755" lon="21.535635367465">
        <ele>2.8</ele>
        <time>2016-07-19T10:54:56Z</time>
      </trkpt>
      <trkpt lat="60.113744015687" lon="21.535643917003">
        <ele>3.4</ele>
        <time>2016-07-19T10:54:57Z</time>
      </trkpt>
      <trkpt lat="60.113759270745" lon="21.535665542305">
        <ele>3</ele>
        <time>2016-07-19T10:54:58Z</time>
      </trkpt>
      <trkpt lat="60.113763629333" lon="21.535685575046">
        <ele>2.4</ele>
        <time>2016-07-19T10:54:59Z</time>
      </trkpt>
      <trkpt lat="60.113769999577" lon="21.535709966375">
        <ele>1.8</ele>
        <time>2016-07-19T10:55:00Z</time>
      </trkpt>
      <trkpt lat="60.113782740065" lon="21.535723125958">
        <ele>1.2</ele>
        <time>2016-07-19T10:55:01Z</time>
      </trkpt>
      <trkpt lat="60.113780896047" lon="21.535754893359">
        <ele>0.6</ele>
        <time>2016-07-19T10:55:02Z</time>
      </trkpt>
      <trkpt lat="60.113792295431" lon="21.535760928327">
        <ele>0.4</ele>
        <time>2016-07-19T10:55:03Z</time>
      </trkpt>
      <trkpt lat="60.113797240752" lon="21.535799736524">
        <ele>0.4</ele>
        <time>2016-07-19T10:55:04Z</time>
      </trkpt>
      <trkpt lat="60.113805874109" lon="21.535807196415">
        <ele>0.4</ele>
        <time>2016-07-19T10:55:05Z</time>
      </trkpt>
      <trkpt lat="60.113817189674" lon="21.535836700703">
        <ele>0.4</ele>
        <time>2016-07-19T10:55:06Z</time>
      </trkpt>
      <trkpt lat="60.113825320117" lon="21.535844160594">
        <ele>0.4</ele>
        <time>2016-07-19T10:55:07Z</time>
      </trkpt>
      <trkpt lat="60.113834959302" lon="21.535857487815">
        <ele>0.4</ele>
        <time>2016-07-19T10:55:08Z</time>
      </trkpt>
      <trkpt lat="60.113843592659" lon="21.53587886166">
        <ele>0.4</ele>
        <time>2016-07-19T10:55:09Z</time>
      </trkpt>
      <trkpt lat="60.113852561292" lon="21.535895122546">
        <ele>0.4</ele>
        <time>2016-07-19T10:55:10Z</time>
      </trkpt>
      <trkpt lat="60.113856584604" lon="21.535923956282">
        <ele>0.4</ele>
        <time>2016-07-19T10:55:11Z</time>
      </trkpt>
      <trkpt lat="60.113862032839" lon="21.535948347611">
        <ele>0.4</ele>
        <time>2016-07-19T10:55:12Z</time>
      </trkpt>
      <trkpt lat="60.113871336748" lon="21.535958657348">
        <ele>0.4</ele>
        <time>2016-07-19T10:55:13Z</time>
      </trkpt>
      <trkpt lat="60.113875695336" lon="21.535997381726">
        <ele>0.4</ele>
        <time>2016-07-19T10:55:14Z</time>
      </trkpt>
      <trkpt lat="60.113884747788" lon="21.536004506341">
        <ele>0.4</ele>
        <time>2016-07-19T10:55:15Z</time>
      </trkpt>
      <trkpt lat="60.113894135516" lon="21.536037447208">
        <ele>0.4</ele>
        <time>2016-07-19T10:55:16Z</time>
      </trkpt>
      <trkpt lat="60.113894973706" lon="21.536058066682">
        <ele>0.4</ele>
        <time>2016-07-19T10:55:17Z</time>
      </trkpt>
      <trkpt lat="60.113907378918" lon="21.536072986464">
        <ele>0.4</ele>
        <time>2016-07-19T10:55:18Z</time>
      </trkpt>
      <trkpt lat="60.113915090266" lon="21.536092683929">
        <ele>0.4</ele>
        <time>2016-07-19T10:55:19Z</time>
      </trkpt>
      <trkpt lat="60.113923220709" lon="21.536104921503">
        <ele>0.4</ele>
        <time>2016-07-19T10:55:20Z</time>
      </trkpt>
      <trkpt lat="60.113929171858" lon="21.536128055547">
        <ele>0.4</ele>
        <time>2016-07-19T10:55:21Z</time>
      </trkpt>
      <trkpt lat="60.11393319517" lon="21.53614708246">
        <ele>0.4</ele>
        <time>2016-07-19T10:55:22Z</time>
      </trkpt>
      <trkpt lat="60.1139474444" lon="21.536166025554">
        <ele>0.4</ele>
        <time>2016-07-19T10:55:23Z</time>
      </trkpt>
      <trkpt lat="60.113951132436" lon="21.536187902313">
        <ele>0.6</ele>
        <time>2016-07-19T10:55:24Z</time>
      </trkpt>
      <trkpt lat="60.113963202372" lon="21.536197625317">
        <ele>1</ele>
        <time>2016-07-19T10:55:25Z</time>
      </trkpt>
      <trkpt lat="60.11396672277" lon="21.536228303071">
        <ele>1.2</ele>
        <time>2016-07-19T10:55:26Z</time>
      </trkpt>
      <trkpt lat="60.113979547077" lon="21.536231823469">
        <ele>1.2</ele>
        <time>2016-07-19T10:55:27Z</time>
      </trkpt>
      <trkpt lat="60.113991281737" lon="21.536246240337">
        <ele>1.2</ele>
        <time>2016-07-19T10:55:28Z</time>
      </trkpt>
      <trkpt lat="60.113994718316" lon="21.536254454599">
        <ele>1.2</ele>
        <time>2016-07-19T10:55:29Z</time>
      </trkpt>
      <trkpt lat="60.114011565935" lon="21.536280438489">
        <ele>1.2</ele>
        <time>2016-07-19T10:55:30Z</time>
      </trkpt>
      <trkpt lat="60.114015673066" lon="21.53628873657">
        <ele>1.2</ele>
        <time>2016-07-19T10:55:31Z</time>
      </trkpt>
      <trkpt lat="60.114020869844" lon="21.53631052951">
        <ele>1.2</ele>
        <time>2016-07-19T10:55:32Z</time>
      </trkpt>
      <trkpt lat="60.114027575364" lon="21.536337519228">
        <ele>1.2</ele>
        <time>2016-07-19T10:55:33Z</time>
      </trkpt>
      <trkpt lat="60.114035370531" lon="21.536352187553">
        <ele>1.2</ele>
        <time>2016-07-19T10:55:34Z</time>
      </trkpt>
      <trkpt lat="60.114045680268" lon="21.536382278574">
        <ele>1.2</ele>
        <time>2016-07-19T10:55:35Z</time>
      </trkpt>
      <trkpt lat="60.114045009716" lon="21.536407256636">
        <ele>1.2</ele>
        <time>2016-07-19T10:55:36Z</time>
      </trkpt>
      <trkpt lat="60.114059426584" lon="21.536422511694">
        <ele>1.2</ele>
        <time>2016-07-19T10:55:37Z</time>
      </trkpt>
      <trkpt lat="60.114059091308" lon="21.536458386226">
        <ele>1.2</ele>
        <time>2016-07-19T10:55:38Z</time>
      </trkpt>
      <trkpt lat="60.114069903959" lon="21.536467606316">
        <ele>1.2</ele>
        <time>2016-07-19T10:55:39Z</time>
      </trkpt>
      <trkpt lat="60.114075855108" lon="21.536510689282">
        <ele>1.2</ele>
        <time>2016-07-19T10:55:40Z</time>
      </trkpt>
      <trkpt lat="60.114084656103" lon="21.536514544956">
        <ele>1.2</ele>
        <time>2016-07-19T10:55:41Z</time>
      </trkpt>
      <trkpt lat="60.114095720211" lon="21.536550670945">
        <ele>1.2</ele>
        <time>2016-07-19T10:55:42Z</time>
      </trkpt>
      <trkpt lat="60.114101419903" lon="21.536557292646">
        <ele>1.2</ele>
        <time>2016-07-19T10:55:43Z</time>
      </trkpt>
      <trkpt lat="60.114115585314" lon="21.536579923776">
        <ele>1.2</ele>
        <time>2016-07-19T10:55:44Z</time>
      </trkpt>
      <trkpt lat="60.114121201187" lon="21.536603141639">
        <ele>1.2</ele>
        <time>2016-07-19T10:55:45Z</time>
      </trkpt>
      <trkpt lat="60.114134276951" lon="21.536607332589">
        <ele>1.2</ele>
        <time>2016-07-19T10:55:46Z</time>
      </trkpt>
      <trkpt lat="60.11414190448" lon="21.536624264027">
        <ele>1.2</ele>
        <time>2016-07-19T10:55:47Z</time>
      </trkpt>
      <trkpt lat="60.11414861" lon="21.536632813565">
        <ele>1.2</ele>
        <time>2016-07-19T10:55:48Z</time>
      </trkpt>
      <trkpt lat="60.114154561149" lon="21.536662820767">
        <ele>1.2</ele>
        <time>2016-07-19T10:55:49Z</time>
      </trkpt>
      <trkpt lat="60.114169648569" lon="21.536659468007">
        <ele>1.2</ele>
        <time>2016-07-19T10:55:50Z</time>
      </trkpt>
      <trkpt lat="60.114174929166" lon="21.536682769689">
        <ele>1.2</ele>
        <time>2016-07-19T10:55:51Z</time>
      </trkpt>
      <trkpt lat="60.114183143428" lon="21.536684613707">
        <ele>1.2</ele>
        <time>2016-07-19T10:55:52Z</time>
      </trkpt>
      <trkpt lat="60.114195464821" lon="21.536711016692">
        <ele>1.2</ele>
        <time>2016-07-19T10:55:53Z</time>
      </trkpt>
      <trkpt lat="60.114202421798" lon="21.536711016692">
        <ele>1.2</ele>
        <time>2016-07-19T10:55:54Z</time>
      </trkpt>
      <trkpt lat="60.114215078467" lon="21.536728199587">
        <ele>1.2</ele>
        <time>2016-07-19T10:55:55Z</time>
      </trkpt>
      <trkpt lat="60.114222622177" lon="21.536730378881">
        <ele>1.2</ele>
        <time>2016-07-19T10:55:56Z</time>
      </trkpt>
      <trkpt lat="60.114233434828" lon="21.536734150736">
        <ele>1.2</ele>
        <time>2016-07-19T10:55:57Z</time>
      </trkpt>
      <trkpt lat="60.114240978538" lon="21.536741694446">
        <ele>1.2</ele>
        <time>2016-07-19T10:55:58Z</time>
      </trkpt>
      <trkpt lat="60.114254054302" lon="21.536747980871">
        <ele>1.2</ele>
        <time>2016-07-19T10:55:59Z</time>
      </trkpt>
      <trkpt lat="60.114264447858" lon="21.536757620056">
        <ele>1.2</ele>
        <time>2016-07-19T10:56:00Z</time>
      </trkpt>
      <trkpt lat="60.114275092871" lon="21.53676482849">
        <ele>1.2</ele>
        <time>2016-07-19T10:56:01Z</time>
      </trkpt>
      <trkpt lat="60.114288839187" lon="21.536784609774">
        <ele>1.2</ele>
        <time>2016-07-19T10:56:02Z</time>
      </trkpt>
      <trkpt lat="60.114293030137" lon="21.536792404941">
        <ele>1.2</ele>
        <time>2016-07-19T10:56:03Z</time>
      </trkpt>
      <trkpt lat="60.114295377069" lon="21.536809084922">
        <ele>1.2</ele>
        <time>2016-07-19T10:56:04Z</time>
      </trkpt>
      <trkpt lat="60.114303591331" lon="21.536844959454">
        <ele>1.2</ele>
        <time>2016-07-19T10:56:05Z</time>
      </trkpt>
      <trkpt lat="60.114309626299" lon="21.536848144576">
        <ele>1.2</ele>
        <time>2016-07-19T10:56:06Z</time>
      </trkpt>
      <trkpt lat="60.114316331819" lon="21.536883097099">
        <ele>1.2</ele>
        <time>2016-07-19T10:56:07Z</time>
      </trkpt>
      <trkpt lat="60.114316415638" lon="21.536896843415">
        <ele>1.2</ele>
        <time>2016-07-19T10:56:08Z</time>
      </trkpt>
      <trkpt lat="60.114329072307" lon="21.536915451233">
        <ele>1.2</ele>
        <time>2016-07-19T10:56:09Z</time>
      </trkpt>
      <trkpt lat="60.114329742859" lon="21.536946045168">
        <ele>1.2</ele>
        <time>2016-07-19T10:56:10Z</time>
      </trkpt>
      <trkpt lat="60.114340639329" lon="21.536955768172">
        <ele>1.2</ele>
        <time>2016-07-19T10:56:11Z</time>
      </trkpt>
      <trkpt lat="60.11434474646" lon="21.536982674071">
        <ele>2</ele>
        <time>2016-07-19T10:56:12Z</time>
      </trkpt>
      <trkpt lat="60.114354301826" lon="21.536987200297">
        <ele>2</ele>
        <time>2016-07-19T10:56:13Z</time>
      </trkpt>
      <trkpt lat="60.114357989862" lon="21.537023326286">
        <ele>2</ele>
        <time>2016-07-19T10:56:14Z</time>
      </trkpt>
      <trkpt lat="60.114367461409" lon="21.537023410105">
        <ele>2</ele>
        <time>2016-07-19T10:56:15Z</time>
      </trkpt>
      <trkpt lat="60.114377519689" lon="21.537058362628">
        <ele>2</ele>
        <time>2016-07-19T10:56:16Z</time>
      </trkpt>
      <trkpt lat="60.114382967924" lon="21.537064146139">
        <ele>2</ele>
        <time>2016-07-19T10:56:17Z</time>
      </trkpt>
      <trkpt lat="60.114396043688" lon="21.537084095061">
        <ele>2</ele>
        <time>2016-07-19T10:56:18Z</time>
      </trkpt>
      <trkpt lat="60.114401156647" lon="21.537100439766">
        <ele>2</ele>
        <time>2016-07-19T10:56:19Z</time>
      </trkpt>
      <trkpt lat="60.114414064773" lon="21.537105385087">
        <ele>2</ele>
        <time>2016-07-19T10:56:20Z</time>
      </trkpt>
      <trkpt lat="60.114419932103" lon="21.537128519131">
        <ele>2</ele>
        <time>2016-07-19T10:56:21Z</time>
      </trkpt>
      <trkpt lat="60.114434600428" lon="21.537124914914">
        <ele>2</ele>
        <time>2016-07-19T10:56:22Z</time>
      </trkpt>
      <trkpt lat="60.114438791378" lon="21.537155844125">
        <ele>2</ele>
        <time>2016-07-19T10:56:23Z</time>
      </trkpt>
      <trkpt lat="60.114455219902" lon="21.537146288759">
        <ele>2</ele>
        <time>2016-07-19T10:56:24Z</time>
      </trkpt>
      <trkpt lat="60.114462512155" lon="21.537155760306">
        <ele>2</ele>
        <time>2016-07-19T10:56:25Z</time>
      </trkpt>
      <trkpt lat="60.114468630942" lon="21.537145450569">
        <ele>2</ele>
        <time>2016-07-19T10:56:26Z</time>
      </trkpt>
      <trkpt lat="60.114475168824" lon="21.537153916288">
        <ele>2</ele>
        <time>2016-07-19T10:56:27Z</time>
      </trkpt>
      <trkpt lat="60.114482963991" lon="21.537158945428">
        <ele>2</ele>
        <time>2016-07-19T10:56:28Z</time>
      </trkpt>
      <trkpt lat="60.114489920968" lon="21.537163304016">
        <ele>2</ele>
        <time>2016-07-19T10:56:29Z</time>
      </trkpt>
      <trkpt lat="60.114499057239" lon="21.537173362296">
        <ele>2</ele>
        <time>2016-07-19T10:56:30Z</time>
      </trkpt>
      <trkpt lat="60.114503918741" lon="21.537175290133">
        <ele>2</ele>
        <time>2016-07-19T10:56:31Z</time>
      </trkpt>
      <trkpt lat="60.114511127175" lon="21.537189623182">
        <ele>2</ele>
        <time>2016-07-19T10:56:32Z</time>
      </trkpt>
      <trkpt lat="60.114521185455" lon="21.537187024793">
        <ele>2</ele>
        <time>2016-07-19T10:56:33Z</time>
      </trkpt>
      <trkpt lat="60.114526382233" lon="21.537187611526">
        <ele>2</ele>
        <time>2016-07-19T10:56:34Z</time>
      </trkpt>
      <trkpt lat="60.114535937599" lon="21.53718224711">
        <ele>2</ele>
        <time>2016-07-19T10:56:35Z</time>
      </trkpt>
      <trkpt lat="60.114538619807" lon="21.537185432232">
        <ele>2</ele>
        <time>2016-07-19T10:56:36Z</time>
      </trkpt>
      <trkpt lat="60.114552198485" lon="21.537175457771">
        <ele>2</ele>
        <time>2016-07-19T10:56:37Z</time>
      </trkpt>
      <trkpt lat="60.114557814358" lon="21.537176128323">
        <ele>2</ele>
        <time>2016-07-19T10:56:38Z</time>
      </trkpt>
      <trkpt lat="60.114568291733" lon="21.537171015364">
        <ele>2</ele>
        <time>2016-07-19T10:56:39Z</time>
      </trkpt>
      <trkpt lat="60.11457860147" lon="21.537174368124">
        <ele>2</ele>
        <time>2016-07-19T10:56:40Z</time>
      </trkpt>
      <trkpt lat="60.114584636438" lon="21.537175709228">
        <ele>2</ele>
        <time>2016-07-19T10:56:41Z</time>
      </trkpt>
      <trkpt lat="60.114597460745" lon="21.537188617354">
        <ele>2</ele>
        <time>2016-07-19T10:56:42Z</time>
      </trkpt>
      <trkpt lat="60.114602489885" lon="21.537193059761">
        <ele>2</ele>
        <time>2016-07-19T10:56:43Z</time>
      </trkpt>
      <trkpt lat="60.114616571477" lon="21.537201357842">
        <ele>2</ele>
        <time>2016-07-19T10:56:44Z</time>
      </trkpt>
      <trkpt lat="60.114621432979" lon="21.537218037823">
        <ele>2</ele>
        <time>2016-07-19T10:56:45Z</time>
      </trkpt>
      <trkpt lat="60.114632580906" lon="21.537221139126">
        <ele>2</ele>
        <time>2016-07-19T10:56:46Z</time>
      </trkpt>
      <trkpt lat="60.114646830136" lon="21.537243686437">
        <ele>2</ele>
        <time>2016-07-19T10:56:47Z</time>
      </trkpt>
      <trkpt lat="60.114655631131" lon="21.537263719178">
        <ele>2</ele>
        <time>2016-07-19T10:56:48Z</time>
      </trkpt>
      <trkpt lat="60.114664432126" lon="21.537272017259">
        <ele>2</ele>
        <time>2016-07-19T10:56:49Z</time>
      </trkpt>
      <trkpt lat="60.114676334424" lon="21.53728702086">
        <ele>2</ele>
        <time>2016-07-19T10:56:50Z</time>
      </trkpt>
      <trkpt lat="60.114680944469" lon="21.537295821855">
        <ele>2</ele>
        <time>2016-07-19T10:56:51Z</time>
      </trkpt>
      <trkpt lat="60.114674909501" lon="21.537286769403">
        <ele>2</ele>
        <time>2016-07-19T10:56:52Z</time>
      </trkpt>
      <trkpt lat="60.114680273917" lon="21.537291044172">
        <ele>2</ele>
        <time>2016-07-19T10:56:53Z</time>
      </trkpt>
      <trkpt lat="60.114679771003" lon="21.537285595937">
        <ele>2</ele>
        <time>2016-07-19T10:56:54Z</time>
      </trkpt>
      <trkpt lat="60.114678681356" lon="21.537279980064">
        <ele>2</ele>
        <time>2016-07-19T10:56:55Z</time>
      </trkpt>
      <trkpt lat="60.114677591709" lon="21.537277381675">
        <ele>2</ele>
        <time>2016-07-19T10:56:56Z</time>
      </trkpt>
      <trkpt lat="60.11467415513" lon="21.537262461893">
        <ele>2</ele>
        <time>2016-07-19T10:56:57Z</time>
      </trkpt>
      <trkpt lat="60.114674238949" lon="21.53724762593">
        <ele>2</ele>
        <time>2016-07-19T10:56:58Z</time>
      </trkpt>
      <trkpt lat="60.114671053827" lon="21.537237902926">
        <ele>2</ele>
        <time>2016-07-19T10:56:59Z</time>
      </trkpt>
      <trkpt lat="60.11466577323" lon="21.537247961206">
        <ele>2</ele>
        <time>2016-07-19T10:57:00Z</time>
      </trkpt>
      <trkpt lat="60.114656720778" lon="21.537235220718">
        <ele>2</ele>
        <time>2016-07-19T10:57:01Z</time>
      </trkpt>
      <trkpt lat="60.114663510117" lon="21.537242177695">
        <ele>2</ele>
        <time>2016-07-19T10:57:02Z</time>
      </trkpt>
      <trkpt lat="60.114655295855" lon="21.537239914582">
        <ele>2</ele>
        <time>2016-07-19T10:57:03Z</time>
      </trkpt>
      <trkpt lat="60.114654373846" lon="21.537242680609">
        <ele>2</ele>
        <time>2016-07-19T10:57:04Z</time>
      </trkpt>
      <trkpt lat="60.114652529828" lon="21.537256091649">
        <ele>2</ele>
        <time>2016-07-19T10:57:05Z</time>
      </trkpt>
      <trkpt lat="60.114652948923" lon="21.537248212663">
        <ele>2</ele>
        <time>2016-07-19T10:57:06Z</time>
      </trkpt>
      <trkpt lat="60.114652697466" lon="21.537278303684">
        <ele>2</ele>
        <time>2016-07-19T10:57:07Z</time>
      </trkpt>
      <trkpt lat="60.114654541484" lon="21.537282746091">
        <ele>2</ele>
        <time>2016-07-19T10:57:08Z</time>
      </trkpt>
      <trkpt lat="60.114655882588" lon="21.537305963954">
        <ele>2</ele>
        <time>2016-07-19T10:57:09Z</time>
      </trkpt>
      <trkpt lat="60.114658983891" lon="21.537318117709">
        <ele>2</ele>
        <time>2016-07-19T10:57:10Z</time>
      </trkpt>
      <trkpt lat="60.114666695239" lon="21.537332702215">
        <ele>2</ele>
        <time>2016-07-19T10:57:11Z</time>
      </trkpt>
      <trkpt lat="60.114669628904" lon="21.537352567318">
        <ele>2</ele>
        <time>2016-07-19T10:57:12Z</time>
      </trkpt>
      <trkpt lat="60.114677340252" lon="21.537365726901">
        <ele>2</ele>
        <time>2016-07-19T10:57:13Z</time>
      </trkpt>
      <trkpt lat="60.114686560342" lon="21.537379557036">
        <ele>2</ele>
        <time>2016-07-19T10:57:14Z</time>
      </trkpt>
      <trkpt lat="60.114687398532" lon="21.537398081035">
        <ele>2</ele>
        <time>2016-07-19T10:57:15Z</time>
      </trkpt>
      <trkpt lat="60.114692762948" lon="21.53740520565">
        <ele>2</ele>
        <time>2016-07-19T10:57:16Z</time>
      </trkpt>
      <trkpt lat="60.11469846264" lon="21.537416185939">
        <ele>2</ele>
        <time>2016-07-19T10:57:17Z</time>
      </trkpt>
      <trkpt lat="60.114698965554" lon="21.5374261604">
        <ele>2</ele>
        <time>2016-07-19T10:57:18Z</time>
      </trkpt>
      <trkpt lat="60.11469846264" lon="21.537438984707">
        <ele>2</ele>
        <time>2016-07-19T10:57:19Z</time>
      </trkpt>
      <trkpt lat="60.114698211183" lon="21.537428339694">
        <ele>2</ele>
        <time>2016-07-19T10:57:20Z</time>
      </trkpt>
      <trkpt lat="60.114710532576" lon="21.537441583096">
        <ele>2</ele>
        <time>2016-07-19T10:57:21Z</time>
      </trkpt>
      <trkpt lat="60.114714220612" lon="21.537420125432">
        <ele>2</ele>
        <time>2016-07-19T10:57:22Z</time>
      </trkpt>
      <trkpt lat="60.114723524521" lon="21.537419622518">
        <ele>2</ele>
        <time>2016-07-19T10:57:23Z</time>
      </trkpt>
      <trkpt lat="60.114726625824" lon="21.537409480419">
        <ele>2</ele>
        <time>2016-07-19T10:57:24Z</time>
      </trkpt>
      <trkpt lat="60.114738444303" lon="21.537400260329">
        <ele>2</ele>
        <time>2016-07-19T10:57:25Z</time>
      </trkpt>
      <trkpt lat="60.114739701588" lon="21.537391124058">
        <ele>2</ele>
        <time>2016-07-19T10:57:26Z</time>
      </trkpt>
      <trkpt lat="60.114751687705" lon="21.537384753814">
        <ele>2</ele>
        <time>2016-07-19T10:57:27Z</time>
      </trkpt>
      <trkpt lat="60.114757806492" lon="21.537373689706">
        <ele>2</ele>
        <time>2016-07-19T10:57:28Z</time>
      </trkpt>
      <trkpt lat="60.114765853116" lon="21.537372180964">
        <ele>2</ele>
        <time>2016-07-19T10:57:29Z</time>
      </trkpt>
      <trkpt lat="60.114777587776" lon="21.537368744385">
        <ele>2</ele>
        <time>2016-07-19T10:57:30Z</time>
      </trkpt>
      <trkpt lat="60.114785885857" lon="21.53736832529">
        <ele>2</ele>
        <time>2016-07-19T10:57:31Z</time>
      </trkpt>
      <trkpt lat="60.114794686852" lon="21.537378970303">
        <ele>2</ele>
        <time>2016-07-19T10:57:32Z</time>
      </trkpt>
      <trkpt lat="60.114800302725" lon="21.537376791009">
        <ele>2</ele>
        <time>2016-07-19T10:57:33Z</time>
      </trkpt>
      <trkpt lat="60.114805080408" lon="21.537393303352">
        <ele>2</ele>
        <time>2016-07-19T10:57:34Z</time>
      </trkpt>
      <trkpt lat="60.114810361005" lon="21.53739850013">
        <ele>2</ele>
        <time>2016-07-19T10:57:35Z</time>
      </trkpt>
      <trkpt lat="60.114807175883" lon="21.537413168455">
        <ele>2</ele>
        <time>2016-07-19T10:57:36Z</time>
      </trkpt>
      <trkpt lat="60.114807678797" lon="21.537401769071">
        <ele>2</ele>
        <time>2016-07-19T10:57:37Z</time>
      </trkpt>
      <trkpt lat="60.11480742734" lon="21.537419203423">
        <ele>2</ele>
        <time>2016-07-19T10:57:38Z</time>
      </trkpt>
      <trkpt lat="60.114807175883" lon="21.537425573667">
        <ele>2</ele>
        <time>2016-07-19T10:57:39Z</time>
      </trkpt>
      <trkpt lat="60.114814803412" lon="21.537411575894">
        <ele>2</ele>
        <time>2016-07-19T10:57:40Z</time>
      </trkpt>
      <trkpt lat="60.114809774272" lon="21.537422388545">
        <ele>2</ele>
        <time>2016-07-19T10:57:41Z</time>
      </trkpt>
      <trkpt lat="60.114825783701" lon="21.537400260329">
        <ele>2</ele>
        <time>2016-07-19T10:57:42Z</time>
      </trkpt>
      <trkpt lat="60.114817401801" lon="21.537410905342">
        <ele>2</ele>
        <time>2016-07-19T10:57:43Z</time>
      </trkpt>
      <trkpt lat="60.114840619664" lon="21.537391878429">
        <ele>2</ele>
        <time>2016-07-19T10:57:44Z</time>
      </trkpt>
      <trkpt lat="60.114845648804" lon="21.537392046067">
        <ele>2</ele>
        <time>2016-07-19T10:57:45Z</time>
      </trkpt>
      <trkpt lat="60.114853695428" lon="21.537396488474">
        <ele>2</ele>
        <time>2016-07-19T10:57:46Z</time>
      </trkpt>
      <trkpt lat="60.114866268278" lon="21.537407636401">
        <ele>2</ele>
        <time>2016-07-19T10:57:47Z</time>
      </trkpt>
      <trkpt lat="60.114873811988" lon="21.537396488474">
        <ele>2</ele>
        <time>2016-07-19T10:57:48Z</time>
      </trkpt>
      <trkpt lat="60.114887977399" lon="21.53741107298">
        <ele>2</ele>
        <time>2016-07-19T10:57:49Z</time>
      </trkpt>
      <trkpt lat="60.114894850557" lon="21.537408223134">
        <ele>2</ele>
        <time>2016-07-19T10:57:50Z</time>
      </trkpt>
      <trkpt lat="60.114904154466" lon="21.537409145143">
        <ele>2</ele>
        <time>2016-07-19T10:57:51Z</time>
      </trkpt>
      <trkpt lat="60.114916643497" lon="21.537413922826">
        <ele>2</ele>
        <time>2016-07-19T10:57:52Z</time>
      </trkpt>
      <trkpt lat="60.114925276854" lon="21.537413252274">
        <ele>2</ele>
        <time>2016-07-19T10:57:53Z</time>
      </trkpt>
      <trkpt lat="60.11494237593" lon="21.537419538699">
        <ele>2</ele>
        <time>2016-07-19T10:57:54Z</time>
      </trkpt>
      <trkpt lat="60.114947824165" lon="21.537419706337">
        <ele>2</ele>
        <time>2016-07-19T10:57:55Z</time>
      </trkpt>
      <trkpt lat="60.114967689268" lon="21.537431692454">
        <ele>2</ele>
        <time>2016-07-19T10:57:56Z</time>
      </trkpt>
      <trkpt lat="60.114972299313" lon="21.537432614463">
        <ele>2</ele>
        <time>2016-07-19T10:57:57Z</time>
      </trkpt>
      <trkpt lat="60.114982106136" lon="21.537449964996">
        <ele>2</ele>
        <time>2016-07-19T10:57:58Z</time>
      </trkpt>
      <trkpt lat="60.1149951819" lon="21.537472344669">
        <ele>2</ele>
        <time>2016-07-19T10:57:59Z</time>
      </trkpt>
      <trkpt lat="60.115001384506" lon="21.537481145664">
        <ele>2</ele>
        <time>2016-07-19T10:58:00Z</time>
      </trkpt>
      <trkpt lat="60.115017226297" lon="21.537493047962">
        <ele>2</ele>
        <time>2016-07-19T10:58:01Z</time>
      </trkpt>
      <trkpt lat="60.115023093627" lon="21.537520289137">
        <ele>2</ele>
        <time>2016-07-19T10:58:02Z</time>
      </trkpt>
      <trkpt lat="60.115032732812" lon="21.537521546422">
        <ele>2</ele>
        <time>2016-07-19T10:58:03Z</time>
      </trkpt>
      <trkpt lat="60.115045976214" lon="21.537532107616">
        <ele>2</ele>
        <time>2016-07-19T10:58:04Z</time>
      </trkpt>
      <trkpt lat="60.115052430277" lon="21.537538394041">
        <ele>2</ele>
        <time>2016-07-19T10:58:05Z</time>
      </trkpt>
      <trkpt lat="60.115067769154" lon="21.537553732918">
        <ele>2</ele>
        <time>2016-07-19T10:58:06Z</time>
      </trkpt>
      <trkpt lat="60.11507480995" lon="21.537556415126">
        <ele>2</ele>
        <time>2016-07-19T10:58:07Z</time>
      </trkpt>
      <trkpt lat="60.115089310637" lon="21.537572676012">
        <ele>2</ele>
        <time>2016-07-19T10:58:08Z</time>
      </trkpt>
      <trkpt lat="60.115099368917" lon="21.537581477007">
        <ele>2</ele>
        <time>2016-07-19T10:58:09Z</time>
      </trkpt>
      <trkpt lat="60.115106242075" lon="21.537603353766">
        <ele>2</ele>
        <time>2016-07-19T10:58:10Z</time>
      </trkpt>
      <trkpt lat="60.115114456337" lon="21.537624308516">
        <ele>2</ele>
        <time>2016-07-19T10:58:11Z</time>
      </trkpt>
      <trkpt lat="60.115125855721" lon="21.537627661276">
        <ele>2</ele>
        <time>2016-07-19T10:58:12Z</time>
      </trkpt>
      <trkpt lat="60.115129795214" lon="21.537662278523">
        <ele>2</ele>
        <time>2016-07-19T10:58:13Z</time>
      </trkpt>
      <trkpt lat="60.115138009476" lon="21.53766420636">
        <ele>2</ele>
        <time>2016-07-19T10:58:14Z</time>
      </trkpt>
      <trkpt lat="60.115146559014" lon="21.537699494159">
        <ele>2</ele>
        <time>2016-07-19T10:58:15Z</time>
      </trkpt>
      <trkpt lat="60.115154940914" lon="21.537706534955">
        <ele>2</ele>
        <time>2016-07-19T10:58:16Z</time>
      </trkpt>
      <trkpt lat="60.115164747737" lon="21.537732686483">
        <ele>2</ele>
        <time>2016-07-19T10:58:17Z</time>
      </trkpt>
      <trkpt lat="60.115168184316" lon="21.537746265161">
        <ele>2</ele>
        <time>2016-07-19T10:58:18Z</time>
      </trkpt>
      <trkpt lat="60.115182182089" lon="21.537759676201">
        <ele>2</ele>
        <time>2016-07-19T10:58:19Z</time>
      </trkpt>
      <trkpt lat="60.115186540677" lon="21.537785492453">
        <ele>2</ele>
        <time>2016-07-19T10:58:20Z</time>
      </trkpt>
      <trkpt lat="60.115198610613" lon="21.537789767222">
        <ele>2</ele>
        <time>2016-07-19T10:58:21Z</time>
      </trkpt>
      <trkpt lat="60.115205148495" lon="21.53781927151">
        <ele>2</ele>
        <time>2016-07-19T10:58:22Z</time>
      </trkpt>
      <trkpt lat="60.115217050793" lon="21.537819187691">
        <ele>2</ele>
        <time>2016-07-19T10:58:23Z</time>
      </trkpt>
      <trkpt lat="60.115226019426" lon="21.537852463834">
        <ele>2</ele>
        <time>2016-07-19T10:58:24Z</time>
      </trkpt>
      <trkpt lat="60.115238927552" lon="21.537844836305">
        <ele>2</ele>
        <time>2016-07-19T10:58:25Z</time>
      </trkpt>
      <trkpt lat="60.115251248945" lon="21.53786956291">
        <ele>2</ele>
        <time>2016-07-19T10:58:26Z</time>
      </trkpt>
      <trkpt lat="60.115258038284" lon="21.537861851562">
        <ele>2</ele>
        <time>2016-07-19T10:58:27Z</time>
      </trkpt>
      <trkpt lat="60.115271449324" lon="21.537861097191">
        <ele>2</ele>
        <time>2016-07-19T10:58:28Z</time>
      </trkpt>
      <trkpt lat="60.115276310826" lon="21.537864952865">
        <ele>2</ele>
        <time>2016-07-19T10:58:29Z</time>
      </trkpt>
      <trkpt lat="60.115296427386" lon="21.537865204322">
        <ele>2</ele>
        <time>2016-07-19T10:58:30Z</time>
      </trkpt>
      <trkpt lat="60.115301875621" lon="21.537868640901">
        <ele>2</ele>
        <time>2016-07-19T10:58:31Z</time>
      </trkpt>
      <trkpt lat="60.115313526462" lon="21.537879537371">
        <ele>2</ele>
        <time>2016-07-19T10:58:32Z</time>
      </trkpt>
      <trkpt lat="60.115325680217" lon="21.5378955468">
        <ele>2</ele>
        <time>2016-07-19T10:58:33Z</time>
      </trkpt>
      <trkpt lat="60.115336995782" lon="21.537885656158">
        <ele>2</ele>
        <time>2016-07-19T10:58:34Z</time>
      </trkpt>
      <trkpt lat="60.115349233356" lon="21.53791314879">
        <ele>2</ele>
        <time>2016-07-19T10:58:35Z</time>
      </trkpt>
      <trkpt lat="60.115357447618" lon="21.537907532917">
        <ele>2</ele>
        <time>2016-07-19T10:58:36Z</time>
      </trkpt>
      <trkpt lat="60.115371026296" lon="21.537933013893">
        <ele>2</ele>
        <time>2016-07-19T10:58:37Z</time>
      </trkpt>
      <trkpt lat="60.115377647997" lon="21.537930164047">
        <ele>2</ele>
        <time>2016-07-19T10:58:38Z</time>
      </trkpt>
      <trkpt lat="60.115393238331" lon="21.537945922019">
        <ele>2</ele>
        <time>2016-07-19T10:58:39Z</time>
      </trkpt>
      <trkpt lat="60.115402374602" lon="21.537952124625">
        <ele>2</ele>
        <time>2016-07-19T10:58:40Z</time>
      </trkpt>
      <trkpt lat="60.115416707651" lon="21.537958913964">
        <ele>2</ele>
        <time>2016-07-19T10:58:41Z</time>
      </trkpt>
      <trkpt lat="60.11542852613" lon="21.537956064118">
        <ele>2</ele>
        <time>2016-07-19T10:58:42Z</time>
      </trkpt>
      <trkpt lat="60.11543523165" lon="21.537956399394">
        <ele>2</ele>
        <time>2016-07-19T10:58:43Z</time>
      </trkpt>
      <trkpt lat="60.11545367183" lon="21.53795505829">
        <ele>2</ele>
        <time>2016-07-19T10:58:44Z</time>
      </trkpt>
      <trkpt lat="60.115459622979" lon="21.537956902308">
        <ele>2</ele>
        <time>2016-07-19T10:58:45Z</time>
      </trkpt>
      <trkpt lat="60.115480242453" lon="21.537959752154">
        <ele>2</ele>
        <time>2016-07-19T10:58:46Z</time>
      </trkpt>
      <trkpt lat="60.115485439231" lon="21.537965703303">
        <ele>2</ele>
        <time>2016-07-19T10:58:47Z</time>
      </trkpt>
      <trkpt lat="60.115500694289" lon="21.537980623085">
        <ele>2</ele>
        <time>2016-07-19T10:58:48Z</time>
      </trkpt>
      <trkpt lat="60.115508070361" lon="21.537974420479">
        <ele>2</ele>
        <time>2016-07-19T10:58:49Z</time>
      </trkpt>
      <trkpt lat="60.115524415066" lon="21.537990094632">
        <ele>2</ele>
        <time>2016-07-19T10:58:50Z</time>
      </trkpt>
      <trkpt lat="60.115529611844" lon="21.537986155139">
        <ele>2</ele>
        <time>2016-07-19T10:58:51Z</time>
      </trkpt>
      <trkpt lat="60.115544783083" lon="21.537984059664">
        <ele>2</ele>
        <time>2016-07-19T10:58:52Z</time>
      </trkpt>
      <trkpt lat="60.115553500259" lon="21.537988334433">
        <ele>2</ele>
        <time>2016-07-19T10:58:53Z</time>
      </trkpt>
      <trkpt lat="60.11557101843" lon="21.537988334433">
        <ele>2</ele>
        <time>2016-07-19T10:58:54Z</time>
      </trkpt>
      <trkpt lat="60.115582417814" lon="21.537991854831">
        <ele>2</ele>
        <time>2016-07-19T10:58:55Z</time>
      </trkpt>
      <trkpt lat="60.115594823026" lon="21.537994537039">
        <ele>2</ele>
        <time>2016-07-19T10:58:56Z</time>
      </trkpt>
      <trkpt lat="60.115608653161" lon="21.538005768785">
        <ele>2</ele>
        <time>2016-07-19T10:58:57Z</time>
      </trkpt>
      <trkpt lat="60.115617873251" lon="21.538009037726">
        <ele>2</ele>
        <time>2016-07-19T10:58:58Z</time>
      </trkpt>
      <trkpt lat="60.115628602083" lon="21.538029573381">
        <ele>2</ele>
        <time>2016-07-19T10:58:59Z</time>
      </trkpt>
      <trkpt lat="60.115638995639" lon="21.538045498991">
        <ele>2</ele>
        <time>2016-07-19T10:59:00Z</time>
      </trkpt>
      <trkpt lat="60.115653747783" lon="21.538052875063">
        <ele>2</ele>
        <time>2016-07-19T10:59:01Z</time>
      </trkpt>
      <trkpt lat="60.115657016724" lon="21.538070309415">
        <ele>2</ele>
        <time>2016-07-19T10:59:02Z</time>
      </trkpt>
      <trkpt lat="60.115669757212" lon="21.538078020763">
        <ele>2</ele>
        <time>2016-07-19T10:59:03Z</time>
      </trkpt>
      <trkpt lat="60.115679312578" lon="21.538087743767">
        <ele>2</ele>
        <time>2016-07-19T10:59:04Z</time>
      </trkpt>
      <trkpt lat="60.115688532668" lon="21.53809000688">
        <ele>2</ele>
        <time>2016-07-19T10:59:05Z</time>
      </trkpt>
      <trkpt lat="60.115706302296" lon="21.538102244454">
        <ele>2</ele>
        <time>2016-07-19T10:59:06Z</time>
      </trkpt>
      <trkpt lat="60.115711247617" lon="21.53810341792">
        <ele>2</ele>
        <time>2016-07-19T10:59:07Z</time>
      </trkpt>
      <trkpt lat="60.115731447996" lon="21.538113560019">
        <ele>2</ele>
        <time>2016-07-19T10:59:08Z</time>
      </trkpt>
      <trkpt lat="60.115736644774" lon="21.538115823132">
        <ele>2</ele>
        <time>2016-07-19T10:59:09Z</time>
      </trkpt>
      <trkpt lat="60.115757683343" lon="21.538133676579">
        <ele>2</ele>
        <time>2016-07-19T10:59:10Z</time>
      </trkpt>
      <trkpt lat="60.11576212575" lon="21.53813610733">
        <ele>2</ele>
        <time>2016-07-19T10:59:11Z</time>
      </trkpt>
      <trkpt lat="60.115779979197" lon="21.538164773428">
        <ele>2</ele>
        <time>2016-07-19T10:59:12Z</time>
      </trkpt>
      <trkpt lat="60.115783415776" lon="21.538169383473">
        <ele>2</ele>
        <time>2016-07-19T10:59:13Z</time>
      </trkpt>
      <trkpt lat="60.115790288934" lon="21.538197211381">
        <ele>2</ele>
        <time>2016-07-19T10:59:14Z</time>
      </trkpt>
      <trkpt lat="60.115798251739" lon="21.538226715669">
        <ele>2</ele>
        <time>2016-07-19T10:59:15Z</time>
      </trkpt>
      <trkpt lat="60.115808477657" lon="21.538235265207">
        <ele>2</ele>
        <time>2016-07-19T10:59:16Z</time>
      </trkpt>
      <trkpt lat="60.115808980571" lon="21.53827105592">
        <ele>2</ele>
        <time>2016-07-19T10:59:17Z</time>
      </trkpt>
      <trkpt lat="60.115817949204" lon="21.538277593802">
        <ele>2</ele>
        <time>2016-07-19T10:59:18Z</time>
      </trkpt>
      <trkpt lat="60.115825073819" lon="21.538318748931">
        <ele>2</ele>
        <time>2016-07-19T10:59:19Z</time>
      </trkpt>
      <trkpt lat="60.115834293909" lon="21.538323610433">
        <ele>2</ele>
        <time>2016-07-19T10:59:20Z</time>
      </trkpt>
      <trkpt lat="60.115840999429" lon="21.538360658431">
        <ele>2</ele>
        <time>2016-07-19T10:59:21Z</time>
      </trkpt>
      <trkpt lat="60.115850638614" lon="21.53836241863">
        <ele>2</ele>
        <time>2016-07-19T10:59:22Z</time>
      </trkpt>
      <trkpt lat="60.115860864532" lon="21.538397706429">
        <ele>2</ele>
        <time>2016-07-19T10:59:23Z</time>
      </trkpt>
      <trkpt lat="60.115870671355" lon="21.538398293162">
        <ele>2</ele>
        <time>2016-07-19T10:59:24Z</time>
      </trkpt>
      <trkpt lat="60.115881651644" lon="21.538424779966">
        <ele>2</ele>
        <time>2016-07-19T10:59:25Z</time>
      </trkpt>
      <trkpt lat="60.115889614449" lon="21.538423941776">
        <ele>2</ele>
        <time>2016-07-19T10:59:26Z</time>
      </trkpt>
      <trkpt lat="60.115892799571" lon="21.5384319884">
        <ele>2</ele>
        <time>2016-07-19T10:59:27Z</time>
      </trkpt>
      <trkpt lat="60.115902271118" lon="21.538446992001">
        <ele>2</ele>
        <time>2016-07-19T10:59:28Z</time>
      </trkpt>
      <trkpt lat="60.115910401561" lon="21.538458559023">
        <ele>2</ele>
        <time>2016-07-19T10:59:29Z</time>
      </trkpt>
      <trkpt lat="60.11591802909" lon="21.538467862932">
        <ele>2</ele>
        <time>2016-07-19T10:59:30Z</time>
      </trkpt>
      <trkpt lat="60.115924566972" lon="21.538474484633">
        <ele>2</ele>
        <time>2016-07-19T10:59:31Z</time>
      </trkpt>
      <trkpt lat="60.115931607768" lon="21.538480184325">
        <ele>2</ele>
        <time>2016-07-19T10:59:32Z</time>
      </trkpt>
      <trkpt lat="60.115937894193" lon="21.538492505718">
        <ele>2</ele>
        <time>2016-07-19T10:59:33Z</time>
      </trkpt>
      <trkpt lat="60.11594149841" lon="21.538493595365">
        <ele>2</ele>
        <time>2016-07-19T10:59:34Z</time>
      </trkpt>
      <trkpt lat="60.115952813975" lon="21.538497199582">
        <ele>2</ele>
        <time>2016-07-19T10:59:35Z</time>
      </trkpt>
      <trkpt lat="60.115952143423" lon="21.538485800198">
        <ele>2</ele>
        <time>2016-07-19T10:59:36Z</time>
      </trkpt>
      <trkpt lat="60.115965722101" lon="21.538493511546">
        <ele>2</ele>
        <time>2016-07-19T10:59:37Z</time>
      </trkpt>
      <trkpt lat="60.115966141196" lon="21.538483453266">
        <ele>2</ele>
        <time>2016-07-19T10:59:38Z</time>
      </trkpt>
      <trkpt lat="60.115981647711" lon="21.538483788542">
        <ele>2</ele>
        <time>2016-07-19T10:59:39Z</time>
      </trkpt>
      <trkpt lat="60.115981982987" lon="21.538467695294">
        <ele>2</ele>
        <time>2016-07-19T10:59:40Z</time>
      </trkpt>
      <trkpt lat="60.115996483674" lon="21.538463420525">
        <ele>2</ele>
        <time>2016-07-19T10:59:41Z</time>
      </trkpt>
      <trkpt lat="60.116000842262" lon="21.538445818535">
        <ele>2</ele>
        <time>2016-07-19T10:59:42Z</time>
      </trkpt>
      <trkpt lat="60.116005536126" lon="21.538440621757">
        <ele>2</ele>
        <time>2016-07-19T10:59:43Z</time>
      </trkpt>
      <trkpt lat="60.11601022999" lon="21.538431234029">
        <ele>2</ele>
        <time>2016-07-19T10:59:44Z</time>
      </trkpt>
      <trkpt lat="60.116015929682" lon="21.538413045306">
        <ele>2</ele>
        <time>2016-07-19T10:59:45Z</time>
      </trkpt>
      <trkpt lat="60.116018360433" lon="21.538407848528">
        <ele>2</ele>
        <time>2016-07-19T10:59:46Z</time>
      </trkpt>
      <trkpt lat="60.116024730677" lon="21.538392174375">
        <ele>2</ele>
        <time>2016-07-19T10:59:47Z</time>
      </trkpt>
      <trkpt lat="60.116030095093" lon="21.538374572385">
        <ele>2</ele>
        <time>2016-07-19T10:59:48Z</time>
      </trkpt>
      <trkpt lat="60.116032777301" lon="21.538369710883">
        <ele>2</ele>
        <time>2016-07-19T10:59:49Z</time>
      </trkpt>
      <trkpt lat="60.116040907744" lon="21.538353785273">
        <ele>2</ele>
        <time>2016-07-19T10:59:50Z</time>
      </trkpt>
      <trkpt lat="60.116042584124" lon="21.53834314026">
        <ele>2</ele>
        <time>2016-07-19T10:59:51Z</time>
      </trkpt>
      <trkpt lat="60.116054234965" lon="21.538327717564">
        <ele>2</ele>
        <time>2016-07-19T10:59:52Z</time>
      </trkpt>
      <trkpt lat="60.116051971852" lon="21.538313552153">
        <ele>2</ele>
        <time>2016-07-19T10:59:53Z</time>
      </trkpt>
      <trkpt lat="60.116064377064" lon="21.538304415882">
        <ele>2</ele>
        <time>2016-07-19T10:59:54Z</time>
      </trkpt>
      <trkpt lat="60.116065382892" lon="21.538290166652">
        <ele>2</ele>
        <time>2016-07-19T10:59:55Z</time>
      </trkpt>
      <trkpt lat="60.116072339869" lon="21.538274073404">
        <ele>2</ele>
        <time>2016-07-19T10:59:56Z</time>
      </trkpt>
      <trkpt lat="60.116074854439" lon="21.538268122255">
        <ele>2</ele>
        <time>2016-07-19T10:59:57Z</time>
      </trkpt>
      <trkpt lat="60.116080889407" lon="21.538248676247">
        <ele>2</ele>
        <time>2016-07-19T10:59:58Z</time>
      </trkpt>
      <trkpt lat="60.1160848289" lon="21.538239372338">
        <ele>2</ele>
        <time>2016-07-19T10:59:59Z</time>
      </trkpt>
      <trkpt lat="60.11609237261" lon="21.538224284918">
        <ele>2</ele>
        <time>2016-07-19T11:00:00Z</time>
      </trkpt>
      <trkpt lat="60.116098575216" lon="21.53821238262">
        <ele>2</ele>
        <time>2016-07-19T11:00:01Z</time>
      </trkpt>
      <trkpt lat="60.116103855813" lon="21.538202575797">
        <ele>2</ele>
        <time>2016-07-19T11:00:02Z</time>
      </trkpt>
      <trkpt lat="60.116104191089" lon="21.538188158929">
        <ele>2</ele>
        <time>2016-07-19T11:00:03Z</time>
      </trkpt>
      <trkpt lat="60.116116093387" lon="21.538175586079">
        <ele>2</ele>
        <time>2016-07-19T11:00:04Z</time>
      </trkpt>
      <trkpt lat="60.116116931577" lon="21.538159492831">
        <ele>2</ele>
        <time>2016-07-19T11:00:05Z</time>
      </trkpt>
      <trkpt lat="60.116129336789" lon="21.538157984089">
        <ele>2</ele>
        <time>2016-07-19T11:00:06Z</time>
      </trkpt>
      <trkpt lat="60.116134365929" lon="21.538135688235">
        <ele>2</ele>
        <time>2016-07-19T11:00:07Z</time>
      </trkpt>
      <trkpt lat="60.11614098763" lon="21.538128731258">
        <ele>2</ele>
        <time>2016-07-19T11:00:08Z</time>
      </trkpt>
      <trkpt lat="60.116146771141" lon="21.538117750969">
        <ele>2</ele>
        <time>2016-07-19T11:00:09Z</time>
      </trkpt>
      <trkpt lat="60.116153141385" lon="21.538106686861">
        <ele>2</ele>
        <time>2016-07-19T11:00:10Z</time>
      </trkpt>
      <trkpt lat="60.116158924896" lon="21.538096544762">
        <ele>2</ele>
        <time>2016-07-19T11:00:11Z</time>
      </trkpt>
      <trkpt lat="60.116164037855" lon="21.538086235025">
        <ele>2</ele>
        <time>2016-07-19T11:00:12Z</time>
      </trkpt>
      <trkpt lat="60.116168983176" lon="21.538077266392">
        <ele>2</ele>
        <time>2016-07-19T11:00:13Z</time>
      </trkpt>
      <trkpt lat="60.11617367704" lon="21.538067627207">
        <ele>2</ele>
        <time>2016-07-19T11:00:14Z</time>
      </trkpt>
      <trkpt lat="60.116178203266" lon="21.538058407117">
        <ele>2</ele>
        <time>2016-07-19T11:00:15Z</time>
      </trkpt>
      <trkpt lat="60.116182729492" lon="21.538048516475">
        <ele>2</ele>
        <time>2016-07-19T11:00:16Z</time>
      </trkpt>
      <trkpt lat="60.116186166071" lon="21.538039631661">
        <ele>2</ele>
        <time>2016-07-19T11:00:17Z</time>
      </trkpt>
      <trkpt lat="60.11618960265" lon="21.538033261417">
        <ele>2</ele>
        <time>2016-07-19T11:00:18Z</time>
      </trkpt>
      <trkpt lat="60.116193458324" lon="21.53802630444">
        <ele>2</ele>
        <time>2016-07-19T11:00:19Z</time>
      </trkpt>
      <trkpt lat="60.116193961238" lon="21.538017838721">
        <ele>2</ele>
        <time>2016-07-19T11:00:20Z</time>
      </trkpt>
      <trkpt lat="60.116197230179" lon="21.538013647771">
        <ele>2</ele>
        <time>2016-07-19T11:00:21Z</time>
      </trkpt>
      <trkpt lat="60.116194715609" lon="21.538018425454">
        <ele>2</ele>
        <time>2016-07-19T11:00:22Z</time>
      </trkpt>
      <trkpt lat="60.116195972894" lon="21.538005433509">
        <ele>2</ele>
        <time>2016-07-19T11:00:23Z</time>
      </trkpt>
      <trkpt lat="60.116196391989" lon="21.537999733817">
        <ele>2</ele>
        <time>2016-07-19T11:00:24Z</time>
      </trkpt>
      <trkpt lat="60.116196978722" lon="21.537994034125">
        <ele>2</ele>
        <time>2016-07-19T11:00:25Z</time>
      </trkpt>
      <trkpt lat="60.116196811084" lon="21.537988166795">
        <ele>2</ele>
        <time>2016-07-19T11:00:26Z</time>
      </trkpt>
      <trkpt lat="60.11619630817" lon="21.53797349847">
        <ele>2</ele>
        <time>2016-07-19T11:00:27Z</time>
      </trkpt>
      <trkpt lat="60.116196140532" lon="21.537981125999">
        <ele>2</ele>
        <time>2016-07-19T11:00:28Z</time>
      </trkpt>
      <trkpt lat="60.116195134704" lon="21.537971402995">
        <ele>2</ele>
        <time>2016-07-19T11:00:29Z</time>
      </trkpt>
      <trkpt lat="60.116200666758" lon="21.537954303919">
        <ele>2</ele>
        <time>2016-07-19T11:00:30Z</time>
      </trkpt>
      <trkpt lat="60.116197397817" lon="21.537963691647">
        <ele>2</ele>
        <time>2016-07-19T11:00:31Z</time>
      </trkpt>
      <trkpt lat="60.116210222124" lon="21.537939635594">
        <ele>2</ele>
        <time>2016-07-19T11:00:32Z</time>
      </trkpt>
      <trkpt lat="60.116203348966" lon="21.537949610055">
        <ele>2</ele>
        <time>2016-07-19T11:00:33Z</time>
      </trkpt>
      <trkpt lat="60.116216760006" lon="21.537931672789">
        <ele>2</ele>
        <time>2016-07-19T11:00:34Z</time>
      </trkpt>
      <trkpt lat="60.116224890449" lon="21.537926643649">
        <ele>2</ele>
        <time>2016-07-19T11:00:35Z</time>
      </trkpt>
      <trkpt lat="60.116229165218" lon="21.537923542346">
        <ele>2</ele>
        <time>2016-07-19T11:00:36Z</time>
      </trkpt>
      <trkpt lat="60.116234361996" lon="21.537920943957">
        <ele>2</ele>
        <time>2016-07-19T11:00:37Z</time>
      </trkpt>
      <trkpt lat="60.116239391136" lon="21.53791817793">
        <ele>2</ele>
        <time>2016-07-19T11:00:38Z</time>
      </trkpt>
      <trkpt lat="60.116244420276" lon="21.537915998636">
        <ele>2</ele>
        <time>2016-07-19T11:00:39Z</time>
      </trkpt>
      <trkpt lat="60.116249197959" lon="21.537914657532">
        <ele>2</ele>
        <time>2016-07-19T11:00:40Z</time>
      </trkpt>
      <trkpt lat="60.116253724185" lon="21.537913903161">
        <ele>2</ele>
        <time>2016-07-19T11:00:41Z</time>
      </trkpt>
      <trkpt lat="60.116257747497" lon="21.537913567885">
        <ele>2</ele>
        <time>2016-07-19T11:00:42Z</time>
      </trkpt>
      <trkpt lat="60.116262189904" lon="21.5379123106">
        <ele>2</ele>
        <time>2016-07-19T11:00:43Z</time>
      </trkpt>
      <trkpt lat="60.116266129397" lon="21.537913484066">
        <ele>2</ele>
        <time>2016-07-19T11:00:44Z</time>
      </trkpt>
      <trkpt lat="60.11626252518" lon="21.537912981152">
        <ele>2</ele>
        <time>2016-07-19T11:00:45Z</time>
      </trkpt>
      <trkpt lat="60.116269398338" lon="21.537913567885">
        <ele>2</ele>
        <time>2016-07-19T11:00:46Z</time>
      </trkpt>
      <trkpt lat="60.116271912908" lon="21.53791398698">
        <ele>2</ele>
        <time>2016-07-19T11:00:47Z</time>
      </trkpt>
      <trkpt lat="60.116273924564" lon="21.537914741351">
        <ele>2</ele>
        <time>2016-07-19T11:00:48Z</time>
      </trkpt>
      <trkpt lat="60.116276020039" lon="21.537915411903">
        <ele>2</ele>
        <time>2016-07-19T11:00:49Z</time>
      </trkpt>
      <trkpt lat="60.116278283152" lon="21.537916082455">
        <ele>2</ele>
        <time>2016-07-19T11:00:50Z</time>
      </trkpt>
      <trkpt lat="60.116280546265" lon="21.537917507378">
        <ele>2</ele>
        <time>2016-07-19T11:00:51Z</time>
      </trkpt>
      <trkpt lat="60.116282977016" lon="21.537917842654">
        <ele>2</ele>
        <time>2016-07-19T11:00:52Z</time>
      </trkpt>
      <trkpt lat="60.116285072491" lon="21.537916669188">
        <ele>2</ele>
        <time>2016-07-19T11:00:53Z</time>
      </trkpt>
      <trkpt lat="60.116285910681" lon="21.537916585369">
        <ele>2</ele>
        <time>2016-07-19T11:00:54Z</time>
      </trkpt>
      <trkpt lat="60.116285491586" lon="21.537915914817">
        <ele>2</ele>
        <time>2016-07-19T11:00:55Z</time>
      </trkpt>
      <trkpt lat="60.116285407767" lon="21.537916250093">
        <ele>2</ele>
        <time>2016-07-19T11:00:56Z</time>
      </trkpt>
      <trkpt lat="60.116286078319" lon="21.53791650155">
        <ele>2</ele>
        <time>2016-07-19T11:00:57Z</time>
      </trkpt>
      <trkpt lat="60.1162859945" lon="21.537916250093">
        <ele>2</ele>
        <time>2016-07-19T11:00:58Z</time>
      </trkpt>
      <trkpt lat="60.116286078319" lon="21.537916082455">
        <ele>2</ele>
        <time>2016-07-19T11:00:59Z</time>
      </trkpt>
      <trkpt lat="60.116286329776" lon="21.537915914817">
        <ele>2</ele>
        <time>2016-07-19T11:01:00Z</time>
      </trkpt>
      <trkpt lat="60.116286413595" lon="21.537916669188">
        <ele>2</ele>
        <time>2016-07-19T11:01:01Z</time>
      </trkpt>
      <trkpt lat="60.116286748871" lon="21.537916920645">
        <ele>2</ele>
        <time>2016-07-19T11:01:02Z</time>
      </trkpt>
      <trkpt lat="60.116287251785" lon="21.537916585369">
        <ele>2</ele>
        <time>2016-07-19T11:01:03Z</time>
      </trkpt>
      <trkpt lat="60.116287922337" lon="21.537916333912">
        <ele>2</ele>
        <time>2016-07-19T11:01:04Z</time>
      </trkpt>
      <trkpt lat="60.116288425251" lon="21.537916585369">
        <ele>2</ele>
        <time>2016-07-19T11:01:05Z</time>
      </trkpt>
      <trkpt lat="60.116288928165" lon="21.537916669188">
        <ele>2</ele>
        <time>2016-07-19T11:01:06Z</time>
      </trkpt>
      <trkpt lat="60.116289514898" lon="21.537916585369">
        <ele>2</ele>
        <time>2016-07-19T11:01:07Z</time>
      </trkpt>
      <trkpt lat="60.116290017812" lon="21.537916585369">
        <ele>2</ele>
        <time>2016-07-19T11:01:08Z</time>
      </trkpt>
      <trkpt lat="60.116290604545" lon="21.537916585369">
        <ele>2</ele>
        <time>2016-07-19T11:01:09Z</time>
      </trkpt>
      <trkpt lat="60.116291191278" lon="21.537916585369">
        <ele>2</ele>
        <time>2016-07-19T11:01:10Z</time>
      </trkpt>
      <trkpt lat="60.116291694192" lon="21.537916585369">
        <ele>2</ele>
        <time>2016-07-19T11:01:11Z</time>
      </trkpt>
      <trkpt lat="60.116292280925" lon="21.537916669188">
        <ele>2</ele>
        <time>2016-07-19T11:01:12Z</time>
      </trkpt>
      <trkpt lat="60.116292951477" lon="21.537916920645">
        <ele>2</ele>
        <time>2016-07-19T11:01:13Z</time>
      </trkpt>
      <trkpt lat="60.116293202934" lon="21.537917088283">
        <ele>2</ele>
        <time>2016-07-19T11:01:14Z</time>
      </trkpt>
      <trkpt lat="60.116293370572" lon="21.537917423559">
        <ele>2</ele>
        <time>2016-07-19T11:01:15Z</time>
      </trkpt>
      <trkpt lat="60.116293622029" lon="21.537917591197">
        <ele>2</ele>
        <time>2016-07-19T11:01:16Z</time>
      </trkpt>
      <trkpt lat="60.116294041124" lon="21.537917675016">
        <ele>2</ele>
        <time>2016-07-19T11:01:17Z</time>
      </trkpt>
      <trkpt lat="60.116294544038" lon="21.537917675016">
        <ele>2</ele>
        <time>2016-07-19T11:01:18Z</time>
      </trkpt>
      <trkpt lat="60.116294795495" lon="21.537917675016">
        <ele>2</ele>
        <time>2016-07-19T11:01:19Z</time>
      </trkpt>
      <trkpt lat="60.11629521459" lon="21.537917675016">
        <ele>2</ele>
        <time>2016-07-19T11:01:20Z</time>
      </trkpt>
      <trkpt lat="60.116295549866" lon="21.537917423559">
        <ele>2</ele>
        <time>2016-07-19T11:01:21Z</time>
      </trkpt>
      <trkpt lat="60.116295717504" lon="21.53791733974">
        <ele>2</ele>
        <time>2016-07-19T11:01:22Z</time>
      </trkpt>
      <trkpt lat="60.11629605278" lon="21.537918094111">
        <ele>2</ele>
        <time>2016-07-19T11:01:23Z</time>
      </trkpt>
      <trkpt lat="60.116299237902" lon="21.537929744952">
        <ele>2</ele>
        <time>2016-07-19T11:01:24Z</time>
      </trkpt>
      <trkpt lat="60.116297142427" lon="21.537922871794">
        <ele>2</ele>
        <time>2016-07-19T11:01:25Z</time>
      </trkpt>
      <trkpt lat="60.11629772916" lon="21.537928822943">
        <ele>2</ele>
        <time>2016-07-19T11:01:26Z</time>
      </trkpt>
      <trkpt lat="60.116297812979" lon="21.537928403848">
        <ele>2</ele>
        <time>2016-07-19T11:01:27Z</time>
      </trkpt>
      <trkpt lat="60.116298902626" lon="21.537926727468">
        <ele>2</ele>
        <time>2016-07-19T11:01:28Z</time>
      </trkpt>
      <trkpt lat="60.116299824635" lon="21.537925302545">
        <ele>2</ele>
        <time>2016-07-19T11:01:29Z</time>
      </trkpt>
      <trkpt lat="60.116299992273" lon="21.537926308373">
        <ele>2</ele>
        <time>2016-07-19T11:01:30Z</time>
      </trkpt>
      <trkpt lat="60.116300495187" lon="21.537924296717">
        <ele>2</ele>
        <time>2016-07-19T11:01:31Z</time>
      </trkpt>
      <trkpt lat="60.116301417196" lon="21.537920776319">
        <ele>2</ele>
        <time>2016-07-19T11:01:32Z</time>
      </trkpt>
      <trkpt lat="60.116301752472" lon="21.537920524862">
        <ele>2</ele>
        <time>2016-07-19T11:01:33Z</time>
      </trkpt>
      <trkpt lat="60.116302590662" lon="21.537919686672">
        <ele>2</ele>
        <time>2016-07-19T11:01:34Z</time>
      </trkpt>
      <trkpt lat="60.116303009757" lon="21.53791817793">
        <ele>2</ele>
        <time>2016-07-19T11:01:35Z</time>
      </trkpt>
      <trkpt lat="60.116304015585" lon="21.537916836826">
        <ele>2</ele>
        <time>2016-07-19T11:01:36Z</time>
      </trkpt>
      <trkpt lat="60.116304602318" lon="21.537915830998">
        <ele>2</ele>
        <time>2016-07-19T11:01:37Z</time>
      </trkpt>
      <trkpt lat="60.116305189051" lon="21.537914992808">
        <ele>2</ele>
        <time>2016-07-19T11:01:38Z</time>
      </trkpt>
      <trkpt lat="60.116305440508" lon="21.537915076627">
        <ele>2</ele>
        <time>2016-07-19T11:01:39Z</time>
      </trkpt>
      <trkpt lat="60.116305943422" lon="21.537915579541">
        <ele>2</ele>
        <time>2016-07-19T11:01:40Z</time>
      </trkpt>
      <trkpt lat="60.116306027241" lon="21.537916250093">
        <ele>2</ele>
        <time>2016-07-19T11:01:41Z</time>
      </trkpt>
      <trkpt lat="60.116305943422" lon="21.537916920645">
        <ele>2</ele>
        <time>2016-07-19T11:01:42Z</time>
      </trkpt>
      <trkpt lat="60.116305943422" lon="21.53791733974">
        <ele>2</ele>
        <time>2016-07-19T11:01:43Z</time>
      </trkpt>
      <trkpt lat="60.116306446336" lon="21.537917004464">
        <ele>2</ele>
        <time>2016-07-19T11:01:44Z</time>
      </trkpt>
      <trkpt lat="60.116306697793" lon="21.537916417731">
        <ele>2</ele>
        <time>2016-07-19T11:01:45Z</time>
      </trkpt>
      <trkpt lat="60.116306278698" lon="21.537916082455">
        <ele>2</ele>
        <time>2016-07-19T11:01:46Z</time>
      </trkpt>
      <trkpt lat="60.116305943422" lon="21.537915747179">
        <ele>2</ele>
        <time>2016-07-19T11:01:47Z</time>
      </trkpt>
      <trkpt lat="60.116305691965" lon="21.537915328084">
        <ele>2</ele>
        <time>2016-07-19T11:01:48Z</time>
      </trkpt>
      <trkpt lat="60.116305943422" lon="21.537915328084">
        <ele>2</ele>
        <time>2016-07-19T11:01:49Z</time>
      </trkpt>
      <trkpt lat="60.116306027241" lon="21.537915579541">
        <ele>2</ele>
        <time>2016-07-19T11:01:50Z</time>
      </trkpt>
      <trkpt lat="60.116305775784" lon="21.537915830998">
        <ele>2</ele>
        <time>2016-07-19T11:01:51Z</time>
      </trkpt>
      <trkpt lat="60.116305524327" lon="21.537915914817">
        <ele>2</ele>
        <time>2016-07-19T11:01:52Z</time>
      </trkpt>
      <trkpt lat="60.116305189051" lon="21.537916250093">
        <ele>2</ele>
        <time>2016-07-19T11:01:53Z</time>
      </trkpt>
      <trkpt lat="60.116304937594" lon="21.537916417731">
        <ele>2</ele>
        <time>2016-07-19T11:01:54Z</time>
      </trkpt>
      <trkpt lat="60.116304686137" lon="21.537916417731">
        <ele>2</ele>
        <time>2016-07-19T11:01:55Z</time>
      </trkpt>
      <trkpt lat="60.11630443468" lon="21.537916669188">
        <ele>2</ele>
        <time>2016-07-19T11:01:56Z</time>
      </trkpt>
      <trkpt lat="60.116304183223" lon="21.537916836826">
        <ele>2</ele>
        <time>2016-07-19T11:01:57Z</time>
      </trkpt>
      <trkpt lat="60.11630359649" lon="21.537916417731">
        <ele>2</ele>
        <time>2016-07-19T11:01:58Z</time>
      </trkpt>
      <trkpt lat="60.116302925938" lon="21.537916250093">
        <ele>2</ele>
        <time>2016-07-19T11:01:59Z</time>
      </trkpt>
      <trkpt lat="60.116302339205" lon="21.537916333912">
        <ele>2</ele>
        <time>2016-07-19T11:02:00Z</time>
      </trkpt>
      <trkpt lat="60.116302339205" lon="21.537916669188">
        <ele>2</ele>
        <time>2016-07-19T11:02:01Z</time>
      </trkpt>
      <trkpt lat="60.116302339205" lon="21.537917004464">
        <ele>2</ele>
        <time>2016-07-19T11:02:02Z</time>
      </trkpt>
      <trkpt lat="60.116302506843" lon="21.537918010292">
        <ele>2</ele>
        <time>2016-07-19T11:02:03Z</time>
      </trkpt>
      <trkpt lat="60.116302171567" lon="21.537918848482">
        <ele>2</ele>
        <time>2016-07-19T11:02:04Z</time>
      </trkpt>
      <trkpt lat="60.116302171567" lon="21.537919602853">
        <ele>2</ele>
        <time>2016-07-19T11:02:05Z</time>
      </trkpt>
      <trkpt lat="60.116302171567" lon="21.537920189586">
        <ele>2</ele>
        <time>2016-07-19T11:02:06Z</time>
      </trkpt>
      <trkpt lat="60.11630192011" lon="21.537920441043">
        <ele>2</ele>
        <time>2016-07-19T11:02:07Z</time>
      </trkpt>
      <trkpt lat="60.116301501015" lon="21.537920524862">
        <ele>2</ele>
        <time>2016-07-19T11:02:08Z</time>
      </trkpt>
      <trkpt lat="60.116301249558" lon="21.537920608681">
        <ele>2</ele>
        <time>2016-07-19T11:02:09Z</time>
      </trkpt>
      <trkpt lat="60.116301249558" lon="21.53791901612">
        <ele>2</ele>
        <time>2016-07-19T11:02:10Z</time>
      </trkpt>
      <trkpt lat="60.116300914282" lon="21.537917423559">
        <ele>2</ele>
        <time>2016-07-19T11:02:11Z</time>
      </trkpt>
      <trkpt lat="60.116300579006" lon="21.537917004464">
        <ele>2</ele>
        <time>2016-07-19T11:02:12Z</time>
      </trkpt>
      <trkpt lat="60.116300830463" lon="21.537917423559">
        <ele>2</ele>
        <time>2016-07-19T11:02:13Z</time>
      </trkpt>
      <trkpt lat="60.116300830463" lon="21.537917172102">
        <ele>2</ele>
        <time>2016-07-19T11:02:14Z</time>
      </trkpt>
      <trkpt lat="60.116300411368" lon="21.53791650155">
        <ele>2</ele>
        <time>2016-07-19T11:02:15Z</time>
      </trkpt>
      <trkpt lat="60.116299908454" lon="21.537915495722">
        <ele>2</ele>
        <time>2016-07-19T11:02:16Z</time>
      </trkpt>
      <trkpt lat="60.11629940554" lon="21.537914573713">
        <ele>2</ele>
        <time>2016-07-19T11:02:17Z</time>
      </trkpt>
      <trkpt lat="60.116299237902" lon="21.537913903161">
        <ele>2</ele>
        <time>2016-07-19T11:02:18Z</time>
      </trkpt>
      <trkpt lat="60.116298986445" lon="21.537913316428">
        <ele>2</ele>
        <time>2016-07-19T11:02:19Z</time>
      </trkpt>
      <trkpt lat="60.116299070264" lon="21.53791398698">
        <ele>2</ele>
        <time>2016-07-19T11:02:20Z</time>
      </trkpt>
      <trkpt lat="60.116298399712" lon="21.537916417731">
        <ele>2</ele>
        <time>2016-07-19T11:02:21Z</time>
      </trkpt>
      <trkpt lat="60.116296974789" lon="21.537917423559">
        <ele>2</ele>
        <time>2016-07-19T11:02:22Z</time>
      </trkpt>
      <trkpt lat="60.116296723332" lon="21.537915244265">
        <ele>2</ele>
        <time>2016-07-19T11:02:23Z</time>
      </trkpt>
      <trkpt lat="60.116296723332" lon="21.537911304772">
        <ele>2</ele>
        <time>2016-07-19T11:02:24Z</time>
      </trkpt>
      <trkpt lat="60.116296723332" lon="21.537907784374">
        <ele>2</ele>
        <time>2016-07-19T11:02:25Z</time>
      </trkpt>
      <trkpt lat="60.116296304237" lon="21.537905102166">
        <ele>2</ele>
        <time>2016-07-19T11:02:26Z</time>
      </trkpt>
      <trkpt lat="60.116295801323" lon="21.53790309051">
        <ele>2</ele>
        <time>2016-07-19T11:02:27Z</time>
      </trkpt>
      <trkpt lat="60.116295046952" lon="21.537902000863">
        <ele>2</ele>
        <time>2016-07-19T11:02:28Z</time>
      </trkpt>
      <trkpt lat="60.116294795495" lon="21.537901833225">
        <ele>2</ele>
        <time>2016-07-19T11:02:29Z</time>
      </trkpt>
      <trkpt lat="60.11629521459" lon="21.537901581768">
        <ele>2</ele>
        <time>2016-07-19T11:02:30Z</time>
      </trkpt>
      <trkpt lat="60.116294879314" lon="21.537902168501">
        <ele>2</ele>
        <time>2016-07-19T11:02:31Z</time>
      </trkpt>
      <trkpt lat="60.116294544038" lon="21.537902503777">
        <ele>2</ele>
        <time>2016-07-19T11:02:32Z</time>
      </trkpt>
      <trkpt lat="60.116294208762" lon="21.537902336139">
        <ele>2</ele>
        <time>2016-07-19T11:02:33Z</time>
      </trkpt>
      <trkpt lat="60.116294124943" lon="21.537902000863">
        <ele>2</ele>
        <time>2016-07-19T11:02:34Z</time>
      </trkpt>
      <trkpt lat="60.116294124943" lon="21.537902000863">
        <ele>2</ele>
        <time>2016-07-19T11:02:35Z</time>
      </trkpt>
      <trkpt lat="60.116294879314" lon="21.537901246492">
        <ele>2</ele>
        <time>2016-07-19T11:02:36Z</time>
      </trkpt>
      <trkpt lat="60.116294795495" lon="21.537897474637">
        <ele>2</ele>
        <time>2016-07-19T11:02:37Z</time>
      </trkpt>
      <trkpt lat="60.116295046952" lon="21.537894792429">
        <ele>2</ele>
        <time>2016-07-19T11:02:38Z</time>
      </trkpt>
      <trkpt lat="60.116295549866" lon="21.537895127705">
        <ele>2</ele>
        <time>2016-07-19T11:02:39Z</time>
      </trkpt>
      <trkpt lat="60.11629605278" lon="21.537895379162">
        <ele>2</ele>
        <time>2016-07-19T11:02:40Z</time>
      </trkpt>
      <trkpt lat="60.116296807151" lon="21.537896133533">
        <ele>2</ele>
        <time>2016-07-19T11:02:41Z</time>
      </trkpt>
      <trkpt lat="60.116297645341" lon="21.537896887904">
        <ele>2</ele>
        <time>2016-07-19T11:02:42Z</time>
      </trkpt>
      <trkpt lat="60.116298148255" lon="21.537897726094">
        <ele>2</ele>
        <time>2016-07-19T11:02:43Z</time>
      </trkpt>
      <trkpt lat="60.116298315893" lon="21.537898312827">
        <ele>2</ele>
        <time>2016-07-19T11:02:44Z</time>
      </trkpt>
      <trkpt lat="60.116298483531" lon="21.537899234836">
        <ele>2</ele>
        <time>2016-07-19T11:02:45Z</time>
      </trkpt>
      <trkpt lat="60.116298483531" lon="21.537900073026">
        <ele>2</ele>
        <time>2016-07-19T11:02:46Z</time>
      </trkpt>
      <trkpt lat="60.116299489359" lon="21.537901749406">
        <ele>2</ele>
        <time>2016-07-19T11:02:47Z</time>
      </trkpt>
      <trkpt lat="60.116300746644" lon="21.537902503777">
        <ele>2</ele>
        <time>2016-07-19T11:02:48Z</time>
      </trkpt>
      <trkpt lat="60.116300579006" lon="21.537902503777">
        <ele>2</ele>
        <time>2016-07-19T11:02:49Z</time>
      </trkpt>
      <trkpt lat="60.116300411368" lon="21.537903174329">
        <ele>2</ele>
        <time>2016-07-19T11:02:50Z</time>
      </trkpt>
      <trkpt lat="60.116300076092" lon="21.537903677243">
        <ele>2</ele>
        <time>2016-07-19T11:02:51Z</time>
      </trkpt>
      <trkpt lat="60.11630024373" lon="21.537904347795">
        <ele>2</ele>
        <time>2016-07-19T11:02:52Z</time>
      </trkpt>
      <trkpt lat="60.116300411368" lon="21.537904515433">
        <ele>2</ele>
        <time>2016-07-19T11:02:53Z</time>
      </trkpt>
      <trkpt lat="60.11630024373" lon="21.537904347795">
        <ele>2</ele>
        <time>2016-07-19T11:02:54Z</time>
      </trkpt>
      <trkpt lat="60.116299992273" lon="21.537904599252">
        <ele>2</ele>
        <time>2016-07-19T11:02:55Z</time>
      </trkpt>
      <trkpt lat="60.116300076092" lon="21.537905437442">
        <ele>2</ele>
        <time>2016-07-19T11:02:56Z</time>
      </trkpt>
      <trkpt lat="60.116299992273" lon="21.537906107994">
        <ele>2</ele>
        <time>2016-07-19T11:02:57Z</time>
      </trkpt>
      <trkpt lat="60.116299992273" lon="21.537906610908">
        <ele>2</ele>
        <time>2016-07-19T11:02:58Z</time>
      </trkpt>
      <trkpt lat="60.11630024373" lon="21.537906946184">
        <ele>2</ele>
        <time>2016-07-19T11:02:59Z</time>
      </trkpt>
      <trkpt lat="60.116300411368" lon="21.537907030003">
        <ele>2</ele>
        <time>2016-07-19T11:03:00Z</time>
      </trkpt>
      <trkpt lat="60.116300495187" lon="21.53790728146">
        <ele>2</ele>
        <time>2016-07-19T11:03:01Z</time>
      </trkpt>
      <trkpt lat="60.116300746644" lon="21.537907616736">
        <ele>2</ele>
        <time>2016-07-19T11:03:02Z</time>
      </trkpt>
      <trkpt lat="60.11630108192" lon="21.537907784374">
        <ele>2</ele>
        <time>2016-07-19T11:03:03Z</time>
      </trkpt>
      <trkpt lat="60.116301501015" lon="21.537907868193">
        <ele>2</ele>
        <time>2016-07-19T11:03:04Z</time>
      </trkpt>
      <trkpt lat="60.11630192011" lon="21.53790811965">
        <ele>2</ele>
        <time>2016-07-19T11:03:05Z</time>
      </trkpt>
      <trkpt lat="60.116302087748" lon="21.537908371107">
        <ele>2</ele>
        <time>2016-07-19T11:03:06Z</time>
      </trkpt>
      <trkpt lat="60.116302339205" lon="21.537908287288">
        <ele>2</ele>
        <time>2016-07-19T11:03:07Z</time>
      </trkpt>
      <trkpt lat="60.116302506843" lon="21.537908035831">
        <ele>2</ele>
        <time>2016-07-19T11:03:08Z</time>
      </trkpt>
      <trkpt lat="60.116302590662" lon="21.537907868193">
        <ele>2</ele>
        <time>2016-07-19T11:03:09Z</time>
      </trkpt>
      <trkpt lat="60.116302171567" lon="21.537907700555">
        <ele>2</ele>
        <time>2016-07-19T11:03:10Z</time>
      </trkpt>
      <trkpt lat="60.116302003929" lon="21.537907616736">
        <ele>2</ele>
        <time>2016-07-19T11:03:11Z</time>
      </trkpt>
      <trkpt lat="60.116302842119" lon="21.537908035831">
        <ele>2</ele>
        <time>2016-07-19T11:03:12Z</time>
      </trkpt>
      <trkpt lat="60.11630359649" lon="21.537908035831">
        <ele>2</ele>
        <time>2016-07-19T11:03:13Z</time>
      </trkpt>
      <trkpt lat="60.11630359649" lon="21.537907700555">
        <ele>2</ele>
        <time>2016-07-19T11:03:14Z</time>
      </trkpt>
      <trkpt lat="60.116303512671" lon="21.537907113822">
        <ele>2</ele>
        <time>2016-07-19T11:03:15Z</time>
      </trkpt>
      <trkpt lat="60.116303428852" lon="21.537906610908">
        <ele>2</ele>
        <time>2016-07-19T11:03:16Z</time>
      </trkpt>
      <trkpt lat="60.116303177395" lon="21.537906024175">
        <ele>2</ele>
        <time>2016-07-19T11:03:17Z</time>
      </trkpt>
      <trkpt lat="60.116303093576" lon="21.537905437442">
        <ele>2</ele>
        <time>2016-07-19T11:03:18Z</time>
      </trkpt>
      <trkpt lat="60.116302674481" lon="21.537904515433">
        <ele>2</ele>
        <time>2016-07-19T11:03:19Z</time>
      </trkpt>
      <trkpt lat="60.116302590662" lon="21.537903593424">
        <ele>2</ele>
        <time>2016-07-19T11:03:20Z</time>
      </trkpt>
      <trkpt lat="60.116302423024" lon="21.537902587596">
        <ele>2</ele>
        <time>2016-07-19T11:03:21Z</time>
      </trkpt>
      <trkpt lat="60.116302003929" lon="21.537901581768">
        <ele>2</ele>
        <time>2016-07-19T11:03:22Z</time>
      </trkpt>
      <trkpt lat="60.116302339205" lon="21.537900492121">
        <ele>2</ele>
        <time>2016-07-19T11:03:23Z</time>
      </trkpt>
      <trkpt lat="60.116302423024" lon="21.537899318655">
        <ele>2</ele>
        <time>2016-07-19T11:03:24Z</time>
      </trkpt>
      <trkpt lat="60.11630192011" lon="21.537897139361">
        <ele>2</ele>
        <time>2016-07-19T11:03:25Z</time>
      </trkpt>
      <trkpt lat="60.116304099404" lon="21.537911640048">
        <ele>2</ele>
        <time>2016-07-19T11:03:26Z</time>
      </trkpt>
      <trkpt lat="60.116306781612" lon="21.537914489894">
        <ele>2</ele>
        <time>2016-07-19T11:03:27Z</time>
      </trkpt>
      <trkpt lat="60.116304183223" lon="21.537909293116">
        <ele>2</ele>
        <time>2016-07-19T11:03:28Z</time>
      </trkpt>
      <trkpt lat="60.116306446336" lon="21.537908538745">
        <ele>2</ele>
        <time>2016-07-19T11:03:29Z</time>
      </trkpt>
      <trkpt lat="60.116307116888" lon="21.537906107994">
        <ele>2</ele>
        <time>2016-07-19T11:03:30Z</time>
      </trkpt>
      <trkpt lat="60.116310469648" lon="21.537897809913">
        <ele>2</ele>
        <time>2016-07-19T11:03:31Z</time>
      </trkpt>
      <trkpt lat="60.116308290354" lon="21.537904180157">
        <ele>2</ele>
        <time>2016-07-19T11:03:32Z</time>
      </trkpt>
      <trkpt lat="60.116308541811" lon="21.537898731922">
        <ele>2</ele>
        <time>2016-07-19T11:03:33Z</time>
      </trkpt>
      <trkpt lat="60.11630778744" lon="21.537896468809">
        <ele>2</ele>
        <time>2016-07-19T11:03:34Z</time>
      </trkpt>
      <trkpt lat="60.116307452164" lon="21.53789387042">
        <ele>2</ele>
        <time>2016-07-19T11:03:35Z</time>
      </trkpt>
      <trkpt lat="60.116307033069" lon="21.537892529316">
        <ele>2</ele>
        <time>2016-07-19T11:03:36Z</time>
      </trkpt>
      <trkpt lat="60.116306194879" lon="21.537894373334">
        <ele>2</ele>
        <time>2016-07-19T11:03:37Z</time>
      </trkpt>
      <trkpt lat="60.11630527287" lon="21.537896887904">
        <ele>2</ele>
        <time>2016-07-19T11:03:38Z</time>
      </trkpt>
      <trkpt lat="60.116304099404" lon="21.53789973775">
        <ele>2</ele>
        <time>2016-07-19T11:03:39Z</time>
      </trkpt>
      <trkpt lat="60.116303680309" lon="21.537901497949">
        <ele>2</ele>
        <time>2016-07-19T11:03:40Z</time>
      </trkpt>
      <trkpt lat="60.116303680309" lon="21.537900073026">
        <ele>2</ele>
        <time>2016-07-19T11:03:41Z</time>
      </trkpt>
      <trkpt lat="60.116304937594" lon="21.537898731922">
        <ele>2</ele>
        <time>2016-07-19T11:03:42Z</time>
      </trkpt>
      <trkpt lat="60.116306530155" lon="21.537898145189">
        <ele>2</ele>
        <time>2016-07-19T11:03:43Z</time>
      </trkpt>
      <trkpt lat="60.116307033069" lon="21.537897977551">
        <ele>2</ele>
        <time>2016-07-19T11:03:44Z</time>
      </trkpt>
      <trkpt lat="60.116306697793" lon="21.537899318655">
        <ele>2</ele>
        <time>2016-07-19T11:03:45Z</time>
      </trkpt>
      <trkpt lat="60.116310050553" lon="21.537885823796">
        <ele>2</ele>
        <time>2016-07-19T11:03:46Z</time>
      </trkpt>
      <trkpt lat="60.116307452164" lon="21.537895211524">
        <ele>2</ele>
        <time>2016-07-19T11:03:47Z</time>
      </trkpt>
      <trkpt lat="60.116308709449" lon="21.537888589823">
        <ele>2</ele>
        <time>2016-07-19T11:03:48Z</time>
      </trkpt>
      <trkpt lat="60.116308290354" lon="21.537887919271">
        <ele>2</ele>
        <time>2016-07-19T11:03:49Z</time>
      </trkpt>
      <trkpt lat="60.116307703621" lon="21.537886494348">
        <ele>2</ele>
        <time>2016-07-19T11:03:50Z</time>
      </trkpt>
      <trkpt lat="60.116307033069" lon="21.53788548852">
        <ele>2</ele>
        <time>2016-07-19T11:03:51Z</time>
      </trkpt>
      <trkpt lat="60.116306194879" lon="21.537886075253">
        <ele>2</ele>
        <time>2016-07-19T11:03:52Z</time>
      </trkpt>
      <trkpt lat="60.116305440508" lon="21.537887583995">
        <ele>2</ele>
        <time>2016-07-19T11:03:53Z</time>
      </trkpt>
      <trkpt lat="60.11630527287" lon="21.537888673642">
        <ele>2</ele>
        <time>2016-07-19T11:03:54Z</time>
      </trkpt>
      <trkpt lat="60.116306194879" lon="21.537888589823">
        <ele>2</ele>
        <time>2016-07-19T11:03:55Z</time>
      </trkpt>
      <trkpt lat="60.116306697793" lon="21.537888338366">
        <ele>2</ele>
        <time>2016-07-19T11:03:56Z</time>
      </trkpt>
      <trkpt lat="60.116306697793" lon="21.537888506004">
        <ele>2</ele>
        <time>2016-07-19T11:03:57Z</time>
      </trkpt>
      <trkpt lat="60.116307619802" lon="21.537887583995">
        <ele>2</ele>
        <time>2016-07-19T11:03:58Z</time>
      </trkpt>
      <trkpt lat="60.116308122716" lon="21.537886829624">
        <ele>2</ele>
        <time>2016-07-19T11:03:59Z</time>
      </trkpt>
      <trkpt lat="60.116308038897" lon="21.537887248719">
        <ele>2</ele>
        <time>2016-07-19T11:04:00Z</time>
      </trkpt>
      <trkpt lat="60.11630778744" lon="21.537887667814">
        <ele>2</ele>
        <time>2016-07-19T11:04:01Z</time>
      </trkpt>
      <trkpt lat="60.11630778744" lon="21.537887583995">
        <ele>2</ele>
        <time>2016-07-19T11:04:02Z</time>
      </trkpt>
      <trkpt lat="60.116307871259" lon="21.537886578167">
        <ele>2</ele>
        <time>2016-07-19T11:04:03Z</time>
      </trkpt>
      <trkpt lat="60.116308206535" lon="21.537888338366">
        <ele>2</ele>
        <time>2016-07-19T11:04:04Z</time>
      </trkpt>
      <trkpt lat="60.116303428852" lon="21.537902419958">
        <ele>2</ele>
        <time>2016-07-19T11:04:05Z</time>
      </trkpt>
      <trkpt lat="60.116306530155" lon="21.53789470861">
        <ele>2</ele>
        <time>2016-07-19T11:04:06Z</time>
      </trkpt>
      <trkpt lat="60.116305943422" lon="21.537897726094">
        <ele>2</ele>
        <time>2016-07-19T11:04:07Z</time>
      </trkpt>
      <trkpt lat="60.116306697793" lon="21.537896049714">
        <ele>2</ele>
        <time>2016-07-19T11:04:08Z</time>
      </trkpt>
      <trkpt lat="60.116308122716" lon="21.537897306999">
        <ele>2</ele>
        <time>2016-07-19T11:04:09Z</time>
      </trkpt>
      <trkpt lat="60.116308709449" lon="21.537897642275">
        <ele>2</ele>
        <time>2016-07-19T11:04:10Z</time>
      </trkpt>
      <trkpt lat="60.116309044725" lon="21.537895714438">
        <ele>2</ele>
        <time>2016-07-19T11:04:11Z</time>
      </trkpt>
      <trkpt lat="60.116308206535" lon="21.537893535144">
        <ele>2</ele>
        <time>2016-07-19T11:04:12Z</time>
      </trkpt>
      <trkpt lat="60.116307200707" lon="21.537892948411">
        <ele>2</ele>
        <time>2016-07-19T11:04:13Z</time>
      </trkpt>
      <trkpt lat="60.116307116888" lon="21.537893283687">
        <ele>2</ele>
        <time>2016-07-19T11:04:14Z</time>
      </trkpt>
      <trkpt lat="60.116306781612" lon="21.537893199868">
        <ele>2</ele>
        <time>2016-07-19T11:04:15Z</time>
      </trkpt>
      <trkpt lat="60.116306613974" lon="21.537893702782">
        <ele>2</ele>
        <time>2016-07-19T11:04:16Z</time>
      </trkpt>
      <trkpt lat="60.11630611106" lon="21.537893535144">
        <ele>2</ele>
        <time>2016-07-19T11:04:17Z</time>
      </trkpt>
      <trkpt lat="60.116305440508" lon="21.537892696954">
        <ele>2</ele>
        <time>2016-07-19T11:04:18Z</time>
      </trkpt>
      <trkpt lat="60.116305440508" lon="21.537892696954">
        <ele>2</ele>
        <time>2016-07-19T11:04:19Z</time>
      </trkpt>
      <trkpt lat="60.11630527287" lon="21.537893702782">
        <ele>2</ele>
        <time>2016-07-19T11:04:20Z</time>
      </trkpt>
      <trkpt lat="60.116304937594" lon="21.537894624791">
        <ele>2</ele>
        <time>2016-07-19T11:04:21Z</time>
      </trkpt>
      <trkpt lat="60.116304602318" lon="21.537894624791">
        <ele>2</ele>
        <time>2016-07-19T11:04:22Z</time>
      </trkpt>
      <trkpt lat="60.116304769956" lon="21.537894373334">
        <ele>2</ele>
        <time>2016-07-19T11:04:23Z</time>
      </trkpt>
      <trkpt lat="60.116304937594" lon="21.537894540972">
        <ele>2</ele>
        <time>2016-07-19T11:04:24Z</time>
      </trkpt>
      <trkpt lat="60.116305105232" lon="21.537895714438">
        <ele>2</ele>
        <time>2016-07-19T11:04:25Z</time>
      </trkpt>
      <trkpt lat="60.116305189051" lon="21.537896887904">
        <ele>2</ele>
        <time>2016-07-19T11:04:26Z</time>
      </trkpt>
      <trkpt lat="60.116305608146" lon="21.537897390818">
        <ele>2</ele>
        <time>2016-07-19T11:04:27Z</time>
      </trkpt>
      <trkpt lat="60.116306446336" lon="21.537897726094">
        <ele>2</ele>
        <time>2016-07-19T11:04:28Z</time>
      </trkpt>
      <trkpt lat="60.116306530155" lon="21.537897474637">
        <ele>2</ele>
        <time>2016-07-19T11:04:29Z</time>
      </trkpt>
      <trkpt lat="60.11630694925" lon="21.537895043886">
        <ele>2</ele>
        <time>2016-07-19T11:04:30Z</time>
      </trkpt>
      <trkpt lat="60.11630778744" lon="21.537891942583">
        <ele>2</ele>
        <time>2016-07-19T11:04:31Z</time>
      </trkpt>
      <trkpt lat="60.116308038897" lon="21.537891439669">
        <ele>2</ele>
        <time>2016-07-19T11:04:32Z</time>
      </trkpt>
      <trkpt lat="60.116307871259" lon="21.537891523488">
        <ele>2</ele>
        <time>2016-07-19T11:04:33Z</time>
      </trkpt>
      <trkpt lat="60.116308038897" lon="21.537891272031">
        <ele>2</ele>
        <time>2016-07-19T11:04:34Z</time>
      </trkpt>
      <trkpt lat="60.116308206535" lon="21.537891020574">
        <ele>2</ele>
        <time>2016-07-19T11:04:35Z</time>
      </trkpt>
      <trkpt lat="60.116308122716" lon="21.537890685298">
        <ele>2</ele>
        <time>2016-07-19T11:04:36Z</time>
      </trkpt>
      <trkpt lat="60.116308206535" lon="21.53789051766">
        <ele>2</ele>
        <time>2016-07-19T11:04:37Z</time>
      </trkpt>
      <trkpt lat="60.116308122716" lon="21.537890433841">
        <ele>2</ele>
        <time>2016-07-19T11:04:38Z</time>
      </trkpt>
      <trkpt lat="60.116308290354" lon="21.537889847108">
        <ele>2</ele>
        <time>2016-07-19T11:04:39Z</time>
      </trkpt>
      <trkpt lat="60.11630862563" lon="21.537889511832">
        <ele>2</ele>
        <time>2016-07-19T11:04:40Z</time>
      </trkpt>
      <trkpt lat="60.116308793268" lon="21.537889930927">
        <ele>2</ele>
        <time>2016-07-19T11:04:41Z</time>
      </trkpt>
      <trkpt lat="60.116309128544" lon="21.537890601479">
        <ele>2</ele>
        <time>2016-07-19T11:04:42Z</time>
      </trkpt>
      <trkpt lat="60.116309547639" lon="21.537891272031">
        <ele>2</ele>
        <time>2016-07-19T11:04:43Z</time>
      </trkpt>
      <trkpt lat="60.116310134372" lon="21.537891691126">
        <ele>2</ele>
        <time>2016-07-19T11:04:44Z</time>
      </trkpt>
      <trkpt lat="60.116310972562" lon="21.537892110221">
        <ele>2</ele>
        <time>2016-07-19T11:04:45Z</time>
      </trkpt>
      <trkpt lat="60.116311307838" lon="21.537893199868">
        <ele>2</ele>
        <time>2016-07-19T11:04:46Z</time>
      </trkpt>
      <trkpt lat="60.116273673107" lon="21.538055138176">
        <ele>0</ele>
        <time>2016-07-19T11:10:09Z</time>
      </trkpt>
      <trkpt lat="60.116267973415" lon="21.538034351064">
        <ele>0</ele>
        <time>2016-07-19T11:10:10Z</time>
      </trkpt>
      <trkpt lat="60.116263866284" lon="21.538023203137">
        <ele>0</ele>
        <time>2016-07-19T11:10:11Z</time>
      </trkpt>
      <trkpt lat="60.116266548492" lon="21.538030243933">
        <ele>0</ele>
        <time>2016-07-19T11:10:12Z</time>
      </trkpt>
      <trkpt lat="60.116256238755" lon="21.538021526757">
        <ele>0</ele>
        <time>2016-07-19T11:10:13Z</time>
      </trkpt>
      <trkpt lat="60.116250036149" lon="21.538016329979">
        <ele>0</ele>
        <time>2016-07-19T11:10:14Z</time>
      </trkpt>
      <trkpt lat="60.116253640366" lon="21.538019179825">
        <ele>0</ele>
        <time>2016-07-19T11:10:15Z</time>
      </trkpt>
      <trkpt lat="60.116246515751" lon="21.538019515101">
        <ele>0</ele>
        <time>2016-07-19T11:10:16Z</time>
      </trkpt>
      <trkpt lat="60.116246012837" lon="21.538015994703">
        <ele>0</ele>
        <time>2016-07-19T11:10:17Z</time>
      </trkpt>
      <trkpt lat="60.116245677561" lon="21.538015827065">
        <ele>0</ele>
        <time>2016-07-19T11:10:18Z</time>
      </trkpt>
      <trkpt lat="60.116250622882" lon="21.538013061038">
        <ele>0</ele>
        <time>2016-07-19T11:10:19Z</time>
      </trkpt>
      <trkpt lat="60.116247270122" lon="21.538016832893">
        <ele>0</ele>
        <time>2016-07-19T11:10:20Z</time>
      </trkpt>
      <trkpt lat="60.11625665785" lon="21.537999901455">
        <ele>0</ele>
        <time>2016-07-19T11:10:21Z</time>
      </trkpt>
      <trkpt lat="60.116252550719" lon="21.538009037726">
        <ele>0</ele>
        <time>2016-07-19T11:10:22Z</time>
      </trkpt>
      <trkpt lat="60.116262273723" lon="21.537988418252">
        <ele>0</ele>
        <time>2016-07-19T11:10:23Z</time>
      </trkpt>
      <trkpt lat="60.116262022266" lon="21.537975761583">
        <ele>0</ele>
        <time>2016-07-19T11:10:24Z</time>
      </trkpt>
      <trkpt lat="60.116261770809" lon="21.537966876769">
        <ele>0</ele>
        <time>2016-07-19T11:10:25Z</time>
      </trkpt>
      <trkpt lat="60.116261603171" lon="21.53797433666">
        <ele>0</ele>
        <time>2016-07-19T11:10:26Z</time>
      </trkpt>
      <trkpt lat="60.116261938447" lon="21.537961177077">
        <ele>0</ele>
        <time>2016-07-19T11:10:27Z</time>
      </trkpt>
      <trkpt lat="60.116262106085" lon="21.537958243412">
        <ele>0</ele>
        <time>2016-07-19T11:10:28Z</time>
      </trkpt>
      <trkpt lat="60.116261603171" lon="21.537956399394">
        <ele>0</ele>
        <time>2016-07-19T11:10:29Z</time>
      </trkpt>
      <trkpt lat="60.116256490212" lon="21.537943491268">
        <ele>0</ele>
        <time>2016-07-19T11:10:30Z</time>
      </trkpt>
      <trkpt lat="60.11626001061" lon="21.537951789349">
        <ele>0</ele>
        <time>2016-07-19T11:10:31Z</time>
      </trkpt>
      <trkpt lat="60.116251209615" lon="21.537928068572">
        <ele>0</ele>
        <time>2016-07-19T11:10:32Z</time>
      </trkpt>
      <trkpt lat="60.116254227099" lon="21.537940222327">
        <ele>0</ele>
        <time>2016-07-19T11:10:33Z</time>
      </trkpt>
      <trkpt lat="60.116247018665" lon="21.53791901612">
        <ele>0</ele>
        <time>2016-07-19T11:10:34Z</time>
      </trkpt>
      <trkpt lat="60.116244085" lon="21.537911220953">
        <ele>0</ele>
        <time>2016-07-19T11:10:35Z</time>
      </trkpt>
      <trkpt lat="60.116246096656" lon="21.53791817793">
        <ele>0</ele>
        <time>2016-07-19T11:10:36Z</time>
      </trkpt>
      <trkpt lat="60.116245509923" lon="21.537896049714">
        <ele>0</ele>
        <time>2016-07-19T11:10:37Z</time>
      </trkpt>
      <trkpt lat="60.116244336457" lon="21.537902922872">
        <ele>0</ele>
        <time>2016-07-19T11:10:38Z</time>
      </trkpt>
      <trkpt lat="60.116247018665" lon="21.537892026402">
        <ele>0</ele>
        <time>2016-07-19T11:10:39Z</time>
      </trkpt>
      <trkpt lat="60.116248527407" lon="21.537888170728">
        <ele>0</ele>
        <time>2016-07-19T11:10:40Z</time>
      </trkpt>
      <trkpt lat="60.116238636765" lon="21.537898731922">
        <ele>0</ele>
        <time>2016-07-19T11:10:41Z</time>
      </trkpt>
      <trkpt lat="60.116245426104" lon="21.53789051766">
        <ele>0</ele>
        <time>2016-07-19T11:10:42Z</time>
      </trkpt>
      <trkpt lat="60.116225225725" lon="21.537900659759">
        <ele>0</ele>
        <time>2016-07-19T11:10:43Z</time>
      </trkpt>
      <trkpt lat="60.116217011463" lon="21.537900492121">
        <ele>0</ele>
        <time>2016-07-19T11:10:44Z</time>
      </trkpt>
      <trkpt lat="60.116206701726" lon="21.53789806137">
        <ele>0</ele>
        <time>2016-07-19T11:10:45Z</time>
      </trkpt>
      <trkpt lat="60.116188177727" lon="21.537886159072">
        <ele>0</ele>
        <time>2016-07-19T11:10:46Z</time>
      </trkpt>
      <trkpt lat="60.116184489691" lon="21.537882806312">
        <ele>0</ele>
        <time>2016-07-19T11:10:47Z</time>
      </trkpt>
      <trkpt lat="60.116165714235" lon="21.53785866644">
        <ele>0</ele>
        <time>2016-07-19T11:10:48Z</time>
      </trkpt>
      <trkpt lat="60.116160768914" lon="21.537849194893">
        <ele>0</ele>
        <time>2016-07-19T11:10:49Z</time>
      </trkpt>
      <trkpt lat="60.116146519684" lon="21.537822540451">
        <ele>0</ele>
        <time>2016-07-19T11:10:50Z</time>
      </trkpt>
      <trkpt lat="60.116140400897" lon="21.537804854642">
        <ele>0</ele>
        <time>2016-07-19T11:10:51Z</time>
      </trkpt>
      <trkpt lat="60.116131432264" lon="21.537785492453">
        <ele>0</ele>
        <time>2016-07-19T11:10:52Z</time>
      </trkpt>
      <trkpt lat="60.116122295993" lon="21.537752383948">
        <ele>0</ele>
        <time>2016-07-19T11:10:53Z</time>
      </trkpt>
      <trkpt lat="60.11611751831" lon="21.537738386175">
        <ele>0</ele>
        <time>2016-07-19T11:10:54Z</time>
      </trkpt>
      <trkpt lat="60.116116512482" lon="21.537700583806">
        <ele>0</ele>
        <time>2016-07-19T11:10:55Z</time>
      </trkpt>
      <trkpt lat="60.116116093387" lon="21.537670660423">
        <ele>0</ele>
        <time>2016-07-19T11:10:56Z</time>
      </trkpt>
      <trkpt lat="60.116105951288" lon="21.537653393709">
        <ele>0</ele>
        <time>2016-07-19T11:10:57Z</time>
      </trkpt>
      <trkpt lat="60.11610746003" lon="21.537617100082">
        <ele>0</ele>
        <time>2016-07-19T11:10:58Z</time>
      </trkpt>
      <trkpt lat="60.116101173605" lon="21.537597570255">
        <ele>0</ele>
        <time>2016-07-19T11:10:59Z</time>
      </trkpt>
      <trkpt lat="60.116092959343" lon="21.537573765659">
        <ele>0</ele>
        <time>2016-07-19T11:11:00Z</time>
      </trkpt>
      <trkpt lat="60.116090528592" lon="21.537552391814">
        <ele>0</ele>
        <time>2016-07-19T11:11:01Z</time>
      </trkpt>
      <trkpt lat="60.116082481968" lon="21.537523558078">
        <ele>0</ele>
        <time>2016-07-19T11:11:02Z</time>
      </trkpt>
      <trkpt lat="60.116076949914" lon="21.537494472885">
        <ele>0</ele>
        <time>2016-07-19T11:11:03Z</time>
      </trkpt>
      <trkpt lat="60.116073261878" lon="21.537473601954">
        <ele>0</ele>
        <time>2016-07-19T11:11:04Z</time>
      </trkpt>
      <trkpt lat="60.116072172231" lon="21.53743705687">
        <ele>0</ele>
        <time>2016-07-19T11:11:05Z</time>
      </trkpt>
      <trkpt lat="60.116072339869" lon="21.5374010147">
        <ele>0</ele>
        <time>2016-07-19T11:11:06Z</time>
      </trkpt>
      <trkpt lat="60.116066891634" lon="21.537390285868">
        <ele>0</ele>
        <time>2016-07-19T11:11:07Z</time>
      </trkpt>
      <trkpt lat="60.116064963797" lon="21.537348627825">
        <ele>0</ele>
        <time>2016-07-19T11:11:08Z</time>
      </trkpt>
      <trkpt lat="60.116061527218" lon="21.537328511265">
        <ele>0</ele>
        <time>2016-07-19T11:11:09Z</time>
      </trkpt>
      <trkpt lat="60.116056917173" lon="21.537305125764">
        <ele>0</ele>
        <time>2016-07-19T11:11:10Z</time>
      </trkpt>
      <trkpt lat="60.116054234965" lon="21.537272855449">
        <ele>0</ele>
        <time>2016-07-19T11:11:11Z</time>
      </trkpt>
      <trkpt lat="60.116050966024" lon="21.537250727233">
        <ele>0</ele>
        <time>2016-07-19T11:11:12Z</time>
      </trkpt>
      <trkpt lat="60.116049792558" lon="21.537219211289">
        <ele>0</ele>
        <time>2016-07-19T11:11:13Z</time>
      </trkpt>
      <trkpt lat="60.116049541101" lon="21.537189623182">
        <ele>0</ele>
        <time>2016-07-19T11:11:14Z</time>
      </trkpt>
      <trkpt lat="60.116041829753" lon="21.537168500794">
        <ele>0</ele>
        <time>2016-07-19T11:11:15Z</time>
      </trkpt>
      <trkpt lat="60.116045350151" lon="21.537132290986">
        <ele>0</ele>
        <time>2016-07-19T11:11:16Z</time>
      </trkpt>
      <trkpt lat="60.116037806441" lon="21.537112258245">
        <ele>0</ele>
        <time>2016-07-19T11:11:17Z</time>
      </trkpt>
      <trkpt lat="60.116031520016" lon="21.537091387314">
        <ele>0</ele>
        <time>2016-07-19T11:11:18Z</time>
      </trkpt>
      <trkpt lat="60.116027329066" lon="21.537062888854">
        <ele>0</ele>
        <time>2016-07-19T11:11:19Z</time>
      </trkpt>
      <trkpt lat="60.11602028827" lon="21.537036569688">
        <ele>0</ele>
        <time>2016-07-19T11:11:20Z</time>
      </trkpt>
      <trkpt lat="60.116016264958" lon="21.537012262178">
        <ele>0</ele>
        <time>2016-07-19T11:11:21Z</time>
      </trkpt>
      <trkpt lat="60.116009978533" lon="21.536986697383">
        <ele>0</ele>
        <time>2016-07-19T11:11:22Z</time>
      </trkpt>
      <trkpt lat="60.116004781755" lon="21.53694755391">
        <ele>0</ele>
        <time>2016-07-19T11:11:23Z</time>
      </trkpt>
      <trkpt lat="60.116003105375" lon="21.536927940264">
        <ele>0</ele>
        <time>2016-07-19T11:11:24Z</time>
      </trkpt>
      <trkpt lat="60.11600268628" lon="21.536902543107">
        <ele>0</ele>
        <time>2016-07-19T11:11:25Z</time>
      </trkpt>
      <trkpt lat="60.11600520085" lon="21.536863986367">
        <ele>0</ele>
        <time>2016-07-19T11:11:26Z</time>
      </trkpt>
      <trkpt lat="60.116000674624" lon="21.536847390205">
        <ele>0</ele>
        <time>2016-07-19T11:11:27Z</time>
      </trkpt>
      <trkpt lat="60.11600017171" lon="21.536810426026">
        <ele>0</ele>
        <time>2016-07-19T11:11:28Z</time>
      </trkpt>
      <trkpt lat="60.11599933352" lon="21.536786369973">
        <ele>0</ele>
        <time>2016-07-19T11:11:29Z</time>
      </trkpt>
      <trkpt lat="60.115994974932" lon="21.536761894825">
        <ele>0</ele>
        <time>2016-07-19T11:11:30Z</time>
      </trkpt>
      <trkpt lat="60.115992376543" lon="21.536730630338">
        <ele>0</ele>
        <time>2016-07-19T11:11:31Z</time>
      </trkpt>
      <trkpt lat="60.115990197249" lon="21.536710597597">
        <ele>0</ele>
        <time>2016-07-19T11:11:32Z</time>
      </trkpt>
      <trkpt lat="60.115985754842" lon="21.53666927483">
        <ele>0</ele>
        <time>2016-07-19T11:11:33Z</time>
      </trkpt>
      <trkpt lat="60.115983910824" lon="21.53664915827">
        <ele>0</ele>
        <time>2016-07-19T11:11:34Z</time>
      </trkpt>
      <trkpt lat="60.115983827005" lon="21.536618396697">
        <ele>0</ele>
        <time>2016-07-19T11:11:35Z</time>
      </trkpt>
      <trkpt lat="60.11598676067" lon="21.536580091414">
        <ele>0</ele>
        <time>2016-07-19T11:11:36Z</time>
      </trkpt>
      <trkpt lat="60.115980641883" lon="21.536562740881">
        <ele>0</ele>
        <time>2016-07-19T11:11:37Z</time>
      </trkpt>
      <trkpt lat="60.115980558064" lon="21.536530638204">
        <ele>0</ele>
        <time>2016-07-19T11:11:38Z</time>
      </trkpt>
      <trkpt lat="60.115972008526" lon="21.536504319038">
        <ele>0</ele>
        <time>2016-07-19T11:11:39Z</time>
      </trkpt>
      <trkpt lat="60.11597083506" lon="21.536491746188">
        <ele>0</ele>
        <time>2016-07-19T11:11:40Z</time>
      </trkpt>
      <trkpt lat="60.115959770952" lon="21.536451429249">
        <ele>0</ele>
        <time>2016-07-19T11:11:41Z</time>
      </trkpt>
      <trkpt lat="60.115955328545" lon="21.536432821431">
        <ele>0</ele>
        <time>2016-07-19T11:11:42Z</time>
      </trkpt>
      <trkpt lat="60.115946862826" lon="21.53640692136">
        <ele>0</ele>
        <time>2016-07-19T11:11:43Z</time>
      </trkpt>
      <trkpt lat="60.11593646927" lon="21.536365598593">
        <ele>0</ele>
        <time>2016-07-19T11:11:44Z</time>
      </trkpt>
      <trkpt lat="60.115934625252" lon="21.536349170069">
        <ele>0</ele>
        <time>2016-07-19T11:11:45Z</time>
      </trkpt>
      <trkpt lat="60.115925991895" lon="21.536305248913">
        <ele>0</ele>
        <time>2016-07-19T11:11:46Z</time>
      </trkpt>
      <trkpt lat="60.115925656619" lon="21.536277923919">
        <ele>0</ele>
        <time>2016-07-19T11:11:47Z</time>
      </trkpt>
      <trkpt lat="60.115926494809" lon="21.536246743251">
        <ele>0</ele>
        <time>2016-07-19T11:11:48Z</time>
      </trkpt>
      <trkpt lat="60.115919370194" lon="21.536216400773">
        <ele>0</ele>
        <time>2016-07-19T11:11:49Z</time>
      </trkpt>
      <trkpt lat="60.115923980239" lon="21.536180023327">
        <ele>0</ele>
        <time>2016-07-19T11:11:50Z</time>
      </trkpt>
      <trkpt lat="60.115917526176" lon="21.536157224559">
        <ele>0</ele>
        <time>2016-07-19T11:11:51Z</time>
      </trkpt>
      <trkpt lat="60.115914592511" lon="21.536134677248">
        <ele>0</ele>
        <time>2016-07-19T11:11:52Z</time>
      </trkpt>
      <trkpt lat="60.11590964719" lon="21.536090756092">
        <ele>0</ele>
        <time>2016-07-19T11:11:53Z</time>
      </trkpt>
      <trkpt lat="60.115908473724" lon="21.536068544057">
        <ele>0</ele>
        <time>2016-07-19T11:11:54Z</time>
      </trkpt>
      <trkpt lat="60.115910988294" lon="21.536033340077">
        <ele>0</ele>
        <time>2016-07-19T11:11:55Z</time>
      </trkpt>
      <trkpt lat="60.115907216439" lon="21.535996543536">
        <ele>0</ele>
        <time>2016-07-19T11:11:56Z</time>
      </trkpt>
      <trkpt lat="60.115906713525" lon="21.535977432804">
        <ele>0</ele>
        <time>2016-07-19T11:11:57Z</time>
      </trkpt>
      <trkpt lat="60.115901349109" lon="21.535947174145">
        <ele>0</ele>
        <time>2016-07-19T11:11:58Z</time>
      </trkpt>
      <trkpt lat="60.115900091824" lon="21.535916831667">
        <ele>0</ele>
        <time>2016-07-19T11:11:59Z</time>
      </trkpt>
      <trkpt lat="60.115897493435" lon="21.53589394908">
        <ele>0</ele>
        <time>2016-07-19T11:12:00Z</time>
      </trkpt>
      <trkpt lat="60.115899085996" lon="21.535856649625">
        <ele>0</ele>
        <time>2016-07-19T11:12:01Z</time>
      </trkpt>
      <trkpt lat="60.115900259462" lon="21.535827480613">
        <ele>0</ele>
        <time>2016-07-19T11:12:02Z</time>
      </trkpt>
      <trkpt lat="60.115892129019" lon="21.535802837827">
        <ele>0</ele>
        <time>2016-07-19T11:12:03Z</time>
      </trkpt>
      <trkpt lat="60.115894392132" lon="21.535765538372">
        <ele>0</ele>
        <time>2016-07-19T11:12:04Z</time>
      </trkpt>
      <trkpt lat="60.11588617787" lon="21.535736285541">
        <ele>0</ele>
        <time>2016-07-19T11:12:05Z</time>
      </trkpt>
      <trkpt lat="60.115884669128" lon="21.535719270284">
        <ele>0</ele>
        <time>2016-07-19T11:12:06Z</time>
      </trkpt>
      <trkpt lat="60.115876790142" lon="21.535674008024">
        <ele>0</ele>
        <time>2016-07-19T11:12:07Z</time>
      </trkpt>
      <trkpt lat="60.115875532857" lon="21.535653975283">
        <ele>0</ele>
        <time>2016-07-19T11:12:08Z</time>
      </trkpt>
      <trkpt lat="60.115870671355" lon="21.535619441855">
        <ele>0</ele>
        <time>2016-07-19T11:12:09Z</time>
      </trkpt>
      <trkpt lat="60.115870084622" lon="21.535592452137">
        <ele>0</ele>
        <time>2016-07-19T11:12:10Z</time>
      </trkpt>
      <trkpt lat="60.115869749346" lon="21.535563450763">
        <ele>0</ele>
        <time>2016-07-19T11:12:11Z</time>
      </trkpt>
      <trkpt lat="60.115868492061" lon="21.535530426077">
        <ele>0</ele>
        <time>2016-07-19T11:12:12Z</time>
      </trkpt>
      <trkpt lat="60.115863882016" lon="21.535506872938">
        <ele>0</ele>
        <time>2016-07-19T11:12:13Z</time>
      </trkpt>
      <trkpt lat="60.115861283627" lon="21.535485247636">
        <ele>0</ele>
        <time>2016-07-19T11:12:14Z</time>
      </trkpt>
      <trkpt lat="60.1158585176" lon="21.53544132648">
        <ele>0</ele>
        <time>2016-07-19T11:12:15Z</time>
      </trkpt>
      <trkpt lat="60.115857427953" lon="21.5354228863">
        <ele>0</ele>
        <time>2016-07-19T11:12:16Z</time>
      </trkpt>
      <trkpt lat="60.115854997202" lon="21.535384245741">
        <ele>0</ele>
        <time>2016-07-19T11:12:17Z</time>
      </trkpt>
      <trkpt lat="60.115854410469" lon="21.535355914919">
        <ele>0</ele>
        <time>2016-07-19T11:12:18Z</time>
      </trkpt>
      <trkpt lat="60.115853320822" lon="21.535327500278">
        <ele>0</ele>
        <time>2016-07-19T11:12:19Z</time>
      </trkpt>
      <trkpt lat="60.115859020514" lon="21.535294894687">
        <ele>0</ele>
        <time>2016-07-19T11:12:20Z</time>
      </trkpt>
      <trkpt lat="60.11586270855" lon="21.535265809494">
        <ele>0</ele>
        <time>2016-07-19T11:12:21Z</time>
      </trkpt>
      <trkpt lat="60.115858266143" lon="21.535239071233">
        <ele>0</ele>
        <time>2016-07-19T11:12:22Z</time>
      </trkpt>
      <trkpt lat="60.115864301111" lon="21.535202777606">
        <ele>0.2</ele>
        <time>2016-07-19T11:12:23Z</time>
      </trkpt>
      <trkpt lat="60.115862624731" lon="21.535178470096">
        <ele>0.6</ele>
        <time>2016-07-19T11:12:24Z</time>
      </trkpt>
      <trkpt lat="60.115858433781" lon="21.53514712179">
        <ele>1</ele>
        <time>2016-07-19T11:12:25Z</time>
      </trkpt>
      <trkpt lat="60.115858852876" lon="21.535126753773">
        <ele>1.4</ele>
        <time>2016-07-19T11:12:26Z</time>
      </trkpt>
      <trkpt lat="60.11585600303" lon="21.535096662752">
        <ele>1.8</ele>
        <time>2016-07-19T11:12:27Z</time>
      </trkpt>
      <trkpt lat="60.115855248659" lon="21.53506749374">
        <ele>2</ele>
        <time>2016-07-19T11:12:28Z</time>
      </trkpt>
      <trkpt lat="60.11585684122" lon="21.535037235081">
        <ele>2</ele>
        <time>2016-07-19T11:12:29Z</time>
      </trkpt>
      <trkpt lat="60.115852817908" lon="21.535003623662">
        <ele>2</ele>
        <time>2016-07-19T11:12:30Z</time>
      </trkpt>
      <trkpt lat="60.115856757401" lon="21.534983004188">
        <ele>2</ele>
        <time>2016-07-19T11:12:31Z</time>
      </trkpt>
      <trkpt lat="60.115852398813" lon="21.534950398597">
        <ele>2</ele>
        <time>2016-07-19T11:12:32Z</time>
      </trkpt>
      <trkpt lat="60.115845274198" lon="21.534925336716">
        <ele>2</ele>
        <time>2016-07-19T11:12:33Z</time>
      </trkpt>
      <trkpt lat="60.11584594475" lon="21.534905471613">
        <ele>2</ele>
        <time>2016-07-19T11:12:34Z</time>
      </trkpt>
      <trkpt lat="60.115839574506" lon="21.534869597081">
        <ele>2</ele>
        <time>2016-07-19T11:12:35Z</time>
      </trkpt>
      <trkpt lat="60.115837227574" lon="21.534837745861">
        <ele>2</ele>
        <time>2016-07-19T11:12:36Z</time>
      </trkpt>
      <trkpt lat="60.115838149583" lon="21.534816288197">
        <ele>2</ele>
        <time>2016-07-19T11:12:37Z</time>
      </trkpt>
      <trkpt lat="60.115836473203" lon="21.53477999457">
        <ele>2</ele>
        <time>2016-07-19T11:12:38Z</time>
      </trkpt>
      <trkpt lat="60.115836892298" lon="21.534759375096">
        <ele>2</ele>
        <time>2016-07-19T11:12:39Z</time>
      </trkpt>
      <trkpt lat="60.115834880642" lon="21.534728529704">
        <ele>2</ele>
        <time>2016-07-19T11:12:40Z</time>
      </trkpt>
      <trkpt lat="60.115826163466" lon="21.534703886918">
        <ele>2</ele>
        <time>2016-07-19T11:12:41Z</time>
      </trkpt>
      <trkpt lat="60.115826079647" lon="21.534690140602">
        <ele>2</ele>
        <time>2016-07-19T11:12:42Z</time>
      </trkpt>
      <trkpt lat="60.115817530109" lon="21.534647812007">
        <ele>2</ele>
        <time>2016-07-19T11:12:43Z</time>
      </trkpt>
      <trkpt lat="60.1158166081" lon="21.534636328804">
        <ele>2</ele>
        <time>2016-07-19T11:12:44Z</time>
      </trkpt>
      <trkpt lat="60.115807974743" lon="21.534595089856">
        <ele>2</ele>
        <time>2016-07-19T11:12:45Z</time>
      </trkpt>
      <trkpt lat="60.115805543992" lon="21.534573213097">
        <ele>2</ele>
        <time>2016-07-19T11:12:46Z</time>
      </trkpt>
      <trkpt lat="60.11580487344" lon="21.534550917243">
        <ele>2</ele>
        <time>2016-07-19T11:12:47Z</time>
      </trkpt>
      <trkpt lat="60.115807220372" lon="21.534512444322">
        <ele>2</ele>
        <time>2016-07-19T11:12:48Z</time>
      </trkpt>
      <trkpt lat="60.115804621983" lon="21.534495596703">
        <ele>2</ele>
        <time>2016-07-19T11:12:49Z</time>
      </trkpt>
      <trkpt lat="60.115804454345" lon="21.534463913121">
        <ele>2</ele>
        <time>2016-07-19T11:12:50Z</time>
      </trkpt>
      <trkpt lat="60.115802694146" lon="21.534438432145">
        <ele>2</ele>
        <time>2016-07-19T11:12:51Z</time>
      </trkpt>
      <trkpt lat="60.115800933947" lon="21.534421752164">
        <ele>2</ele>
        <time>2016-07-19T11:12:52Z</time>
      </trkpt>
      <trkpt lat="60.115797581187" lon="21.534380010302">
        <ele>2</ele>
        <time>2016-07-19T11:12:53Z</time>
      </trkpt>
      <trkpt lat="60.11579732973" lon="21.534368359461">
        <ele>2</ele>
        <time>2016-07-19T11:12:54Z</time>
      </trkpt>
      <trkpt lat="60.115799928119" lon="21.53432988654">
        <ele>2</ele>
        <time>2016-07-19T11:12:55Z</time>
      </trkpt>
      <trkpt lat="60.115803448517" lon="21.534300633709">
        <ele>2</ele>
        <time>2016-07-19T11:12:56Z</time>
      </trkpt>
      <trkpt lat="60.11579816792" lon="21.534279930416">
        <ele>2</ele>
        <time>2016-07-19T11:12:57Z</time>
      </trkpt>
      <trkpt lat="60.115806214544" lon="21.534243217694">
        <ele>2</ele>
        <time>2016-07-19T11:12:58Z</time>
      </trkpt>
      <trkpt lat="60.115802861784" lon="21.534219748374">
        <ele>2</ele>
        <time>2016-07-19T11:12:59Z</time>
      </trkpt>
      <trkpt lat="60.115801772137" lon="21.534182784195">
        <ele>2</ele>
        <time>2016-07-19T11:13:00Z</time>
      </trkpt>
      <trkpt lat="60.11580571163" lon="21.534157638495">
        <ele>2</ele>
        <time>2016-07-19T11:13:01Z</time>
      </trkpt>
      <trkpt lat="60.115799592843" lon="21.534132325157">
        <ele>2</ele>
        <time>2016-07-19T11:13:02Z</time>
      </trkpt>
      <trkpt lat="60.115792887323" lon="21.534104916344">
        <ele>2</ele>
        <time>2016-07-19T11:13:03Z</time>
      </trkpt>
      <trkpt lat="60.115792468228" lon="21.534086643802">
        <ele>2</ele>
        <time>2016-07-19T11:13:04Z</time>
      </trkpt>
      <trkpt lat="60.115782661405" lon="21.534045991587">
        <ele>2</ele>
        <time>2016-07-19T11:13:05Z</time>
      </trkpt>
      <trkpt lat="60.115781068844" lon="21.534024198647">
        <ele>2</ele>
        <time>2016-07-19T11:13:06Z</time>
      </trkpt>
      <trkpt lat="60.115780733568" lon="21.533995951644">
        <ele>2</ele>
        <time>2016-07-19T11:13:07Z</time>
      </trkpt>
      <trkpt lat="60.115777883722" lon="21.533962088768">
        <ele>2</ele>
        <time>2016-07-19T11:13:08Z</time>
      </trkpt>
      <trkpt lat="60.115778218998" lon="21.53394012819">
        <ele>2</ele>
        <time>2016-07-19T11:13:09Z</time>
      </trkpt>
      <trkpt lat="60.115770340012" lon="21.533909031341">
        <ele>2</ele>
        <time>2016-07-19T11:13:10Z</time>
      </trkpt>
      <trkpt lat="60.115773608953" lon="21.533875419922">
        <ele>2</ele>
        <time>2016-07-19T11:13:11Z</time>
      </trkpt>
      <trkpt lat="60.115764556501" lon="21.533855303362">
        <ele>2</ele>
        <time>2016-07-19T11:13:12Z</time>
      </trkpt>
      <trkpt lat="60.115755923144" lon="21.533829654748">
        <ele>2</ele>
        <time>2016-07-19T11:13:13Z</time>
      </trkpt>
      <trkpt lat="60.115752738022" lon="21.533808616179">
        <ele>2</ele>
        <time>2016-07-19T11:13:14Z</time>
      </trkpt>
      <trkpt lat="60.115743517932" lon="21.53378087209">
        <ele>2</ele>
        <time>2016-07-19T11:13:15Z</time>
      </trkpt>
      <trkpt lat="60.115736896231" lon="21.533751786897">
        <ele>2</ele>
        <time>2016-07-19T11:13:16Z</time>
      </trkpt>
      <trkpt lat="60.115732202367" lon="21.533732927622">
        <ele>2</ele>
        <time>2016-07-19T11:13:17Z</time>
      </trkpt>
      <trkpt lat="60.11572943634" lon="21.533698478013">
        <ele>2</ele>
        <time>2016-07-19T11:13:18Z</time>
      </trkpt>
      <trkpt lat="60.115729687797" lon="21.533667045888">
        <ele>2</ele>
        <time>2016-07-19T11:13:19Z</time>
      </trkpt>
      <trkpt lat="60.115720300069" lon="21.533645336767">
        <ele>2</ele>
        <time>2016-07-19T11:13:20Z</time>
      </trkpt>
      <trkpt lat="60.115726670313" lon="21.533611222434">
        <ele>2</ele>
        <time>2016-07-19T11:13:21Z</time>
      </trkpt>
      <trkpt lat="60.115717869318" lon="21.533587836933">
        <ele>2</ele>
        <time>2016-07-19T11:13:22Z</time>
      </trkpt>
      <trkpt lat="60.115712337264" lon="21.533560009025">
        <ele>2</ele>
        <time>2016-07-19T11:13:23Z</time>
      </trkpt>
      <trkpt lat="60.11571099616" lon="21.533540982112">
        <ele>2</ele>
        <time>2016-07-19T11:13:24Z</time>
      </trkpt>
      <trkpt lat="60.115702195165" lon="21.53350594577">
        <ele>2</ele>
        <time>2016-07-19T11:13:25Z</time>
      </trkpt>
      <trkpt lat="60.115699429138" lon="21.533481722079">
        <ele>2</ele>
        <time>2016-07-19T11:13:26Z</time>
      </trkpt>
      <trkpt lat="60.115697166025" lon="21.533458420397">
        <ele>2</ele>
        <time>2016-07-19T11:13:27Z</time>
      </trkpt>
      <trkpt lat="60.115694651455" lon="21.533423216417">
        <ele>2</ele>
        <time>2016-07-19T11:13:28Z</time>
      </trkpt>
      <trkpt lat="60.115692891256" lon="21.533405279151">
        <ele>2</ele>
        <time>2016-07-19T11:13:29Z</time>
      </trkpt>
      <trkpt lat="60.115687275383" lon="21.533372338284">
        <ele>2</ele>
        <time>2016-07-19T11:13:30Z</time>
      </trkpt>
      <trkpt lat="60.115687023926" lon="21.53334836605">
        <ele>2</ele>
        <time>2016-07-19T11:13:31Z</time>
      </trkpt>
      <trkpt lat="60.11568417408" lon="21.53333411682">
        <ele>2</ele>
        <time>2016-07-19T11:13:32Z</time>
      </trkpt>
      <trkpt lat="60.115677300922" lon="21.533292710234">
        <ele>2</ele>
        <time>2016-07-19T11:13:33Z</time>
      </trkpt>
      <trkpt lat="60.115675875999" lon="21.533279047737">
        <ele>2</ele>
        <time>2016-07-19T11:13:34Z</time>
      </trkpt>
      <trkpt lat="60.11566908666" lon="21.533231354726">
        <ele>2</ele>
        <time>2016-07-19T11:13:35Z</time>
      </trkpt>
      <trkpt lat="60.115667997013" lon="21.533214088012">
        <ele>2</ele>
        <time>2016-07-19T11:13:36Z</time>
      </trkpt>
      <trkpt lat="60.115668583746" lon="21.533188187941">
        <ele>2</ele>
        <time>2016-07-19T11:13:37Z</time>
      </trkpt>
      <trkpt lat="60.115670176307" lon="21.533152983961">
        <ele>2</ele>
        <time>2016-07-19T11:13:38Z</time>
      </trkpt>
      <trkpt lat="60.115664728072" lon="21.533138483274">
        <ele>2</ele>
        <time>2016-07-19T11:13:39Z</time>
      </trkpt>
      <trkpt lat="60.115667075004" lon="21.533095735584">
        <ele>2</ele>
        <time>2016-07-19T11:13:40Z</time>
      </trkpt>
      <trkpt lat="60.115661375312" lon="21.533076121938">
        <ele>2</ele>
        <time>2016-07-19T11:13:41Z</time>
      </trkpt>
      <trkpt lat="60.115654502154" lon="21.533051395333">
        <ele>2</ele>
        <time>2016-07-19T11:13:42Z</time>
      </trkpt>
      <trkpt lat="60.115652993412" lon="21.533030021488">
        <ele>2</ele>
        <time>2016-07-19T11:13:43Z</time>
      </trkpt>
      <trkpt lat="60.115646539349" lon="21.532999930467">
        <ele>2</ele>
        <time>2016-07-19T11:13:44Z</time>
      </trkpt>
      <trkpt lat="60.11564226458" lon="21.532974952405">
        <ele>2</ele>
        <time>2016-07-19T11:13:45Z</time>
      </trkpt>
      <trkpt lat="60.115637905992" lon="21.532947627411">
        <ele>2</ele>
        <time>2016-07-19T11:13:46Z</time>
      </trkpt>
      <trkpt lat="60.115636481069" lon="21.532918961313">
        <ele>2</ele>
        <time>2016-07-19T11:13:47Z</time>
      </trkpt>
      <trkpt lat="60.115634637051" lon="21.532900185857">
        <ele>2</ele>
        <time>2016-07-19T11:13:48Z</time>
      </trkpt>
      <trkpt lat="60.115633379766" lon="21.532861796755">
        <ele>2</ele>
        <time>2016-07-19T11:13:49Z</time>
      </trkpt>
      <trkpt lat="60.115633966499" lon="21.532846876973">
        <ele>2</ele>
        <time>2016-07-19T11:13:50Z</time>
      </trkpt>
      <trkpt lat="60.115633212128" lon="21.532818043237">
        <ele>2</ele>
        <time>2016-07-19T11:13:51Z</time>
      </trkpt>
      <trkpt lat="60.115628685902" lon="21.532791640252">
        <ele>2</ele>
        <time>2016-07-19T11:13:52Z</time>
      </trkpt>
      <trkpt lat="60.115626506608" lon="21.532775630823">
        <ele>2</ele>
        <time>2016-07-19T11:13:53Z</time>
      </trkpt>
      <trkpt lat="60.115622734753" lon="21.532741265033">
        <ele>2</ele>
        <time>2016-07-19T11:13:54Z</time>
      </trkpt>
      <trkpt lat="60.115621980382" lon="21.532724082138">
        <ele>2</ele>
        <time>2016-07-19T11:13:55Z</time>
      </trkpt>
      <trkpt lat="60.115617789432" lon="21.532683513742">
        <ele>2</ele>
        <time>2016-07-19T11:13:56Z</time>
      </trkpt>
      <trkpt lat="60.115615693957" lon="21.532670940892">
        <ele>2</ele>
        <time>2016-07-19T11:13:57Z</time>
      </trkpt>
      <trkpt lat="60.11561711888" lon="21.532638922034">
        <ele>2</ele>
        <time>2016-07-19T11:13:58Z</time>
      </trkpt>
      <trkpt lat="60.115618879079" lon="21.532612183773">
        <ele>2</ele>
        <time>2016-07-19T11:13:59Z</time>
      </trkpt>
      <trkpt lat="60.115611670645" lon="21.532585696969">
        <ele>2</ele>
        <time>2016-07-19T11:14:00Z</time>
      </trkpt>
      <trkpt lat="60.115619884907" lon="21.532558036699">
        <ele>2</ele>
        <time>2016-07-19T11:14:01Z</time>
      </trkpt>
      <trkpt lat="60.11561376612" lon="21.53253364537">
        <ele>2</ele>
        <time>2016-07-19T11:14:02Z</time>
      </trkpt>
      <trkpt lat="60.115609994265" lon="21.532509756955">
        <ele>2</ele>
        <time>2016-07-19T11:14:03Z</time>
      </trkpt>
      <trkpt lat="60.115607563514" lon="21.532493747526">
        <ele>2</ele>
        <time>2016-07-19T11:14:04Z</time>
      </trkpt>
      <trkpt lat="60.115601863822" lon="21.532455106967">
        <ele>2</ele>
        <time>2016-07-19T11:14:05Z</time>
      </trkpt>
      <trkpt lat="60.115600522718" lon="21.53244563542">
        <ele>2</ele>
        <time>2016-07-19T11:14:06Z</time>
      </trkpt>
      <trkpt lat="60.115594320112" lon="21.532409760888">
        <ele>2</ele>
        <time>2016-07-19T11:14:07Z</time>
      </trkpt>
      <trkpt lat="60.115591637904" lon="21.532387548853">
        <ele>2</ele>
        <time>2016-07-19T11:14:08Z</time>
      </trkpt>
      <trkpt lat="60.115590883533" lon="21.532363157524">
        <ele>2</ele>
        <time>2016-07-19T11:14:09Z</time>
      </trkpt>
      <trkpt lat="60.115594236293" lon="21.53232493606">
        <ele>2</ele>
        <time>2016-07-19T11:14:10Z</time>
      </trkpt>
      <trkpt lat="60.115588452782" lon="21.532310603011">
        <ele>2</ele>
        <time>2016-07-19T11:14:11Z</time>
      </trkpt>
      <trkpt lat="60.115588452782" lon="21.532272549185">
        <ele>2</ele>
        <time>2016-07-19T11:14:12Z</time>
      </trkpt>
      <trkpt lat="60.115586776402" lon="21.532251594435">
        <ele>2</ele>
        <time>2016-07-19T11:14:13Z</time>
      </trkpt>
      <trkpt lat="60.11558442947" lon="21.532221587233">
        <ele>2</ele>
        <time>2016-07-19T11:14:14Z</time>
      </trkpt>
      <trkpt lat="60.11557604757" lon="21.532196944447">
        <ele>2</ele>
        <time>2016-07-19T11:14:15Z</time>
      </trkpt>
      <trkpt lat="60.115575293199" lon="21.532181437932">
        <ele>2</ele>
        <time>2016-07-19T11:14:16Z</time>
      </trkpt>
      <trkpt lat="60.115565737833" lon="21.532141875364">
        <ele>2</ele>
        <time>2016-07-19T11:14:17Z</time>
      </trkpt>
      <trkpt lat="60.115563055625" lon="21.532125363021">
        <ele>2</ele>
        <time>2016-07-19T11:14:18Z</time>
      </trkpt>
      <trkpt lat="60.115560038141" lon="21.532096026371">
        <ele>2</ele>
        <time>2016-07-19T11:14:19Z</time>
      </trkpt>
      <trkpt lat="60.115557104476" lon="21.532057469631">
        <ele>2</ele>
        <time>2016-07-19T11:14:20Z</time>
      </trkpt>
      <trkpt lat="60.115555009001" lon="21.532041460202">
        <ele>2</ele>
        <time>2016-07-19T11:14:21Z</time>
      </trkpt>
      <trkpt lat="60.115551907698" lon="21.532007094412">
        <ele>2</ele>
        <time>2016-07-19T11:14:22Z</time>
      </trkpt>
      <trkpt lat="60.115543861074" lon="21.531985133834">
        <ele>2</ele>
        <time>2016-07-19T11:14:23Z</time>
      </trkpt>
      <trkpt lat="60.115539586305" lon="21.531963424713">
        <ele>2</ele>
        <time>2016-07-19T11:14:24Z</time>
      </trkpt>
      <trkpt lat="60.115534305708" lon="21.531934255701">
        <ele>2</ele>
        <time>2016-07-19T11:14:25Z</time>
      </trkpt>
      <trkpt lat="60.115528689835" lon="21.531912881856">
        <ele>2</ele>
        <time>2016-07-19T11:14:26Z</time>
      </trkpt>
      <trkpt lat="60.115524834161" lon="21.531876839686">
        <ele>2</ele>
        <time>2016-07-19T11:14:27Z</time>
      </trkpt>
      <trkpt lat="60.115523828333" lon="21.531854124737">
        <ele>2</ele>
        <time>2016-07-19T11:14:28Z</time>
      </trkpt>
      <trkpt lat="60.115515111157" lon="21.531821016232">
        <ele>2</ele>
        <time>2016-07-19T11:14:29Z</time>
      </trkpt>
      <trkpt lat="60.115520475573" lon="21.531794445609">
        <ele>2</ele>
        <time>2016-07-19T11:14:30Z</time>
      </trkpt>
      <trkpt lat="60.115513015682" lon="21.531767036796">
        <ele>2</ele>
        <time>2016-07-19T11:14:31Z</time>
      </trkpt>
      <trkpt lat="60.115506729257" lon="21.531739208888">
        <ele>2</ele>
        <time>2016-07-19T11:14:32Z</time>
      </trkpt>
      <trkpt lat="60.115506226343" lon="21.531725881667">
        <ele>2</ele>
        <time>2016-07-19T11:14:33Z</time>
      </trkpt>
      <trkpt lat="60.115497425348" lon="21.531681960511">
        <ele>2</ele>
        <time>2016-07-19T11:14:34Z</time>
      </trkpt>
      <trkpt lat="60.115495162235" lon="21.531665699625">
        <ele>2</ele>
        <time>2016-07-19T11:14:35Z</time>
      </trkpt>
      <trkpt lat="60.115492396208" lon="21.53164013483">
        <ele>2</ele>
        <time>2016-07-19T11:14:36Z</time>
      </trkpt>
      <trkpt lat="60.115493485855" lon="21.531599817891">
        <ele>2</ele>
        <time>2016-07-19T11:14:37Z</time>
      </trkpt>
      <trkpt lat="60.115487283249" lon="21.531583808462">
        <ele>2</ele>
        <time>2016-07-19T11:14:38Z</time>
      </trkpt>
      <trkpt lat="60.115485942145" lon="21.531546676645">
        <ele>2</ele>
        <time>2016-07-19T11:14:39Z</time>
      </trkpt>
      <trkpt lat="60.115485187774" lon="21.531525973352">
        <ele>2</ele>
        <time>2016-07-19T11:14:40Z</time>
      </trkpt>
      <trkpt lat="60.115476135322" lon="21.531496301426">
        <ele>2</ele>
        <time>2016-07-19T11:14:41Z</time>
      </trkpt>
      <trkpt lat="60.115478146978" lon="21.531462773826">
        <ele>2</ele>
        <time>2016-07-19T11:14:42Z</time>
      </trkpt>
      <trkpt lat="60.115470687087" lon="21.531450536252">
        <ele>2</ele>
        <time>2016-07-19T11:14:43Z</time>
      </trkpt>
      <trkpt lat="60.115461047902" lon="21.531421534878">
        <ele>2</ele>
        <time>2016-07-19T11:14:44Z</time>
      </trkpt>
      <trkpt lat="60.115460293531" lon="21.531406698915">
        <ele>2</ele>
        <time>2016-07-19T11:14:45Z</time>
      </trkpt>
      <trkpt lat="60.115447888319" lon="21.531373087496">
        <ele>2</ele>
        <time>2016-07-19T11:14:46Z</time>
      </trkpt>
      <trkpt lat="60.115445206111" lon="21.531356742791">
        <ele>2</ele>
        <time>2016-07-19T11:14:47Z</time>
      </trkpt>
      <trkpt lat="60.115436740392" lon="21.531326819408">
        <ele>2</ele>
        <time>2016-07-19T11:14:48Z</time>
      </trkpt>
      <trkpt lat="60.115432465623" lon="21.531296560749">
        <ele>2</ele>
        <time>2016-07-19T11:14:49Z</time>
      </trkpt>
      <trkpt lat="60.115430956881" lon="21.531277450017">
        <ele>2</ele>
        <time>2016-07-19T11:14:50Z</time>
      </trkpt>
      <trkpt lat="60.115430621605" lon="21.531240653476">
        <ele>2</ele>
        <time>2016-07-19T11:14:51Z</time>
      </trkpt>
      <trkpt lat="60.115431292157" lon="21.531221207468">
        <ele>2</ele>
        <time>2016-07-19T11:14:52Z</time>
      </trkpt>
      <trkpt lat="60.115424083723" lon="21.531192876646">
        <ele>2</ele>
        <time>2016-07-19T11:14:53Z</time>
      </trkpt>
      <trkpt lat="60.11542936432" lon="21.531161947435">
        <ele>2</ele>
        <time>2016-07-19T11:14:54Z</time>
      </trkpt>
      <trkpt lat="60.115420311868" lon="21.531143255798">
        <ele>2</ele>
        <time>2016-07-19T11:14:55Z</time>
      </trkpt>
      <trkpt lat="60.115420647144" lon="21.531103441773">
        <ele>2</ele>
        <time>2016-07-19T11:14:56Z</time>
      </trkpt>
      <trkpt lat="60.115412684339" lon="21.531092210027">
        <ele>2</ele>
        <time>2016-07-19T11:14:57Z</time>
      </trkpt>
      <trkpt lat="60.115403883344" lon="21.531068908345">
        <ele>2</ele>
        <time>2016-07-19T11:14:58Z</time>
      </trkpt>
      <trkpt lat="60.115400446765" lon="21.531047869776">
        <ele>2</ele>
        <time>2016-07-19T11:14:59Z</time>
      </trkpt>
      <trkpt lat="60.115390220847" lon="21.5310223888">
        <ele>2</ele>
        <time>2016-07-19T11:15:00Z</time>
      </trkpt>
      <trkpt lat="60.115383180051" lon="21.530994393254">
        <ele>2</ele>
        <time>2016-07-19T11:15:01Z</time>
      </trkpt>
      <trkpt lat="60.115377312721" lon="21.530977042721">
        <ele>2</ele>
        <time>2016-07-19T11:15:02Z</time>
      </trkpt>
      <trkpt lat="60.115373959961" lon="21.530942509293">
        <ele>2</ele>
        <time>2016-07-19T11:15:03Z</time>
      </trkpt>
      <trkpt lat="60.115372199762" lon="21.530908311141">
        <ele>2</ele>
        <time>2016-07-19T11:15:04Z</time>
      </trkpt>
      <trkpt lat="60.115361135654" lon="21.530891295884">
        <ele>2</ele>
        <time>2016-07-19T11:15:05Z</time>
      </trkpt>
      <trkpt lat="60.115365075147" lon="21.530851230402">
        <ele>2</ele>
        <time>2016-07-19T11:15:06Z</time>
      </trkpt>
      <trkpt lat="60.11535392722" lon="21.530836729715">
        <ele>2</ele>
        <time>2016-07-19T11:15:07Z</time>
      </trkpt>
      <trkpt lat="60.115350993555" lon="21.530800519907">
        <ele>2</ele>
        <time>2016-07-19T11:15:08Z</time>
      </trkpt>
      <trkpt lat="60.115341605827" lon="21.530785013392">
        <ele>2</ele>
        <time>2016-07-19T11:15:09Z</time>
      </trkpt>
      <trkpt lat="60.115335738497" lon="21.530768249592">
        <ele>2</ele>
        <time>2016-07-19T11:15:10Z</time>
      </trkpt>
      <trkpt lat="60.11532123781" lon="21.530735560182">
        <ele>2</ele>
        <time>2016-07-19T11:15:11Z</time>
      </trkpt>
      <trkpt lat="60.115318220326" lon="21.53072315497">
        <ele>2</ele>
        <time>2016-07-19T11:15:12Z</time>
      </trkpt>
      <trkpt lat="60.115303719639" lon="21.530694321234">
        <ele>2</ele>
        <time>2016-07-19T11:15:13Z</time>
      </trkpt>
      <trkpt lat="60.115297852309" lon="21.530671606285">
        <ele>2</ele>
        <time>2016-07-19T11:15:14Z</time>
      </trkpt>
      <trkpt lat="60.115293158445" lon="21.530644784205">
        <ele>2</ele>
        <time>2016-07-19T11:15:15Z</time>
      </trkpt>
      <trkpt lat="60.115282429613" lon="21.530613938813">
        <ele>2</ele>
        <time>2016-07-19T11:15:16Z</time>
      </trkpt>
      <trkpt lat="60.115279998862" lon="21.530597510289">
        <ele>2</ele>
        <time>2016-07-19T11:15:17Z</time>
      </trkpt>
      <trkpt lat="60.115269018573" lon="21.530574879159">
        <ele>2</ele>
        <time>2016-07-19T11:15:18Z</time>
      </trkpt>
      <trkpt lat="60.115257619189" lon="21.530552080391">
        <ele>2</ele>
        <time>2016-07-19T11:15:19Z</time>
      </trkpt>
      <trkpt lat="60.115255272257" lon="21.530538920808">
        <ele>2</ele>
        <time>2016-07-19T11:15:20Z</time>
      </trkpt>
      <trkpt lat="60.11523993338" lon="21.530512853099">
        <ele>2</ele>
        <time>2016-07-19T11:15:21Z</time>
      </trkpt>
      <trkpt lat="60.11523406605" lon="21.530495586385">
        <ele>2</ele>
        <time>2016-07-19T11:15:22Z</time>
      </trkpt>
      <trkpt lat="60.115220235915" lon="21.530470524504">
        <ele>2</ele>
        <time>2016-07-19T11:15:23Z</time>
      </trkpt>
      <trkpt lat="60.115212859843" lon="21.530447306641">
        <ele>2</ele>
        <time>2016-07-19T11:15:24Z</time>
      </trkpt>
      <trkpt lat="60.115204477943" lon="21.530422999131">
        <ele>2</ele>
        <time>2016-07-19T11:15:25Z</time>
      </trkpt>
      <trkpt lat="60.115198778251" lon="21.530391567006">
        <ele>2</ele>
        <time>2016-07-19T11:15:26Z</time>
      </trkpt>
      <trkpt lat="60.115193749111" lon="21.53037362974">
        <ele>2</ele>
        <time>2016-07-19T11:15:27Z</time>
      </trkpt>
      <trkpt lat="60.11518964198" lon="21.530340772692">
        <ele>2</ele>
        <time>2016-07-19T11:15:28Z</time>
      </trkpt>
      <trkpt lat="60.115186037763" lon="21.530325266177">
        <ele>2</ele>
        <time>2016-07-19T11:15:29Z</time>
      </trkpt>
      <trkpt lat="60.1151879656" lon="21.530292157672">
        <ele>2</ele>
        <time>2016-07-19T11:15:30Z</time>
      </trkpt>
      <trkpt lat="60.115186373039" lon="21.530267933981">
        <ele>2</ele>
        <time>2016-07-19T11:15:31Z</time>
      </trkpt>
      <trkpt lat="60.115180338071" lon="21.530243794109">
        <ele>2</ele>
        <time>2016-07-19T11:15:32Z</time>
      </trkpt>
      <trkpt lat="60.115185953944" lon="21.53021688821">
        <ele>2</ele>
        <time>2016-07-19T11:15:33Z</time>
      </trkpt>
      <trkpt lat="60.115181511537" lon="21.530191491053">
        <ele>2</ele>
        <time>2016-07-19T11:15:34Z</time>
      </trkpt>
      <trkpt lat="60.11517623094" lon="21.530163998421">
        <ele>2</ele>
        <time>2016-07-19T11:15:35Z</time>
      </trkpt>
      <trkpt lat="60.115174638379" lon="21.530153437227">
        <ele>2</ele>
        <time>2016-07-19T11:15:36Z</time>
      </trkpt>
      <trkpt lat="60.115165753565" lon="21.530113958478">
        <ele>2</ele>
        <time>2016-07-19T11:15:37Z</time>
      </trkpt>
      <trkpt lat="60.115164663918" lon="21.530104738388">
        <ele>2</ele>
        <time>2016-07-19T11:15:38Z</time>
      </trkpt>
      <trkpt lat="60.115155360009" lon="21.530066433105">
        <ele>2</ele>
        <time>2016-07-19T11:15:39Z</time>
      </trkpt>
      <trkpt lat="60.115153264534" lon="21.530048663477">
        <ele>2</ele>
        <time>2016-07-19T11:15:40Z</time>
      </trkpt>
      <trkpt lat="60.115147564842" lon="21.530017063714">
        <ele>2</ele>
        <time>2016-07-19T11:15:41Z</time>
      </trkpt>
      <trkpt lat="60.115145301729" lon="21.529990828367">
        <ele>2</ele>
        <time>2016-07-19T11:15:42Z</time>
      </trkpt>
      <trkpt lat="60.115142954797" lon="21.529968616332">
        <ele>2</ele>
        <time>2016-07-19T11:15:43Z</time>
      </trkpt>
      <trkpt lat="60.115143960625" lon="21.529935926922">
        <ele>2</ele>
        <time>2016-07-19T11:15:44Z</time>
      </trkpt>
      <trkpt lat="60.115144295901" lon="21.529917151466">
        <ele>2</ele>
        <time>2016-07-19T11:15:45Z</time>
      </trkpt>
      <trkpt lat="60.115141697512" lon="21.529883791504">
        <ele>2</ele>
        <time>2016-07-19T11:15:46Z</time>
      </trkpt>
      <trkpt lat="60.115145469367" lon="21.529865854238">
        <ele>2</ele>
        <time>2016-07-19T11:15:47Z</time>
      </trkpt>
      <trkpt lat="60.115141446055" lon="21.529840205624">
        <ele>2</ele>
        <time>2016-07-19T11:15:48Z</time>
      </trkpt>
      <trkpt lat="60.115136081639" lon="21.529814305553">
        <ele>2</ele>
        <time>2016-07-19T11:15:49Z</time>
      </trkpt>
      <trkpt lat="60.115134489078" lon="21.529804079635">
        <ele>2</ele>
        <time>2016-07-19T11:15:50Z</time>
      </trkpt>
      <trkpt lat="60.115126610092" lon="21.529769881483">
        <ele>2</ele>
        <time>2016-07-19T11:15:51Z</time>
      </trkpt>
      <trkpt lat="60.115123508789" lon="21.529757727728">
        <ele>2</ele>
        <time>2016-07-19T11:15:52Z</time>
      </trkpt>
      <trkpt lat="60.115113953423" lon="21.529720847368">
        <ele>2</ele>
        <time>2016-07-19T11:15:53Z</time>
      </trkpt>
      <trkpt lat="60.11511001393" lon="21.529707603966">
        <ele>2</ele>
        <time>2016-07-19T11:15:54Z</time>
      </trkpt>
      <trkpt lat="60.115102889315" lon="21.529670639787">
        <ele>2</ele>
        <time>2016-07-19T11:15:55Z</time>
      </trkpt>
      <trkpt lat="60.11509995565" lon="21.529652953978">
        <ele>2</ele>
        <time>2016-07-19T11:15:56Z</time>
      </trkpt>
      <trkpt lat="60.115097021985" lon="21.529623701147">
        <ele>2</ele>
        <time>2016-07-19T11:15:57Z</time>
      </trkpt>
      <trkpt lat="60.115096183795" lon="21.529599561275">
        <ele>2</ele>
        <time>2016-07-19T11:15:58Z</time>
      </trkpt>
      <trkpt lat="60.115096267614" lon="21.529575756679">
        <ele>2</ele>
        <time>2016-07-19T11:15:59Z</time>
      </trkpt>
      <trkpt lat="60.115097524899" lon="21.529540804156">
        <ele>2</ele>
        <time>2016-07-19T11:16:00Z</time>
      </trkpt>
      <trkpt lat="60.115095513243" lon="21.529526638745">
        <ele>2</ele>
        <time>2016-07-19T11:16:01Z</time>
      </trkpt>
      <trkpt lat="60.11509660289" lon="21.529496715362">
        <ele>2</ele>
        <time>2016-07-19T11:16:02Z</time>
      </trkpt>
      <trkpt lat="60.115093920682" lon="21.52947592825">
        <ele>2</ele>
        <time>2016-07-19T11:16:03Z</time>
      </trkpt>
      <trkpt lat="60.11508989737" lon="21.52945245893">
        <ele>2</ele>
        <time>2016-07-19T11:16:04Z</time>
      </trkpt>
      <trkpt lat="60.115089562094" lon="21.529432174732">
        <ele>2</ele>
        <time>2016-07-19T11:16:05Z</time>
      </trkpt>
      <trkpt lat="60.115084616773" lon="21.529402335168">
        <ele>2</ele>
        <time>2016-07-19T11:16:06Z</time>
      </trkpt>
      <trkpt lat="60.115081850746" lon="21.529378362934">
        <ele>2</ele>
        <time>2016-07-19T11:16:07Z</time>
      </trkpt>
      <trkpt lat="60.115078749443" lon="21.529355396528">
        <ele>2</ele>
        <time>2016-07-19T11:16:08Z</time>
      </trkpt>
      <trkpt lat="60.11507648633" lon="21.529326395154">
        <ele>2</ele>
        <time>2016-07-19T11:16:09Z</time>
      </trkpt>
      <trkpt lat="60.115074977588" lon="21.529305524223">
        <ele>2</ele>
        <time>2016-07-19T11:16:10Z</time>
      </trkpt>
      <trkpt lat="60.115074139398" lon="21.52926805713">
        <ele>2</ele>
        <time>2016-07-19T11:16:11Z</time>
      </trkpt>
      <trkpt lat="60.115074223217" lon="21.529255651918">
        <ele>2</ele>
        <time>2016-07-19T11:16:12Z</time>
      </trkpt>
      <trkpt lat="60.115080090547" lon="21.52922698582">
        <ele>2</ele>
        <time>2016-07-19T11:16:13Z</time>
      </trkpt>
      <trkpt lat="60.115084616773" lon="21.529201337206">
        <ele>2</ele>
        <time>2016-07-19T11:16:14Z</time>
      </trkpt>
      <trkpt lat="60.115080258185" lon="21.529182897026">
        <ele>2</ele>
        <time>2016-07-19T11:16:15Z</time>
      </trkpt>
      <trkpt lat="60.115088807723" lon="21.529152135453">
        <ele>2</ele>
        <time>2016-07-19T11:16:16Z</time>
      </trkpt>
      <trkpt lat="60.115084113859" lon="21.529136545119">
        <ele>2</ele>
        <time>2016-07-19T11:16:17Z</time>
      </trkpt>
      <trkpt lat="60.115082688936" lon="21.529108214297">
        <ele>2</ele>
        <time>2016-07-19T11:16:18Z</time>
      </trkpt>
      <trkpt lat="60.115082940393" lon="21.529096144361">
        <ele>2</ele>
        <time>2016-07-19T11:16:19Z</time>
      </trkpt>
      <trkpt lat="60.115076989244" lon="21.529061610933">
        <ele>2</ele>
        <time>2016-07-19T11:16:20Z</time>
      </trkpt>
      <trkpt lat="60.115076151054" lon="21.529051133558">
        <ele>2</ele>
        <time>2016-07-19T11:16:21Z</time>
      </trkpt>
      <trkpt lat="60.115068272068" lon="21.529018779424">
        <ele>2</ele>
        <time>2016-07-19T11:16:22Z</time>
      </trkpt>
      <trkpt lat="60.115065422222" lon="21.529001680348">
        <ele>2</ele>
        <time>2016-07-19T11:16:23Z</time>
      </trkpt>
      <trkpt lat="60.115058465245" lon="21.528974271535">
        <ele>2</ele>
        <time>2016-07-19T11:16:24Z</time>
      </trkpt>
      <trkpt lat="60.115053771381" lon="21.528953903518">
        <ele>2</ele>
        <time>2016-07-19T11:16:25Z</time>
      </trkpt>
      <trkpt lat="60.115047484956" lon="21.528931607664">
        <ele>2</ele>
        <time>2016-07-19T11:16:26Z</time>
      </trkpt>
      <trkpt lat="60.115042791092" lon="21.528915011502">
        <ele>2</ele>
        <time>2016-07-19T11:16:27Z</time>
      </trkpt>
      <trkpt lat="60.115037342857" lon="21.528897912426">
        <ele>2</ele>
        <time>2016-07-19T11:16:28Z</time>
      </trkpt>
      <trkpt lat="60.115030888794" lon="21.528879639884">
        <ele>2</ele>
        <time>2016-07-19T11:16:29Z</time>
      </trkpt>
      <trkpt lat="60.115025021464" lon="21.528864803921">
        <ele>2</ele>
        <time>2016-07-19T11:16:30Z</time>
      </trkpt>
      <trkpt lat="60.115018735039" lon="21.528851141424">
        <ele>2</ele>
        <time>2016-07-19T11:16:31Z</time>
      </trkpt>
      <trkpt lat="60.115012616252" lon="21.528840161135">
        <ele>2</ele>
        <time>2016-07-19T11:16:32Z</time>
      </trkpt>
      <trkpt lat="60.115007251836" lon="21.528830102855">
        <ele>2</ele>
        <time>2016-07-19T11:16:33Z</time>
      </trkpt>
      <trkpt lat="60.115000043402" lon="21.528818703471">
        <ele>1.8</ele>
        <time>2016-07-19T11:16:34Z</time>
      </trkpt>
      <trkpt lat="60.114995852452" lon="21.528809148105">
        <ele>1.4</ele>
        <time>2016-07-19T11:16:35Z</time>
      </trkpt>
      <trkpt lat="60.114987470552" lon="21.528795569427">
        <ele>1</ele>
        <time>2016-07-19T11:16:36Z</time>
      </trkpt>
      <trkpt lat="60.114976909358" lon="21.528792551943">
        <ele>0.6</ele>
        <time>2016-07-19T11:16:37Z</time>
      </trkpt>
      <trkpt lat="60.114969449467" lon="21.528782661301">
        <ele>0.4</ele>
        <time>2016-07-19T11:16:38Z</time>
      </trkpt>
      <trkpt lat="60.114959894101" lon="21.528782074568">
        <ele>0</ele>
        <time>2016-07-19T11:16:39Z</time>
      </trkpt>
      <trkpt lat="60.114951176925" lon="21.5287760396">
        <ele>0</ele>
        <time>2016-07-19T11:16:40Z</time>
      </trkpt>
      <trkpt lat="60.114940867188" lon="21.528770591365">
        <ele>0</ele>
        <time>2016-07-19T11:16:41Z</time>
      </trkpt>
      <trkpt lat="60.114928797252" lon="21.528763215293">
        <ele>0</ele>
        <time>2016-07-19T11:16:42Z</time>
      </trkpt>
      <trkpt lat="60.114920247714" lon="21.528760030171">
        <ele>0</ele>
        <time>2016-07-19T11:16:43Z</time>
      </trkpt>
      <trkpt lat="60.114903651552" lon="21.528745110389">
        <ele>0</ele>
        <time>2016-07-19T11:16:44Z</time>
      </trkpt>
      <trkpt lat="60.114897616584" lon="21.528741087077">
        <ele>0</ele>
        <time>2016-07-19T11:16:45Z</time>
      </trkpt>
      <trkpt lat="60.114881439517" lon="21.52871904268">
        <ele>0</ele>
        <time>2016-07-19T11:16:46Z</time>
      </trkpt>
      <trkpt lat="60.114877500024" lon="21.528713678264">
        <ele>0</ele>
        <time>2016-07-19T11:16:47Z</time>
      </trkpt>
      <trkpt lat="60.114869956314" lon="21.528692555876">
        <ele>0</ele>
        <time>2016-07-19T11:16:48Z</time>
      </trkpt>
      <trkpt lat="60.114862999337" lon="21.528661123751">
        <ele>0</ele>
        <time>2016-07-19T11:16:49Z</time>
      </trkpt>
      <trkpt lat="60.114854198342" lon="21.528657268077">
        <ele>0</ele>
        <time>2016-07-19T11:16:50Z</time>
      </trkpt>
      <trkpt lat="60.114848079555" lon="21.528629523988">
        <ele>0</ele>
        <time>2016-07-19T11:16:51Z</time>
      </trkpt>
      <trkpt lat="60.114837937456" lon="21.528617537871">
        <ele>0</ele>
        <time>2016-07-19T11:16:52Z</time>
      </trkpt>
      <trkpt lat="60.114829136461" lon="21.528605132659">
        <ele>0</ele>
        <time>2016-07-19T11:16:53Z</time>
      </trkpt>
      <trkpt lat="60.114823017674" lon="21.528587027755">
        <ele>0</ele>
        <time>2016-07-19T11:16:54Z</time>
      </trkpt>
      <trkpt lat="60.114810696281" lon="21.528569928679">
        <ele>0</ele>
        <time>2016-07-19T11:16:55Z</time>
      </trkpt>
      <trkpt lat="60.114802984933" lon="21.528552829603">
        <ele>0</ele>
        <time>2016-07-19T11:16:56Z</time>
      </trkpt>
      <trkpt lat="60.114793681024" lon="21.528535814346">
        <ele>0</ele>
        <time>2016-07-19T11:16:57Z</time>
      </trkpt>
      <trkpt lat="60.114786053495" lon="21.52851787708">
        <ele>0</ele>
        <time>2016-07-19T11:16:58Z</time>
      </trkpt>
      <trkpt lat="60.114777001043" lon="21.528497006149">
        <ele>0</ele>
        <time>2016-07-19T11:16:59Z</time>
      </trkpt>
      <trkpt lat="60.114769373514" lon="21.528475632304">
        <ele>0</ele>
        <time>2016-07-19T11:17:00Z</time>
      </trkpt>
      <trkpt lat="60.114765266383" lon="21.528456940667">
        <ele>0</ele>
        <time>2016-07-19T11:17:01Z</time>
      </trkpt>
      <trkpt lat="60.1147604887" lon="21.528427017284">
        <ele>0</ele>
        <time>2016-07-19T11:17:02Z</time>
      </trkpt>
      <trkpt lat="60.11475545956" lon="21.52841813247">
        <ele>0</ele>
        <time>2016-07-19T11:17:03Z</time>
      </trkpt>
      <trkpt lat="60.114747412936" lon="21.528390304562">
        <ele>0</ele>
        <time>2016-07-19T11:17:04Z</time>
      </trkpt>
      <trkpt lat="60.114744982185" lon="21.52838125211">
        <ele>0</ele>
        <time>2016-07-19T11:17:05Z</time>
      </trkpt>
      <trkpt lat="60.114737941389" lon="21.528350825813">
        <ele>0</ele>
        <time>2016-07-19T11:17:06Z</time>
      </trkpt>
      <trkpt lat="60.114735343" lon="21.528342108637">
        <ele>0</ele>
        <time>2016-07-19T11:17:07Z</time>
      </trkpt>
      <trkpt lat="60.114729224213" lon="21.52831419691">
        <ele>0</ele>
        <time>2016-07-19T11:17:08Z</time>
      </trkpt>
      <trkpt lat="60.114724697987" lon="21.528298522757">
        <ele>0</ele>
        <time>2016-07-19T11:17:09Z</time>
      </trkpt>
      <trkpt lat="60.114722518693" lon="21.528276310722">
        <ele>0</ele>
        <time>2016-07-19T11:17:10Z</time>
      </trkpt>
      <trkpt lat="60.114719249752" lon="21.528257870542">
        <ele>0</ele>
        <time>2016-07-19T11:17:11Z</time>
      </trkpt>
      <trkpt lat="60.114716651363" lon="21.528241106742">
        <ele>0</ele>
        <time>2016-07-19T11:17:12Z</time>
      </trkpt>
      <trkpt lat="60.114714220612" lon="21.52822618696">
        <ele>0</ele>
        <time>2016-07-19T11:17:13Z</time>
      </trkpt>
      <trkpt lat="60.114711538404" lon="21.528209004065">
        <ele>0</ele>
        <time>2016-07-19T11:17:14Z</time>
      </trkpt>
      <trkpt lat="60.114710364938" lon="21.528196263577">
        <ele>0</ele>
        <time>2016-07-19T11:17:15Z</time>
      </trkpt>
      <trkpt lat="60.114710113481" lon="21.528178326311">
        <ele>0</ele>
        <time>2016-07-19T11:17:16Z</time>
      </trkpt>
      <trkpt lat="60.114708688558" lon="21.528162316882">
        <ele>0</ele>
        <time>2016-07-19T11:17:17Z</time>
      </trkpt>
      <trkpt lat="60.114709945843" lon="21.528151839507">
        <ele>0</ele>
        <time>2016-07-19T11:17:18Z</time>
      </trkpt>
      <trkpt lat="60.114705671074" lon="21.528132393499">
        <ele>0</ele>
        <time>2016-07-19T11:17:19Z</time>
      </trkpt>
      <trkpt lat="60.114706173988" lon="21.528121664667">
        <ele>0</ele>
        <time>2016-07-19T11:17:20Z</time>
      </trkpt>
      <trkpt lat="60.114705671074" lon="21.528112528396">
        <ele>0</ele>
        <time>2016-07-19T11:17:21Z</time>
      </trkpt>
      <trkpt lat="60.114705922531" lon="21.528120323563">
        <ele>0</ele>
        <time>2016-07-19T11:17:22Z</time>
      </trkpt>
      <trkpt lat="60.114704749065" lon="21.528098949718">
        <ele>0</ele>
        <time>2016-07-19T11:17:23Z</time>
      </trkpt>
      <trkpt lat="60.114703994694" lon="21.528105739057">
        <ele>0</ele>
        <time>2016-07-19T11:17:24Z</time>
      </trkpt>
      <trkpt lat="60.11470265359" lon="21.528098614442">
        <ele>0</ele>
        <time>2016-07-19T11:17:25Z</time>
      </trkpt>
      <trkpt lat="60.114701228667" lon="21.528097524795">
        <ele>0</ele>
        <time>2016-07-19T11:17:26Z</time>
      </trkpt>
      <trkpt lat="60.114700306658" lon="21.52809794389">
        <ele>0</ele>
        <time>2016-07-19T11:17:27Z</time>
      </trkpt>
      <trkpt lat="60.114700725753" lon="21.528098279166">
        <ele>0</ele>
        <time>2016-07-19T11:17:28Z</time>
      </trkpt>
      <trkpt lat="60.114701312486" lon="21.528097608614">
        <ele>0</ele>
        <time>2016-07-19T11:17:29Z</time>
      </trkpt>
      <trkpt lat="60.11470097721" lon="21.528097440976">
        <ele>0</ele>
        <time>2016-07-19T11:17:30Z</time>
      </trkpt>
      <trkpt lat="60.114710700214" lon="21.528102553935">
        <ele>0</ele>
        <time>2016-07-19T11:17:31Z</time>
      </trkpt>
      <trkpt lat="60.114704581427" lon="21.528099033537">
        <ele>0</ele>
        <time>2016-07-19T11:17:32Z</time>
      </trkpt>
      <trkpt lat="60.114721009951" lon="21.528116216432">
        <ele>0</ele>
        <time>2016-07-19T11:17:33Z</time>
      </trkpt>
      <trkpt lat="60.114714639707" lon="21.528106828704">
        <ele>0</ele>
        <time>2016-07-19T11:17:34Z</time>
      </trkpt>
      <trkpt lat="60.114732996068" lon="21.528139350476">
        <ele>0</ele>
        <time>2016-07-19T11:17:35Z</time>
      </trkpt>
      <trkpt lat="60.114735510638" lon="21.528139518114">
        <ele>0</ele>
        <time>2016-07-19T11:17:36Z</time>
      </trkpt>
      <trkpt lat="60.114735678276" lon="21.528157036285">
        <ele>0</ele>
        <time>2016-07-19T11:17:37Z</time>
      </trkpt>
      <trkpt lat="60.114739701588" lon="21.52818260108">
        <ele>0</ele>
        <time>2016-07-19T11:17:38Z</time>
      </trkpt>
      <trkpt lat="60.114740791235" lon="21.528192407903">
        <ele>0</ele>
        <time>2016-07-19T11:17:39Z</time>
      </trkpt>
      <trkpt lat="60.114747580574" lon="21.528216463956">
        <ele>0</ele>
        <time>2016-07-19T11:17:40Z</time>
      </trkpt>
      <trkpt lat="60.114747496755" lon="21.528237251068">
        <ele>0</ele>
        <time>2016-07-19T11:17:41Z</time>
      </trkpt>
      <trkpt lat="60.114751100972" lon="21.528252673764">
        <ele>0</ele>
        <time>2016-07-19T11:17:42Z</time>
      </trkpt>
      <trkpt lat="60.114753280266" lon="21.528281004586">
        <ele>0</ele>
        <time>2016-07-19T11:17:43Z</time>
      </trkpt>
      <trkpt lat="60.114756800664" lon="21.528297768386">
        <ele>0</ele>
        <time>2016-07-19T11:17:44Z</time>
      </trkpt>
      <trkpt lat="60.11475713594" lon="21.528310089779">
        <ele>0</ele>
        <time>2016-07-19T11:17:45Z</time>
      </trkpt>
      <trkpt lat="60.114761578347" lon="21.528341521904">
        <ele>0</ele>
        <time>2016-07-19T11:17:46Z</time>
      </trkpt>
      <trkpt lat="60.114758896139" lon="21.528356274048">
        <ele>0</ele>
        <time>2016-07-19T11:17:47Z</time>
      </trkpt>
      <trkpt lat="60.114766691306" lon="21.528375468599">
        <ele>0</ele>
        <time>2016-07-19T11:17:48Z</time>
      </trkpt>
      <trkpt lat="60.114770044066" lon="21.528399859928">
        <ele>0</ele>
        <time>2016-07-19T11:17:49Z</time>
      </trkpt>
      <trkpt lat="60.114774821749" lon="21.528414025339">
        <ele>0</ele>
        <time>2016-07-19T11:17:50Z</time>
      </trkpt>
      <trkpt lat="60.114777587776" lon="21.528439003401">
        <ele>0</ele>
        <time>2016-07-19T11:17:51Z</time>
      </trkpt>
      <trkpt lat="60.114783706563" lon="21.528457108305">
        <ele>0</ele>
        <time>2016-07-19T11:17:52Z</time>
      </trkpt>
      <trkpt lat="60.114786304952" lon="21.528485606765">
        <ele>0</ele>
        <time>2016-07-19T11:17:53Z</time>
      </trkpt>
      <trkpt lat="60.114789322436" lon="21.528510752465">
        <ele>0</ele>
        <time>2016-07-19T11:17:54Z</time>
      </trkpt>
      <trkpt lat="60.114798458707" lon="21.52853128812">
        <ele>0</ele>
        <time>2016-07-19T11:17:55Z</time>
      </trkpt>
      <trkpt lat="60.114795944137" lon="21.528561546779">
        <ele>0</ele>
        <time>2016-07-19T11:17:56Z</time>
      </trkpt>
      <trkpt lat="60.114803990761" lon="21.528578059122">
        <ele>0</ele>
        <time>2016-07-19T11:17:57Z</time>
      </trkpt>
      <trkpt lat="60.11481245648" lon="21.528602618089">
        <ele>0</ele>
        <time>2016-07-19T11:17:58Z</time>
      </trkpt>
      <trkpt lat="60.114813713765" lon="21.528615023301">
        <ele>0</ele>
        <time>2016-07-19T11:17:59Z</time>
      </trkpt>
      <trkpt lat="60.114826538072" lon="21.528649389091">
        <ele>0</ele>
        <time>2016-07-19T11:18:00Z</time>
      </trkpt>
      <trkpt lat="60.114829387918" lon="21.52866036938">
        <ele>0</ele>
        <time>2016-07-19T11:18:01Z</time>
      </trkpt>
      <trkpt lat="60.114840284388" lon="21.528689538392">
        <ele>0</ele>
        <time>2016-07-19T11:18:02Z</time>
      </trkpt>
      <trkpt lat="60.114845062071" lon="21.528709571133">
        <ele>0</ele>
        <time>2016-07-19T11:18:03Z</time>
      </trkpt>
      <trkpt lat="60.114852354324" lon="21.528733962462">
        <ele>0</ele>
        <time>2016-07-19T11:18:04Z</time>
      </trkpt>
      <trkpt lat="60.114856796731" lon="21.528766735691">
        <ele>0</ele>
        <time>2016-07-19T11:18:05Z</time>
      </trkpt>
      <trkpt lat="60.11486190969" lon="21.528791294658">
        <ele>0</ele>
        <time>2016-07-19T11:18:06Z</time>
      </trkpt>
      <trkpt lat="60.114863921346" lon="21.528811914132">
        <ele>0</ele>
        <time>2016-07-19T11:18:07Z</time>
      </trkpt>
      <trkpt lat="60.114866268278" lon="21.528839490583">
        <ele>0</ele>
        <time>2016-07-19T11:18:08Z</time>
      </trkpt>
      <trkpt lat="60.114862664061" lon="21.52886153498">
        <ele>0</ele>
        <time>2016-07-19T11:18:09Z</time>
      </trkpt>
      <trkpt lat="60.114861993509" lon="21.528887435051">
        <ele>0</ele>
        <time>2016-07-19T11:18:10Z</time>
      </trkpt>
      <trkpt lat="60.114867106468" lon="21.528915095321">
        <ele>0</ele>
        <time>2016-07-19T11:18:11Z</time>
      </trkpt>
      <trkpt lat="60.11486274788" lon="21.528934960424">
        <ele>0</ele>
        <time>2016-07-19T11:18:12Z</time>
      </trkpt>
      <trkpt lat="60.114865094812" lon="21.528963542703">
        <ele>0</ele>
        <time>2016-07-19T11:18:13Z</time>
      </trkpt>
      <trkpt lat="60.11486442426" lon="21.528979887408">
        <ele>0</ele>
        <time>2016-07-19T11:18:14Z</time>
      </trkpt>
      <trkpt lat="60.114864256622" lon="21.529007547678">
        <ele>0</ele>
        <time>2016-07-19T11:18:15Z</time>
      </trkpt>
      <trkpt lat="60.114861825871" lon="21.52904258402">
        <ele>0</ele>
        <time>2016-07-19T11:18:16Z</time>
      </trkpt>
      <trkpt lat="60.114861490595" lon="21.529057000888">
        <ele>0</ele>
        <time>2016-07-19T11:18:17Z</time>
      </trkpt>
      <trkpt lat="60.11485688055" lon="21.529094132705">
        <ele>0</ele>
        <time>2016-07-19T11:18:18Z</time>
      </trkpt>
      <trkpt lat="60.114853863066" lon="21.529115758007">
        <ele>0</ele>
        <time>2016-07-19T11:18:19Z</time>
      </trkpt>
      <trkpt lat="60.114847828098" lon="21.529144759381">
        <ele>0</ele>
        <time>2016-07-19T11:18:20Z</time>
      </trkpt>
      <trkpt lat="60.11484095494" lon="21.529169821262">
        <ele>0</ele>
        <time>2016-07-19T11:18:21Z</time>
      </trkpt>
      <trkpt lat="60.114836428714" lon="21.529189602546">
        <ele>0</ele>
        <time>2016-07-19T11:18:22Z</time>
      </trkpt>
      <trkpt lat="60.114825448425" lon="21.529217598092">
        <ele>0</ele>
        <time>2016-07-19T11:18:23Z</time>
      </trkpt>
      <trkpt lat="60.114819748733" lon="21.529236625005">
        <ele>0</ele>
        <time>2016-07-19T11:18:24Z</time>
      </trkpt>
      <trkpt lat="60.114805583322" lon="21.529262944171">
        <ele>0</ele>
        <time>2016-07-19T11:18:25Z</time>
      </trkpt>
      <trkpt lat="60.114799715992" lon="21.529277696315">
        <ele>0</ele>
        <time>2016-07-19T11:18:26Z</time>
      </trkpt>
      <trkpt lat="60.114782952192" lon="21.529302255282">
        <ele>0</ele>
        <time>2016-07-19T11:18:27Z</time>
      </trkpt>
      <trkpt lat="60.114778845061" lon="21.529312397381">
        <ele>0</ele>
        <time>2016-07-19T11:18:28Z</time>
      </trkpt>
      <trkpt lat="60.114758896139" lon="21.529335866701">
        <ele>0</ele>
        <time>2016-07-19T11:18:29Z</time>
      </trkpt>
      <trkpt lat="60.114751855343" lon="21.529348439551">
        <ele>0</ele>
        <time>2016-07-19T11:18:30Z</time>
      </trkpt>
      <trkpt lat="60.114736265009" lon="21.529362102048">
        <ele>0</ele>
        <time>2016-07-19T11:18:31Z</time>
      </trkpt>
      <trkpt lat="60.114723692159" lon="21.529374004346">
        <ele>0</ele>
        <time>2016-07-19T11:18:32Z</time>
      </trkpt>
      <trkpt lat="60.114712879508" lon="21.529381631875">
        <ele>0</ele>
        <time>2016-07-19T11:18:33Z</time>
      </trkpt>
      <trkpt lat="60.11469259531" lon="21.529392360707">
        <ele>0</ele>
        <time>2016-07-19T11:18:34Z</time>
      </trkpt>
      <trkpt lat="60.114686141247" lon="21.529398144218">
        <ele>0</ele>
        <time>2016-07-19T11:18:35Z</time>
      </trkpt>
      <trkpt lat="60.114664264488" lon="21.529404346824">
        <ele>0</ele>
        <time>2016-07-19T11:18:36Z</time>
      </trkpt>
      <trkpt lat="60.114656888416" lon="21.529408453955">
        <ele>0</ele>
        <time>2016-07-19T11:18:37Z</time>
      </trkpt>
      <trkpt lat="60.114639705521" lon="21.529410297973">
        <ele>0</ele>
        <time>2016-07-19T11:18:38Z</time>
      </trkpt>
      <trkpt lat="60.114626462119" lon="21.529407531946">
        <ele>0</ele>
        <time>2016-07-19T11:18:39Z</time>
      </trkpt>
      <trkpt lat="60.11461380545" lon="21.529406023204">
        <ele>0</ele>
        <time>2016-07-19T11:18:40Z</time>
      </trkpt>
      <trkpt lat="60.11459368889" lon="21.529397389847">
        <ele>0</ele>
        <time>2016-07-19T11:18:41Z</time>
      </trkpt>
      <trkpt lat="60.114587653922" lon="21.529397473666">
        <ele>0</ele>
        <time>2016-07-19T11:18:42Z</time>
      </trkpt>
      <trkpt lat="60.114567788819" lon="21.529384062626">
        <ele>0</ele>
        <time>2016-07-19T11:18:43Z</time>
      </trkpt>
      <trkpt lat="60.114558233453" lon="21.529379452581">
        <ele>0</ele>
        <time>2016-07-19T11:18:44Z</time>
      </trkpt>
      <trkpt lat="60.114543481309" lon="21.529371238319">
        <ele>0</ele>
        <time>2016-07-19T11:18:45Z</time>
      </trkpt>
      <trkpt lat="60.114529734993" lon="21.529359252202">
        <ele>0</ele>
        <time>2016-07-19T11:18:46Z</time>
      </trkpt>
      <trkpt lat="60.114519676713" lon="21.529352546682">
        <ele>0</ele>
        <time>2016-07-19T11:18:47Z</time>
      </trkpt>
      <trkpt lat="60.114502829094" lon="21.529335363787">
        <ele>0</ele>
        <time>2016-07-19T11:18:48Z</time>
      </trkpt>
      <trkpt lat="60.114495788298" lon="21.529331843389">
        <ele>0</ele>
        <time>2016-07-19T11:18:49Z</time>
      </trkpt>
      <trkpt lat="60.114477096661" lon="21.529309044621">
        <ele>0</ele>
        <time>2016-07-19T11:18:50Z</time>
      </trkpt>
      <trkpt lat="60.114471732245" lon="21.529305691861">
        <ele>0</ele>
        <time>2016-07-19T11:18:51Z</time>
      </trkpt>
      <trkpt lat="60.114453627341" lon="21.529283898921">
        <ele>0</ele>
        <time>2016-07-19T11:18:52Z</time>
      </trkpt>
      <trkpt lat="60.114446838002" lon="21.529275181745">
        <ele>0</ele>
        <time>2016-07-19T11:18:53Z</time>
      </trkpt>
      <trkpt lat="60.114433426962" lon="21.529259591411">
        <ele>0</ele>
        <time>2016-07-19T11:18:54Z</time>
      </trkpt>
      <trkpt lat="60.114422530492" lon="21.529241067412">
        <ele>0</ele>
        <time>2016-07-19T11:18:55Z</time>
      </trkpt>
      <trkpt lat="60.114412220755" lon="21.529229751847">
        <ele>0</ele>
        <time>2016-07-19T11:18:56Z</time>
      </trkpt>
      <trkpt lat="60.114403168303" lon="21.529206198708">
        <ele>0</ele>
        <time>2016-07-19T11:18:57Z</time>
      </trkpt>
      <trkpt lat="60.114396211326" lon="21.529187758528">
        <ele>0</ele>
        <time>2016-07-19T11:18:58Z</time>
      </trkpt>
      <trkpt lat="60.114383051743" lon="21.529168480158">
        <ele>0</ele>
        <time>2016-07-19T11:18:59Z</time>
      </trkpt>
      <trkpt lat="60.114378106422" lon="21.529155069118">
        <ele>0</ele>
        <time>2016-07-19T11:19:00Z</time>
      </trkpt>
      <trkpt lat="60.114365198296" lon="21.529136880395">
        <ele>0</ele>
        <time>2016-07-19T11:19:01Z</time>
      </trkpt>
      <trkpt lat="60.114361677898" lon="21.52913059397">
        <ele>0</ele>
        <time>2016-07-19T11:19:02Z</time>
      </trkpt>
      <trkpt lat="60.114347344849" lon="21.529111902333">
        <ele>0</ele>
        <time>2016-07-19T11:19:03Z</time>
      </trkpt>
      <trkpt lat="60.11434055551" lon="21.529101592596">
        <ele>0</ele>
        <time>2016-07-19T11:19:04Z</time>
      </trkpt>
      <trkpt lat="60.114325719547" lon="21.529084744977">
        <ele>0</ele>
        <time>2016-07-19T11:19:05Z</time>
      </trkpt>
      <trkpt lat="60.114318175837" lon="21.529072088308">
        <ele>0</ele>
        <time>2016-07-19T11:19:06Z</time>
      </trkpt>
      <trkpt lat="60.114307949919" lon="21.52905934782">
        <ele>0</ele>
        <time>2016-07-19T11:19:07Z</time>
      </trkpt>
      <trkpt lat="60.114296047621" lon="21.529039315079">
        <ele>0</ele>
        <time>2016-07-19T11:19:08Z</time>
      </trkpt>
      <trkpt lat="60.114288252454" lon="21.52903084936">
        <ele>0</ele>
        <time>2016-07-19T11:19:09Z</time>
      </trkpt>
      <trkpt lat="60.11427685307" lon="21.529004614013">
        <ele>0</ele>
        <time>2016-07-19T11:19:10Z</time>
      </trkpt>
      <trkpt lat="60.114268135894" lon="21.528986257652">
        <ele>0</ele>
        <time>2016-07-19T11:19:11Z</time>
      </trkpt>
      <trkpt lat="60.114256401234" lon="21.528966560187">
        <ele>0</ele>
        <time>2016-07-19T11:19:12Z</time>
      </trkpt>
      <trkpt lat="60.114247348782" lon="21.528959519391">
        <ele>0</ele>
        <time>2016-07-19T11:19:13Z</time>
      </trkpt>
      <trkpt lat="60.114236368493" lon="21.528947197998">
        <ele>0</ele>
        <time>2016-07-19T11:19:14Z</time>
      </trkpt>
      <trkpt lat="60.114229327697" lon="21.52893194294">
        <ele>0</ele>
        <time>2016-07-19T11:19:15Z</time>
      </trkpt>
      <trkpt lat="60.114217844494" lon="21.528914676226">
        <ele>0</ele>
        <time>2016-07-19T11:19:16Z</time>
      </trkpt>
      <trkpt lat="60.114207953852" lon="21.528894475847">
        <ele>0</ele>
        <time>2016-07-19T11:19:17Z</time>
      </trkpt>
      <trkpt lat="60.114201667427" lon="21.528876203305">
        <ele>0</ele>
        <time>2016-07-19T11:19:18Z</time>
      </trkpt>
      <trkpt lat="60.114190938595" lon="21.528849381225">
        <ele>0</ele>
        <time>2016-07-19T11:19:19Z</time>
      </trkpt>
      <trkpt lat="60.114183646342" lon="21.528834629081">
        <ele>0</ele>
        <time>2016-07-19T11:19:20Z</time>
      </trkpt>
      <trkpt lat="60.114175264442" lon="21.528816188901">
        <ele>0</ele>
        <time>2016-07-19T11:19:21Z</time>
      </trkpt>
      <trkpt lat="60.114162943049" lon="21.528802945499">
        <ele>0</ele>
        <time>2016-07-19T11:19:22Z</time>
      </trkpt>
      <trkpt lat="60.114157159538" lon="21.528794395961">
        <ele>0</ele>
        <time>2016-07-19T11:19:23Z</time>
      </trkpt>
      <trkpt lat="60.114145173421" lon="21.528771597193">
        <ele>0</ele>
        <time>2016-07-19T11:19:24Z</time>
      </trkpt>
      <trkpt lat="60.114138300263" lon="21.528760616904">
        <ele>0</ele>
        <time>2016-07-19T11:19:25Z</time>
      </trkpt>
      <trkpt lat="60.114120614454" lon="21.5287341301">
        <ele>0</ele>
        <time>2016-07-19T11:19:26Z</time>
      </trkpt>
      <trkpt lat="60.114115669133" lon="21.528723065992">
        <ele>0</ele>
        <time>2016-07-19T11:19:27Z</time>
      </trkpt>
      <trkpt lat="60.114108293061" lon="21.528698842301">
        <ele>0</ele>
        <time>2016-07-19T11:19:28Z</time>
      </trkpt>
      <trkpt lat="60.114104018292" lon="21.528662548674">
        <ele>0</ele>
        <time>2016-07-19T11:19:29Z</time>
      </trkpt>
      <trkpt lat="60.114095720211" lon="21.528654334412">
        <ele>0</ele>
        <time>2016-07-19T11:19:30Z</time>
      </trkpt>
      <trkpt lat="60.114088092682" lon="21.528618627518">
        <ele>0</ele>
        <time>2016-07-19T11:19:31Z</time>
      </trkpt>
      <trkpt lat="60.114084320827" lon="21.528597169854">
        <ele>0</ele>
        <time>2016-07-19T11:19:32Z</time>
      </trkpt>
      <trkpt lat="60.114075519832" lon="21.528575879828">
        <ele>0</ele>
        <time>2016-07-19T11:19:33Z</time>
      </trkpt>
      <trkpt lat="60.114062779344" lon="21.528554841259">
        <ele>0</ele>
        <time>2016-07-19T11:19:34Z</time>
      </trkpt>
      <trkpt lat="60.114059426584" lon="21.528538915649">
        <ele>0</ele>
        <time>2016-07-19T11:19:35Z</time>
      </trkpt>
      <trkpt lat="60.114044590621" lon="21.528512177388">
        <ele>0</ele>
        <time>2016-07-19T11:19:36Z</time>
      </trkpt>
      <trkpt lat="60.114039226205" lon="21.528491809371">
        <ele>0</ele>
        <time>2016-07-19T11:19:37Z</time>
      </trkpt>
      <trkpt lat="60.114033945608" lon="21.528465322567">
        <ele>0</ele>
        <time>2016-07-19T11:19:38Z</time>
      </trkpt>
      <trkpt lat="60.114026988631" lon="21.528436488831">
        <ele>0</ele>
        <time>2016-07-19T11:19:39Z</time>
      </trkpt>
      <trkpt lat="60.114021624215" lon="21.528410337303">
        <ele>0</ele>
        <time>2016-07-19T11:19:40Z</time>
      </trkpt>
      <trkpt lat="60.11400947046" lon="21.528391394209">
        <ele>0</ele>
        <time>2016-07-19T11:19:41Z</time>
      </trkpt>
      <trkpt lat="60.114007458804" lon="21.528354262392">
        <ele>0</ele>
        <time>2016-07-19T11:19:42Z</time>
      </trkpt>
      <trkpt lat="60.113996394696" lon="21.528343868836">
        <ele>0</ele>
        <time>2016-07-19T11:19:43Z</time>
      </trkpt>
      <trkpt lat="60.113987174606" lon="21.528327021217">
        <ele>0</ele>
        <time>2016-07-19T11:19:44Z</time>
      </trkpt>
      <trkpt lat="60.113977116326" lon="21.528303635716">
        <ele>0</ele>
        <time>2016-07-19T11:19:45Z</time>
      </trkpt>
      <trkpt lat="60.113970829901" lon="21.528291314323">
        <ele>0</ele>
        <time>2016-07-19T11:19:46Z</time>
      </trkpt>
      <trkpt lat="60.113955491024" lon="21.528260217474">
        <ele>0</ele>
        <time>2016-07-19T11:19:47Z</time>
      </trkpt>
      <trkpt lat="60.113951551531" lon="21.528250997384">
        <ele>0</ele>
        <time>2016-07-19T11:19:48Z</time>
      </trkpt>
      <trkpt lat="60.113936212654" lon="21.528220738725">
        <ele>0</ele>
        <time>2016-07-19T11:19:49Z</time>
      </trkpt>
      <trkpt lat="60.113931267333" lon="21.528209004065">
        <ele>0</ele>
        <time>2016-07-19T11:19:50Z</time>
      </trkpt>
      <trkpt lat="60.113917185741" lon="21.528184361279">
        <ele>0</ele>
        <time>2016-07-19T11:19:51Z</time>
      </trkpt>
      <trkpt lat="60.113910983135" lon="21.52817002823">
        <ele>0</ele>
        <time>2016-07-19T11:19:52Z</time>
      </trkpt>
      <trkpt lat="60.113898242647" lon="21.528148570566">
        <ele>0</ele>
        <time>2016-07-19T11:19:53Z</time>
      </trkpt>
      <trkpt lat="60.113889022557" lon="21.528130381843">
        <ele>0</ele>
        <time>2016-07-19T11:19:54Z</time>
      </trkpt>
      <trkpt lat="60.1138803892" lon="21.528111438749">
        <ele>0</ele>
        <time>2016-07-19T11:19:55Z</time>
      </trkpt>
      <trkpt lat="60.113871755843" lon="21.52808453285">
        <ele>0</ele>
        <time>2016-07-19T11:19:56Z</time>
      </trkpt>
      <trkpt lat="60.113866726703" lon="21.528058465141">
        <ele>0</ele>
        <time>2016-07-19T11:19:57Z</time>
      </trkpt>
      <trkpt lat="60.113857674251" lon="21.52804597611">
        <ele>0</ele>
        <time>2016-07-19T11:19:58Z</time>
      </trkpt>
      <trkpt lat="60.113847196876" lon="21.528035666373">
        <ele>0</ele>
        <time>2016-07-19T11:19:59Z</time>
      </trkpt>
      <trkpt lat="60.113840072261" lon="21.528026781559">
        <ele>0</ele>
        <time>2016-07-19T11:20:00Z</time>
      </trkpt>
      <trkpt lat="60.113833115284" lon="21.528018734935">
        <ele>0</ele>
        <time>2016-07-19T11:20:01Z</time>
      </trkpt>
      <trkpt lat="60.113826577402" lon="21.528011945596">
        <ele>0</ele>
        <time>2016-07-19T11:20:02Z</time>
      </trkpt>
      <trkpt lat="60.1138217159" lon="21.528007754646">
        <ele>0</ele>
        <time>2016-07-19T11:20:03Z</time>
      </trkpt>
      <trkpt lat="60.113814004552" lon="21.528002054954">
        <ele>0</ele>
        <time>2016-07-19T11:20:04Z</time>
      </trkpt>
      <trkpt lat="60.11381081943" lon="21.527994343606">
        <ele>0</ele>
        <time>2016-07-19T11:20:05Z</time>
      </trkpt>
      <trkpt lat="60.11380830486" lon="21.527985291154">
        <ele>0</ele>
        <time>2016-07-19T11:20:06Z</time>
      </trkpt>
      <trkpt lat="60.113802521349" lon="21.527954864857">
        <ele>0</ele>
        <time>2016-07-19T11:20:07Z</time>
      </trkpt>
      <trkpt lat="60.113804449186" lon="21.52794455512">
        <ele>0</ele>
        <time>2016-07-19T11:20:08Z</time>
      </trkpt>
      <trkpt lat="60.113801180245" lon="21.527924941474">
        <ele>0</ele>
        <time>2016-07-19T11:20:09Z</time>
      </trkpt>
      <trkpt lat="60.113794810001" lon="21.527911446615">
        <ele>0</ele>
        <time>2016-07-19T11:20:10Z</time>
      </trkpt>
      <trkpt lat="60.113786931015" lon="21.527904657276">
        <ele>0</ele>
        <time>2016-07-19T11:20:11Z</time>
      </trkpt>
      <trkpt lat="60.113779303486" lon="21.527904154362">
        <ele>0</ele>
        <time>2016-07-19T11:20:12Z</time>
      </trkpt>
      <trkpt lat="60.113785506092" lon="21.527906082199">
        <ele>0</ele>
        <time>2016-07-19T11:20:13Z</time>
      </trkpt>
      <trkpt lat="60.113770753948" lon="21.52790516019">
        <ele>0</ele>
        <time>2016-07-19T11:20:14Z</time>
      </trkpt>
      <trkpt lat="60.113766898274" lon="21.527910943701">
        <ele>0</ele>
        <time>2016-07-19T11:20:15Z</time>
      </trkpt>
      <trkpt lat="60.113761282401" lon="21.527914212642">
        <ele>0</ele>
        <time>2016-07-19T11:20:16Z</time>
      </trkpt>
      <trkpt lat="60.113755331252" lon="21.527923516551">
        <ele>0</ele>
        <time>2016-07-19T11:20:17Z</time>
      </trkpt>
      <trkpt lat="60.113754576881" lon="21.52790348381">
        <ele>0</ele>
        <time>2016-07-19T11:20:18Z</time>
      </trkpt>
      <trkpt lat="60.113756085623" lon="21.527913877366">
        <ele>0</ele>
        <time>2016-07-19T11:20:19Z</time>
      </trkpt>
      <trkpt lat="60.113751224121" lon="21.527884624535">
        <ele>0</ele>
        <time>2016-07-19T11:20:20Z</time>
      </trkpt>
      <trkpt lat="60.113753738691" lon="21.527856377532">
        <ele>0</ele>
        <time>2016-07-19T11:20:21Z</time>
      </trkpt>
      <trkpt lat="60.113753738691" lon="21.527841290112">
        <ele>0</ele>
        <time>2016-07-19T11:20:22Z</time>
      </trkpt>
      <trkpt lat="60.113754325424" lon="21.527819748629">
        <ele>0</ele>
        <time>2016-07-19T11:20:23Z</time>
      </trkpt>
      <trkpt lat="60.113760025116" lon="21.527786556305">
        <ele>0</ele>
        <time>2016-07-19T11:20:24Z</time>
      </trkpt>
      <trkpt lat="60.113766060084" lon="21.527756632922">
        <ele>0</ele>
        <time>2016-07-19T11:20:25Z</time>
      </trkpt>
      <trkpt lat="60.113770083396" lon="21.527740288217">
        <ele>0</ele>
        <time>2016-07-19T11:20:26Z</time>
      </trkpt>
      <trkpt lat="60.113776788916" lon="21.527713717594">
        <ele>0</ele>
        <time>2016-07-19T11:20:27Z</time>
      </trkpt>
      <trkpt lat="60.113789110309" lon="21.527681782555">
        <ele>0</ele>
        <time>2016-07-19T11:20:28Z</time>
      </trkpt>
      <trkpt lat="60.113797827485" lon="21.527664515841">
        <ele>0</ele>
        <time>2016-07-19T11:20:29Z</time>
      </trkpt>
      <trkpt lat="60.113811154706" lon="21.527651272439">
        <ele>0</ele>
        <time>2016-07-19T11:20:30Z</time>
      </trkpt>
      <trkpt lat="60.113817357312" lon="21.527629228042">
        <ele>0</ele>
        <time>2016-07-19T11:20:31Z</time>
      </trkpt>
      <trkpt lat="60.11382590685" lon="21.527598466469">
        <ele>0</ele>
        <time>2016-07-19T11:20:32Z</time>
      </trkpt>
      <trkpt lat="60.113829343429" lon="21.527593185872">
        <ele>0</ele>
        <time>2016-07-19T11:20:33Z</time>
      </trkpt>
      <trkpt lat="60.113844933763" lon="21.527573823683">
        <ele>0</ele>
        <time>2016-07-19T11:20:34Z</time>
      </trkpt>
      <trkpt lat="60.113857255156" lon="21.52755060582">
        <ele>0</ele>
        <time>2016-07-19T11:20:35Z</time>
      </trkpt>
      <trkpt lat="60.113862451934" lon="21.527531243631">
        <ele>0</ele>
        <time>2016-07-19T11:20:36Z</time>
      </trkpt>
      <trkpt lat="60.113866726703" lon="21.527516659125">
        <ele>0</ele>
        <time>2016-07-19T11:20:37Z</time>
      </trkpt>
      <trkpt lat="60.113879886286" lon="21.527486149009">
        <ele>0</ele>
        <time>2016-07-19T11:20:38Z</time>
      </trkpt>
      <trkpt lat="60.113886005073" lon="21.527470558675">
        <ele>0</ele>
        <time>2016-07-19T11:20:39Z</time>
      </trkpt>
      <trkpt lat="60.113895057525" lon="21.52744750845">
        <ele>0</ele>
        <time>2016-07-19T11:20:40Z</time>
      </trkpt>
      <trkpt lat="60.113909390574" lon="21.527431499021">
        <ele>0</ele>
        <time>2016-07-19T11:20:41Z</time>
      </trkpt>
      <trkpt lat="60.113925902917" lon="21.527411885375">
        <ele>0</ele>
        <time>2016-07-19T11:20:42Z</time>
      </trkpt>
      <trkpt lat="60.113932105523" lon="21.52739973162">
        <ele>0</ele>
        <time>2016-07-19T11:20:43Z</time>
      </trkpt>
      <trkpt lat="60.113940571242" lon="21.527378273956">
        <ele>0</ele>
        <time>2016-07-19T11:20:44Z</time>
      </trkpt>
      <trkpt lat="60.113958005594" lon="21.527368131857">
        <ele>0</ele>
        <time>2016-07-19T11:20:45Z</time>
      </trkpt>
      <trkpt lat="60.113962699458" lon="21.527353295894">
        <ele>0</ele>
        <time>2016-07-19T11:20:46Z</time>
      </trkpt>
      <trkpt lat="60.113970662263" lon="21.527330413307">
        <ele>0</ele>
        <time>2016-07-19T11:20:47Z</time>
      </trkpt>
      <trkpt lat="60.113984408579" lon="21.527321947588">
        <ele>0</ele>
        <time>2016-07-19T11:20:48Z</time>
      </trkpt>
      <trkpt lat="60.113987509882" lon="21.527303423589">
        <ele>0</ele>
        <time>2016-07-19T11:20:49Z</time>
      </trkpt>
      <trkpt lat="60.113998993085" lon="21.527279954269">
        <ele>0</ele>
        <time>2016-07-19T11:20:50Z</time>
      </trkpt>
      <trkpt lat="60.114001591474" lon="21.527251958723">
        <ele>0</ele>
        <time>2016-07-19T11:20:51Z</time>
      </trkpt>
      <trkpt lat="60.114007374985" lon="21.52723963733">
        <ele>0</ele>
        <time>2016-07-19T11:20:52Z</time>
      </trkpt>
      <trkpt lat="60.114012236487" lon="21.527212982888">
        <ele>0</ele>
        <time>2016-07-19T11:20:53Z</time>
      </trkpt>
      <trkpt lat="60.114022462405" lon="21.527178365641">
        <ele>0</ele>
        <time>2016-07-19T11:20:54Z</time>
      </trkpt>
      <trkpt lat="60.114026820993" lon="21.527162104755">
        <ele>0</ele>
        <time>2016-07-19T11:20:55Z</time>
      </trkpt>
      <trkpt lat="60.114032436866" lon="21.527138970711">
        <ele>0</ele>
        <time>2016-07-19T11:20:56Z</time>
      </trkpt>
      <trkpt lat="60.114046853734" lon="21.527123799472">
        <ele>0</ele>
        <time>2016-07-19T11:20:57Z</time>
      </trkpt>
      <trkpt lat="60.114059175127" lon="21.527105443111">
        <ele>0</ele>
        <time>2016-07-19T11:20:58Z</time>
      </trkpt>
      <trkpt lat="60.114061773516" lon="21.527090942424">
        <ele>0</ele>
        <time>2016-07-19T11:20:59Z</time>
      </trkpt>
      <trkpt lat="60.114066299742" lon="21.527066299638">
        <ele>0</ele>
        <time>2016-07-19T11:21:00Z</time>
      </trkpt>
      <trkpt lat="60.114070909787" lon="21.52704350087">
        <ele>0</ele>
        <time>2016-07-19T11:21:01Z</time>
      </trkpt>
      <trkpt lat="60.114075268375" lon="21.527025228328">
        <ele>0</ele>
        <time>2016-07-19T11:21:02Z</time>
      </trkpt>
      <trkpt lat="60.11407904023" lon="21.527010392365">
        <ele>0</ele>
        <time>2016-07-19T11:21:03Z</time>
      </trkpt>
      <trkpt lat="60.114086081026" lon="21.526970829797">
        <ele>0</ele>
        <time>2016-07-19T11:21:04Z</time>
      </trkpt>
      <trkpt lat="60.114091696899" lon="21.52695297635">
        <ele>0</ele>
        <time>2016-07-19T11:21:05Z</time>
      </trkpt>
      <trkpt lat="60.114096809858" lon="21.526931853962">
        <ele>0</ele>
        <time>2016-07-19T11:21:06Z</time>
      </trkpt>
      <trkpt lat="60.114108460699" lon="21.526898158724">
        <ele>0</ele>
        <time>2016-07-19T11:21:07Z</time>
      </trkpt>
      <trkpt lat="60.114113489839" lon="21.52688592115">
        <ele>0</ele>
        <time>2016-07-19T11:21:08Z</time>
      </trkpt>
      <trkpt lat="60.114121704101" lon="21.52686664278">
        <ele>0</ele>
        <time>2016-07-19T11:21:09Z</time>
      </trkpt>
      <trkpt lat="60.114137881168" lon="21.526844179288">
        <ele>0</ele>
        <time>2016-07-19T11:21:10Z</time>
      </trkpt>
      <trkpt lat="60.11414441905" lon="21.526835545931">
        <ele>0</ele>
        <time>2016-07-19T11:21:11Z</time>
      </trkpt>
      <trkpt lat="60.114159590289" lon="21.526834707741">
        <ele>0</ele>
        <time>2016-07-19T11:21:12Z</time>
      </trkpt>
      <trkpt lat="60.114173839519" lon="21.526825822927">
        <ele>0</ele>
        <time>2016-07-19T11:21:13Z</time>
      </trkpt>
      <trkpt lat="60.114183562523" lon="21.526826577298">
        <ele>0</ele>
        <time>2016-07-19T11:21:14Z</time>
      </trkpt>
      <trkpt lat="60.114191441509" lon="21.526813752991">
        <ele>0</ele>
        <time>2016-07-19T11:21:15Z</time>
      </trkpt>
      <trkpt lat="60.114208037671" lon="21.526821296701">
        <ele>0</ele>
        <time>2016-07-19T11:21:16Z</time>
      </trkpt>
      <trkpt lat="60.114217676856" lon="21.526812328068">
        <ele>0</ele>
        <time>2016-07-19T11:21:17Z</time>
      </trkpt>
      <trkpt lat="60.11422991443" lon="21.526803862349">
        <ele>0</ele>
        <time>2016-07-19T11:21:18Z</time>
      </trkpt>
      <trkpt lat="60.114244834212" lon="21.526813333896">
        <ele>0</ele>
        <time>2016-07-19T11:21:19Z</time>
      </trkpt>
      <trkpt lat="60.114252461741" lon="21.52679455844">
        <ele>0</ele>
        <time>2016-07-19T11:21:20Z</time>
      </trkpt>
      <trkpt lat="60.114261598012" lon="21.526783326694">
        <ele>0</ele>
        <time>2016-07-19T11:21:21Z</time>
      </trkpt>
      <trkpt lat="60.11427182393" lon="21.526776788812">
        <ele>0</ele>
        <time>2016-07-19T11:21:22Z</time>
      </trkpt>
      <trkpt lat="60.114279200002" lon="21.526764970333">
        <ele>0</ele>
        <time>2016-07-19T11:21:23Z</time>
      </trkpt>
      <trkpt lat="60.11429361687" lon="21.526744434678">
        <ele>0</ele>
        <time>2016-07-19T11:21:24Z</time>
      </trkpt>
      <trkpt lat="60.114297724001" lon="21.526738232072">
        <ele>0</ele>
        <time>2016-07-19T11:21:25Z</time>
      </trkpt>
      <trkpt lat="60.114312392326" lon="21.526715684761">
        <ele>0</ele>
        <time>2016-07-19T11:21:26Z</time>
      </trkpt>
      <trkpt lat="60.114319852217" lon="21.526708895422">
        <ele>0</ele>
        <time>2016-07-19T11:21:27Z</time>
      </trkpt>
      <trkpt lat="60.114331419239" lon="21.526696238753">
        <ele>0</ele>
        <time>2016-07-19T11:21:28Z</time>
      </trkpt>
      <trkpt lat="60.114345919926" lon="21.526694981468">
        <ele>0</ele>
        <time>2016-07-19T11:21:29Z</time>
      </trkpt>
      <trkpt lat="60.114358241319" lon="21.526696574029">
        <ele>0</ele>
        <time>2016-07-19T11:21:30Z</time>
      </trkpt>
      <trkpt lat="60.114368634875" lon="21.526680648419">
        <ele>0</ele>
        <time>2016-07-19T11:21:31Z</time>
      </trkpt>
      <trkpt lat="60.114380704811" lon="21.5266973284">
        <ele>0</ele>
        <time>2016-07-19T11:21:32Z</time>
      </trkpt>
      <trkpt lat="60.114389757263" lon="21.526689197957">
        <ele>0</ele>
        <time>2016-07-19T11:21:33Z</time>
      </trkpt>
      <trkpt lat="60.114406521063" lon="21.52669397564">
        <ele>0</ele>
        <time>2016-07-19T11:21:34Z</time>
      </trkpt>
      <trkpt lat="60.114418339542" lon="21.526704620653">
        <ele>0</ele>
        <time>2016-07-19T11:21:35Z</time>
      </trkpt>
      <trkpt lat="60.114428314003" lon="21.526699423875">
        <ele>0</ele>
        <time>2016-07-19T11:21:36Z</time>
      </trkpt>
      <trkpt lat="60.114445664536" lon="21.526705961757">
        <ele>0</ele>
        <time>2016-07-19T11:21:37Z</time>
      </trkpt>
      <trkpt lat="60.114456058092" lon="21.526714595114">
        <ele>0</ele>
        <time>2016-07-19T11:21:38Z</time>
      </trkpt>
      <trkpt lat="60.114465362001" lon="21.526705877938">
        <ele>0</ele>
        <time>2016-07-19T11:21:39Z</time>
      </trkpt>
      <trkpt lat="60.114484808009" lon="21.526717361141">
        <ele>0</ele>
        <time>2016-07-19T11:21:40Z</time>
      </trkpt>
      <trkpt lat="60.114494866289" lon="21.526715852399">
        <ele>0</ele>
        <time>2016-07-19T11:21:41Z</time>
      </trkpt>
      <trkpt lat="60.114505259845" lon="21.526706213214">
        <ele>0</ele>
        <time>2016-07-19T11:21:42Z</time>
      </trkpt>
      <trkpt lat="60.114513055012" lon="21.526692634536">
        <ele>0</ele>
        <time>2016-07-19T11:21:43Z</time>
      </trkpt>
      <trkpt lat="60.114526382233" lon="21.526682576256">
        <ele>0</ele>
        <time>2016-07-19T11:21:44Z</time>
      </trkpt>
      <trkpt lat="60.11453166283" lon="21.526675367822">
        <ele>0</ele>
        <time>2016-07-19T11:21:45Z</time>
      </trkpt>
      <trkpt lat="60.114547336983" lon="21.526653574882">
        <ele>0</ele>
        <time>2016-07-19T11:21:46Z</time>
      </trkpt>
      <trkpt lat="60.114554461598" lon="21.526646031172">
        <ele>0</ele>
        <time>2016-07-19T11:21:47Z</time>
      </trkpt>
      <trkpt lat="60.114564436059" lon="21.526632703951">
        <ele>0</ele>
        <time>2016-07-19T11:21:48Z</time>
      </trkpt>
      <trkpt lat="60.114580613126" lon="21.526616694522">
        <ele>0</ele>
        <time>2016-07-19T11:21:49Z</time>
      </trkpt>
      <trkpt lat="60.1145844688" lon="21.526611749201">
        <ele>0</ele>
        <time>2016-07-19T11:21:50Z</time>
      </trkpt>
      <trkpt lat="60.114598969487" lon="21.526610072821">
        <ele>0</ele>
        <time>2016-07-19T11:21:51Z</time>
      </trkpt>
      <trkpt lat="60.114615984744" lon="21.526612084477">
        <ele>0</ele>
        <time>2016-07-19T11:21:52Z</time>
      </trkpt>
      <trkpt lat="60.114623109359" lon="21.526604205491">
        <ele>0</ele>
        <time>2016-07-19T11:21:53Z</time>
      </trkpt>
      <trkpt lat="60.114637610046" lon="21.526597248514">
        <ele>0</ele>
        <time>2016-07-19T11:21:54Z</time>
      </trkpt>
      <trkpt lat="60.114651188724" lon="21.52661099483">
        <ele>0</ele>
        <time>2016-07-19T11:21:55Z</time>
      </trkpt>
      <trkpt lat="60.114659570624" lon="21.526596997057">
        <ele>0</ele>
        <time>2016-07-19T11:21:56Z</time>
      </trkpt>
      <trkpt lat="60.11467750789" lon="21.526607306794">
        <ele>0</ele>
        <time>2016-07-19T11:21:57Z</time>
      </trkpt>
      <trkpt lat="60.114684716324" lon="21.526600852731">
        <ele>0</ele>
        <time>2016-07-19T11:21:58Z</time>
      </trkpt>
      <trkpt lat="60.114700222839" lon="21.526599008713">
        <ele>0</ele>
        <time>2016-07-19T11:21:59Z</time>
      </trkpt>
      <trkpt lat="60.11470935911" lon="21.526581909637">
        <ele>0</ele>
        <time>2016-07-19T11:22:00Z</time>
      </trkpt>
      <trkpt lat="60.114714220612" lon="21.526582244913">
        <ele>0</ele>
        <time>2016-07-19T11:22:01Z</time>
      </trkpt>
      <trkpt lat="60.114731738783" lon="21.526564559104">
        <ele>0</ele>
        <time>2016-07-19T11:22:02Z</time>
      </trkpt>
      <trkpt lat="60.114738025208" lon="21.526559697602">
        <ele>0</ele>
        <time>2016-07-19T11:22:03Z</time>
      </trkpt>
      <trkpt lat="60.114752274438" lon="21.526556680118">
        <ele>0</ele>
        <time>2016-07-19T11:22:04Z</time>
      </trkpt>
      <trkpt lat="60.114770044066" lon="21.526546873295">
        <ele>0</ele>
        <time>2016-07-19T11:22:05Z</time>
      </trkpt>
      <trkpt lat="60.114779180337" lon="21.526546873295">
        <ele>0</ele>
        <time>2016-07-19T11:22:06Z</time>
      </trkpt>
      <trkpt lat="60.114790998816" lon="21.526534216626">
        <ele>0</ele>
        <time>2016-07-19T11:22:07Z</time>
      </trkpt>
      <trkpt lat="60.114803068752" lon="21.526523068699">
        <ele>0</ele>
        <time>2016-07-19T11:22:08Z</time>
      </trkpt>
      <trkpt lat="60.11480826553" lon="21.526521895233">
        <ele>0</ele>
        <time>2016-07-19T11:22:09Z</time>
      </trkpt>
      <trkpt lat="60.114826873348" lon="21.526507729822">
        <ele>0</ele>
        <time>2016-07-19T11:22:10Z</time>
      </trkpt>
      <trkpt lat="60.114834500877" lon="21.526503957967">
        <ele>0</ele>
        <time>2016-07-19T11:22:11Z</time>
      </trkpt>
      <trkpt lat="60.114848163374" lon="21.52650873565">
        <ele>0</ele>
        <time>2016-07-19T11:22:12Z</time>
      </trkpt>
      <trkpt lat="60.114863166975" lon="21.526509238564">
        <ele>0</ele>
        <time>2016-07-19T11:22:13Z</time>
      </trkpt>
      <trkpt lat="60.11487196797" lon="21.526513597152">
        <ele>0</ele>
        <time>2016-07-19T11:22:14Z</time>
      </trkpt>
      <trkpt lat="60.114882445345" lon="21.526502449225">
        <ele>0</ele>
        <time>2016-07-19T11:22:15Z</time>
      </trkpt>
      <trkpt lat="60.114895353471" lon="21.526520805586">
        <ele>0</ele>
        <time>2016-07-19T11:22:16Z</time>
      </trkpt>
      <trkpt lat="60.114904238285" lon="21.526506807813">
        <ele>0</ele>
        <time>2016-07-19T11:22:17Z</time>
      </trkpt>
      <trkpt lat="60.114919996257" lon="21.526515608808">
        <ele>0</ele>
        <time>2016-07-19T11:22:18Z</time>
      </trkpt>
      <trkpt lat="60.114930473632" lon="21.526507646003">
        <ele>0</ele>
        <time>2016-07-19T11:22:19Z</time>
      </trkpt>
      <trkpt lat="60.114938687894" lon="21.526508987107">
        <ele>0</ele>
        <time>2016-07-19T11:22:20Z</time>
      </trkpt>
      <trkpt lat="60.114957714807" lon="21.526507143089">
        <ele>0</ele>
        <time>2016-07-19T11:22:21Z</time>
      </trkpt>
      <trkpt lat="60.114966264345" lon="21.526514435342">
        <ele>0</ele>
        <time>2016-07-19T11:22:22Z</time>
      </trkpt>
      <trkpt lat="60.114980010661" lon="21.526528516934">
        <ele>0</ele>
        <time>2016-07-19T11:22:23Z</time>
      </trkpt>
      <trkpt lat="60.114991242407" lon="21.526520637948">
        <ele>0</ele>
        <time>2016-07-19T11:22:24Z</time>
      </trkpt>
      <trkpt lat="60.115001552144" lon="21.52654310144">
        <ele>0</ele>
        <time>2016-07-19T11:22:25Z</time>
      </trkpt>
      <trkpt lat="60.115011778062" lon="21.526538742852">
        <ele>0</ele>
        <time>2016-07-19T11:22:26Z</time>
      </trkpt>
      <trkpt lat="60.115026614025" lon="21.526543688173">
        <ele>0</ele>
        <time>2016-07-19T11:22:27Z</time>
      </trkpt>
      <trkpt lat="60.115038516323" lon="21.526561709258">
        <ele>0</ele>
        <time>2016-07-19T11:22:28Z</time>
      </trkpt>
      <trkpt lat="60.115048658422" lon="21.526551567159">
        <ele>0</ele>
        <time>2016-07-19T11:22:29Z</time>
      </trkpt>
      <trkpt lat="60.115066344231" lon="21.526564391466">
        <ele>0</ele>
        <time>2016-07-19T11:22:30Z</time>
      </trkpt>
      <trkpt lat="60.115077408339" lon="21.526553578815">
        <ele>0</ele>
        <time>2016-07-19T11:22:31Z</time>
      </trkpt>
      <trkpt lat="60.115084700592" lon="21.526550812788">
        <ele>0</ele>
        <time>2016-07-19T11:22:32Z</time>
      </trkpt>
      <trkpt lat="60.115102218763" lon="21.526548382037">
        <ele>0</ele>
        <time>2016-07-19T11:22:33Z</time>
      </trkpt>
      <trkpt lat="60.115110349206" lon="21.526547795304">
        <ele>0</ele>
        <time>2016-07-19T11:22:34Z</time>
      </trkpt>
      <trkpt lat="60.115126358635" lon="21.526553243539">
        <ele>0</ele>
        <time>2016-07-19T11:22:35Z</time>
      </trkpt>
      <trkpt lat="60.115140859322" lon="21.526563972371">
        <ele>0</ele>
        <time>2016-07-19T11:22:36Z</time>
      </trkpt>
      <trkpt lat="60.115150414688" lon="21.526550980426">
        <ele>0</ele>
        <time>2016-07-19T11:22:37Z</time>
      </trkpt>
      <trkpt lat="60.115164663918" lon="21.526565481113">
        <ele>0</ele>
        <time>2016-07-19T11:22:38Z</time>
      </trkpt>
      <trkpt lat="60.11517371637" lon="21.526566403122">
        <ele>0</ele>
        <time>2016-07-19T11:22:39Z</time>
      </trkpt>
      <trkpt lat="60.115190731627" lon="21.526567576588">
        <ele>0</ele>
        <time>2016-07-19T11:22:40Z</time>
      </trkpt>
      <trkpt lat="60.115202298649" lon="21.52658333456">
        <ele>0</ele>
        <time>2016-07-19T11:22:41Z</time>
      </trkpt>
      <trkpt lat="60.115215290594" lon="21.52657662904">
        <ele>0</ele>
        <time>2016-07-19T11:22:42Z</time>
      </trkpt>
      <trkpt lat="60.115229456005" lon="21.526570510253">
        <ele>0</ele>
        <time>2016-07-19T11:22:43Z</time>
      </trkpt>
      <trkpt lat="60.115237921724" lon="21.526574449746">
        <ele>0</ele>
        <time>2016-07-19T11:22:44Z</time>
      </trkpt>
      <trkpt lat="60.1152550208" lon="21.5265715999">
        <ele>0</ele>
        <time>2016-07-19T11:22:45Z</time>
      </trkpt>
      <trkpt lat="60.115268934754" lon="21.526576880497">
        <ele>0</ele>
        <time>2016-07-19T11:22:46Z</time>
      </trkpt>
      <trkpt lat="60.115282513432" lon="21.526589285709">
        <ele>0</ele>
        <time>2016-07-19T11:22:47Z</time>
      </trkpt>
      <trkpt lat="60.115297349395" lon="21.526588531338">
        <ele>0</ele>
        <time>2016-07-19T11:22:48Z</time>
      </trkpt>
      <trkpt lat="60.115307575313" lon="21.52660848026">
        <ele>0</ele>
        <time>2016-07-19T11:22:49Z</time>
      </trkpt>
      <trkpt lat="60.115321070172" lon="21.526600182179">
        <ele>0</ele>
        <time>2016-07-19T11:22:50Z</time>
      </trkpt>
      <trkpt lat="60.115332301918" lon="21.526629015915">
        <ele>0</ele>
        <time>2016-07-19T11:22:51Z</time>
      </trkpt>
      <trkpt lat="60.115344371854" lon="21.526624908784">
        <ele>0</ele>
        <time>2016-07-19T11:22:52Z</time>
      </trkpt>
      <trkpt lat="60.115359123998" lon="21.526642426955">
        <ele>0</ele>
        <time>2016-07-19T11:22:53Z</time>
      </trkpt>
      <trkpt lat="60.115368260269" lon="21.526643935697">
        <ele>0</ele>
        <time>2016-07-19T11:22:54Z</time>
      </trkpt>
      <trkpt lat="60.115382844775" lon="21.526646785543">
        <ele>0</ele>
        <time>2016-07-19T11:22:55Z</time>
      </trkpt>
      <trkpt lat="60.115392819236" lon="21.526653239606">
        <ele>0</ele>
        <time>2016-07-19T11:22:56Z</time>
      </trkpt>
      <trkpt lat="60.115408325751" lon="21.526657598194">
        <ele>0</ele>
        <time>2016-07-19T11:22:57Z</time>
      </trkpt>
      <trkpt lat="60.115418970764" lon="21.526663130248">
        <ele>0</ele>
        <time>2016-07-19T11:22:58Z</time>
      </trkpt>
      <trkpt lat="60.115433052356" lon="21.526677044202">
        <ele>0</ele>
        <time>2016-07-19T11:22:59Z</time>
      </trkpt>
      <trkpt lat="60.115445373749" lon="21.526692969812">
        <ele>0</ele>
        <time>2016-07-19T11:23:00Z</time>
      </trkpt>
      <trkpt lat="60.115455096753" lon="21.526682073342">
        <ele>0</ele>
        <time>2016-07-19T11:23:01Z</time>
      </trkpt>
      <trkpt lat="60.115469345983" lon="21.526698501866">
        <ele>0</ele>
        <time>2016-07-19T11:23:02Z</time>
      </trkpt>
      <trkpt lat="60.115479152806" lon="21.526694897649">
        <ele>0</ele>
        <time>2016-07-19T11:23:03Z</time>
      </trkpt>
      <trkpt lat="60.115488959629" lon="21.526695819658">
        <ele>0</ele>
        <time>2016-07-19T11:23:04Z</time>
      </trkpt>
      <trkpt lat="60.115507399809" lon="21.526703447187">
        <ele>0</ele>
        <time>2016-07-19T11:23:05Z</time>
      </trkpt>
      <trkpt lat="60.115514943519" lon="21.526704117739">
        <ele>0</ele>
        <time>2016-07-19T11:23:06Z</time>
      </trkpt>
      <trkpt lat="60.115535730631" lon="21.526712248182">
        <ele>0</ele>
        <time>2016-07-19T11:23:07Z</time>
      </trkpt>
      <trkpt lat="60.115539670124" lon="21.526715098028">
        <ele>0</ele>
        <time>2016-07-19T11:23:08Z</time>
      </trkpt>
      <trkpt lat="60.11555341644" lon="21.526732783837">
        <ele>0</ele>
        <time>2016-07-19T11:23:09Z</time>
      </trkpt>
      <trkpt lat="60.115566073109" lon="21.526739992271">
        <ele>0</ele>
        <time>2016-07-19T11:23:10Z</time>
      </trkpt>
      <trkpt lat="60.115578394502" lon="21.526753151854">
        <ele>0</ele>
        <time>2016-07-19T11:23:11Z</time>
      </trkpt>
      <trkpt lat="60.115589542429" lon="21.526757342804">
        <ele>0</ele>
        <time>2016-07-19T11:23:12Z</time>
      </trkpt>
      <trkpt lat="60.115596080311" lon="21.526765976161">
        <ele>0</ele>
        <time>2016-07-19T11:23:13Z</time>
      </trkpt>
      <trkpt lat="60.115608234066" lon="21.526784835436">
        <ele>0</ele>
        <time>2016-07-19T11:23:14Z</time>
      </trkpt>
      <trkpt lat="60.115614185215" lon="21.526794055526">
        <ele>0</ele>
        <time>2016-07-19T11:23:15Z</time>
      </trkpt>
      <trkpt lat="60.115623656762" lon="21.526808137118">
        <ele>0</ele>
        <time>2016-07-19T11:23:16Z</time>
      </trkpt>
      <trkpt lat="60.115631787205" lon="21.526821799615">
        <ele>0</ele>
        <time>2016-07-19T11:23:17Z</time>
      </trkpt>
      <trkpt lat="60.115636900164" lon="21.526836384121">
        <ele>0</ele>
        <time>2016-07-19T11:23:18Z</time>
      </trkpt>
      <trkpt lat="60.115642096942" lon="21.526852728826">
        <ele>0</ele>
        <time>2016-07-19T11:23:19Z</time>
      </trkpt>
      <trkpt lat="60.115646287892" lon="21.526868654436">
        <ele>0</ele>
        <time>2016-07-19T11:23:20Z</time>
      </trkpt>
      <trkpt lat="60.115649473014" lon="21.526881394924">
        <ele>0</ele>
        <time>2016-07-19T11:23:21Z</time>
      </trkpt>
      <trkpt lat="60.11565316105" lon="21.526893967774">
        <ele>0</ele>
        <time>2016-07-19T11:23:22Z</time>
      </trkpt>
      <trkpt lat="60.11565651381" lon="21.526899583647">
        <ele>0</ele>
        <time>2016-07-19T11:23:23Z</time>
      </trkpt>
      <trkpt lat="60.115653831602" lon="21.526893716317">
        <ele>0</ele>
        <time>2016-07-19T11:23:24Z</time>
      </trkpt>
      <trkpt lat="60.115658106371" lon="21.526905786253">
        <ele>0</ele>
        <time>2016-07-19T11:23:25Z</time>
      </trkpt>
      <trkpt lat="60.115660201846" lon="21.526909474289">
        <ele>0</ele>
        <time>2016-07-19T11:23:26Z</time>
      </trkpt>
      <trkpt lat="60.115662297321" lon="21.526924058795">
        <ele>0</ele>
        <time>2016-07-19T11:23:27Z</time>
      </trkpt>
      <trkpt lat="60.115662213502" lon="21.526934117075">
        <ele>0</ele>
        <time>2016-07-19T11:23:28Z</time>
      </trkpt>
      <trkpt lat="60.115662213502" lon="21.526926405727">
        <ele>0</ele>
        <time>2016-07-19T11:23:29Z</time>
      </trkpt>
      <trkpt lat="60.115663638425" lon="21.526937721292">
        <ele>0</ele>
        <time>2016-07-19T11:23:30Z</time>
      </trkpt>
    </trkseg>
  </trk>
</gpx>